<?xml version='1.0' encoding='UTF-8'?><gpx version="1.1" creator="JPX - https://github.com/jenetics/jpx" xmlns="http://www.topografix.com/GPX/1/1"><trk><trkseg><trkpt lat="44.42056311134755" lon="8.9469190496379"><ele>14.000000000000002</ele><time>2026-04-11T07:21:01Z</time></trkpt><trkpt lat="44.4205467672911" lon="8.946776217493067"><ele>14.0</ele><time>2026-04-11T07:21:06Z</time></trkpt><trkpt lat="44.42050149949053" lon="8.946861152867431"><ele>14.0</ele><time>2026-04-11T07:21:14Z</time></trkpt><trkpt lat="44.42055492021416" lon="8.946932516429644"><ele>14.0</ele><time>2026-04-11T07:21:23Z</time></trkpt><trkpt lat="44.420597887970246" lon="8.946852895250085"><ele>14.000000000000002</ele><time>2026-04-11T07:21:47.999Z</time></trkpt><trkpt lat="44.420671209370774" lon="8.94682121841718"><ele>14.0</ele><time>2026-04-11T07:21:50.999Z</time></trkpt><trkpt lat="44.42073656211555" lon="8.946798543312696"><ele>14.0</ele><time>2026-04-11T07:21:52.999Z</time></trkpt><trkpt lat="44.420802628304344" lon="8.94678392296596"><ele>13.999999999999998</ele><time>2026-04-11T07:21:54.999Z</time></trkpt><trkpt lat="44.42087353762406" lon="8.946756622554757"><ele>13.999999999999998</ele><time>2026-04-11T07:21:56.999Z</time></trkpt><trkpt lat="44.420942290973045" lon="8.946731279430239"><ele>14.0</ele><time>2026-04-11T07:21:58.999Z</time></trkpt><trkpt lat="44.421017291946924" lon="8.946718621559713"><ele>14.0</ele><time>2026-04-11T07:22:00.999Z</time></trkpt><trkpt lat="44.42123765595082" lon="8.946716741141477"><ele>14.0</ele><time>2026-04-11T07:22:10.999Z</time></trkpt><trkpt lat="44.42143728735582" lon="8.946723116330404"><ele>14.0</ele><time>2026-04-11T07:22:15.999Z</time></trkpt><trkpt lat="44.42153205255237" lon="8.946748427512883"><ele>14.0</ele><time>2026-04-11T07:22:17.999Z</time></trkpt><trkpt lat="44.42162081504719" lon="8.946769773220373"><ele>14.0</ele><time>2026-04-11T07:22:19.999Z</time></trkpt><trkpt lat="44.42170931369425" lon="8.94678271110007"><ele>14.0</ele><time>2026-04-11T07:22:21.999Z</time></trkpt><trkpt lat="44.42179315293888" lon="8.946792187125128"><ele>13.999999999999998</ele><time>2026-04-11T07:22:23.999Z</time></trkpt><trkpt lat="44.421872103937204" lon="8.946796305321106"><ele>13.999999999999998</ele><time>2026-04-11T07:22:25.999Z</time></trkpt><trkpt lat="44.42194940287219" lon="8.94680463730822"><ele>14.0</ele><time>2026-04-11T07:22:27.999Z</time></trkpt><trkpt lat="44.42202979192538" lon="8.946823553625215"><ele>14.0</ele><time>2026-04-11T07:22:29.999Z</time></trkpt><trkpt lat="44.42216572390446" lon="8.946840212951464"><ele>14.2</ele><time>2026-04-11T07:22:33.999Z</time></trkpt><trkpt lat="44.422259465340495" lon="8.946842463273546"><ele>14.399999999999999</ele><time>2026-04-11T07:22:36.999Z</time></trkpt><trkpt lat="44.42233695302442" lon="8.946868930098002"><ele>14.6</ele><time>2026-04-11T07:22:38.999Z</time></trkpt><trkpt lat="44.42241585833617" lon="8.94692748428304"><ele>14.8</ele><time>2026-04-11T07:22:41.999Z</time></trkpt><trkpt lat="44.422599355880166" lon="8.946949354071643"><ele>15.0</ele><time>2026-04-11T07:22:55.999Z</time></trkpt><trkpt lat="44.42266381333242" lon="8.946980898550734"><ele>15.0</ele><time>2026-04-11T07:22:57.999Z</time></trkpt><trkpt lat="44.422738402365084" lon="8.94698141076542"><ele>15.0</ele><time>2026-04-11T07:23:00.999Z</time></trkpt><trkpt lat="44.4228030861433" lon="8.946991522616115"><ele>15.0</ele><time>2026-04-11T07:23:02.999Z</time></trkpt><trkpt lat="44.42289460796257" lon="8.947004654833098"><ele>15.0</ele><time>2026-04-11T07:23:04.999Z</time></trkpt><trkpt lat="44.42305287690536" lon="8.947036331047991"><ele>15.0</ele><time>2026-04-11T07:23:08.999Z</time></trkpt><trkpt lat="44.42312634992398" lon="8.947050784027933"><ele>15.285714285714286</ele><time>2026-04-11T07:23:10.999Z</time></trkpt><trkpt lat="44.42319073826084" lon="8.94705922354793"><ele>15.57142857142857</ele><time>2026-04-11T07:23:12.999Z</time></trkpt><trkpt lat="44.42327073495576" lon="8.947074265787794"><ele>15.857142857142856</ele><time>2026-04-11T07:23:15.999Z</time></trkpt><trkpt lat="44.42333113056523" lon="8.947099265298435"><ele>16.142857142857142</ele><time>2026-04-11T07:23:17.999Z</time></trkpt><trkpt lat="44.4233981760456" lon="8.9471139864079"><ele>16.428571428571427</ele><time>2026-04-11T07:23:19.999Z</time></trkpt><trkpt lat="44.42346621055964" lon="8.947129008251586"><ele>16.71428571428571</ele><time>2026-04-11T07:23:21.999Z</time></trkpt><trkpt lat="44.42353690377536" lon="8.947137088996683"><ele>17.0</ele><time>2026-04-11T07:23:23.999Z</time></trkpt><trkpt lat="44.42360243468633" lon="8.947131402769205"><ele>17.0</ele><time>2026-04-11T07:23:25.999Z</time></trkpt><trkpt lat="44.4236801700168" lon="8.947144788680518"><ele>17.0</ele><time>2026-04-11T07:23:27.999Z</time></trkpt><trkpt lat="44.423745030510084" lon="8.947180059472764"><ele>17.0</ele><time>2026-04-11T07:23:29.999Z</time></trkpt><trkpt lat="44.42385287782756" lon="8.94716879370264"><ele>17.0</ele><time>2026-04-11T07:23:31.999Z</time></trkpt><trkpt lat="44.42394079675712" lon="8.947190851893502"><ele>17.0</ele><time>2026-04-11T07:23:34.999Z</time></trkpt><trkpt lat="44.424003775459184" lon="8.947208932322201"><ele>17.0</ele><time>2026-04-11T07:23:36.999Z</time></trkpt><trkpt lat="44.424087347799635" lon="8.947226909942023"><ele>17.57142857142857</ele><time>2026-04-11T07:23:39.999Z</time></trkpt><trkpt lat="44.424124850588726" lon="8.947330453486263"><ele>18.142857142857142</ele><time>2026-04-11T07:23:43.999Z</time></trkpt><trkpt lat="44.42419285238542" lon="8.94733834825409"><ele>18.714285714285715</ele><time>2026-04-11T07:23:45.999Z</time></trkpt><trkpt lat="44.42421347822358" lon="8.94743061195108"><ele>19.285714285714285</ele><time>2026-04-11T07:23:47.999Z</time></trkpt><trkpt lat="44.42422462255479" lon="8.947524748347403"><ele>19.857142857142858</ele><time>2026-04-11T07:23:49.999Z</time></trkpt><trkpt lat="44.42428193922343" lon="8.947577579629945"><ele>20.428571428571427</ele><time>2026-04-11T07:23:51.999Z</time></trkpt><trkpt lat="44.424344200624546" lon="8.947600393840311"><ele>21.0</ele><time>2026-04-11T07:23:53.999Z</time></trkpt><trkpt lat="44.42441158018852" lon="8.947604835750871"><ele>21.333333333333332</ele><time>2026-04-11T07:23:55.999Z</time></trkpt><trkpt lat="44.42451507815913" lon="8.947605956368132"><ele>21.666666666666668</ele><time>2026-04-11T07:23:58.999Z</time></trkpt><trkpt lat="44.42458465869737" lon="8.947624720677315"><ele>22.0</ele><time>2026-04-11T07:24:00.999Z</time></trkpt><trkpt lat="44.424653716148924" lon="8.947634577401262"><ele>22.333333333333336</ele><time>2026-04-11T07:24:02.999Z</time></trkpt><trkpt lat="44.42472235202566" lon="8.9476436501654"><ele>22.666666666666668</ele><time>2026-04-11T07:24:04.999Z</time></trkpt><trkpt lat="44.424795201753135" lon="8.947663063039156"><ele>23.0</ele><time>2026-04-11T07:24:06.999Z</time></trkpt><trkpt lat="44.424866929286196" lon="8.947678709192848"><ele>23.166666666666668</ele><time>2026-04-11T07:24:08.999Z</time></trkpt><trkpt lat="44.424938368892526" lon="8.947688609712152"><ele>23.333333333333336</ele><time>2026-04-11T07:24:10.999Z</time></trkpt><trkpt lat="44.425010712730646" lon="8.947702222547283"><ele>23.5</ele><time>2026-04-11T07:24:12.999Z</time></trkpt><trkpt lat="44.4251487549077" lon="8.947703101888523"><ele>23.666666666666668</ele><time>2026-04-11T07:24:16.999Z</time></trkpt><trkpt lat="44.42521989610658" lon="8.947729673302428"><ele>23.833333333333332</ele><time>2026-04-11T07:24:18.999Z</time></trkpt><trkpt lat="44.42528678041454" lon="8.947766968783252"><ele>24.0</ele><time>2026-04-11T07:24:20.999Z</time></trkpt><trkpt lat="44.425342959471415" lon="8.947836512360698"><ele>23.999999999999996</ele><time>2026-04-11T07:24:22.999Z</time></trkpt><trkpt lat="44.42536137477702" lon="8.94794591691158"><ele>24.0</ele><time>2026-04-11T07:24:24.999Z</time></trkpt><trkpt lat="44.42537062085879" lon="8.948047585868874"><ele>24.0</ele><time>2026-04-11T07:24:26.999Z</time></trkpt><trkpt lat="44.4253718959766" lon="8.94815307080622"><ele>24.0</ele><time>2026-04-11T07:24:29.999Z</time></trkpt><trkpt lat="44.42536065279451" lon="8.948240522145408"><ele>24.0</ele><time>2026-04-11T07:24:31.999Z</time></trkpt><trkpt lat="44.425344396520394" lon="8.948326326140924"><ele>23.999999999999996</ele><time>2026-04-11T07:24:33.999Z</time></trkpt><trkpt lat="44.42529758951477" lon="8.948393021417488"><ele>24.0</ele><time>2026-04-11T07:24:36.999Z</time></trkpt><trkpt lat="44.425244452563376" lon="8.948453710788066"><ele>24.833333333333332</ele><time>2026-04-11T07:24:40.999Z</time></trkpt><trkpt lat="44.425255828869474" lon="8.948567333358335"><ele>25.666666666666664</ele><time>2026-04-11T07:24:56.998Z</time></trkpt><trkpt lat="44.42532082174501" lon="8.948635654626008"><ele>26.5</ele><time>2026-04-11T07:24:59.998Z</time></trkpt><trkpt lat="44.425353506008754" lon="8.948747837547627"><ele>27.333333333333332</ele><time>2026-04-11T07:25:03.999Z</time></trkpt><trkpt lat="44.425349165625" lon="8.948847848242224"><ele>28.166666666666664</ele><time>2026-04-11T07:25:05.999Z</time></trkpt><trkpt lat="44.42533797748058" lon="8.948972606245535"><ele>29.0</ele><time>2026-04-11T07:25:08.999Z</time></trkpt><trkpt lat="44.425340833622464" lon="8.949074886295726"><ele>29.0</ele><time>2026-04-11T07:25:13.999Z</time></trkpt><trkpt lat="44.42534668003905" lon="8.949163837439281"><ele>29.0</ele><time>2026-04-11T07:25:16.999Z</time></trkpt><trkpt lat="44.425386234290166" lon="8.949248295505136"><ele>29.0</ele><time>2026-04-11T07:25:19.999Z</time></trkpt><trkpt lat="44.42532852049453" lon="8.949382443547666"><ele>29.0</ele><time>2026-04-11T07:26:04.999Z</time></trkpt><trkpt lat="44.42541751462827" lon="8.949433008783283"><ele>29.0</ele><time>2026-04-11T07:26:07.999Z</time></trkpt><trkpt lat="44.4255658752731" lon="8.949450286849963"><ele>31.333333333333332</ele><time>2026-04-11T07:26:11.999Z</time></trkpt><trkpt lat="44.42582069739594" lon="8.94944302545796"><ele>33.666666666666664</ele><time>2026-04-11T07:26:16.999Z</time></trkpt><trkpt lat="44.42592267565787" lon="8.949449307902993"><ele>36.0</ele><time>2026-04-11T07:26:18.999Z</time></trkpt><trkpt lat="44.42601935051095" lon="8.949473176099458"><ele>36.0</ele><time>2026-04-11T07:26:20.999Z</time></trkpt><trkpt lat="44.4261157951587" lon="8.949485744395178"><ele>36.0</ele><time>2026-04-11T07:26:22.999Z</time></trkpt><trkpt lat="44.426210106406494" lon="8.949500312107848"><ele>36.0</ele><time>2026-04-11T07:26:24.999Z</time></trkpt><trkpt lat="44.42630818643657" lon="8.949502801967412"><ele>36.0</ele><time>2026-04-11T07:26:26.999Z</time></trkpt><trkpt lat="44.426398976105844" lon="8.949516000023038"><ele>36.0</ele><time>2026-04-11T07:26:28.999Z</time></trkpt><trkpt lat="44.42648942857259" lon="8.949538255026933"><ele>35.333333333333336</ele><time>2026-04-11T07:26:30.999Z</time></trkpt><trkpt lat="44.426581515769556" lon="8.949551249928236"><ele>34.666666666666664</ele><time>2026-04-11T07:26:32.999Z</time></trkpt><trkpt lat="44.42665820676115" lon="8.94958028264311"><ele>34.0</ele><time>2026-04-11T07:26:34.999Z</time></trkpt><trkpt lat="44.42672143641846" lon="8.94963066639367"><ele>33.33333333333333</ele><time>2026-04-11T07:26:36.999Z</time></trkpt><trkpt lat="44.42677012550392" lon="8.94972852362311"><ele>32.666666666666664</ele><time>2026-04-11T07:26:38.999Z</time></trkpt><trkpt lat="44.426826834352894" lon="8.94983731265461"><ele>32.0</ele><time>2026-04-11T07:26:40.999Z</time></trkpt><trkpt lat="44.42688831906424" lon="8.949949112829628"><ele>34.0</ele><time>2026-04-11T07:26:42.999Z</time></trkpt><trkpt lat="44.42694331221634" lon="8.950065074502927"><ele>36.0</ele><time>2026-04-11T07:26:44.999Z</time></trkpt><trkpt lat="44.42700309290371" lon="8.950181268168238"><ele>38.0</ele><time>2026-04-11T07:26:46.999Z</time></trkpt><trkpt lat="44.427054136190094" lon="8.950307926555215"><ele>40.0</ele><time>2026-04-11T07:26:48.999Z</time></trkpt><trkpt lat="44.42709748907851" lon="8.950438148913745"><ele>42.0</ele><time>2026-04-11T07:26:50.999Z</time></trkpt><trkpt lat="44.427143343252645" lon="8.950566511466965"><ele>39.2</ele><time>2026-04-11T07:26:52.999Z</time></trkpt><trkpt lat="44.42718160286444" lon="8.950700310364402"><ele>36.400000000000006</ele><time>2026-04-11T07:26:54.999Z</time></trkpt><trkpt lat="44.42723147777361" lon="8.950833420035638"><ele>33.599999999999994</ele><time>2026-04-11T07:26:56.998Z</time></trkpt><trkpt lat="44.427254974705576" lon="8.950968254359541"><ele>30.799999999999997</ele><time>2026-04-11T07:26:58.998Z</time></trkpt><trkpt lat="44.427290521559485" lon="8.951088016635417"><ele>28.0</ele><time>2026-04-11T07:27:00.998Z</time></trkpt><trkpt lat="44.42731877586189" lon="8.951224769217363"><ele>28.0</ele><time>2026-04-11T07:27:02.998Z</time></trkpt><trkpt lat="44.42734398513635" lon="8.951360091068187"><ele>27.999999999999996</ele><time>2026-04-11T07:27:04.999Z</time></trkpt><trkpt lat="44.42737392805275" lon="8.951495739883134"><ele>27.999999999999996</ele><time>2026-04-11T07:27:06.999Z</time></trkpt><trkpt lat="44.427407776790666" lon="8.951630117278077"><ele>28.0</ele><time>2026-04-11T07:27:08.999Z</time></trkpt><trkpt lat="44.427437222252166" lon="8.951766282197886"><ele>28.0</ele><time>2026-04-11T07:27:10.999Z</time></trkpt><trkpt lat="44.427463875109446" lon="8.951902083552367"><ele>30.599999999999998</ele><time>2026-04-11T07:27:12.999Z</time></trkpt><trkpt lat="44.42750417463047" lon="8.95202713266064"><ele>33.199999999999996</ele><time>2026-04-11T07:27:14.999Z</time></trkpt><trkpt lat="44.427544843291834" lon="8.952151402683224"><ele>35.8</ele><time>2026-04-11T07:27:16.999Z</time></trkpt><trkpt lat="44.42757112245219" lon="8.952282353232208"><ele>38.4</ele><time>2026-04-11T07:27:18.999Z</time></trkpt><trkpt lat="44.42759069760588" lon="8.952411192285497"><ele>41.0</ele><time>2026-04-11T07:27:20.999Z</time></trkpt><trkpt lat="44.427617867791355" lon="8.952539823107177"><ele>43.599999999999994</ele><time>2026-04-11T07:27:22.999Z</time></trkpt><trkpt lat="44.427642358216346" lon="8.95267492338551"><ele>46.2</ele><time>2026-04-11T07:27:24.999Z</time></trkpt><trkpt lat="44.42766720978298" lon="8.952812427404728"><ele>48.800000000000004</ele><time>2026-04-11T07:27:26.999Z</time></trkpt><trkpt lat="44.427701735678355" lon="8.952945857547967"><ele>51.400000000000006</ele><time>2026-04-11T07:27:28.999Z</time></trkpt><trkpt lat="44.427724277454075" lon="8.953079810490099"><ele>54.0</ele><time>2026-04-11T07:27:30.999Z</time></trkpt><trkpt lat="44.42774631248572" lon="8.953214737510656"><ele>54.0</ele><time>2026-04-11T07:27:32.999Z</time></trkpt><trkpt lat="44.427773623569564" lon="8.953346622482886"><ele>54.00000000000001</ele><time>2026-04-11T07:27:34.999Z</time></trkpt><trkpt lat="44.427804210635806" lon="8.95348022341824"><ele>54.00000000000001</ele><time>2026-04-11T07:27:36.999Z</time></trkpt><trkpt lat="44.427833600353345" lon="8.953609314891175"><ele>54.0</ele><time>2026-04-11T07:27:38.999Z</time></trkpt><trkpt lat="44.42785469920208" lon="8.95374501628586"><ele>54.0</ele><time>2026-04-11T07:27:40.999Z</time></trkpt><trkpt lat="44.4278923834216" lon="8.953873460477773"><ele>56.400000000000006</ele><time>2026-04-11T07:27:42.999Z</time></trkpt><trkpt lat="44.42791694954515" lon="8.95400339942371"><ele>58.800000000000004</ele><time>2026-04-11T07:27:44.999Z</time></trkpt><trkpt lat="44.42795563447893" lon="8.9541278481079"><ele>61.199999999999996</ele><time>2026-04-11T07:27:46.999Z</time></trkpt><trkpt lat="44.42798447826" lon="8.954253145166454"><ele>63.599999999999994</ele><time>2026-04-11T07:27:48.999Z</time></trkpt><trkpt lat="44.42801875582892" lon="8.954376624633769"><ele>66.0</ele><time>2026-04-11T07:27:50.999Z</time></trkpt><trkpt lat="44.42806312621128" lon="8.954500845577746"><ele>60.199999999999996</ele><time>2026-04-11T07:27:52.999Z</time></trkpt><trkpt lat="44.428102774727755" lon="8.954622997597399"><ele>54.39999999999999</ele><time>2026-04-11T07:27:54.999Z</time></trkpt><trkpt lat="44.42814279781355" lon="8.954743917701528"><ele>48.6</ele><time>2026-04-11T07:27:57Z</time></trkpt><trkpt lat="44.4281834375763" lon="8.954867214594172"><ele>42.8</ele><time>2026-04-11T07:27:59Z</time></trkpt><trkpt lat="44.42822458224779" lon="8.95497912986418"><ele>37.0</ele><time>2026-04-11T07:28:01Z</time></trkpt><trkpt lat="44.42827742109954" lon="8.955084354843772"><ele>37.0</ele><time>2026-04-11T07:28:03Z</time></trkpt><trkpt lat="44.42831667689075" lon="8.955199247534503"><ele>37.0</ele><time>2026-04-11T07:28:05Z</time></trkpt><trkpt lat="44.42836197392496" lon="8.955311823185294"><ele>37.0</ele><time>2026-04-11T07:28:07Z</time></trkpt><trkpt lat="44.42840754916069" lon="8.955421773400197"><ele>37.0</ele><time>2026-04-11T07:28:09Z</time></trkpt><trkpt lat="44.428451110547094" lon="8.955532605877623"><ele>37.0</ele><time>2026-04-11T07:28:11Z</time></trkpt><trkpt lat="44.42849341570194" lon="8.955636862408035"><ele>37.0</ele><time>2026-04-11T07:28:13Z</time></trkpt><trkpt lat="44.42853993827478" lon="8.955733589439829"><ele>37.0</ele><time>2026-04-11T07:28:15Z</time></trkpt><trkpt lat="44.428591270112136" lon="8.955821255332463"><ele>37.0</ele><time>2026-04-11T07:28:17Z</time></trkpt><trkpt lat="44.42864619819965" lon="8.955907515210841"><ele>37.0</ele><time>2026-04-11T07:28:19Z</time></trkpt><trkpt lat="44.42869610501362" lon="8.956006085168088"><ele>37.0</ele><time>2026-04-11T07:28:21Z</time></trkpt><trkpt lat="44.42875092851336" lon="8.95610751122589"><ele>37.0</ele><time>2026-04-11T07:28:23Z</time></trkpt><trkpt lat="44.428803808978365" lon="8.95620442674624"><ele>36.16666666666667</ele><time>2026-04-11T07:28:25Z</time></trkpt><trkpt lat="44.42885310741604" lon="8.956304003951505"><ele>35.333333333333336</ele><time>2026-04-11T07:28:27Z</time></trkpt><trkpt lat="44.42891168455563" lon="8.956405276981512"><ele>34.5</ele><time>2026-04-11T07:28:29Z</time></trkpt><trkpt lat="44.42896671770891" lon="8.956507215228772"><ele>33.666666666666664</ele><time>2026-04-11T07:28:31Z</time></trkpt><trkpt lat="44.42902667823042" lon="8.956596170092162"><ele>32.83333333333333</ele><time>2026-04-11T07:28:33Z</time></trkpt><trkpt lat="44.42908711505712" lon="8.956688097050836"><ele>32.0</ele><time>2026-04-11T07:28:35Z</time></trkpt><trkpt lat="44.42914913983094" lon="8.9567766139355"><ele>32.0</ele><time>2026-04-11T07:28:37Z</time></trkpt><trkpt lat="44.42921368789555" lon="8.956863913563732"><ele>32.0</ele><time>2026-04-11T07:28:39Z</time></trkpt><trkpt lat="44.42926746257802" lon="8.95696409617422"><ele>32.0</ele><time>2026-04-11T07:28:41Z</time></trkpt><trkpt lat="44.42933832530264" lon="8.957051120718376"><ele>32.0</ele><time>2026-04-11T07:28:43Z</time></trkpt><trkpt lat="44.42940497733028" lon="8.957136712577809"><ele>32.0</ele><time>2026-04-11T07:28:45Z</time></trkpt><trkpt lat="44.429477774944885" lon="8.957218042121404"><ele>31.999999999999996</ele><time>2026-04-11T07:28:47Z</time></trkpt><trkpt lat="44.42954593916824" lon="8.957303689760606"><ele>32.0</ele><time>2026-04-11T07:28:49Z</time></trkpt><trkpt lat="44.429610298697" lon="8.957388374513666"><ele>32.0</ele><time>2026-04-11T07:28:51Z</time></trkpt><trkpt lat="44.42966445766359" lon="8.957478758735924"><ele>32.0</ele><time>2026-04-11T07:28:53Z</time></trkpt><trkpt lat="44.42970961875833" lon="8.9575666343272"><ele>31.999999999999996</ele><time>2026-04-11T07:28:55Z</time></trkpt><trkpt lat="44.429753086335275" lon="8.957637273172862"><ele>32.0</ele><time>2026-04-11T07:28:57Z</time></trkpt><trkpt lat="44.42980954237926" lon="8.957706132587758"><ele>31.333333333333332</ele><time>2026-04-11T07:28:59Z</time></trkpt><trkpt lat="44.429861838168755" lon="8.957765361354967"><ele>30.666666666666664</ele><time>2026-04-11T07:29:01Z</time></trkpt><trkpt lat="44.42992496460925" lon="8.957826067769803"><ele>30.0</ele><time>2026-04-11T07:29:02.999Z</time></trkpt><trkpt lat="44.42998514672614" lon="8.957893904152423"><ele>29.333333333333336</ele><time>2026-04-11T07:29:04.999Z</time></trkpt><trkpt lat="44.43005834481003" lon="8.957964956342341"><ele>28.666666666666668</ele><time>2026-04-11T07:29:07.999Z</time></trkpt><trkpt lat="44.43012136731263" lon="8.958041257884672"><ele>28.0</ele><time>2026-04-11T07:29:11.999Z</time></trkpt><trkpt lat="44.43017973799249" lon="8.958094034859652"><ele>28.0</ele><time>2026-04-11T07:29:15.999Z</time></trkpt><trkpt lat="44.430231293419254" lon="8.958152787140342"><ele>28.0</ele><time>2026-04-11T07:29:17.999Z</time></trkpt><trkpt lat="44.430284794401835" lon="8.958215972077875"><ele>28.0</ele><time>2026-04-11T07:29:19.999Z</time></trkpt><trkpt lat="44.43034494317274" lon="8.958274321886007"><ele>28.0</ele><time>2026-04-11T07:29:21.999Z</time></trkpt><trkpt lat="44.43040723968388" lon="8.958348803362753"><ele>28.0</ele><time>2026-04-11T07:29:23.999Z</time></trkpt><trkpt lat="44.430469760054436" lon="8.958421725016857"><ele>28.0</ele><time>2026-04-11T07:29:25.999Z</time></trkpt><trkpt lat="44.43052575407041" lon="8.958489257779167"><ele>28.0</ele><time>2026-04-11T07:29:27.999Z</time></trkpt><trkpt lat="44.43058560750011" lon="8.958555348216771"><ele>28.666666666666668</ele><time>2026-04-11T07:29:29.999Z</time></trkpt><trkpt lat="44.430642540268394" lon="8.958623954497307"><ele>29.333333333333336</ele><time>2026-04-11T07:29:31.999Z</time></trkpt><trkpt lat="44.43070279048119" lon="8.958694934351438"><ele>30.0</ele><time>2026-04-11T07:29:33.999Z</time></trkpt><trkpt lat="44.43076786192255" lon="8.958760067994957"><ele>30.666666666666664</ele><time>2026-04-11T07:29:35.999Z</time></trkpt><trkpt lat="44.43083280067605" lon="8.958829961276724"><ele>31.333333333333332</ele><time>2026-04-11T07:29:37.999Z</time></trkpt><trkpt lat="44.430899546297105" lon="8.958890961513557"><ele>32.0</ele><time>2026-04-11T07:29:39.999Z</time></trkpt><trkpt lat="44.43096543799829" lon="8.958959581166202"><ele>31.999999999999996</ele><time>2026-04-11T07:29:41.999Z</time></trkpt><trkpt lat="44.43103421227256" lon="8.959040697086035"><ele>32.0</ele><time>2026-04-11T07:29:43.999Z</time></trkpt><trkpt lat="44.43109673385554" lon="8.959120783694292"><ele>32.0</ele><time>2026-04-11T07:29:45.999Z</time></trkpt><trkpt lat="44.431168937562695" lon="8.959203640987504"><ele>32.0</ele><time>2026-04-11T07:29:47.999Z</time></trkpt><trkpt lat="44.43123701709473" lon="8.959278161931204"><ele>31.999999999999996</ele><time>2026-04-11T07:29:49.999Z</time></trkpt><trkpt lat="44.431306620762264" lon="8.959356208379225"><ele>32.0</ele><time>2026-04-11T07:29:52Z</time></trkpt><trkpt lat="44.43137517109781" lon="8.959433336372467"><ele>31.833333333333332</ele><time>2026-04-11T07:29:54Z</time></trkpt><trkpt lat="44.43144059421827" lon="8.959514233668855"><ele>31.666666666666664</ele><time>2026-04-11T07:29:56Z</time></trkpt><trkpt lat="44.431505832187064" lon="8.959596448349592"><ele>31.5</ele><time>2026-04-11T07:29:58Z</time></trkpt><trkpt lat="44.43157499219969" lon="8.959680280796539"><ele>31.333333333333336</ele><time>2026-04-11T07:30:00Z</time></trkpt><trkpt lat="44.43164385200241" lon="8.959758069459921"><ele>31.166666666666668</ele><time>2026-04-11T07:30:02Z</time></trkpt><trkpt lat="44.43171164867745" lon="8.959840929615156"><ele>31.0</ele><time>2026-04-11T07:30:04Z</time></trkpt><trkpt lat="44.431778550124115" lon="8.959916783290105"><ele>31.000000000000004</ele><time>2026-04-11T07:30:06Z</time></trkpt><trkpt lat="44.43184143723027" lon="8.959993636785908"><ele>31.0</ele><time>2026-04-11T07:30:08Z</time></trkpt><trkpt lat="44.43190959968216" lon="8.960073942054"><ele>31.0</ele><time>2026-04-11T07:30:10Z</time></trkpt><trkpt lat="44.431977095845355" lon="8.960144717068248"><ele>31.0</ele><time>2026-04-11T07:30:12Z</time></trkpt><trkpt lat="44.4320448621289" lon="8.960218163335195"><ele>31.000000000000004</ele><time>2026-04-11T07:30:14Z</time></trkpt><trkpt lat="44.43211657819236" lon="8.960294276874286"><ele>31.0</ele><time>2026-04-11T07:30:16Z</time></trkpt><trkpt lat="44.43218678515757" lon="8.960372361277543"><ele>31.333333333333336</ele><time>2026-04-11T07:30:18Z</time></trkpt><trkpt lat="44.43225626477987" lon="8.960445801550813"><ele>31.666666666666668</ele><time>2026-04-11T07:30:20Z</time></trkpt><trkpt lat="44.432329731104204" lon="8.960517960084154"><ele>32.0</ele><time>2026-04-11T07:30:22Z</time></trkpt><trkpt lat="44.432396381930346" lon="8.960592562546445"><ele>32.333333333333336</ele><time>2026-04-11T07:30:24Z</time></trkpt><trkpt lat="44.43246005394573" lon="8.960676104838143"><ele>32.666666666666664</ele><time>2026-04-11T07:30:26Z</time></trkpt><trkpt lat="44.43252773339003" lon="8.960733995951525"><ele>33.0</ele><time>2026-04-11T07:30:28Z</time></trkpt><trkpt lat="44.43259216799784" lon="8.960803527870963"><ele>33.0</ele><time>2026-04-11T07:30:30Z</time></trkpt><trkpt lat="44.43265040912389" lon="8.960862064090747"><ele>33.0</ele><time>2026-04-11T07:30:32Z</time></trkpt><trkpt lat="44.43271559439496" lon="8.960925271767234"><ele>33.0</ele><time>2026-04-11T07:30:34Z</time></trkpt><trkpt lat="44.43277828154596" lon="8.961007830026523"><ele>33.0</ele><time>2026-04-11T07:30:37Z</time></trkpt><trkpt lat="44.432805508224575" lon="8.96110326377152"><ele>33.0</ele><time>2026-04-11T07:30:42Z</time></trkpt><trkpt lat="44.4328656439499" lon="8.961140635534477"><ele>33.0</ele><time>2026-04-11T07:30:44Z</time></trkpt><trkpt lat="44.43292580855499" lon="8.961197368951291"><ele>33.0</ele><time>2026-04-11T07:30:46Z</time></trkpt><trkpt lat="44.43298100224814" lon="8.96125417606152"><ele>32.714285714285715</ele><time>2026-04-11T07:30:48Z</time></trkpt><trkpt lat="44.43303358959719" lon="8.961311470614163"><ele>32.42857142857143</ele><time>2026-04-11T07:30:50Z</time></trkpt><trkpt lat="44.43308671953961" lon="8.961363593455562"><ele>32.142857142857146</ele><time>2026-04-11T07:30:52Z</time></trkpt><trkpt lat="44.43314367033969" lon="8.961419499451207"><ele>31.857142857142858</ele><time>2026-04-11T07:30:54Z</time></trkpt><trkpt lat="44.4331999627866" lon="8.961485020286158"><ele>31.571428571428577</ele><time>2026-04-11T07:30:56Z</time></trkpt><trkpt lat="44.43326928808964" lon="8.961554994930612"><ele>31.28571428571429</ele><time>2026-04-11T07:30:58Z</time></trkpt><trkpt lat="44.4333323322464" lon="8.961631715685371"><ele>31.0</ele><time>2026-04-11T07:31:00Z</time></trkpt><trkpt lat="44.43340026562195" lon="8.961694733734367"><ele>31.000000000000004</ele><time>2026-04-11T07:31:02Z</time></trkpt><trkpt lat="44.43347214524862" lon="8.961753932738727"><ele>31.0</ele><time>2026-04-11T07:31:04Z</time></trkpt><trkpt lat="44.43354983455133" lon="8.96180539322671"><ele>31.0</ele><time>2026-04-11T07:31:06Z</time></trkpt><trkpt lat="44.43363411282229" lon="8.961853021311688"><ele>31.0</ele><time>2026-04-11T07:31:08Z</time></trkpt><trkpt lat="44.43370817952934" lon="8.961918918180823"><ele>31.000000000000004</ele><time>2026-04-11T07:31:09.998Z</time></trkpt><trkpt lat="44.43377814583752" lon="8.961983609790227"><ele>31.0</ele><time>2026-04-11T07:31:11.998Z</time></trkpt><trkpt lat="44.43384762644668" lon="8.962047887245276"><ele>31.000000000000004</ele><time>2026-04-11T07:31:13.998Z</time></trkpt><trkpt lat="44.43391671438496" lon="8.962099239908435"><ele>31.0</ele><time>2026-04-11T07:31:15.998Z</time></trkpt><trkpt lat="44.4339849705211" lon="8.962149558248443"><ele>31.0</ele><time>2026-04-11T07:31:17.998Z</time></trkpt><trkpt lat="44.43405600150817" lon="8.962200533961065"><ele>31.0</ele><time>2026-04-11T07:31:19.998Z</time></trkpt><trkpt lat="44.43412589338924" lon="8.962253955270915"><ele>31.000000000000004</ele><time>2026-04-11T07:31:21.999Z</time></trkpt><trkpt lat="44.43419237829011" lon="8.962305266723186"><ele>31.0</ele><time>2026-04-11T07:31:23.999Z</time></trkpt><trkpt lat="44.4342624690812" lon="8.962348042752444"><ele>31.000000000000004</ele><time>2026-04-11T07:31:25.999Z</time></trkpt><trkpt lat="44.43433620612968" lon="8.962393569951278"><ele>31.0</ele><time>2026-04-11T07:31:27.999Z</time></trkpt><trkpt lat="44.43440910172155" lon="8.96244528837042"><ele>31.0</ele><time>2026-04-11T07:31:29.999Z</time></trkpt><trkpt lat="44.43449847340275" lon="8.962485128452753"><ele>31.0</ele><time>2026-04-11T07:31:31.999Z</time></trkpt><trkpt lat="44.4345739424135" lon="8.962535544465418"><ele>31.000000000000004</ele><time>2026-04-11T07:31:33.999Z</time></trkpt><trkpt lat="44.43464454842631" lon="8.962590515775782"><ele>31.0</ele><time>2026-04-11T07:31:35.999Z</time></trkpt><trkpt lat="44.434722265757955" lon="8.962653823985205"><ele>32.16666666666667</ele><time>2026-04-11T07:31:37.999Z</time></trkpt><trkpt lat="44.43480628247255" lon="8.962693325300307"><ele>33.333333333333336</ele><time>2026-04-11T07:31:39.999Z</time></trkpt><trkpt lat="44.43488121674746" lon="8.962743331122907"><ele>34.5</ele><time>2026-04-11T07:31:41.999Z</time></trkpt><trkpt lat="44.43496175389525" lon="8.962796619439693"><ele>35.666666666666664</ele><time>2026-04-11T07:31:43.999Z</time></trkpt><trkpt lat="44.43504542652675" lon="8.962847738406776"><ele>36.83333333333333</ele><time>2026-04-11T07:31:45.999Z</time></trkpt><trkpt lat="44.43513619706501" lon="8.962880345413808"><ele>38.0</ele><time>2026-04-11T07:31:47.999Z</time></trkpt><trkpt lat="44.43523594807387" lon="8.962907574324142"><ele>38.0</ele><time>2026-04-11T07:31:49.999Z</time></trkpt><trkpt lat="44.43533163585772" lon="8.962951601204125"><ele>38.0</ele><time>2026-04-11T07:31:52Z</time></trkpt><trkpt lat="44.43542156285252" lon="8.9629983524045"><ele>38.0</ele><time>2026-04-11T07:31:54Z</time></trkpt><trkpt lat="44.43551495116413" lon="8.96302293829315"><ele>38.0</ele><time>2026-04-11T07:31:56Z</time></trkpt><trkpt lat="44.435591577913335" lon="8.963093275215511"><ele>38.0</ele><time>2026-04-11T07:31:58Z</time></trkpt><trkpt lat="44.43563760575368" lon="8.963215455004384"><ele>37.0</ele><time>2026-04-11T07:32:00Z</time></trkpt><trkpt lat="44.43570964274272" lon="8.963314653453226"><ele>36.0</ele><time>2026-04-11T07:32:02Z</time></trkpt><trkpt lat="44.43581458105896" lon="8.96333442080447"><ele>35.0</ele><time>2026-04-11T07:32:04Z</time></trkpt><trkpt lat="44.435917817436966" lon="8.96328004226741"><ele>34.0</ele><time>2026-04-11T07:32:06Z</time></trkpt><trkpt lat="44.436025243907515" lon="8.96323586179688"><ele>33.0</ele><time>2026-04-11T07:32:08Z</time></trkpt><trkpt lat="44.4361380345438" lon="8.963233809434426"><ele>33.0</ele><time>2026-04-11T07:32:10Z</time></trkpt><trkpt lat="44.43624464525104" lon="8.963240134226474"><ele>33.0</ele><time>2026-04-11T07:32:12Z</time></trkpt><trkpt lat="44.436348290344796" lon="8.963249969888867"><ele>33.0</ele><time>2026-04-11T07:32:14Z</time></trkpt><trkpt lat="44.436452852505894" lon="8.963260490748878"><ele>33.0</ele><time>2026-04-11T07:32:16Z</time></trkpt><trkpt lat="44.436545610237225" lon="8.963274625984852"><ele>33.0</ele><time>2026-04-11T07:32:18Z</time></trkpt><trkpt lat="44.436637870372664" lon="8.963278449221319"><ele>33.4</ele><time>2026-04-11T07:32:20Z</time></trkpt><trkpt lat="44.4367308495998" lon="8.963297902881292"><ele>33.8</ele><time>2026-04-11T07:32:22Z</time></trkpt><trkpt lat="44.43682003940687" lon="8.96331339498154"><ele>34.2</ele><time>2026-04-11T07:32:24Z</time></trkpt><trkpt lat="44.43690970600494" lon="8.963325053210221"><ele>34.6</ele><time>2026-04-11T07:32:26Z</time></trkpt><trkpt lat="44.437001931663666" lon="8.963355590293023"><ele>35.0</ele><time>2026-04-11T07:32:28Z</time></trkpt><trkpt lat="44.437092466564486" lon="8.963372286668823"><ele>35.5</ele><time>2026-04-11T07:32:30Z</time></trkpt><trkpt lat="44.43717780282317" lon="8.963381226396892"><ele>36.0</ele><time>2026-04-11T07:32:32Z</time></trkpt><trkpt lat="44.43726185816095" lon="8.963390428312847"><ele>36.5</ele><time>2026-04-11T07:32:34Z</time></trkpt><trkpt lat="44.43734825330239" lon="8.963408154367409"><ele>37.0</ele><time>2026-04-11T07:32:36Z</time></trkpt><trkpt lat="44.437434842443956" lon="8.963427253265692"><ele>37.5</ele><time>2026-04-11T07:32:38Z</time></trkpt><trkpt lat="44.43751903587685" lon="8.963448770619687"><ele>38.0</ele><time>2026-04-11T07:32:40Z</time></trkpt><trkpt lat="44.437605922689094" lon="8.963462905490749"><ele>38.0</ele><time>2026-04-11T07:32:42Z</time></trkpt><trkpt lat="44.43769133202174" lon="8.963476523711932"><ele>38.0</ele><time>2026-04-11T07:32:44Z</time></trkpt><trkpt lat="44.43777275490925" lon="8.963496197913654"><ele>38.0</ele><time>2026-04-11T07:32:46Z</time></trkpt><trkpt lat="44.43785728420344" lon="8.963514878704531"><ele>38.0</ele><time>2026-04-11T07:32:48Z</time></trkpt><trkpt lat="44.43793809240947" lon="8.963534568328969"><ele>38.0</ele><time>2026-04-11T07:32:50Z</time></trkpt><trkpt lat="44.43801997673851" lon="8.963559910151584"><ele>38.0</ele><time>2026-04-11T07:32:52Z</time></trkpt><trkpt lat="44.43810353726317" lon="8.963588357692075"><ele>38.0</ele><time>2026-04-11T07:32:54Z</time></trkpt><trkpt lat="44.438186737199366" lon="8.963592210604679"><ele>38.0</ele><time>2026-04-11T07:32:56Z</time></trkpt><trkpt lat="44.43826941887095" lon="8.963613325710972"><ele>38.0</ele><time>2026-04-11T07:32:58Z</time></trkpt><trkpt lat="44.43835717281172" lon="8.963634064430916"><ele>38.0</ele><time>2026-04-11T07:33:00Z</time></trkpt><trkpt lat="44.43844184320843" lon="8.963660915512524"><ele>38.0</ele><time>2026-04-11T07:33:02Z</time></trkpt><trkpt lat="44.43853037613579" lon="8.963690305187717"><ele>38.0</ele><time>2026-04-11T07:33:04Z</time></trkpt><trkpt lat="44.4386129255272" lon="8.96370651611815"><ele>38.0</ele><time>2026-04-11T07:33:06Z</time></trkpt><trkpt lat="44.43869943685431" lon="8.963725622072364"><ele>38.0</ele><time>2026-04-11T07:33:08Z</time></trkpt><trkpt lat="44.43879142162062" lon="8.963734106551005"><ele>38.0</ele><time>2026-04-11T07:33:10Z</time></trkpt><trkpt lat="44.43888187879085" lon="8.963751663390308"><ele>38.0</ele><time>2026-04-11T07:33:12Z</time></trkpt><trkpt lat="44.43897049853059" lon="8.963779618330392"><ele>38.0</ele><time>2026-04-11T07:33:14Z</time></trkpt><trkpt lat="44.439057759375864" lon="8.963817196623047"><ele>37.8</ele><time>2026-04-11T07:33:15.999Z</time></trkpt><trkpt lat="44.43914269212688" lon="8.963848103367852"><ele>37.599999999999994</ele><time>2026-04-11T07:33:17.999Z</time></trkpt><trkpt lat="44.43922386991004" lon="8.963878527612815"><ele>37.400000000000006</ele><time>2026-04-11T07:33:19.999Z</time></trkpt><trkpt lat="44.43931206457592" lon="8.963902671296665"><ele>37.2</ele><time>2026-04-11T07:33:21.999Z</time></trkpt><trkpt lat="44.4394155707407" lon="8.963906187687673"><ele>37.0</ele><time>2026-04-11T07:33:23.999Z</time></trkpt><trkpt lat="44.43951851058249" lon="8.96394802414889"><ele>37.0</ele><time>2026-04-11T07:33:25.999Z</time></trkpt><trkpt lat="44.43961830249554" lon="8.96399190484166"><ele>37.0</ele><time>2026-04-11T07:33:27.999Z</time></trkpt><trkpt lat="44.439717619501565" lon="8.964032443303603"><ele>37.0</ele><time>2026-04-11T07:33:29.999Z</time></trkpt><trkpt lat="44.4398106599967" lon="8.964075845495334"><ele>37.0</ele><time>2026-04-11T07:33:31.999Z</time></trkpt><trkpt lat="44.43990448940444" lon="8.964115465739335"><ele>37.0</ele><time>2026-04-11T07:33:33.999Z</time></trkpt><trkpt lat="44.43999549098058" lon="8.964144575852034"><ele>37.16666666666667</ele><time>2026-04-11T07:33:35.999Z</time></trkpt><trkpt lat="44.44008218592794" lon="8.964181001535627"><ele>37.333333333333336</ele><time>2026-04-11T07:33:37.999Z</time></trkpt><trkpt lat="44.44017071209422" lon="8.964220180549475"><ele>37.5</ele><time>2026-04-11T07:33:39.999Z</time></trkpt><trkpt lat="44.44025497459692" lon="8.96425598599334"><ele>37.666666666666664</ele><time>2026-04-11T07:33:41.999Z</time></trkpt><trkpt lat="44.44033297775596" lon="8.964293488943332"><ele>37.83333333333333</ele><time>2026-04-11T07:33:43.999Z</time></trkpt><trkpt lat="44.440405870366575" lon="8.964332607456212"><ele>38.0</ele><time>2026-04-11T07:33:46Z</time></trkpt><trkpt lat="44.44047442000434" lon="8.964362840700492"><ele>38.42857142857142</ele><time>2026-04-11T07:33:48Z</time></trkpt><trkpt lat="44.4405400073716" lon="8.964401417255603"><ele>38.85714285714286</ele><time>2026-04-11T07:33:50Z</time></trkpt><trkpt lat="44.44060434435629" lon="8.964432316722105"><ele>39.285714285714285</ele><time>2026-04-11T07:33:52Z</time></trkpt><trkpt lat="44.44066667641704" lon="8.964455252371176"><ele>39.71428571428571</ele><time>2026-04-11T07:33:54Z</time></trkpt><trkpt lat="44.44072944290804" lon="8.964493006043446"><ele>40.14285714285714</ele><time>2026-04-11T07:33:56Z</time></trkpt><trkpt lat="44.4407896076526" lon="8.964523099307385"><ele>40.57142857142857</ele><time>2026-04-11T07:33:58Z</time></trkpt><trkpt lat="44.44085074087442" lon="8.964554416095945"><ele>41.0</ele><time>2026-04-11T07:34:00Z</time></trkpt><trkpt lat="44.44091220239788" lon="8.96458782761499"><ele>40.99999999999999</ele><time>2026-04-11T07:34:02Z</time></trkpt><trkpt lat="44.44097249030722" lon="8.96462173345154"><ele>41.0</ele><time>2026-04-11T07:34:04Z</time></trkpt><trkpt lat="44.44105144902499" lon="8.964685018685032"><ele>41.0</ele><time>2026-04-11T07:34:07Z</time></trkpt><trkpt lat="44.441112888645755" lon="8.964719240410147"><ele>41.0</ele><time>2026-04-11T07:34:09Z</time></trkpt><trkpt lat="44.441175310681004" lon="8.964751806151302"><ele>41.0</ele><time>2026-04-11T07:34:11Z</time></trkpt><trkpt lat="44.44123483712192" lon="8.964791016875317"><ele>40.99999999999999</ele><time>2026-04-11T07:34:13Z</time></trkpt><trkpt lat="44.441311521148386" lon="8.964846725098838"><ele>41.0</ele><time>2026-04-11T07:34:16Z</time></trkpt><trkpt lat="44.441377023284886" lon="8.96488869683933"><ele>40.33333333333333</ele><time>2026-04-11T07:34:19Z</time></trkpt><trkpt lat="44.44144887830604" lon="8.96491063854393"><ele>39.666666666666664</ele><time>2026-04-11T07:35:06.001Z</time></trkpt><trkpt lat="44.44145836458236" lon="8.96480572300667"><ele>39.0</ele><time>2026-04-11T07:35:09.001Z</time></trkpt><trkpt lat="44.44146701973606" lon="8.964695829638009"><ele>38.333333333333336</ele><time>2026-04-11T07:35:12.001Z</time></trkpt><trkpt lat="44.44150179044204" lon="8.964601950445784"><ele>37.66666666666667</ele><time>2026-04-11T07:35:15.001Z</time></trkpt><trkpt lat="44.44152485023706" lon="8.96449473123836"><ele>37.0</ele><time>2026-04-11T07:35:18.001Z</time></trkpt><trkpt lat="44.44155882258368" lon="8.96438438475975"><ele>37.0</ele><time>2026-04-11T07:35:20.999Z</time></trkpt><trkpt lat="44.44159380011253" lon="8.964266729431827"><ele>37.0</ele><time>2026-04-11T07:35:23.999Z</time></trkpt><trkpt lat="44.441629699692214" lon="8.964153883912395"><ele>37.0</ele><time>2026-04-11T07:35:26.999Z</time></trkpt><trkpt lat="44.441652843474365" lon="8.964049116090152"><ele>37.0</ele><time>2026-04-11T07:35:29.999Z</time></trkpt><trkpt lat="44.44168594261149" lon="8.963957308510789"><ele>37.0</ele><time>2026-04-11T07:35:32.999Z</time></trkpt><trkpt lat="44.441713149215126" lon="8.963855226356763"><ele>37.0</ele><time>2026-04-11T07:35:35.999Z</time></trkpt><trkpt lat="44.44171219251416" lon="8.963752888981473"><ele>37.142857142857146</ele><time>2026-04-11T07:35:39Z</time></trkpt><trkpt lat="44.44176682150601" lon="8.963707781856499"><ele>37.285714285714285</ele><time>2026-04-11T07:35:41Z</time></trkpt><trkpt lat="44.441836525175525" lon="8.963724609800874"><ele>37.42857142857143</ele><time>2026-04-11T07:35:43Z</time></trkpt><trkpt lat="44.44190366303183" lon="8.963758975672551"><ele>37.57142857142857</ele><time>2026-04-11T07:35:45Z</time></trkpt><trkpt lat="44.44197210658774" lon="8.963794539246054"><ele>37.714285714285715</ele><time>2026-04-11T07:35:47Z</time></trkpt><trkpt lat="44.44203518920264" lon="8.963827521646376"><ele>37.857142857142854</ele><time>2026-04-11T07:35:49Z</time></trkpt><trkpt lat="44.44210082825497" lon="8.963862024463051"><ele>38.0</ele><time>2026-04-11T07:35:51Z</time></trkpt><trkpt lat="44.44217086193326" lon="8.963903404373742"><ele>38.5</ele><time>2026-04-11T07:35:53Z</time></trkpt><trkpt lat="44.44223693220031" lon="8.963941809973528"><ele>39.0</ele><time>2026-04-11T07:35:55Z</time></trkpt><trkpt lat="44.4423097792362" lon="8.96398939287909"><ele>39.5</ele><time>2026-04-11T07:35:57Z</time></trkpt><trkpt lat="44.442375064159116" lon="8.96403338821422"><ele>40.0</ele><time>2026-04-11T07:35:59Z</time></trkpt><trkpt lat="44.44243307340249" lon="8.964082988501596"><ele>40.5</ele><time>2026-04-11T07:36:01Z</time></trkpt><trkpt lat="44.44250070884041" lon="8.964142911508997"><ele>41.0</ele><time>2026-04-11T07:36:03Z</time></trkpt><trkpt lat="44.44257295885436" lon="8.964190042885713"><ele>41.166666666666664</ele><time>2026-04-11T07:36:05Z</time></trkpt><trkpt lat="44.44263964473312" lon="8.964242892521442"><ele>41.33333333333333</ele><time>2026-04-11T07:36:07Z</time></trkpt><trkpt lat="44.44270361909411" lon="8.964302205921351"><ele>41.5</ele><time>2026-04-11T07:36:09Z</time></trkpt><trkpt lat="44.442768844723616" lon="8.964362578463993"><ele>41.666666666666664</ele><time>2026-04-11T07:36:11Z</time></trkpt><trkpt lat="44.442834524514126" lon="8.964430943727397"><ele>41.833333333333336</ele><time>2026-04-11T07:36:13Z</time></trkpt><trkpt lat="44.44289839084729" lon="8.96450083048669"><ele>42.0</ele><time>2026-04-11T07:36:15Z</time></trkpt><trkpt lat="44.442965180418746" lon="8.964568283229507"><ele>42.0</ele><time>2026-04-11T07:36:17Z</time></trkpt><trkpt lat="44.443028179979336" lon="8.964636099610736"><ele>42.0</ele><time>2026-04-11T07:36:19Z</time></trkpt><trkpt lat="44.4430923980562" lon="8.964695011965155"><ele>42.0</ele><time>2026-04-11T07:36:21Z</time></trkpt><trkpt lat="44.44314791083835" lon="8.964749442464518"><ele>42.0</ele><time>2026-04-11T07:36:23Z</time></trkpt><trkpt lat="44.443222224582186" lon="8.964815751591782"><ele>42.0</ele><time>2026-04-11T07:36:26.001Z</time></trkpt><trkpt lat="44.44328625205643" lon="8.96488661381715"><ele>42.0</ele><time>2026-04-11T07:36:29.001Z</time></trkpt><trkpt lat="44.443340806646404" lon="8.964931301644691"><ele>42.0</ele><time>2026-04-11T07:36:37.001Z</time></trkpt><trkpt lat="44.44339279097797" lon="8.964998678535899"><ele>42.0</ele><time>2026-04-11T07:36:43.001Z</time></trkpt><trkpt lat="44.443446057901404" lon="8.965055347698616"><ele>42.0</ele><time>2026-04-11T07:36:45.001Z</time></trkpt><trkpt lat="44.443506003619774" lon="8.965114660132311"><ele>42.0</ele><time>2026-04-11T07:36:47.001Z</time></trkpt><trkpt lat="44.44356613770155" lon="8.965174558286948"><ele>42.0</ele><time>2026-04-11T07:36:49.001Z</time></trkpt><trkpt lat="44.44362953481941" lon="8.965230302435707"><ele>42.0</ele><time>2026-04-11T07:36:51.001Z</time></trkpt><trkpt lat="44.443697980624755" lon="8.965293584220213"><ele>42.0</ele><time>2026-04-11T07:36:53.001Z</time></trkpt><trkpt lat="44.44375352081164" lon="8.965355136888842"><ele>42.142857142857146</ele><time>2026-04-11T07:36:55.001Z</time></trkpt><trkpt lat="44.44381698314844" lon="8.9654103350914"><ele>42.285714285714285</ele><time>2026-04-11T07:36:57.001Z</time></trkpt><trkpt lat="44.443876564435925" lon="8.965475523921869"><ele>42.42857142857143</ele><time>2026-04-11T07:36:59.001Z</time></trkpt><trkpt lat="44.44393870795994" lon="8.965533061350095"><ele>42.57142857142857</ele><time>2026-04-11T07:37:01.001Z</time></trkpt><trkpt lat="44.4440014980771" lon="8.965597594968864"><ele>42.714285714285715</ele><time>2026-04-11T07:37:03.001Z</time></trkpt><trkpt lat="44.4440612762457" lon="8.965657165529308"><ele>42.85714285714286</ele><time>2026-04-11T07:37:05.001Z</time></trkpt><trkpt lat="44.44411797919763" lon="8.96571480734194"><ele>43.0</ele><time>2026-04-11T07:37:07.001Z</time></trkpt><trkpt lat="44.444173949885105" lon="8.965765832210563"><ele>43.00000000000001</ele><time>2026-04-11T07:37:09.001Z</time></trkpt><trkpt lat="44.44422895312793" lon="8.965826654875597"><ele>43.0</ele><time>2026-04-11T07:37:11.001Z</time></trkpt><trkpt lat="44.44428406535212" lon="8.96588754139857"><ele>43.0</ele><time>2026-04-11T07:37:13.001Z</time></trkpt><trkpt lat="44.444363815533016" lon="8.9659685383375"><ele>43.0</ele><time>2026-04-11T07:37:16.001Z</time></trkpt><trkpt lat="44.4444198605436" lon="8.966025373982108"><ele>43.0</ele><time>2026-04-11T07:37:18.001Z</time></trkpt><trkpt lat="44.444469735628424" lon="8.966082598999137"><ele>43.00000000000001</ele><time>2026-04-11T07:37:20.001Z</time></trkpt><trkpt lat="44.444528111632046" lon="8.966136401225523"><ele>43.0</ele><time>2026-04-11T07:37:22.001Z</time></trkpt><trkpt lat="44.44457581944252" lon="8.96619767042982"><ele>42.85714285714286</ele><time>2026-04-11T07:37:24.001Z</time></trkpt><trkpt lat="44.444631562501215" lon="8.966259449818251"><ele>42.714285714285715</ele><time>2026-04-11T07:37:26.002Z</time></trkpt><trkpt lat="44.44468108513857" lon="8.966331305725753"><ele>42.57142857142857</ele><time>2026-04-11T07:37:27.999Z</time></trkpt><trkpt lat="44.444739031581385" lon="8.966396068714928"><ele>42.42857142857143</ele><time>2026-04-11T07:37:29.999Z</time></trkpt><trkpt lat="44.444792890657645" lon="8.966467797563803"><ele>42.285714285714285</ele><time>2026-04-11T07:37:31.999Z</time></trkpt><trkpt lat="44.444847860323065" lon="8.966544676114275"><ele>42.142857142857146</ele><time>2026-04-11T07:37:33.999Z</time></trkpt><trkpt lat="44.44490170676629" lon="8.966620650615319"><ele>42.0</ele><time>2026-04-11T07:37:35.999Z</time></trkpt><trkpt lat="44.444958208849954" lon="8.966690129903215"><ele>41.833333333333336</ele><time>2026-04-11T07:37:37.999Z</time></trkpt><trkpt lat="44.44501702140572" lon="8.966761148683517"><ele>41.666666666666664</ele><time>2026-04-11T07:37:39.999Z</time></trkpt><trkpt lat="44.44507637537184" lon="8.966833330328674"><ele>41.5</ele><time>2026-04-11T07:37:41.999Z</time></trkpt><trkpt lat="44.445126981926386" lon="8.966905695654837"><ele>41.33333333333333</ele><time>2026-04-11T07:37:44Z</time></trkpt><trkpt lat="44.445179358751844" lon="8.966980291733696"><ele>41.166666666666664</ele><time>2026-04-11T07:37:46Z</time></trkpt><trkpt lat="44.4452418659185" lon="8.967051850884987"><ele>41.0</ele><time>2026-04-11T07:37:48Z</time></trkpt><trkpt lat="44.4452984502046" lon="8.967124489310963"><ele>41.0</ele><time>2026-04-11T07:37:50Z</time></trkpt><trkpt lat="44.445357272301365" lon="8.967192619733012"><ele>41.0</ele><time>2026-04-11T07:37:52Z</time></trkpt><trkpt lat="44.445417878428934" lon="8.967259604556393"><ele>41.0</ele><time>2026-04-11T07:37:54Z</time></trkpt><trkpt lat="44.44547202342685" lon="8.967344713012482"><ele>41.0</ele><time>2026-04-11T07:37:56Z</time></trkpt><trkpt lat="44.44554062300881" lon="8.967414689775122"><ele>41.0</ele><time>2026-04-11T07:37:58Z</time></trkpt><trkpt lat="44.44561164438299" lon="8.967476777294724"><ele>41.0</ele><time>2026-04-11T07:38:00Z</time></trkpt><trkpt lat="44.445667424537255" lon="8.96755634522284"><ele>41.42857142857142</ele><time>2026-04-11T07:38:02Z</time></trkpt><trkpt lat="44.445730816279315" lon="8.96762981596635"><ele>41.857142857142854</ele><time>2026-04-11T07:38:04Z</time></trkpt><trkpt lat="44.44578413560764" lon="8.967692794090478"><ele>42.285714285714285</ele><time>2026-04-11T07:38:06Z</time></trkpt><trkpt lat="44.4458392203414" lon="8.967759118844727"><ele>42.71428571428571</ele><time>2026-04-11T07:38:08Z</time></trkpt><trkpt lat="44.44588603557366" lon="8.967847941804973"><ele>43.14285714285714</ele><time>2026-04-11T07:38:10Z</time></trkpt><trkpt lat="44.445929594050746" lon="8.967914135812965"><ele>43.57142857142857</ele><time>2026-04-11T07:38:12Z</time></trkpt><trkpt lat="44.445981168752056" lon="8.967980967694244"><ele>44.0</ele><time>2026-04-11T07:38:15Z</time></trkpt><trkpt lat="44.44603381566712" lon="8.968040717878704"><ele>44.0</ele><time>2026-04-11T07:40:36.001Z</time></trkpt><trkpt lat="44.44609216046062" lon="8.968109707775112"><ele>44.0</ele><time>2026-04-11T07:40:40.001Z</time></trkpt><trkpt lat="44.446145267557945" lon="8.968162351364173"><ele>44.0</ele><time>2026-04-11T07:40:44.001Z</time></trkpt><trkpt lat="44.44620597955183" lon="8.968231370298506"><ele>44.0</ele><time>2026-04-11T07:40:51.001Z</time></trkpt><trkpt lat="44.44627690155072" lon="8.968318836737813"><ele>44.0</ele><time>2026-04-11T07:40:54.001Z</time></trkpt><trkpt lat="44.44632512008222" lon="8.968397305935499"><ele>44.0</ele><time>2026-04-11T07:40:56.001Z</time></trkpt><trkpt lat="44.446366857691686" lon="8.968465967986797"><ele>43.85714285714286</ele><time>2026-04-11T07:40:58.001Z</time></trkpt><trkpt lat="44.44641620869187" lon="8.968528772603836"><ele>43.714285714285715</ele><time>2026-04-11T07:41:00.001Z</time></trkpt><trkpt lat="44.44645819231372" lon="8.96859654106299"><ele>43.57142857142857</ele><time>2026-04-11T07:41:02.001Z</time></trkpt><trkpt lat="44.44650765368996" lon="8.968658543130243"><ele>43.42857142857143</ele><time>2026-04-11T07:41:04.001Z</time></trkpt><trkpt lat="44.446562152563125" lon="8.96871973830279"><ele>43.285714285714285</ele><time>2026-04-11T07:41:06.001Z</time></trkpt><trkpt lat="44.446620576943594" lon="8.968785957781026"><ele>43.142857142857146</ele><time>2026-04-11T07:41:08.001Z</time></trkpt><trkpt lat="44.4466781439429" lon="8.968864883220888"><ele>43.0</ele><time>2026-04-11T07:41:10.001Z</time></trkpt><trkpt lat="44.4467330906806" lon="8.968934324932372"><ele>43.0</ele><time>2026-04-11T07:41:12.001Z</time></trkpt><trkpt lat="44.44678676203559" lon="8.969016061937301"><ele>43.0</ele><time>2026-04-11T07:41:14.001Z</time></trkpt><trkpt lat="44.446847003229664" lon="8.969087890441118"><ele>43.0</ele><time>2026-04-11T07:41:16.001Z</time></trkpt><trkpt lat="44.44689973358972" lon="8.969160650233125"><ele>43.0</ele><time>2026-04-11T07:41:18.002Z</time></trkpt><trkpt lat="44.44695716626184" lon="8.969237938763529"><ele>43.0</ele><time>2026-04-11T07:41:20.002Z</time></trkpt><trkpt lat="44.4470107411791" lon="8.96931458873966"><ele>43.0</ele><time>2026-04-11T07:41:22.002Z</time></trkpt><trkpt lat="44.447073360442104" lon="8.969391891630448"><ele>43.833333333333336</ele><time>2026-04-11T07:41:24.002Z</time></trkpt><trkpt lat="44.447139432196906" lon="8.969472172343094"><ele>44.66666666666667</ele><time>2026-04-11T07:41:26.002Z</time></trkpt><trkpt lat="44.447196342564666" lon="8.969560450056369"><ele>45.5</ele><time>2026-04-11T07:41:28.002Z</time></trkpt><trkpt lat="44.447262232917" lon="8.969627178681796"><ele>46.333333333333336</ele><time>2026-04-11T07:41:30.002Z</time></trkpt><trkpt lat="44.44733044742893" lon="8.969712593787596"><ele>47.166666666666664</ele><time>2026-04-11T07:41:32.002Z</time></trkpt><trkpt lat="44.44739556485049" lon="8.969787476254524"><ele>48.0</ele><time>2026-04-11T07:41:34.002Z</time></trkpt><trkpt lat="44.44746939763663" lon="8.969860568950661"><ele>48.0</ele><time>2026-04-11T07:41:36.002Z</time></trkpt><trkpt lat="44.447532807911486" lon="8.969951532312074"><ele>48.0</ele><time>2026-04-11T07:41:38.002Z</time></trkpt><trkpt lat="44.44760626779601" lon="8.97003087047813"><ele>48.0</ele><time>2026-04-11T07:41:39.999Z</time></trkpt><trkpt lat="44.44767043795588" lon="8.970127640869785"><ele>48.0</ele><time>2026-04-11T07:41:41.999Z</time></trkpt><trkpt lat="44.447746596604794" lon="8.970198275400476"><ele>48.0</ele><time>2026-04-11T07:41:43.999Z</time></trkpt><trkpt lat="44.44782298267226" lon="8.970280272018185"><ele>48.0</ele><time>2026-04-11T07:41:45.999Z</time></trkpt><trkpt lat="44.447893145360574" lon="8.970369949446138"><ele>48.0</ele><time>2026-04-11T07:41:47.999Z</time></trkpt><trkpt lat="44.44795710453237" lon="8.970461975057045"><ele>48.0</ele><time>2026-04-11T07:41:49.999Z</time></trkpt><trkpt lat="44.448016964468714" lon="8.97055358959288"><ele>48.0</ele><time>2026-04-11T07:41:51.999Z</time></trkpt><trkpt lat="44.44808209864664" lon="8.970639127315938"><ele>48.0</ele><time>2026-04-11T07:41:54Z</time></trkpt><trkpt lat="44.448144350069214" lon="8.970729901781597"><ele>48.0</ele><time>2026-04-11T07:41:56Z</time></trkpt><trkpt lat="44.44820791717714" lon="8.970819549679295"><ele>48.0</ele><time>2026-04-11T07:41:58Z</time></trkpt><trkpt lat="44.44827621900031" lon="8.970911865406299"><ele>48.0</ele><time>2026-04-11T07:42:00Z</time></trkpt><trkpt lat="44.44832625985715" lon="8.971013104263738"><ele>48.0</ele><time>2026-04-11T07:42:02Z</time></trkpt><trkpt lat="44.44838144628667" lon="8.971103780009262"><ele>48.0</ele><time>2026-04-11T07:42:04Z</time></trkpt><trkpt lat="44.44844463853036" lon="8.971184196252885"><ele>48.0</ele><time>2026-04-11T07:42:06Z</time></trkpt><trkpt lat="44.448513887867996" lon="8.9712569100152"><ele>48.0</ele><time>2026-04-11T07:42:08Z</time></trkpt><trkpt lat="44.448569687834144" lon="8.971343138516088"><ele>48.0</ele><time>2026-04-11T07:42:10Z</time></trkpt><trkpt lat="44.44862439697166" lon="8.971409963726932"><ele>48.0</ele><time>2026-04-11T07:42:12Z</time></trkpt><trkpt lat="44.44868404101653" lon="8.971491702481243"><ele>48.0</ele><time>2026-04-11T07:42:14Z</time></trkpt><trkpt lat="44.448743708667024" lon="8.971567976009913"><ele>48.0</ele><time>2026-04-11T07:42:16Z</time></trkpt><trkpt lat="44.44879613341679" lon="8.971635512348083"><ele>48.0</ele><time>2026-04-11T07:42:18Z</time></trkpt><trkpt lat="44.44886201388983" lon="8.97167159705985"><ele>47.666666666666664</ele><time>2026-04-11T07:42:20Z</time></trkpt><trkpt lat="44.44892415659154" lon="8.97173535708893"><ele>47.333333333333336</ele><time>2026-04-11T07:42:22Z</time></trkpt><trkpt lat="44.44898417819161" lon="8.971811513449499"><ele>47.0</ele><time>2026-04-11T07:42:24Z</time></trkpt><trkpt lat="44.449040603592856" lon="8.971886268179759"><ele>46.66666666666667</ele><time>2026-04-11T07:42:26Z</time></trkpt><trkpt lat="44.44910293014957" lon="8.971954394532334"><ele>46.333333333333336</ele><time>2026-04-11T07:42:28Z</time></trkpt><trkpt lat="44.449166471521444" lon="8.972026584225878"><ele>46.0</ele><time>2026-04-11T07:42:30Z</time></trkpt><trkpt lat="44.44923806153846" lon="8.972099232882124"><ele>46.0</ele><time>2026-04-11T07:42:32.001Z</time></trkpt><trkpt lat="44.44929340581199" lon="8.972183740604791"><ele>46.0</ele><time>2026-04-11T07:42:34.001Z</time></trkpt><trkpt lat="44.449355746572" lon="8.972252681048445"><ele>46.0</ele><time>2026-04-11T07:42:36.001Z</time></trkpt><trkpt lat="44.44941527419285" lon="8.97232113924035"><ele>46.0</ele><time>2026-04-11T07:42:38.001Z</time></trkpt><trkpt lat="44.449473809796174" lon="8.972394245299354"><ele>46.0</ele><time>2026-04-11T07:42:40.001Z</time></trkpt><trkpt lat="44.449535259964925" lon="8.97245868914046"><ele>46.0</ele><time>2026-04-11T07:42:42.001Z</time></trkpt><trkpt lat="44.44959348996987" lon="8.972533965954957"><ele>46.333333333333336</ele><time>2026-04-11T07:42:44.001Z</time></trkpt><trkpt lat="44.44965466537047" lon="8.972607223530868"><ele>46.66666666666667</ele><time>2026-04-11T07:42:46.001Z</time></trkpt><trkpt lat="44.44970625297378" lon="8.972701742737902"><ele>47.0</ele><time>2026-04-11T07:42:48.001Z</time></trkpt><trkpt lat="44.44975950259648" lon="8.972783054097944"><ele>47.333333333333336</ele><time>2026-04-11T07:42:50.001Z</time></trkpt><trkpt lat="44.449815286494974" lon="8.972857713133514"><ele>47.666666666666664</ele><time>2026-04-11T07:42:52.001Z</time></trkpt><trkpt lat="44.44987129047478" lon="8.972931756112146"><ele>48.0</ele><time>2026-04-11T07:42:54.001Z</time></trkpt><trkpt lat="44.44992239399315" lon="8.973001199383404"><ele>47.99999999999999</ele><time>2026-04-11T07:42:56.001Z</time></trkpt><trkpt lat="44.44997571316368" lon="8.973063944852141"><ele>48.0</ele><time>2026-04-11T07:42:58.001Z</time></trkpt><trkpt lat="44.450030373960374" lon="8.97313562367599"><ele>48.0</ele><time>2026-04-11T07:43:00.001Z</time></trkpt><trkpt lat="44.45008818606508" lon="8.9732048017265"><ele>48.0</ele><time>2026-04-11T07:43:02.001Z</time></trkpt><trkpt lat="44.45013822415121" lon="8.973270388916593"><ele>48.0</ele><time>2026-04-11T07:43:04.001Z</time></trkpt><trkpt lat="44.45019459471036" lon="8.973336666736751"><ele>47.99999999999999</ele><time>2026-04-11T07:43:06.001Z</time></trkpt><trkpt lat="44.45025386172746" lon="8.973397591075075"><ele>48.0</ele><time>2026-04-11T07:43:08.001Z</time></trkpt><trkpt lat="44.45030674557901" lon="8.973471646282965"><ele>48.166666666666664</ele><time>2026-04-11T07:43:10.001Z</time></trkpt><trkpt lat="44.45036539238451" lon="8.97353458367179"><ele>48.33333333333333</ele><time>2026-04-11T07:43:12.001Z</time></trkpt><trkpt lat="44.45042354865483" lon="8.973608176826176"><ele>48.5</ele><time>2026-04-11T07:43:14.001Z</time></trkpt><trkpt lat="44.45047718218611" lon="8.97367990587371"><ele>48.666666666666664</ele><time>2026-04-11T07:43:16.002Z</time></trkpt><trkpt lat="44.45053562331537" lon="8.973751309115798"><ele>48.83333333333333</ele><time>2026-04-11T07:43:18.002Z</time></trkpt><trkpt lat="44.45060719633188" lon="8.973816147109874"><ele>49.0</ele><time>2026-04-11T07:43:20.002Z</time></trkpt><trkpt lat="44.450647749962876" lon="8.973884170504851"><ele>49.142857142857146</ele><time>2026-04-11T07:43:22.002Z</time></trkpt><trkpt lat="44.45070418782501" lon="8.973949193095617"><ele>49.285714285714285</ele><time>2026-04-11T07:43:24.002Z</time></trkpt><trkpt lat="44.45076309413223" lon="8.974016515321347"><ele>49.42857142857143</ele><time>2026-04-11T07:43:26.002Z</time></trkpt><trkpt lat="44.45082133349559" lon="8.974087896647683"><ele>49.57142857142857</ele><time>2026-04-11T07:43:28.002Z</time></trkpt><trkpt lat="44.450879045933455" lon="8.974143635216992"><ele>49.714285714285715</ele><time>2026-04-11T07:43:30.002Z</time></trkpt><trkpt lat="44.45093453419347" lon="8.97420700866359"><ele>49.85714285714286</ele><time>2026-04-11T07:43:32.002Z</time></trkpt><trkpt lat="44.4509979729294" lon="8.974268451756773"><ele>50.0</ele><time>2026-04-11T07:43:34.002Z</time></trkpt><trkpt lat="44.45105889409382" lon="8.97434078655302"><ele>49.50000000000001</ele><time>2026-04-11T07:43:36.002Z</time></trkpt><trkpt lat="44.45111570789547" lon="8.974414118597192"><ele>49.0</ele><time>2026-04-11T07:43:38.002Z</time></trkpt><trkpt lat="44.451173893478945" lon="8.97448623779262"><ele>48.5</ele><time>2026-04-11T07:43:40.002Z</time></trkpt><trkpt lat="44.451233186150596" lon="8.974551757712288"><ele>48.0</ele><time>2026-04-11T07:43:42.002Z</time></trkpt><trkpt lat="44.45129656278753" lon="8.974616602517862"><ele>47.5</ele><time>2026-04-11T07:43:44.002Z</time></trkpt><trkpt lat="44.45135483712528" lon="8.974694519465144"><ele>47.0</ele><time>2026-04-11T07:43:45.999Z</time></trkpt><trkpt lat="44.4514169091568" lon="8.974768916852994"><ele>47.714285714285715</ele><time>2026-04-11T07:43:47.999Z</time></trkpt><trkpt lat="44.4514758403935" lon="8.97483787067213"><ele>48.42857142857143</ele><time>2026-04-11T07:43:49.999Z</time></trkpt><trkpt lat="44.45153073373668" lon="8.974904750938475"><ele>49.14285714285714</ele><time>2026-04-11T07:43:51.999Z</time></trkpt><trkpt lat="44.451596283912906" lon="8.974964348017904"><ele>49.85714285714286</ele><time>2026-04-11T07:43:53.999Z</time></trkpt><trkpt lat="44.45165054552207" lon="8.975043654313598"><ele>50.57142857142858</ele><time>2026-04-11T07:43:55.999Z</time></trkpt><trkpt lat="44.45170907832919" lon="8.97509268102271"><ele>51.285714285714285</ele><time>2026-04-11T07:43:57.999Z</time></trkpt><trkpt lat="44.45175920740707" lon="8.975163321201277"><ele>52.0</ele><time>2026-04-11T07:43:59.999Z</time></trkpt><trkpt lat="44.45179754574459" lon="8.97524913630812"><ele>51.99999999999999</ele><time>2026-04-11T07:44:01.999Z</time></trkpt><trkpt lat="44.45181650102611" lon="8.975355085718462"><ele>52.0</ele><time>2026-04-11T07:44:03.999Z</time></trkpt><trkpt lat="44.45184117731904" lon="8.975450625324559"><ele>52.0</ele><time>2026-04-11T07:44:05.999Z</time></trkpt><trkpt lat="44.451873434309825" lon="8.975550165801293"><ele>52.0</ele><time>2026-04-11T07:44:08Z</time></trkpt><trkpt lat="44.451897771888866" lon="8.975652127789052"><ele>51.99999999999999</ele><time>2026-04-11T07:44:10Z</time></trkpt><trkpt lat="44.45192234465935" lon="8.975766542726875"><ele>52.0</ele><time>2026-04-11T07:44:12Z</time></trkpt><trkpt lat="44.451968429883" lon="8.975862705949998"><ele>52.49999999999999</ele><time>2026-04-11T07:44:14Z</time></trkpt><trkpt lat="44.45201293184022" lon="8.975945834359912"><ele>53.0</ele><time>2026-04-11T07:44:16Z</time></trkpt><trkpt lat="44.45206188855187" lon="8.976030154045958"><ele>53.5</ele><time>2026-04-11T07:44:18Z</time></trkpt><trkpt lat="44.452101602961484" lon="8.97611272377217"><ele>54.0</ele><time>2026-04-11T07:44:20Z</time></trkpt><trkpt lat="44.452145036146796" lon="8.976203095252568"><ele>54.49999999999999</ele><time>2026-04-11T07:44:22Z</time></trkpt><trkpt lat="44.45219332323475" lon="8.9762921709019"><ele>55.0</ele><time>2026-04-11T07:44:24Z</time></trkpt><trkpt lat="44.45224231798602" lon="8.976383818052561"><ele>54.99999999999999</ele><time>2026-04-11T07:44:26Z</time></trkpt><trkpt lat="44.45229398764526" lon="8.976486429684172"><ele>55.0</ele><time>2026-04-11T07:44:28Z</time></trkpt><trkpt lat="44.452347102866284" lon="8.976580672296015"><ele>55.0</ele><time>2026-04-11T07:44:30Z</time></trkpt><trkpt lat="44.45240019425751" lon="8.976686632233148"><ele>55.0</ele><time>2026-04-11T07:44:32Z</time></trkpt><trkpt lat="44.45244774761686" lon="8.976789920377184"><ele>54.99999999999999</ele><time>2026-04-11T07:44:34Z</time></trkpt><trkpt lat="44.45249619220556" lon="8.976889564949971"><ele>55.0</ele><time>2026-04-11T07:44:36Z</time></trkpt><trkpt lat="44.45253543387068" lon="8.976992214023966"><ele>55.4</ele><time>2026-04-11T07:44:38Z</time></trkpt><trkpt lat="44.45258570729082" lon="8.977100051469288"><ele>55.8</ele><time>2026-04-11T07:44:40Z</time></trkpt><trkpt lat="44.45263806266841" lon="8.977209106023288"><ele>56.2</ele><time>2026-04-11T07:44:42.001Z</time></trkpt><trkpt lat="44.45268188781324" lon="8.97732853375075"><ele>56.6</ele><time>2026-04-11T07:44:44.001Z</time></trkpt><trkpt lat="44.45272924100531" lon="8.977442515965672"><ele>57.0</ele><time>2026-04-11T07:44:46.001Z</time></trkpt><trkpt lat="44.452776294582804" lon="8.977564279800852"><ele>57.5</ele><time>2026-04-11T07:44:48.001Z</time></trkpt><trkpt lat="44.45281781112905" lon="8.977680148276846"><ele>58.0</ele><time>2026-04-11T07:44:50.001Z</time></trkpt><trkpt lat="44.452860126514445" lon="8.977778168857254"><ele>58.5</ele><time>2026-04-11T07:44:52.001Z</time></trkpt><trkpt lat="44.45290064781244" lon="8.977882072661558"><ele>59.0</ele><time>2026-04-11T07:44:54.001Z</time></trkpt><trkpt lat="44.45294942273617" lon="8.977988944723627"><ele>59.5</ele><time>2026-04-11T07:44:56.001Z</time></trkpt><trkpt lat="44.45298203164484" lon="8.978100156863263"><ele>60.0</ele><time>2026-04-11T07:44:58.001Z</time></trkpt><trkpt lat="44.45301638292953" lon="8.978204721433018"><ele>60.0</ele><time>2026-04-11T07:45:00.001Z</time></trkpt><trkpt lat="44.453051283661516" lon="8.97831263894395"><ele>60.0</ele><time>2026-04-11T07:45:02.001Z</time></trkpt><trkpt lat="44.45309112573031" lon="8.978415469639177"><ele>60.0</ele><time>2026-04-11T07:45:04.001Z</time></trkpt><trkpt lat="44.45312684032414" lon="8.978517509518955"><ele>60.0</ele><time>2026-04-11T07:45:06.001Z</time></trkpt><trkpt lat="44.453153268866465" lon="8.978617640268515"><ele>60.0</ele><time>2026-04-11T07:45:08.001Z</time></trkpt><trkpt lat="44.45317994396721" lon="8.978713697128443"><ele>60.0</ele><time>2026-04-11T07:45:10.001Z</time></trkpt><trkpt lat="44.453205151522624" lon="8.978806627446462"><ele>60.0</ele><time>2026-04-11T07:45:12.001Z</time></trkpt><trkpt lat="44.4532324227929" lon="8.978893251834151"><ele>60.0</ele><time>2026-04-11T07:45:14.001Z</time></trkpt><trkpt lat="44.45326069984486" lon="8.978988748566417"><ele>60.0</ele><time>2026-04-11T07:45:16.001Z</time></trkpt><trkpt lat="44.453292296268806" lon="8.97906635762313"><ele>60.0</ele><time>2026-04-11T07:45:18.001Z</time></trkpt><trkpt lat="44.45331351353679" lon="8.979155564115459"><ele>60.0</ele><time>2026-04-11T07:45:20.001Z</time></trkpt><trkpt lat="44.45333489580664" lon="8.979240567885126"><ele>60.0</ele><time>2026-04-11T07:45:22.002Z</time></trkpt><trkpt lat="44.45336164044767" lon="8.979324954929144"><ele>60.0</ele><time>2026-04-11T07:45:24.002Z</time></trkpt><trkpt lat="44.4533859950341" lon="8.979408261995147"><ele>59.0</ele><time>2026-04-11T07:45:27.002Z</time></trkpt><trkpt lat="44.45341985391596" lon="8.97951726690202"><ele>58.0</ele><time>2026-04-11T07:45:30.002Z</time></trkpt><trkpt lat="44.45348693317214" lon="8.979732218689682"><ele>57.0</ele><time>2026-04-11T07:45:33.002Z</time></trkpt><trkpt lat="44.453508260164035" lon="8.979830494079431"><ele>56.0</ele><time>2026-04-11T07:45:35.002Z</time></trkpt><trkpt lat="44.45351951198823" lon="8.979942153458422"><ele>55.0</ele><time>2026-04-11T07:45:37.002Z</time></trkpt><trkpt lat="44.45352866132163" lon="8.980043454017782"><ele>54.71428571428571</ele><time>2026-04-11T07:45:39.002Z</time></trkpt><trkpt lat="44.45353312274842" lon="8.980133653459236"><ele>54.42857142857143</ele><time>2026-04-11T07:45:41.002Z</time></trkpt><trkpt lat="44.453540443749624" lon="8.980239683091101"><ele>54.14285714285714</ele><time>2026-04-11T07:45:46.002Z</time></trkpt><trkpt lat="44.453563621659825" lon="8.980334388491796"><ele>53.857142857142854</ele><time>2026-04-11T07:45:49.002Z</time></trkpt><trkpt lat="44.453622975193554" lon="8.980374774147425"><ele>53.57142857142857</ele><time>2026-04-11T07:45:51.999Z</time></trkpt><trkpt lat="44.45368261620525" lon="8.980346096259305"><ele>53.285714285714285</ele><time>2026-04-11T07:45:53.999Z</time></trkpt><trkpt lat="44.45375626260572" lon="8.98027442756091"><ele>53.0</ele><time>2026-04-11T07:45:56.999Z</time></trkpt><trkpt lat="44.453828793358674" lon="8.980220149254198"><ele>54.0</ele><time>2026-04-11T07:45:59.999Z</time></trkpt><trkpt lat="44.4538893789477" lon="8.980164021468461"><ele>55.0</ele><time>2026-04-11T07:46:02.999Z</time></trkpt><trkpt lat="44.45394583428826" lon="8.980117209185407"><ele>56.0</ele><time>2026-04-11T07:46:05.999Z</time></trkpt><trkpt lat="44.454017676026986" lon="8.980080433038058"><ele>57.0</ele><time>2026-04-11T07:46:08.999Z</time></trkpt><trkpt lat="44.45409313982176" lon="8.98008419236296"><ele>58.0</ele><time>2026-04-11T07:46:11.999Z</time></trkpt><trkpt lat="44.45414744740949" lon="8.980176146955873"><ele>59.0</ele><time>2026-04-11T07:46:15Z</time></trkpt><trkpt lat="44.45417149421015" lon="8.98026135817386"><ele>60.0</ele><time>2026-04-11T07:46:17Z</time></trkpt><trkpt lat="44.4541977452377" lon="8.980358405720553"><ele>60.0</ele><time>2026-04-11T07:46:19Z</time></trkpt><trkpt lat="44.454225897931885" lon="8.980459047159252"><ele>60.0</ele><time>2026-04-11T07:46:21Z</time></trkpt><trkpt lat="44.45424801447664" lon="8.980560848972448"><ele>60.0</ele><time>2026-04-11T07:46:23Z</time></trkpt><trkpt lat="44.454276282532305" lon="8.980663013396644"><ele>60.0</ele><time>2026-04-11T07:46:25Z</time></trkpt><trkpt lat="44.45428638832787" lon="8.980776346018638"><ele>60.0</ele><time>2026-04-11T07:46:27Z</time></trkpt><trkpt lat="44.45430196081725" lon="8.980876802408673"><ele>60.0</ele><time>2026-04-11T07:46:29Z</time></trkpt><trkpt lat="44.454323514153494" lon="8.980991184020986"><ele>59.5</ele><time>2026-04-11T07:46:31Z</time></trkpt><trkpt lat="44.45433883187988" lon="8.981101551818172"><ele>59.0</ele><time>2026-04-11T07:46:33Z</time></trkpt><trkpt lat="44.45435521981634" lon="8.981210552970918"><ele>58.5</ele><time>2026-04-11T07:46:35Z</time></trkpt><trkpt lat="44.454368493930815" lon="8.98130816632339"><ele>58.0</ele><time>2026-04-11T07:46:37Z</time></trkpt><trkpt lat="44.454389082855805" lon="8.981407010672124"><ele>57.5</ele><time>2026-04-11T07:46:39Z</time></trkpt><trkpt lat="44.454410771152595" lon="8.981508442226401"><ele>57.0</ele><time>2026-04-11T07:46:41.001Z</time></trkpt><trkpt lat="44.45442805311625" lon="8.981610249735391"><ele>56.833333333333336</ele><time>2026-04-11T07:46:43.001Z</time></trkpt><trkpt lat="44.45443862728893" lon="8.981710109149711"><ele>56.66666666666667</ele><time>2026-04-11T07:46:45.001Z</time></trkpt><trkpt lat="44.45445016815021" lon="8.981816750003533"><ele>56.5</ele><time>2026-04-11T07:46:47.001Z</time></trkpt><trkpt lat="44.454462969883906" lon="8.981933694694618"><ele>56.333333333333336</ele><time>2026-04-11T07:46:49.001Z</time></trkpt><trkpt lat="44.45448886669617" lon="8.982052274815342"><ele>56.16666666666667</ele><time>2026-04-11T07:46:51.001Z</time></trkpt><trkpt lat="44.45449862073194" lon="8.98217793250337"><ele>56.0</ele><time>2026-04-11T07:46:53.001Z</time></trkpt><trkpt lat="44.4545097086778" lon="8.982297987705241"><ele>56.00000000000001</ele><time>2026-04-11T07:46:55.001Z</time></trkpt><trkpt lat="44.45452704708586" lon="8.982424444913978"><ele>56.0</ele><time>2026-04-11T07:46:57.001Z</time></trkpt><trkpt lat="44.454537956610224" lon="8.98254508221973"><ele>56.0</ele><time>2026-04-11T07:46:59.001Z</time></trkpt><trkpt lat="44.45454830000303" lon="8.982659234583839"><ele>56.0</ele><time>2026-04-11T07:47:01.001Z</time></trkpt><trkpt lat="44.454566047782954" lon="8.982773440123504"><ele>56.00000000000001</ele><time>2026-04-11T07:47:03.001Z</time></trkpt><trkpt lat="44.45458418816977" lon="8.982877380255049"><ele>56.0</ele><time>2026-04-11T07:47:05.001Z</time></trkpt><trkpt lat="44.454593106715095" lon="8.982977590887229"><ele>56.16666666666667</ele><time>2026-04-11T07:47:07.001Z</time></trkpt><trkpt lat="44.454613059083854" lon="8.98308577713056"><ele>56.333333333333336</ele><time>2026-04-11T07:47:09.001Z</time></trkpt><trkpt lat="44.454623923234806" lon="8.983194547485132"><ele>56.5</ele><time>2026-04-11T07:47:11.001Z</time></trkpt><trkpt lat="44.45462886934486" lon="8.983297962552452"><ele>56.66666666666667</ele><time>2026-04-11T07:47:13.001Z</time></trkpt><trkpt lat="44.454639745181964" lon="8.983405357072787"><ele>56.833333333333336</ele><time>2026-04-11T07:47:15.002Z</time></trkpt><trkpt lat="44.45465206469483" lon="8.983520985145349"><ele>57.0</ele><time>2026-04-11T07:47:17.002Z</time></trkpt><trkpt lat="44.45465781155959" lon="8.983633506383695"><ele>58.0</ele><time>2026-04-11T07:47:19.002Z</time></trkpt><trkpt lat="44.45465206937029" lon="8.983745938132607"><ele>59.0</ele><time>2026-04-11T07:47:21.002Z</time></trkpt><trkpt lat="44.45467689208752" lon="8.983850036049528"><ele>60.0</ele><time>2026-04-11T07:47:23.002Z</time></trkpt><trkpt lat="44.45468697952622" lon="8.983962146754653"><ele>61.0</ele><time>2026-04-11T07:47:25.002Z</time></trkpt><trkpt lat="44.45470039086306" lon="8.984072821611147"><ele>62.0</ele><time>2026-04-11T07:47:27.002Z</time></trkpt><trkpt lat="44.454712572172696" lon="8.984184839741708"><ele>63.0</ele><time>2026-04-11T07:47:29.002Z</time></trkpt><trkpt lat="44.4547222705278" lon="8.984295517010255"><ele>63.0</ele><time>2026-04-11T07:47:31.002Z</time></trkpt><trkpt lat="44.4547374583058" lon="8.984404613333243"><ele>63.0</ele><time>2026-04-11T07:47:33.002Z</time></trkpt><trkpt lat="44.45474287449638" lon="8.984519881887856"><ele>63.0</ele><time>2026-04-11T07:47:35.002Z</time></trkpt><trkpt lat="44.454756885270704" lon="8.984626630916692"><ele>63.0</ele><time>2026-04-11T07:47:37.002Z</time></trkpt><trkpt lat="44.454771002475596" lon="8.98473191959129"><ele>63.0</ele><time>2026-04-11T07:47:39.002Z</time></trkpt><trkpt lat="44.45477631092054" lon="8.984847887920322"><ele>63.0</ele><time>2026-04-11T07:47:41.002Z</time></trkpt><trkpt lat="44.454776723693435" lon="8.984965875626575"><ele>63.166666666666664</ele><time>2026-04-11T07:47:43.002Z</time></trkpt><trkpt lat="44.454779226813116" lon="8.985084492433396"><ele>63.33333333333333</ele><time>2026-04-11T07:47:45.002Z</time></trkpt><trkpt lat="44.45475961577057" lon="8.98520340555881"><ele>63.5</ele><time>2026-04-11T07:47:47.002Z</time></trkpt><trkpt lat="44.4547476642913" lon="8.985317386426669"><ele>63.666666666666664</ele><time>2026-04-11T07:47:49.002Z</time></trkpt><trkpt lat="44.4547286956672" lon="8.985428913567826"><ele>63.83333333333333</ele><time>2026-04-11T07:47:51.003Z</time></trkpt><trkpt lat="44.45471014357916" lon="8.985538625605374"><ele>64.0</ele><time>2026-04-11T07:47:53.003Z</time></trkpt><trkpt lat="44.4546911305541" lon="8.98564621142737"><ele>63.99999999999999</ele><time>2026-04-11T07:47:55.003Z</time></trkpt><trkpt lat="44.454663690341" lon="8.985755933459343"><ele>64.0</ele><time>2026-04-11T07:47:56.999Z</time></trkpt><trkpt lat="44.454636067378054" lon="8.985862230852847"><ele>64.0</ele><time>2026-04-11T07:47:58.999Z</time></trkpt><trkpt lat="44.454617086919306" lon="8.985971522336705"><ele>64.0</ele><time>2026-04-11T07:48:00.999Z</time></trkpt><trkpt lat="44.454599531631956" lon="8.986082181391543"><ele>63.99999999999999</ele><time>2026-04-11T07:48:02.999Z</time></trkpt><trkpt lat="44.454566461321185" lon="8.986187315158507"><ele>64.0</ele><time>2026-04-11T07:48:04.999Z</time></trkpt><trkpt lat="44.454538428539095" lon="8.986291593421868"><ele>63.666666666666664</ele><time>2026-04-11T07:48:06.999Z</time></trkpt><trkpt lat="44.454518118951896" lon="8.986393963160362"><ele>63.33333333333333</ele><time>2026-04-11T07:48:08.999Z</time></trkpt><trkpt lat="44.45449585741861" lon="8.986500426090423"><ele>63.0</ele><time>2026-04-11T07:48:10.999Z</time></trkpt><trkpt lat="44.45448475220068" lon="8.986613280487383"><ele>62.66666666666667</ele><time>2026-04-11T07:48:12.999Z</time></trkpt><trkpt lat="44.45445954890879" lon="8.986720480203228"><ele>62.333333333333336</ele><time>2026-04-11T07:48:14.999Z</time></trkpt><trkpt lat="44.45443059514424" lon="8.98682473650666"><ele>62.0</ele><time>2026-04-11T07:48:16.999Z</time></trkpt><trkpt lat="44.45440707308088" lon="8.986931199477134"><ele>62.00000000000001</ele><time>2026-04-11T07:48:19Z</time></trkpt><trkpt lat="44.45437675747229" lon="8.987034568851579"><ele>62.0</ele><time>2026-04-11T07:48:21Z</time></trkpt><trkpt lat="44.454344945823955" lon="8.987138510574875"><ele>62.0</ele><time>2026-04-11T07:48:23Z</time></trkpt><trkpt lat="44.45431748993498" lon="8.987248432544915"><ele>62.0</ele><time>2026-04-11T07:48:25Z</time></trkpt><trkpt lat="44.45428424069492" lon="8.987351120436642"><ele>62.00000000000001</ele><time>2026-04-11T07:48:27Z</time></trkpt><trkpt lat="44.45425431694348" lon="8.987457669489702"><ele>62.0</ele><time>2026-04-11T07:48:29Z</time></trkpt><trkpt lat="44.45422399538741" lon="8.987561335311936"><ele>63.833333333333336</ele><time>2026-04-11T07:48:31Z</time></trkpt><trkpt lat="44.454186279478016" lon="8.987659756622575"><ele>65.66666666666667</ele><time>2026-04-11T07:48:33Z</time></trkpt><trkpt lat="44.45415915620003" lon="8.987769035946222"><ele>67.5</ele><time>2026-04-11T07:48:35Z</time></trkpt><trkpt lat="44.45412993534935" lon="8.987874691314936"><ele>69.33333333333333</ele><time>2026-04-11T07:48:37Z</time></trkpt><trkpt lat="44.45410091341525" lon="8.987981240514678"><ele>71.16666666666666</ele><time>2026-04-11T07:48:39Z</time></trkpt><trkpt lat="44.45407474795677" lon="8.988089663287512"><ele>73.0</ele><time>2026-04-11T07:48:41Z</time></trkpt><trkpt lat="44.45404142251796" lon="8.988195009776321"><ele>73.0</ele><time>2026-04-11T07:48:43Z</time></trkpt><trkpt lat="44.45400880123084" lon="8.988298669128476"><ele>73.0</ele><time>2026-04-11T07:48:45.001Z</time></trkpt><trkpt lat="44.45397641493601" lon="8.988399874751346"><ele>73.0</ele><time>2026-04-11T07:48:47.001Z</time></trkpt><trkpt lat="44.453943118362254" lon="8.988505198019155"><ele>73.0</ele><time>2026-04-11T07:48:49.001Z</time></trkpt><trkpt lat="44.45391070619599" lon="8.988608969374846"><ele>73.0</ele><time>2026-04-11T07:48:51.001Z</time></trkpt><trkpt lat="44.45388167332039" lon="8.988714487420363"><ele>73.0</ele><time>2026-04-11T07:48:53.001Z</time></trkpt><trkpt lat="44.453856579348844" lon="8.98881697890991"><ele>73.66666666666666</ele><time>2026-04-11T07:48:55.001Z</time></trkpt><trkpt lat="44.45382601446667" lon="8.988918174238593"><ele>74.33333333333333</ele><time>2026-04-11T07:48:57.001Z</time></trkpt><trkpt lat="44.45379808004683" lon="8.989022483285432"><ele>75.0</ele><time>2026-04-11T07:48:59.001Z</time></trkpt><trkpt lat="44.45376692812857" lon="8.989129985158275"><ele>75.66666666666667</ele><time>2026-04-11T07:49:01.001Z</time></trkpt><trkpt lat="44.453739476182996" lon="8.989238030582019"><ele>76.33333333333334</ele><time>2026-04-11T07:49:03.001Z</time></trkpt><trkpt lat="44.45371158664931" lon="8.989348541146727"><ele>77.0</ele><time>2026-04-11T07:49:05.001Z</time></trkpt><trkpt lat="44.4536810119251" lon="8.989452973248186"><ele>74.83333333333334</ele><time>2026-04-11T07:49:07.001Z</time></trkpt><trkpt lat="44.45365585590589" lon="8.989562105264556"><ele>72.66666666666667</ele><time>2026-04-11T07:49:09.001Z</time></trkpt><trkpt lat="44.453626471152624" lon="8.989662387700163"><ele>70.5</ele><time>2026-04-11T07:49:11.001Z</time></trkpt><trkpt lat="44.45360501977771" lon="8.989766161319043"><ele>68.33333333333333</ele><time>2026-04-11T07:49:13.001Z</time></trkpt><trkpt lat="44.45358032046913" lon="8.989867202219687"><ele>66.16666666666666</ele><time>2026-04-11T07:49:15.001Z</time></trkpt><trkpt lat="44.4535417984589" lon="8.989970845484741"><ele>64.0</ele><time>2026-04-11T07:49:17.002Z</time></trkpt><trkpt lat="44.45351260725835" lon="8.990076574500403"><ele>63.99999999999999</ele><time>2026-04-11T07:49:19.002Z</time></trkpt><trkpt lat="44.453478574416884" lon="8.990184104027383"><ele>64.0</ele><time>2026-04-11T07:49:21.002Z</time></trkpt><trkpt lat="44.45343708087207" lon="8.990286566907905"><ele>64.0</ele><time>2026-04-11T07:49:23.002Z</time></trkpt><trkpt lat="44.45340419584388" lon="8.99039184646797"><ele>64.0</ele><time>2026-04-11T07:49:25.002Z</time></trkpt><trkpt lat="44.4533525288254" lon="8.99049387939372"><ele>63.99999999999999</ele><time>2026-04-11T07:49:27.002Z</time></trkpt><trkpt lat="44.4533163916779" lon="8.990604211004877"><ele>64.0</ele><time>2026-04-11T07:49:29.002Z</time></trkpt><trkpt lat="44.45327242841615" lon="8.990707140703314"><ele>63.99999999999999</ele><time>2026-04-11T07:49:31.002Z</time></trkpt><trkpt lat="44.45322597487556" lon="8.990809048710746"><ele>64.0</ele><time>2026-04-11T07:49:33.002Z</time></trkpt><trkpt lat="44.45317827945671" lon="8.990902667444862"><ele>64.0</ele><time>2026-04-11T07:49:35.002Z</time></trkpt><trkpt lat="44.4531297397988" lon="8.990996751458425"><ele>64.0</ele><time>2026-04-11T07:49:37.002Z</time></trkpt><trkpt lat="44.45307933875375" lon="8.991089966128754"><ele>63.99999999999999</ele><time>2026-04-11T07:49:39.002Z</time></trkpt><trkpt lat="44.45302884280049" lon="8.991182501977153"><ele>64.0</ele><time>2026-04-11T07:49:41.002Z</time></trkpt><trkpt lat="44.45297780452166" lon="8.991268289757791"><ele>63.99999999999999</ele><time>2026-04-11T07:49:43.002Z</time></trkpt><trkpt lat="44.45291690743541" lon="8.991352603274162"><ele>64.0</ele><time>2026-04-11T07:49:45.002Z</time></trkpt><trkpt lat="44.45285691424117" lon="8.99143626057297"><ele>64.0</ele><time>2026-04-11T07:49:47.002Z</time></trkpt><trkpt lat="44.452794745693694" lon="8.991519695157038"><ele>64.0</ele><time>2026-04-11T07:49:49.002Z</time></trkpt><trkpt lat="44.45273111667022" lon="8.991597217171451"><ele>63.99999999999999</ele><time>2026-04-11T07:49:51.003Z</time></trkpt><trkpt lat="44.45267286795508" lon="8.991677126841326"><ele>64.0</ele><time>2026-04-11T07:49:53.003Z</time></trkpt><trkpt lat="44.45260651121645" lon="8.991753898136656"><ele>65.83333333333333</ele><time>2026-04-11T07:49:55.003Z</time></trkpt><trkpt lat="44.45254366549059" lon="8.991831460308388"><ele>67.66666666666666</ele><time>2026-04-11T07:49:57.003Z</time></trkpt><trkpt lat="44.45248477948548" lon="8.991911793366128"><ele>69.5</ele><time>2026-04-11T07:49:59.003Z</time></trkpt><trkpt lat="44.45242793870244" lon="8.991990134532207"><ele>71.33333333333333</ele><time>2026-04-11T07:50:01.003Z</time></trkpt><trkpt lat="44.45237470860447" lon="8.992063505410805"><ele>73.16666666666667</ele><time>2026-04-11T07:50:02.999Z</time></trkpt><trkpt lat="44.45231837494006" lon="8.992143325225285"><ele>75.0</ele><time>2026-04-11T07:50:04.999Z</time></trkpt><trkpt lat="44.452251221204996" lon="8.992210863405596"><ele>75.0</ele><time>2026-04-11T07:50:06.999Z</time></trkpt><trkpt lat="44.452187561654064" lon="8.992276434857562"><ele>75.0</ele><time>2026-04-11T07:50:08.999Z</time></trkpt><trkpt lat="44.45211458747159" lon="8.992341193658188"><ele>75.0</ele><time>2026-04-11T07:50:10.999Z</time></trkpt><trkpt lat="44.45204664407431" lon="8.992401296074512"><ele>75.0</ele><time>2026-04-11T07:50:12.999Z</time></trkpt><trkpt lat="44.4519718997633" lon="8.992445278200073"><ele>75.0</ele><time>2026-04-11T07:50:15Z</time></trkpt><trkpt lat="44.45189153024742" lon="8.992478053299081"><ele>75.0</ele><time>2026-04-11T07:50:17Z</time></trkpt><trkpt lat="44.45180648426366" lon="8.99250774183464"><ele>76.4</ele><time>2026-04-11T07:50:19Z</time></trkpt><trkpt lat="44.45171756744304" lon="8.992526521623612"><ele>77.8</ele><time>2026-04-11T07:50:21Z</time></trkpt><trkpt lat="44.4516275339801" lon="8.992536868028584"><ele>79.19999999999999</ele><time>2026-04-11T07:50:23Z</time></trkpt><trkpt lat="44.451531970427794" lon="8.992525237491321"><ele>80.6</ele><time>2026-04-11T07:50:25Z</time></trkpt><trkpt lat="44.45142897664299" lon="8.99251116203269"><ele>82.0</ele><time>2026-04-11T07:50:27Z</time></trkpt><trkpt lat="44.451335982299334" lon="8.992482134977198"><ele>79.33333333333333</ele><time>2026-04-11T07:50:29Z</time></trkpt><trkpt lat="44.45124567951589" lon="8.992459507324147"><ele>76.66666666666666</ele><time>2026-04-11T07:50:31Z</time></trkpt><trkpt lat="44.45115507311715" lon="8.992438126133402"><ele>74.0</ele><time>2026-04-11T07:50:33Z</time></trkpt><trkpt lat="44.451064170300185" lon="8.99241020861827"><ele>71.33333333333333</ele><time>2026-04-11T07:50:35Z</time></trkpt><trkpt lat="44.45098190910248" lon="8.992380624603584"><ele>68.66666666666667</ele><time>2026-04-11T07:50:37Z</time></trkpt><trkpt lat="44.450897654796705" lon="8.992358698016659"><ele>66.0</ele><time>2026-04-11T07:50:39.001Z</time></trkpt><trkpt lat="44.45081068615103" lon="8.992362250928949"><ele>66.0</ele><time>2026-04-11T07:50:41.001Z</time></trkpt><trkpt lat="44.45072713267538" lon="8.992369763839998"><ele>66.0</ele><time>2026-04-11T07:50:43.001Z</time></trkpt><trkpt lat="44.45064619318637" lon="8.992390147131786"><ele>66.0</ele><time>2026-04-11T07:50:45.001Z</time></trkpt><trkpt lat="44.45057078080119" lon="8.992424934458539"><ele>66.0</ele><time>2026-04-11T07:50:47.001Z</time></trkpt><trkpt lat="44.45049734410047" lon="8.992463585167036"><ele>66.0</ele><time>2026-04-11T07:50:49.001Z</time></trkpt><trkpt lat="44.450427397837366" lon="8.992519613479978"><ele>66.0</ele><time>2026-04-11T07:50:51.001Z</time></trkpt><trkpt lat="44.45036468061362" lon="8.992594894637323"><ele>66.5</ele><time>2026-04-11T07:50:53.001Z</time></trkpt><trkpt lat="44.45030608451254" lon="8.99267423991959"><ele>67.0</ele><time>2026-04-11T07:50:55.001Z</time></trkpt><trkpt lat="44.45026249338527" lon="8.992767382830243"><ele>67.5</ele><time>2026-04-11T07:50:57.001Z</time></trkpt><trkpt lat="44.45020974508102" lon="8.992858431069815"><ele>68.0</ele><time>2026-04-11T07:50:59.001Z</time></trkpt><trkpt lat="44.45016169301262" lon="8.992956443012966"><ele>68.5</ele><time>2026-04-11T07:51:01.001Z</time></trkpt><trkpt lat="44.45011686990534" lon="8.99305814856655"><ele>69.0</ele><time>2026-04-11T07:51:03.001Z</time></trkpt><trkpt lat="44.45006529528971" lon="8.993147161167956"><ele>69.0</ele><time>2026-04-11T07:51:05.001Z</time></trkpt><trkpt lat="44.45001511282626" lon="8.993245098608668"><ele>69.0</ele><time>2026-04-11T07:51:07.001Z</time></trkpt><trkpt lat="44.44997129325955" lon="8.993344761071835"><ele>69.0</ele><time>2026-04-11T07:51:09.002Z</time></trkpt><trkpt lat="44.44992297941749" lon="8.993447910931268"><ele>69.0</ele><time>2026-04-11T07:51:11.002Z</time></trkpt><trkpt lat="44.44987945106357" lon="8.993547949419781"><ele>69.0</ele><time>2026-04-11T07:51:13.002Z</time></trkpt><trkpt lat="44.44983060906573" lon="8.993648480195526"><ele>69.0</ele><time>2026-04-11T07:51:15.002Z</time></trkpt><trkpt lat="44.44978304969912" lon="8.993751325461568"><ele>68.83333333333333</ele><time>2026-04-11T07:51:17.002Z</time></trkpt><trkpt lat="44.44973885084636" lon="8.99385789795397"><ele>68.66666666666667</ele><time>2026-04-11T07:51:19.002Z</time></trkpt><trkpt lat="44.44969070159889" lon="8.993957426866707"><ele>68.5</ele><time>2026-04-11T07:51:21.002Z</time></trkpt><trkpt lat="44.4496487728585" lon="8.994057222887674"><ele>68.33333333333334</ele><time>2026-04-11T07:51:23.002Z</time></trkpt><trkpt lat="44.449616429892195" lon="8.994168343124578"><ele>68.16666666666667</ele><time>2026-04-11T07:51:25.002Z</time></trkpt><trkpt lat="44.449583973630475" lon="8.994281394076078"><ele>68.0</ele><time>2026-04-11T07:51:27.002Z</time></trkpt><trkpt lat="44.44955735456162" lon="8.99439794849553"><ele>68.33333333333334</ele><time>2026-04-11T07:51:29.002Z</time></trkpt><trkpt lat="44.449527001536715" lon="8.994513179216845"><ele>68.66666666666667</ele><time>2026-04-11T07:51:31.002Z</time></trkpt><trkpt lat="44.44950127424394" lon="8.994633592000188"><ele>69.0</ele><time>2026-04-11T07:51:33.002Z</time></trkpt><trkpt lat="44.449477822069845" lon="8.994748362066574"><ele>69.33333333333333</ele><time>2026-04-11T07:51:35.002Z</time></trkpt><trkpt lat="44.44947200919769" lon="8.994872286895587"><ele>69.66666666666666</ele><time>2026-04-11T07:51:37.002Z</time></trkpt><trkpt lat="44.4494421200992" lon="8.994988478858424"><ele>70.0</ele><time>2026-04-11T07:51:39.002Z</time></trkpt><trkpt lat="44.44941021103697" lon="8.995107369246458"><ele>70.6</ele><time>2026-04-11T07:51:41.003Z</time></trkpt><trkpt lat="44.44939401029475" lon="8.995227812153018"><ele>71.2</ele><time>2026-04-11T07:51:43.003Z</time></trkpt><trkpt lat="44.44936209610054" lon="8.995347194481372"><ele>71.8</ele><time>2026-04-11T07:51:45.003Z</time></trkpt><trkpt lat="44.44933805112638" lon="8.995467484922088"><ele>72.4</ele><time>2026-04-11T07:51:47.003Z</time></trkpt><trkpt lat="44.44929749982184" lon="8.995583993824855"><ele>73.0</ele><time>2026-04-11T07:51:49.003Z</time></trkpt><trkpt lat="44.44926235183807" lon="8.995701721536577"><ele>73.0</ele><time>2026-04-11T07:51:51.003Z</time></trkpt><trkpt lat="44.44922694974112" lon="8.995819041256443"><ele>73.0</ele><time>2026-04-11T07:51:53.003Z</time></trkpt><trkpt lat="44.44919721233061" lon="8.995934128060458"><ele>73.0</ele><time>2026-04-11T07:51:55.003Z</time></trkpt><trkpt lat="44.44916684911536" lon="8.996049168600193"><ele>73.0</ele><time>2026-04-11T07:51:57.003Z</time></trkpt><trkpt lat="44.4491366980155" lon="8.996154030084107"><ele>73.0</ele><time>2026-04-11T07:51:59.003Z</time></trkpt><trkpt lat="44.44910583984293" lon="8.996268829185675"><ele>73.0</ele><time>2026-04-11T07:52:01.003Z</time></trkpt><trkpt lat="44.44908098811592" lon="8.996381185146369"><ele>73.5</ele><time>2026-04-11T07:52:03.003Z</time></trkpt><trkpt lat="44.44905874478013" lon="8.9964908731303"><ele>74.0</ele><time>2026-04-11T07:52:05.003Z</time></trkpt><trkpt lat="44.449031725851334" lon="8.99660568023415"><ele>74.5</ele><time>2026-04-11T07:52:07.003Z</time></trkpt><trkpt lat="44.44900627444353" lon="8.996714713376221"><ele>75.0</ele><time>2026-04-11T07:52:08.999Z</time></trkpt><trkpt lat="44.448973666617476" lon="8.996827722982129"><ele>75.5</ele><time>2026-04-11T07:52:10.999Z</time></trkpt><trkpt lat="44.44893280924635" lon="8.996935573226587"><ele>76.0</ele><time>2026-04-11T07:52:13Z</time></trkpt><trkpt lat="44.44889960010541" lon="8.997042822082902"><ele>76.16666666666666</ele><time>2026-04-11T07:52:15Z</time></trkpt><trkpt lat="44.44885920512897" lon="8.997142792962912"><ele>76.33333333333333</ele><time>2026-04-11T07:52:17Z</time></trkpt><trkpt lat="44.448829097436196" lon="8.997244345453412"><ele>76.5</ele><time>2026-04-11T07:52:19Z</time></trkpt><trkpt lat="44.44880214133445" lon="8.997361323615415"><ele>76.66666666666667</ele><time>2026-04-11T07:52:21Z</time></trkpt><trkpt lat="44.44877430479292" lon="8.997479473446129"><ele>76.83333333333334</ele><time>2026-04-11T07:52:23Z</time></trkpt><trkpt lat="44.4487401344265" lon="8.997598723843147"><ele>77.0</ele><time>2026-04-11T07:52:25Z</time></trkpt><trkpt lat="44.44871520316441" lon="8.997719202017434"><ele>76.0</ele><time>2026-04-11T07:52:27Z</time></trkpt><trkpt lat="44.44868872401542" lon="8.997833887771586"><ele>75.0</ele><time>2026-04-11T07:52:29Z</time></trkpt><trkpt lat="44.44866088748796" lon="8.997948979056964"><ele>74.0</ele><time>2026-04-11T07:52:31Z</time></trkpt><trkpt lat="44.44862937399017" lon="8.998062091896204"><ele>73.0</ele><time>2026-04-11T07:52:33Z</time></trkpt><trkpt lat="44.44859414073621" lon="8.998173983088403"><ele>72.0</ele><time>2026-04-11T07:52:35Z</time></trkpt><trkpt lat="44.448565428779" lon="8.998289084512072"><ele>71.0</ele><time>2026-04-11T07:52:37Z</time></trkpt><trkpt lat="44.448529858815306" lon="8.9984039889224"><ele>71.0</ele><time>2026-04-11T07:52:39Z</time></trkpt><trkpt lat="44.44849724688603" lon="8.998520704734915"><ele>71.0</ele><time>2026-04-11T07:52:41Z</time></trkpt><trkpt lat="44.44846156963308" lon="8.998637529078993"><ele>71.0</ele><time>2026-04-11T07:52:43Z</time></trkpt><trkpt lat="44.44844038028459" lon="8.998759204626596"><ele>71.0</ele><time>2026-04-11T07:52:45.001Z</time></trkpt><trkpt lat="44.44839917379846" lon="8.99887149060595"><ele>71.0</ele><time>2026-04-11T07:52:47.001Z</time></trkpt><trkpt lat="44.448363434301875" lon="8.998983648675186"><ele>71.0</ele><time>2026-04-11T07:52:49.001Z</time></trkpt><trkpt lat="44.44833579107001" lon="8.99909701279275"><ele>71.66666666666667</ele><time>2026-04-11T07:52:51.001Z</time></trkpt><trkpt lat="44.4483071231085" lon="8.999205075515455"><ele>72.33333333333334</ele><time>2026-04-11T07:52:53.001Z</time></trkpt><trkpt lat="44.448273779035866" lon="8.999316105592028"><ele>73.0</ele><time>2026-04-11T07:52:55.001Z</time></trkpt><trkpt lat="44.4482493508127" lon="8.999423182741086"><ele>73.66666666666667</ele><time>2026-04-11T07:52:57.001Z</time></trkpt><trkpt lat="44.44822354196544" lon="8.999530511244862"><ele>74.33333333333333</ele><time>2026-04-11T07:52:59.001Z</time></trkpt><trkpt lat="44.44820426905767" lon="8.999636446684105"><ele>75.0</ele><time>2026-04-11T07:53:01.001Z</time></trkpt><trkpt lat="44.44818074092229" lon="8.9997434029473"><ele>75.0</ele><time>2026-04-11T07:53:03.001Z</time></trkpt><trkpt lat="44.448151164234254" lon="8.999851586085047"><ele>75.0</ele><time>2026-04-11T07:53:05.001Z</time></trkpt><trkpt lat="44.44812782821353" lon="8.999963632896769"><ele>75.0</ele><time>2026-04-11T07:53:07.001Z</time></trkpt><trkpt lat="44.448097557942" lon="9.000078702803608"><ele>75.0</ele><time>2026-04-11T07:53:09.001Z</time></trkpt><trkpt lat="44.44807282328849" lon="9.000188657144982"><ele>75.0</ele><time>2026-04-11T07:53:11.001Z</time></trkpt><trkpt lat="44.44803906209065" lon="9.000287264732318"><ele>75.0</ele><time>2026-04-11T07:53:13.001Z</time></trkpt><trkpt lat="44.44801326690916" lon="9.000393468048168"><ele>75.0</ele><time>2026-04-11T07:53:15.001Z</time></trkpt><trkpt lat="44.44798578906646" lon="9.000495852158778"><ele>75.0</ele><time>2026-04-11T07:53:17.002Z</time></trkpt><trkpt lat="44.447958811904044" lon="9.000592510998308"><ele>75.0</ele><time>2026-04-11T07:53:19.002Z</time></trkpt><trkpt lat="44.44794557140741" lon="9.00069342300955"><ele>75.0</ele><time>2026-04-11T07:53:21.002Z</time></trkpt><trkpt lat="44.44792647146247" lon="9.000797100442808"><ele>75.0</ele><time>2026-04-11T07:53:23.002Z</time></trkpt><trkpt lat="44.44790179878336" lon="9.0009027470301"><ele>75.0</ele><time>2026-04-11T07:53:25.002Z</time></trkpt><trkpt lat="44.4478699818524" lon="9.001011830180547"><ele>74.16666666666667</ele><time>2026-04-11T07:53:27.002Z</time></trkpt><trkpt lat="44.44782020008281" lon="9.00110161586776"><ele>73.33333333333333</ele><time>2026-04-11T07:53:29.002Z</time></trkpt><trkpt lat="44.44778606481653" lon="9.001203476157814"><ele>72.5</ele><time>2026-04-11T07:53:31.002Z</time></trkpt><trkpt lat="44.44776383504507" lon="9.001302335607383"><ele>71.66666666666666</ele><time>2026-04-11T07:53:33.002Z</time></trkpt><trkpt lat="44.44774665252049" lon="9.001416440170763"><ele>70.83333333333333</ele><time>2026-04-11T07:53:35.002Z</time></trkpt><trkpt lat="44.447727258274455" lon="9.001528957754438"><ele>70.0</ele><time>2026-04-11T07:53:37.002Z</time></trkpt><trkpt lat="44.44770570988084" lon="9.001638070903295"><ele>70.0</ele><time>2026-04-11T07:53:39.002Z</time></trkpt><trkpt lat="44.447685966156364" lon="9.001750493413704"><ele>70.0</ele><time>2026-04-11T07:53:41.002Z</time></trkpt><trkpt lat="44.44767248184994" lon="9.00186173173923"><ele>70.0</ele><time>2026-04-11T07:53:43.002Z</time></trkpt><trkpt lat="44.44765504249141" lon="9.00197309111413"><ele>70.0</ele><time>2026-04-11T07:53:45.002Z</time></trkpt><trkpt lat="44.447641697530905" lon="9.00208695689207"><ele>70.0</ele><time>2026-04-11T07:53:47.002Z</time></trkpt><trkpt lat="44.44763112780219" lon="9.002200129770339"><ele>70.0</ele><time>2026-04-11T07:53:49.003Z</time></trkpt><trkpt lat="44.4476202818126" lon="9.002312754251392"><ele>70.0</ele><time>2026-04-11T07:53:51.003Z</time></trkpt><trkpt lat="44.44761045838234" lon="9.002435044420313"><ele>70.0</ele><time>2026-04-11T07:53:53.003Z</time></trkpt><trkpt lat="44.44759783582406" lon="9.002552618654061"><ele>70.0</ele><time>2026-04-11T07:53:55.003Z</time></trkpt><trkpt lat="44.447588144149954" lon="9.002670102245148"><ele>70.0</ele><time>2026-04-11T07:53:57.003Z</time></trkpt><trkpt lat="44.447573352677374" lon="9.002779227074972"><ele>70.0</ele><time>2026-04-11T07:53:59.003Z</time></trkpt><trkpt lat="44.447570328389325" lon="9.002899244596913"><ele>70.0</ele><time>2026-04-11T07:54:01.003Z</time></trkpt><trkpt lat="44.44756952911784" lon="9.003013767340619"><ele>70.16666666666666</ele><time>2026-04-11T07:54:03.003Z</time></trkpt><trkpt lat="44.447575959452884" lon="9.003136826210676"><ele>70.33333333333333</ele><time>2026-04-11T07:54:05.003Z</time></trkpt><trkpt lat="44.44758328578462" lon="9.003250671487184"><ele>70.5</ele><time>2026-04-11T07:54:07.003Z</time></trkpt><trkpt lat="44.44758577457225" lon="9.00337071981774"><ele>70.66666666666667</ele><time>2026-04-11T07:54:09.003Z</time></trkpt><trkpt lat="44.44759071129143" lon="9.00349230812534"><ele>70.83333333333334</ele><time>2026-04-11T07:54:11.003Z</time></trkpt><trkpt lat="44.4476016459601" lon="9.003612388024708"><ele>71.0</ele><time>2026-04-11T07:54:13.003Z</time></trkpt><trkpt lat="44.44759293311252" lon="9.003723875304793"><ele>71.33333333333334</ele><time>2026-04-11T07:54:14.999Z</time></trkpt><trkpt lat="44.44758239456082" lon="9.003838877781389"><ele>71.66666666666667</ele><time>2026-04-11T07:54:17Z</time></trkpt><trkpt lat="44.44759292240581" lon="9.003949960254701"><ele>72.0</ele><time>2026-04-11T07:54:19Z</time></trkpt><trkpt lat="44.447602188306014" lon="9.004064934823337"><ele>72.33333333333333</ele><time>2026-04-11T07:54:21Z</time></trkpt><trkpt lat="44.44761884452217" lon="9.004178497241142"><ele>72.66666666666666</ele><time>2026-04-11T07:54:23Z</time></trkpt><trkpt lat="44.4476384164891" lon="9.004287811802516"><ele>73.0</ele><time>2026-04-11T07:54:25Z</time></trkpt><trkpt lat="44.44765842530251" lon="9.004399687305721"><ele>73.16666666666666</ele><time>2026-04-11T07:54:27Z</time></trkpt><trkpt lat="44.44767068023797" lon="9.004515879744503"><ele>73.33333333333333</ele><time>2026-04-11T07:54:29Z</time></trkpt><trkpt lat="44.447687256679146" lon="9.004624301166952"><ele>73.5</ele><time>2026-04-11T07:54:31Z</time></trkpt><trkpt lat="44.447715609796205" lon="9.004737187384041"><ele>73.66666666666667</ele><time>2026-04-11T07:54:33Z</time></trkpt><trkpt lat="44.4477395799381" lon="9.004850416297462"><ele>73.83333333333334</ele><time>2026-04-11T07:54:35Z</time></trkpt><trkpt lat="44.447766624527446" lon="9.004962183730068"><ele>74.0</ele><time>2026-04-11T07:54:37Z</time></trkpt><trkpt lat="44.44777847889449" lon="9.00506746512724"><ele>74.16666666666667</ele><time>2026-04-11T07:54:39Z</time></trkpt><trkpt lat="44.4478114934377" lon="9.005179972890469"><ele>74.33333333333334</ele><time>2026-04-11T07:54:41Z</time></trkpt><trkpt lat="44.447817986227776" lon="9.005286803368218"><ele>74.5</ele><time>2026-04-11T07:54:43Z</time></trkpt><trkpt lat="44.4478295215636" lon="9.005396598221882"><ele>74.66666666666667</ele><time>2026-04-11T07:54:45Z</time></trkpt><trkpt lat="44.447857277936166" lon="9.005495534610025"><ele>74.83333333333333</ele><time>2026-04-11T07:54:47Z</time></trkpt><trkpt lat="44.44787842470264" lon="9.005597361916358"><ele>75.0</ele><time>2026-04-11T07:54:49.001Z</time></trkpt><trkpt lat="44.4479017380446" lon="9.005696122063254"><ele>75.0</ele><time>2026-04-11T07:54:51.001Z</time></trkpt><trkpt lat="44.44792720382406" lon="9.005797393480247"><ele>75.0</ele><time>2026-04-11T07:54:53.001Z</time></trkpt><trkpt lat="44.44795798834058" lon="9.005894755917165"><ele>75.0</ele><time>2026-04-11T07:54:55.001Z</time></trkpt><trkpt lat="44.44798403247137" lon="9.005996198472646"><ele>75.0</ele><time>2026-04-11T07:54:57.001Z</time></trkpt><trkpt lat="44.4479978463151" lon="9.006103756640346"><ele>75.0</ele><time>2026-04-11T07:54:59.001Z</time></trkpt><trkpt lat="44.44804129769406" lon="9.006200965760321"><ele>75.0</ele><time>2026-04-11T07:55:01.001Z</time></trkpt><trkpt lat="44.44808050062214" lon="9.006306801038985"><ele>75.33333333333333</ele><time>2026-04-11T07:55:03.001Z</time></trkpt><trkpt lat="44.44810929663449" lon="9.00642375874891"><ele>75.66666666666667</ele><time>2026-04-11T07:55:05.001Z</time></trkpt><trkpt lat="44.448091136505546" lon="9.006510206593472"><ele>76.0</ele><time>2026-04-11T07:55:07.001Z</time></trkpt><trkpt lat="44.44801555216088" lon="9.006591475671481"><ele>76.33333333333334</ele><time>2026-04-11T07:55:10.001Z</time></trkpt><trkpt lat="44.447953582916426" lon="9.006668858151723"><ele>76.66666666666667</ele><time>2026-04-11T07:55:12.001Z</time></trkpt><trkpt lat="44.44792358832444" lon="9.006760719602354"><ele>77.0</ele><time>2026-04-11T07:55:14.001Z</time></trkpt><trkpt lat="44.44792314456721" lon="9.006869598663124"><ele>77.0</ele><time>2026-04-11T07:55:16.001Z</time></trkpt><trkpt lat="44.447946782025056" lon="9.006963017907243"><ele>77.0</ele><time>2026-04-11T07:55:18.001Z</time></trkpt><trkpt lat="44.447978961484914" lon="9.007061781116757"><ele>77.0</ele><time>2026-04-11T07:55:20.002Z</time></trkpt><trkpt lat="44.44800924670085" lon="9.007153835595005"><ele>77.0</ele><time>2026-04-11T07:55:22.002Z</time></trkpt><trkpt lat="44.44804183745441" lon="9.007247770539571"><ele>77.0</ele><time>2026-04-11T07:55:24.002Z</time></trkpt><trkpt lat="44.44807164395033" lon="9.007345654680655"><ele>77.0</ele><time>2026-04-11T07:55:26.002Z</time></trkpt><trkpt lat="44.44810331560588" lon="9.00743953538496"><ele>77.0</ele><time>2026-04-11T07:55:28.002Z</time></trkpt><trkpt lat="44.44814164041552" lon="9.007521083481699"><ele>77.5</ele><time>2026-04-11T07:55:30.002Z</time></trkpt><trkpt lat="44.44819227834855" lon="9.007605192221865"><ele>78.0</ele><time>2026-04-11T07:55:32.002Z</time></trkpt><trkpt lat="44.44824619519202" lon="9.007685841700928"><ele>78.5</ele><time>2026-04-11T07:55:34.002Z</time></trkpt><trkpt lat="44.44829798547957" lon="9.007772652881254"><ele>79.0</ele><time>2026-04-11T07:55:36.002Z</time></trkpt><trkpt lat="44.44833051948096" lon="9.007878235458945"><ele>79.5</ele><time>2026-04-11T07:55:38.002Z</time></trkpt><trkpt lat="44.44836128010317" lon="9.007983544482615"><ele>80.0</ele><time>2026-04-11T07:55:40.002Z</time></trkpt><trkpt lat="44.44838364142185" lon="9.008100403800096"><ele>80.0</ele><time>2026-04-11T07:55:42.002Z</time></trkpt><trkpt lat="44.4484170909523" lon="9.008217461197935"><ele>80.0</ele><time>2026-04-11T07:55:44.002Z</time></trkpt><trkpt lat="44.448437206671734" lon="9.00833476468842"><ele>80.0</ele><time>2026-04-11T07:55:46.002Z</time></trkpt><trkpt lat="44.44845579925528" lon="9.008449583179463"><ele>80.0</ele><time>2026-04-11T07:55:48.002Z</time></trkpt><trkpt lat="44.448475227900445" lon="9.008569548465497"><ele>80.0</ele><time>2026-04-11T07:55:50.002Z</time></trkpt><trkpt lat="44.448504325832964" lon="9.008687706971795"><ele>80.0</ele><time>2026-04-11T07:55:52.002Z</time></trkpt><trkpt lat="44.448531974533786" lon="9.008808055205003"><ele>79.83333333333334</ele><time>2026-04-11T07:55:54.003Z</time></trkpt><trkpt lat="44.448556255000696" lon="9.008928071337714"><ele>79.66666666666667</ele><time>2026-04-11T07:55:56.003Z</time></trkpt><trkpt lat="44.448582270926934" lon="9.009048863630316"><ele>79.5</ele><time>2026-04-11T07:55:58.003Z</time></trkpt><trkpt lat="44.44861093606784" lon="9.009159496524104"><ele>79.33333333333333</ele><time>2026-04-11T07:56:00.003Z</time></trkpt><trkpt lat="44.44863629295775" lon="9.009279113661465"><ele>79.16666666666666</ele><time>2026-04-11T07:56:02.003Z</time></trkpt><trkpt lat="44.44866236708784" lon="9.009388014995263"><ele>79.0</ele><time>2026-04-11T07:56:04.003Z</time></trkpt><trkpt lat="44.448694038045566" lon="9.009501211961934"><ele>79.0</ele><time>2026-04-11T07:56:06.003Z</time></trkpt><trkpt lat="44.44871409186092" lon="9.009624815377679"><ele>79.0</ele><time>2026-04-11T07:56:08.003Z</time></trkpt><trkpt lat="44.44874278153608" lon="9.009743252556083"><ele>79.0</ele><time>2026-04-11T07:56:10.003Z</time></trkpt><trkpt lat="44.448763851688014" lon="9.009845328991304"><ele>79.0</ele><time>2026-04-11T07:56:12.003Z</time></trkpt><trkpt lat="44.44878470787311" lon="9.00996759285212"><ele>79.0</ele><time>2026-04-11T07:56:14.003Z</time></trkpt><trkpt lat="44.448811588784714" lon="9.010104948333082"><ele>79.0</ele><time>2026-04-11T07:56:16.003Z</time></trkpt><trkpt lat="44.448832086874745" lon="9.010233129703195"><ele>79.66666666666666</ele><time>2026-04-11T07:56:18.003Z</time></trkpt><trkpt lat="44.448859806971775" lon="9.010353597040897"><ele>80.33333333333333</ele><time>2026-04-11T07:56:20.003Z</time></trkpt><trkpt lat="44.44888685222501" lon="9.010463331055348"><ele>81.0</ele><time>2026-04-11T07:56:21.999Z</time></trkpt><trkpt lat="44.448908657585896" lon="9.010583790335401"><ele>81.66666666666667</ele><time>2026-04-11T07:56:24Z</time></trkpt><trkpt lat="44.44892987414046" lon="9.010697112967188"><ele>82.33333333333334</ele><time>2026-04-11T07:56:26Z</time></trkpt><trkpt lat="44.44895686572402" lon="9.01081245001704"><ele>83.0</ele><time>2026-04-11T07:56:28Z</time></trkpt><trkpt lat="44.44898840161897" lon="9.010928835364341"><ele>83.0</ele><time>2026-04-11T07:56:30Z</time></trkpt><trkpt lat="44.44901235121463" lon="9.011046151635673"><ele>83.0</ele><time>2026-04-11T07:56:32Z</time></trkpt><trkpt lat="44.4490395926171" lon="9.011164969212341"><ele>83.0</ele><time>2026-04-11T07:56:34Z</time></trkpt><trkpt lat="44.449063604544776" lon="9.011284201221585"><ele>83.0</ele><time>2026-04-11T07:56:36Z</time></trkpt><trkpt lat="44.449088681705426" lon="9.011408187950918"><ele>83.0</ele><time>2026-04-11T07:56:38Z</time></trkpt><trkpt lat="44.449121858584846" lon="9.01153241121834"><ele>83.0</ele><time>2026-04-11T07:56:40Z</time></trkpt><trkpt lat="44.44914845449933" lon="9.011644958608576"><ele>83.0</ele><time>2026-04-11T07:56:42Z</time></trkpt><trkpt lat="44.44917981654632" lon="9.011765796589305"><ele>83.0</ele><time>2026-04-11T07:56:44Z</time></trkpt><trkpt lat="44.449205703098954" lon="9.011885642459774"><ele>83.0</ele><time>2026-04-11T07:56:46Z</time></trkpt><trkpt lat="44.44923117349517" lon="9.012009158607878"><ele>83.0</ele><time>2026-04-11T07:56:48Z</time></trkpt><trkpt lat="44.44925697227932" lon="9.01212610011481"><ele>83.0</ele><time>2026-04-11T07:56:50Z</time></trkpt><trkpt lat="44.44928491390906" lon="9.012243901418962"><ele>83.33333333333334</ele><time>2026-04-11T07:56:52Z</time></trkpt><trkpt lat="44.44931119154353" lon="9.012361880862366"><ele>83.66666666666667</ele><time>2026-04-11T07:56:54.001Z</time></trkpt><trkpt lat="44.44933462196194" lon="9.012484937705146"><ele>84.0</ele><time>2026-04-11T07:56:56.001Z</time></trkpt><trkpt lat="44.449355197611986" lon="9.01261159442223"><ele>84.33333333333333</ele><time>2026-04-11T07:56:58.001Z</time></trkpt><trkpt lat="44.44938235750306" lon="9.012728895357672"><ele>84.66666666666666</ele><time>2026-04-11T07:57:00.001Z</time></trkpt><trkpt lat="44.44939928424114" lon="9.012850892620714"><ele>85.0</ele><time>2026-04-11T07:57:02.001Z</time></trkpt><trkpt lat="44.44943213216839" lon="9.01296553592187"><ele>84.4</ele><time>2026-04-11T07:57:04.001Z</time></trkpt><trkpt lat="44.44946264215549" lon="9.01308868050875"><ele>83.8</ele><time>2026-04-11T07:57:06.001Z</time></trkpt><trkpt lat="44.449489944630784" lon="9.013212552521324"><ele>83.19999999999999</ele><time>2026-04-11T07:57:08.001Z</time></trkpt><trkpt lat="44.44951921279047" lon="9.013326763723061"><ele>82.6</ele><time>2026-04-11T07:57:10.001Z</time></trkpt><trkpt lat="44.44954153680315" lon="9.01345771060441"><ele>82.0</ele><time>2026-04-11T07:57:12.001Z</time></trkpt><trkpt lat="44.44957575041562" lon="9.013575608395252"><ele>82.0</ele><time>2026-04-11T07:57:14.001Z</time></trkpt><trkpt lat="44.449600967491406" lon="9.01368973376132"><ele>82.0</ele><time>2026-04-11T07:57:16.001Z</time></trkpt><trkpt lat="44.44961856394187" lon="9.013811482231798"><ele>82.0</ele><time>2026-04-11T07:57:18.001Z</time></trkpt><trkpt lat="44.4496417767489" lon="9.013935216748227"><ele>82.0</ele><time>2026-04-11T07:57:20.001Z</time></trkpt><trkpt lat="44.44966423173916" lon="9.01405020534362"><ele>82.0</ele><time>2026-04-11T07:57:22.001Z</time></trkpt><trkpt lat="44.44967981496078" lon="9.014152679299418"><ele>82.0</ele><time>2026-04-11T07:57:24.002Z</time></trkpt><trkpt lat="44.449707651023516" lon="9.014276864081367"><ele>83.33333333333333</ele><time>2026-04-11T07:57:27.002Z</time></trkpt><trkpt lat="44.44972170571104" lon="9.014378605908394"><ele>84.66666666666666</ele><time>2026-04-11T07:57:29.002Z</time></trkpt><trkpt lat="44.44974932938408" lon="9.014481068300611"><ele>86.0</ele><time>2026-04-11T07:57:31.002Z</time></trkpt><trkpt lat="44.44976832889322" lon="9.01460294804343"><ele>87.33333333333333</ele><time>2026-04-11T07:57:33.002Z</time></trkpt><trkpt lat="44.449787600362384" lon="9.014733416474995"><ele>88.66666666666667</ele><time>2026-04-11T07:57:35.002Z</time></trkpt><trkpt lat="44.44980337340521" lon="9.014862719438007"><ele>90.0</ele><time>2026-04-11T07:57:37.002Z</time></trkpt><trkpt lat="44.449811223606936" lon="9.014990534683607"><ele>90.0</ele><time>2026-04-11T07:57:39.002Z</time></trkpt><trkpt lat="44.44982349663174" lon="9.015110921177218"><ele>90.0</ele><time>2026-04-11T07:57:41.002Z</time></trkpt><trkpt lat="44.44983581473963" lon="9.015235916864778"><ele>90.0</ele><time>2026-04-11T07:57:43.002Z</time></trkpt><trkpt lat="44.44984368748577" lon="9.015357006587594"><ele>90.0</ele><time>2026-04-11T07:57:45.002Z</time></trkpt><trkpt lat="44.44984810712892" lon="9.015479883613112"><ele>90.0</ele><time>2026-04-11T07:57:47.002Z</time></trkpt><trkpt lat="44.44984530174237" lon="9.0156020491757"><ele>90.0</ele><time>2026-04-11T07:57:49.002Z</time></trkpt><trkpt lat="44.44985344760957" lon="9.015721345232402"><ele>89.83333333333333</ele><time>2026-04-11T07:57:51.002Z</time></trkpt><trkpt lat="44.44985045691135" lon="9.015843850440755"><ele>89.66666666666667</ele><time>2026-04-11T07:57:53.002Z</time></trkpt><trkpt lat="44.44986140806087" lon="9.015968058308575"><ele>89.5</ele><time>2026-04-11T07:57:55.002Z</time></trkpt><trkpt lat="44.44986043879286" lon="9.016092717704511"><ele>89.33333333333334</ele><time>2026-04-11T07:57:57.003Z</time></trkpt><trkpt lat="44.44986548889368" lon="9.016212137514309"><ele>89.16666666666667</ele><time>2026-04-11T07:57:59.003Z</time></trkpt><trkpt lat="44.44984894033116" lon="9.016322176753969"><ele>89.0</ele><time>2026-04-11T07:58:01.003Z</time></trkpt><trkpt lat="44.4498395786557" lon="9.016410557720484"><ele>89.0</ele><time>2026-04-11T07:58:04.003Z</time></trkpt><trkpt lat="44.449846047595884" lon="9.01652780032129"><ele>89.0</ele><time>2026-04-11T07:58:09.003Z</time></trkpt><trkpt lat="44.44983586738275" lon="9.01665526672841"><ele>89.0</ele><time>2026-04-11T07:58:12.003Z</time></trkpt><trkpt lat="44.44982759628012" lon="9.016746875239804"><ele>89.0</ele><time>2026-04-11T07:58:14.003Z</time></trkpt><trkpt lat="44.44981517863942" lon="9.016838139063754"><ele>89.0</ele><time>2026-04-11T07:58:16.003Z</time></trkpt><trkpt lat="44.449807553894196" lon="9.016941270993756"><ele>89.0</ele><time>2026-04-11T07:58:18.003Z</time></trkpt><trkpt lat="44.449799643132394" lon="9.017052403602948"><ele>89.16666666666667</ele><time>2026-04-11T07:58:20.003Z</time></trkpt><trkpt lat="44.44978924740995" lon="9.017167871169834"><ele>89.33333333333334</ele><time>2026-04-11T07:58:22.003Z</time></trkpt><trkpt lat="44.449783607612034" lon="9.017278920250007"><ele>89.5</ele><time>2026-04-11T07:58:24.003Z</time></trkpt><trkpt lat="44.44978058396053" lon="9.017385545453324"><ele>89.66666666666667</ele><time>2026-04-11T07:58:26.003Z</time></trkpt><trkpt lat="44.4497763734084" lon="9.01749472458322"><ele>89.83333333333333</ele><time>2026-04-11T07:58:28Z</time></trkpt><trkpt lat="44.44976691260701" lon="9.017598247600706"><ele>90.0</ele><time>2026-04-11T07:58:30Z</time></trkpt><trkpt lat="44.44976689921344" lon="9.017702776078679"><ele>90.14285714285714</ele><time>2026-04-11T07:58:32Z</time></trkpt><trkpt lat="44.44975941571292" lon="9.017806952638274"><ele>90.28571428571429</ele><time>2026-04-11T07:58:34Z</time></trkpt><trkpt lat="44.44975259601676" lon="9.01790860811963"><ele>90.42857142857143</ele><time>2026-04-11T07:58:36Z</time></trkpt><trkpt lat="44.449743774161554" lon="9.018012530143794"><ele>90.57142857142857</ele><time>2026-04-11T07:58:38Z</time></trkpt><trkpt lat="44.44973643783341" lon="9.018113581992973"><ele>90.71428571428572</ele><time>2026-04-11T07:58:40Z</time></trkpt><trkpt lat="44.44973078473287" lon="9.01821494502728"><ele>90.85714285714286</ele><time>2026-04-11T07:58:42Z</time></trkpt><trkpt lat="44.449717602916444" lon="9.018320388523774"><ele>91.0</ele><time>2026-04-11T07:58:44Z</time></trkpt><trkpt lat="44.44970079468824" lon="9.018416366561661"><ele>91.16666666666666</ele><time>2026-04-11T07:58:46Z</time></trkpt><trkpt lat="44.44969199879174" lon="9.018526971737247"><ele>91.33333333333333</ele><time>2026-04-11T07:58:48Z</time></trkpt><trkpt lat="44.44968720982752" lon="9.018630171412832"><ele>91.5</ele><time>2026-04-11T07:58:50Z</time></trkpt><trkpt lat="44.449687225598616" lon="9.018733027215559"><ele>91.66666666666667</ele><time>2026-04-11T07:58:52Z</time></trkpt><trkpt lat="44.44967524213658" lon="9.018842638195743"><ele>91.83333333333334</ele><time>2026-04-11T07:58:54Z</time></trkpt><trkpt lat="44.44966628016554" lon="9.018947553098153"><ele>92.0</ele><time>2026-04-11T07:58:56.001Z</time></trkpt><trkpt lat="44.44965278507905" lon="9.019054471056604"><ele>92.14285714285715</ele><time>2026-04-11T07:58:58.001Z</time></trkpt><trkpt lat="44.44963516097315" lon="9.019153207826662"><ele>92.28571428571428</ele><time>2026-04-11T07:59:00.001Z</time></trkpt><trkpt lat="44.44963157855463" lon="9.019253597436013"><ele>92.42857142857143</ele><time>2026-04-11T07:59:02.001Z</time></trkpt><trkpt lat="44.44961770325165" lon="9.019349345293165"><ele>92.57142857142858</ele><time>2026-04-11T07:59:04.001Z</time></trkpt><trkpt lat="44.44961345594489" lon="9.019445267402922"><ele>92.71428571428572</ele><time>2026-04-11T07:59:06.001Z</time></trkpt><trkpt lat="44.44961042430924" lon="9.019541785746881"><ele>92.85714285714286</ele><time>2026-04-11T07:59:08.001Z</time></trkpt><trkpt lat="44.4496072483329" lon="9.019633788882675"><ele>93.0</ele><time>2026-04-11T07:59:10.001Z</time></trkpt><trkpt lat="44.449598474812575" lon="9.019725129874589"><ele>92.57142857142858</ele><time>2026-04-11T07:59:12.001Z</time></trkpt><trkpt lat="44.44960116602314" lon="9.01981940901965"><ele>92.14285714285714</ele><time>2026-04-11T07:59:14.001Z</time></trkpt><trkpt lat="44.44959410493511" lon="9.019917555706128"><ele>91.71428571428572</ele><time>2026-04-11T07:59:16.001Z</time></trkpt><trkpt lat="44.449581768723675" lon="9.020020706637087"><ele>91.28571428571429</ele><time>2026-04-11T07:59:18.001Z</time></trkpt><trkpt lat="44.44956523379455" lon="9.020117669898044"><ele>90.85714285714286</ele><time>2026-04-11T07:59:20.001Z</time></trkpt><trkpt lat="44.44954673290965" lon="9.020217837612803"><ele>90.42857142857143</ele><time>2026-04-11T07:59:22.001Z</time></trkpt><trkpt lat="44.449533919291376" lon="9.02031143206766"><ele>90.0</ele><time>2026-04-11T07:59:24.001Z</time></trkpt><trkpt lat="44.44953165736879" lon="9.020406654053325"><ele>90.0</ele><time>2026-04-11T07:59:26.001Z</time></trkpt><trkpt lat="44.44952086273029" lon="9.020505523492377"><ele>90.0</ele><time>2026-04-11T07:59:28.001Z</time></trkpt><trkpt lat="44.449510438298894" lon="9.020594365992835"><ele>90.0</ele><time>2026-04-11T07:59:30.002Z</time></trkpt><trkpt lat="44.44948295938705" lon="9.020702467646037"><ele>90.0</ele><time>2026-04-11T07:59:37.002Z</time></trkpt><trkpt lat="44.449501756073104" lon="9.020804522487433"><ele>90.0</ele><time>2026-04-11T07:59:40.002Z</time></trkpt><trkpt lat="44.44948104118685" lon="9.02092208299899"><ele>90.0</ele><time>2026-04-11T07:59:43.002Z</time></trkpt><trkpt lat="44.44947526928283" lon="9.021044827066028"><ele>90.0</ele><time>2026-04-11T07:59:46.002Z</time></trkpt><trkpt lat="44.449457708882065" lon="9.021167828124623"><ele>90.0</ele><time>2026-04-11T07:59:49.002Z</time></trkpt><trkpt lat="44.449455767325084" lon="9.021290714016825"><ele>90.0</ele><time>2026-04-11T07:59:52.002Z</time></trkpt><trkpt lat="44.4494332872559" lon="9.021415679474512"><ele>90.0</ele><time>2026-04-11T07:59:55.002Z</time></trkpt><trkpt lat="44.44943046700501" lon="9.021538663050187"><ele>90.0</ele><time>2026-04-11T07:59:58.002Z</time></trkpt><trkpt lat="44.44941665410991" lon="9.021663010171633"><ele>90.0</ele><time>2026-04-11T08:00:01.002Z</time></trkpt><trkpt lat="44.44942634855442" lon="9.021785662012743"><ele>90.0</ele><time>2026-04-11T08:00:04.003Z</time></trkpt><trkpt lat="44.449406525993936" lon="9.021913917523419"><ele>90.0</ele><time>2026-04-11T08:00:07.003Z</time></trkpt><trkpt lat="44.449404926162295" lon="9.02204412706342"><ele>90.0</ele><time>2026-04-11T08:00:10.003Z</time></trkpt><trkpt lat="44.44939937661158" lon="9.022133950276341"><ele>90.0</ele><time>2026-04-11T08:00:12.003Z</time></trkpt><trkpt lat="44.44939032221345" lon="9.022224142343685"><ele>90.0</ele><time>2026-04-11T08:00:14.003Z</time></trkpt><trkpt lat="44.44937898307752" lon="9.022317544691058"><ele>90.0</ele><time>2026-04-11T08:00:16.003Z</time></trkpt><trkpt lat="44.44936583916334" lon="9.022407689210617"><ele>90.0</ele><time>2026-04-11T08:00:18.003Z</time></trkpt><trkpt lat="44.449362254442654" lon="9.02250255747174"><ele>90.71428571428571</ele><time>2026-04-11T08:00:20.003Z</time></trkpt><trkpt lat="44.44935899731562" lon="9.022592663415821"><ele>91.42857142857143</ele><time>2026-04-11T08:00:22.003Z</time></trkpt><trkpt lat="44.44935002930737" lon="9.022680225065857"><ele>92.14285714285714</ele><time>2026-04-11T08:00:24.003Z</time></trkpt><trkpt lat="44.44934015206716" lon="9.02277195968419"><ele>92.85714285714286</ele><time>2026-04-11T08:00:26.003Z</time></trkpt><trkpt lat="44.44933599487179" lon="9.022863000127323"><ele>93.57142857142858</ele><time>2026-04-11T08:00:28.003Z</time></trkpt><trkpt lat="44.449324387987986" lon="9.022954220460761"><ele>94.28571428571429</ele><time>2026-04-11T08:00:30.003Z</time></trkpt><trkpt lat="44.44931754721807" lon="9.023090836673717"><ele>95.0</ele><time>2026-04-11T08:00:33Z</time></trkpt><trkpt lat="44.44931112150488" lon="9.0231826286309"><ele>95.0</ele><time>2026-04-11T08:00:35Z</time></trkpt><trkpt lat="44.449305836305705" lon="9.023275642454959"><ele>95.0</ele><time>2026-04-11T08:00:37Z</time></trkpt><trkpt lat="44.44929478186753" lon="9.02336726764275"><ele>95.0</ele><time>2026-04-11T08:00:39Z</time></trkpt><trkpt lat="44.44929931676917" lon="9.023465262233918"><ele>95.0</ele><time>2026-04-11T08:00:41Z</time></trkpt><trkpt lat="44.44929027886443" lon="9.023561244021831"><ele>95.0</ele><time>2026-04-11T08:00:43Z</time></trkpt><trkpt lat="44.44928285626778" lon="9.023657042875815"><ele>95.0</ele><time>2026-04-11T08:00:45Z</time></trkpt><trkpt lat="44.44927750970126" lon="9.023748743725337"><ele>95.0</ele><time>2026-04-11T08:00:47Z</time></trkpt><trkpt lat="44.44926466609802" lon="9.023840839251129"><ele>95.85714285714286</ele><time>2026-04-11T08:00:49Z</time></trkpt><trkpt lat="44.44925821340286" lon="9.02393679825516"><ele>96.71428571428572</ele><time>2026-04-11T08:00:51Z</time></trkpt><trkpt lat="44.449248693133164" lon="9.024029193254636"><ele>97.57142857142857</ele><time>2026-04-11T08:00:53Z</time></trkpt><trkpt lat="44.449247944323275" lon="9.024122919626583"><ele>98.42857142857143</ele><time>2026-04-11T08:00:55Z</time></trkpt><trkpt lat="44.449261440048986" lon="9.024209993279623"><ele>99.28571428571428</ele><time>2026-04-11T08:00:57Z</time></trkpt><trkpt lat="44.44928628154908" lon="9.024293100252718"><ele>100.14285714285714</ele><time>2026-04-11T08:00:59Z</time></trkpt><trkpt lat="44.4493222991471" lon="9.024374524216794"><ele>101.0</ele><time>2026-04-11T08:01:01Z</time></trkpt><trkpt lat="44.44936242136678" lon="9.024445260163173"><ele>101.0</ele><time>2026-04-11T08:01:03Z</time></trkpt><trkpt lat="44.4494097877225" lon="9.02450787486864"><ele>101.0</ele><time>2026-04-11T08:01:05.001Z</time></trkpt><trkpt lat="44.44946986467085" lon="9.02455813772603"><ele>101.0</ele><time>2026-04-11T08:01:07.001Z</time></trkpt><trkpt lat="44.44952736099112" lon="9.024606496724452"><ele>101.0</ele><time>2026-04-11T08:01:09.001Z</time></trkpt><trkpt lat="44.44958447577642" lon="9.024648762592632"><ele>101.0</ele><time>2026-04-11T08:01:11.001Z</time></trkpt><trkpt lat="44.44964397077354" lon="9.024687710155932"><ele>101.0</ele><time>2026-04-11T08:01:13.001Z</time></trkpt><trkpt lat="44.44970146992365" lon="9.02472691738477"><ele>101.0</ele><time>2026-04-11T08:01:15.001Z</time></trkpt><trkpt lat="44.44978472917455" lon="9.024783655789426"><ele>101.0</ele><time>2026-04-11T08:01:18.001Z</time></trkpt><trkpt lat="44.4498453417524" lon="9.024827546099335"><ele>101.0</ele><time>2026-04-11T08:01:20.001Z</time></trkpt><trkpt lat="44.44990429398026" lon="9.02487814619814"><ele>101.0</ele><time>2026-04-11T08:01:22.001Z</time></trkpt><trkpt lat="44.449956336563396" lon="9.024929406057561"><ele>101.0</ele><time>2026-04-11T08:01:24.001Z</time></trkpt><trkpt lat="44.450006290656226" lon="9.02498906328929"><ele>101.0</ele><time>2026-04-11T08:01:26.001Z</time></trkpt><trkpt lat="44.45005298653961" lon="9.02504955045421"><ele>101.0</ele><time>2026-04-11T08:01:28.001Z</time></trkpt><trkpt lat="44.45009841732931" lon="9.025112716522203"><ele>101.0</ele><time>2026-04-11T08:01:30.001Z</time></trkpt><trkpt lat="44.4501439925116" lon="9.025175810534163"><ele>101.57142857142857</ele><time>2026-04-11T08:01:32.001Z</time></trkpt><trkpt lat="44.45018152465379" lon="9.0252477100245"><ele>102.14285714285714</ele><time>2026-04-11T08:01:34.001Z</time></trkpt><trkpt lat="44.45021717504705" lon="9.02532289175875"><ele>102.71428571428572</ele><time>2026-04-11T08:01:36.001Z</time></trkpt><trkpt lat="44.45024330541489" lon="9.025405344139974"><ele>103.28571428571428</ele><time>2026-04-11T08:01:38.002Z</time></trkpt><trkpt lat="44.45026485770101" lon="9.025535078036054"><ele>103.85714285714286</ele><time>2026-04-11T08:01:41.002Z</time></trkpt><trkpt lat="44.45026262754719" lon="9.025628056783196"><ele>104.42857142857143</ele><time>2026-04-11T08:01:43.002Z</time></trkpt><trkpt lat="44.450234667052435" lon="9.025712053509183"><ele>105.0</ele><time>2026-04-11T08:01:45.002Z</time></trkpt><trkpt lat="44.450202593752884" lon="9.025795649289504"><ele>106.0</ele><time>2026-04-11T08:01:47.002Z</time></trkpt><trkpt lat="44.450157180682034" lon="9.025870835026637"><ele>107.0</ele><time>2026-04-11T08:01:49.002Z</time></trkpt><trkpt lat="44.4501056936522" lon="9.025934066423334"><ele>108.0</ele><time>2026-04-11T08:01:51.002Z</time></trkpt><trkpt lat="44.450050889584304" lon="9.026000007750268"><ele>109.0</ele><time>2026-04-11T08:01:53.002Z</time></trkpt><trkpt lat="44.449989544495686" lon="9.026056431372261"><ele>110.0</ele><time>2026-04-11T08:01:55.002Z</time></trkpt><trkpt lat="44.449924020277045" lon="9.026102472187835"><ele>111.0</ele><time>2026-04-11T08:01:57.002Z</time></trkpt><trkpt lat="44.449861642724564" lon="9.026147498402365"><ele>112.0</ele><time>2026-04-11T08:01:59.002Z</time></trkpt><trkpt lat="44.4498025227985" lon="9.026206422578882"><ele>112.0</ele><time>2026-04-11T08:02:01.002Z</time></trkpt><trkpt lat="44.449746668153885" lon="9.026278971590617"><ele>112.0</ele><time>2026-04-11T08:02:03.002Z</time></trkpt><trkpt lat="44.44968392330757" lon="9.026330346375921"><ele>112.0</ele><time>2026-04-11T08:02:05.002Z</time></trkpt><trkpt lat="44.44963181578642" lon="9.026396811386855"><ele>112.0</ele><time>2026-04-11T08:02:07.002Z</time></trkpt><trkpt lat="44.44958438264215" lon="9.026470595127174"><ele>112.0</ele><time>2026-04-11T08:02:09.002Z</time></trkpt><trkpt lat="44.44954521509252" lon="9.02655855676928"><ele>112.0</ele><time>2026-04-11T08:02:11.003Z</time></trkpt><trkpt lat="44.449513133350315" lon="9.026645794025471"><ele>112.0</ele><time>2026-04-11T08:02:13.003Z</time></trkpt><trkpt lat="44.44949054149717" lon="9.026771684313964"><ele>111.42857142857143</ele><time>2026-04-11T08:02:16.003Z</time></trkpt><trkpt lat="44.44950763956773" lon="9.026859647783905"><ele>110.85714285714286</ele><time>2026-04-11T08:02:18.003Z</time></trkpt><trkpt lat="44.44956063730349" lon="9.026913135631682"><ele>110.28571428571428</ele><time>2026-04-11T08:04:39.003Z</time></trkpt><trkpt lat="44.44958442439367" lon="9.027021176910809"><ele>109.71428571428572</ele><time>2026-04-11T08:04:43.003Z</time></trkpt><trkpt lat="44.44961629192556" lon="9.027099245411037"><ele>109.14285714285714</ele><time>2026-04-11T08:04:45.001Z</time></trkpt><trkpt lat="44.44965683057661" lon="9.027178955338526"><ele>108.57142857142857</ele><time>2026-04-11T08:04:47.001Z</time></trkpt><trkpt lat="44.44972660144037" lon="9.027257075354406"><ele>108.0</ele><time>2026-04-11T08:04:50.001Z</time></trkpt><trkpt lat="44.449788589387204" lon="9.027324753708424"><ele>108.0</ele><time>2026-04-11T08:04:53.001Z</time></trkpt><trkpt lat="44.44983967372539" lon="9.02738806842713"><ele>108.0</ele><time>2026-04-11T08:04:56.001Z</time></trkpt><trkpt lat="44.44989869186572" lon="9.027441639330016"><ele>108.0</ele><time>2026-04-11T08:05:00Z</time></trkpt><trkpt lat="44.44995777476911" lon="9.027494522740113"><ele>108.0</ele><time>2026-04-11T08:05:04Z</time></trkpt><trkpt lat="44.45001674354853" lon="9.027548832835016"><ele>108.0</ele><time>2026-04-11T08:05:08Z</time></trkpt><trkpt lat="44.45006245996026" lon="9.027619798405606"><ele>108.0</ele><time>2026-04-11T08:05:14Z</time></trkpt><trkpt lat="44.45008086685329" lon="9.027726792858893"><ele>108.0</ele><time>2026-04-11T08:05:17.001Z</time></trkpt><trkpt lat="44.450145392745085" lon="9.027762672269807"><ele>109.28571428571428</ele><time>2026-04-11T08:05:19.001Z</time></trkpt><trkpt lat="44.45022344114664" lon="9.027816769641559"><ele>110.57142857142857</ele><time>2026-04-11T08:05:22.001Z</time></trkpt><trkpt lat="44.45028054883833" lon="9.027860168979348"><ele>111.85714285714286</ele><time>2026-04-11T08:05:24.001Z</time></trkpt><trkpt lat="44.45033823105648" lon="9.027906387102748"><ele>113.14285714285714</ele><time>2026-04-11T08:05:26.001Z</time></trkpt><trkpt lat="44.45039805923637" lon="9.027958579189763"><ele>114.42857142857144</ele><time>2026-04-11T08:05:28.001Z</time></trkpt><trkpt lat="44.450472744468804" lon="9.028023066703511"><ele>115.71428571428572</ele><time>2026-04-11T08:05:31.001Z</time></trkpt><trkpt lat="44.45053059567627" lon="9.028075474208169"><ele>117.0</ele><time>2026-04-11T08:05:33.001Z</time></trkpt><trkpt lat="44.45059244362558" lon="9.028139361207648"><ele>116.83333333333333</ele><time>2026-04-11T08:05:35.001Z</time></trkpt><trkpt lat="44.45065500745102" lon="9.028207503030766"><ele>116.66666666666666</ele><time>2026-04-11T08:05:37.001Z</time></trkpt><trkpt lat="44.45071326929534" lon="9.028278584817908"><ele>116.5</ele><time>2026-04-11T08:05:39.001Z</time></trkpt><trkpt lat="44.45077296773099" lon="9.028357060908494"><ele>116.33333333333333</ele><time>2026-04-11T08:05:41.001Z</time></trkpt><trkpt lat="44.45082515863095" lon="9.028444017924688"><ele>116.16666666666666</ele><time>2026-04-11T08:05:43.001Z</time></trkpt><trkpt lat="44.450871423434485" lon="9.028544944601371"><ele>116.0</ele><time>2026-04-11T08:05:45.001Z</time></trkpt><trkpt lat="44.450882815940886" lon="9.028656958346536"><ele>115.99999999999999</ele><time>2026-04-11T08:05:47.001Z</time></trkpt><trkpt lat="44.450881925134894" lon="9.02877435921693"><ele>116.0</ele><time>2026-04-11T08:05:49.001Z</time></trkpt><trkpt lat="44.45086438160247" lon="9.028880707688378"><ele>116.0</ele><time>2026-04-11T08:05:51.001Z</time></trkpt><trkpt lat="44.45082289213816" lon="9.028976991807095"><ele>116.0</ele><time>2026-04-11T08:05:53.001Z</time></trkpt><trkpt lat="44.45078227650498" lon="9.029061274143926"><ele>115.99999999999999</ele><time>2026-04-11T08:05:55.001Z</time></trkpt><trkpt lat="44.45073673129193" lon="9.029158223147174"><ele>116.0</ele><time>2026-04-11T08:05:57.001Z</time></trkpt><trkpt lat="44.45068693876308" lon="9.029250553566055"><ele>114.83333333333333</ele><time>2026-04-11T08:05:59.001Z</time></trkpt><trkpt lat="44.45063326073652" lon="9.029321600888025"><ele>113.66666666666666</ele><time>2026-04-11T08:06:01.001Z</time></trkpt><trkpt lat="44.450578628368206" lon="9.029405639130019"><ele>112.5</ele><time>2026-04-11T08:06:03.001Z</time></trkpt><trkpt lat="44.45052522644029" lon="9.029484260046061"><ele>111.33333333333334</ele><time>2026-04-11T08:06:05.001Z</time></trkpt><trkpt lat="44.45047141417003" lon="9.029575438886999"><ele>110.16666666666667</ele><time>2026-04-11T08:06:07.001Z</time></trkpt><trkpt lat="44.45042372174449" lon="9.029678000314888"><ele>109.0</ele><time>2026-04-11T08:06:09.001Z</time></trkpt><trkpt lat="44.450361436090795" lon="9.02974568764948"><ele>114.50000000000001</ele><time>2026-04-11T08:06:11.002Z</time></trkpt><trkpt lat="44.45031570749295" lon="9.029839605484113"><ele>120.0</ele><time>2026-04-11T08:06:13.002Z</time></trkpt><trkpt lat="44.450281516206914" lon="9.029937163116813"><ele>125.5</ele><time>2026-04-11T08:06:15.002Z</time></trkpt><trkpt lat="44.450238855931744" lon="9.0300677324484"><ele>131.0</ele><time>2026-04-11T08:06:18.002Z</time></trkpt><trkpt lat="44.450221309719446" lon="9.030176196880728"><ele>136.5</ele><time>2026-04-11T08:06:20.002Z</time></trkpt><trkpt lat="44.450202508179984" lon="9.030279623136323"><ele>142.0</ele><time>2026-04-11T08:06:22.002Z</time></trkpt><trkpt lat="44.45019266053497" lon="9.030369282330653"><ele>142.0</ele><time>2026-04-11T08:06:24.002Z</time></trkpt><trkpt lat="44.45019369468003" lon="9.030464569518792"><ele>142.0</ele><time>2026-04-11T08:06:26.002Z</time></trkpt><trkpt lat="44.45019701427251" lon="9.030571737277164"><ele>142.0</ele><time>2026-04-11T08:06:28.002Z</time></trkpt><trkpt lat="44.45019972177317" lon="9.030680031508327"><ele>142.0</ele><time>2026-04-11T08:06:30.002Z</time></trkpt><trkpt lat="44.450229280626814" lon="9.030770182780579"><ele>142.0</ele><time>2026-04-11T08:06:32.002Z</time></trkpt><trkpt lat="44.45025338385088" lon="9.030864914527402"><ele>142.0</ele><time>2026-04-11T08:06:34.002Z</time></trkpt><trkpt lat="44.45029301207167" lon="9.030982295629753"><ele>142.66666666666669</ele><time>2026-04-11T08:06:37.002Z</time></trkpt><trkpt lat="44.4503311852917" lon="9.031087786442859"><ele>143.33333333333334</ele><time>2026-04-11T08:06:40.002Z</time></trkpt><trkpt lat="44.450387388744005" lon="9.031192040281901"><ele>144.0</ele><time>2026-04-11T08:06:43.002Z</time></trkpt><trkpt lat="44.450436677331425" lon="9.031275048999596"><ele>144.66666666666666</ele><time>2026-04-11T08:06:46.002Z</time></trkpt><trkpt lat="44.45048940688594" lon="9.031350603385738"><ele>145.33333333333331</ele><time>2026-04-11T08:06:49.002Z</time></trkpt><trkpt lat="44.450540197262505" lon="9.031404842996833"><ele>146.0</ele><time>2026-04-11T08:06:51Z</time></trkpt><trkpt lat="44.450614543598164" lon="9.031465511692575"><ele>142.5</ele><time>2026-04-11T08:06:54Z</time></trkpt><trkpt lat="44.45068980060575" lon="9.031532882784944"><ele>139.0</ele><time>2026-04-11T08:06:57Z</time></trkpt><trkpt lat="44.45075366098593" lon="9.031595028414658"><ele>135.5</ele><time>2026-04-11T08:07:00Z</time></trkpt><trkpt lat="44.450825461333125" lon="9.031663454742278"><ele>132.0</ele><time>2026-04-11T08:07:03Z</time></trkpt><trkpt lat="44.45089571524104" lon="9.031721962874736"><ele>128.5</ele><time>2026-04-11T08:07:06Z</time></trkpt><trkpt lat="44.45096451114745" lon="9.031785979623773"><ele>125.0</ele><time>2026-04-11T08:07:09Z</time></trkpt><trkpt lat="44.451040207013534" lon="9.031849999293497"><ele>124.66666666666666</ele><time>2026-04-11T08:07:12Z</time></trkpt><trkpt lat="44.45110801339407" lon="9.03191692112591"><ele>124.33333333333333</ele><time>2026-04-11T08:07:15Z</time></trkpt><trkpt lat="44.451181629726186" lon="9.031977478766889"><ele>124.0</ele><time>2026-04-11T08:07:18Z</time></trkpt><trkpt lat="44.451240999621746" lon="9.03204845457465"><ele>123.66666666666666</ele><time>2026-04-11T08:07:21Z</time></trkpt><trkpt lat="44.45131038742156" lon="9.032110636418793"><ele>123.33333333333333</ele><time>2026-04-11T08:07:24Z</time></trkpt><trkpt lat="44.45136055822663" lon="9.032205451732167"><ele>123.0</ele><time>2026-04-11T08:07:27Z</time></trkpt><trkpt lat="44.45139931061194" lon="9.032304409122057"><ele>123.0</ele><time>2026-04-11T08:07:30.001Z</time></trkpt><trkpt lat="44.451419143953395" lon="9.032412890609347"><ele>123.0</ele><time>2026-04-11T08:07:33.001Z</time></trkpt><trkpt lat="44.451424931867365" lon="9.032535679476494"><ele>123.0</ele><time>2026-04-11T08:07:36.001Z</time></trkpt><trkpt lat="44.45141515939003" lon="9.032652210391754"><ele>123.0</ele><time>2026-04-11T08:07:39.001Z</time></trkpt><trkpt lat="44.451362144475" lon="9.0327523518573"><ele>123.0</ele><time>2026-04-11T08:07:42.001Z</time></trkpt><trkpt lat="44.451296006776786" lon="9.03283409728978"><ele>123.0</ele><time>2026-04-11T08:07:45.001Z</time></trkpt><trkpt lat="44.4512364923078" lon="9.03288214003402"><ele>123.57142857142858</ele><time>2026-04-11T08:07:47.001Z</time></trkpt><trkpt lat="44.45117867220391" lon="9.03291789612192"><ele>124.14285714285714</ele><time>2026-04-11T08:07:49.001Z</time></trkpt><trkpt lat="44.45112070060203" lon="9.032971786575073"><ele>124.71428571428572</ele><time>2026-04-11T08:07:51.001Z</time></trkpt><trkpt lat="44.45105964117066" lon="9.033013331652286"><ele>125.28571428571429</ele><time>2026-04-11T08:07:53.001Z</time></trkpt><trkpt lat="44.450990244745796" lon="9.033037677287172"><ele>125.85714285714286</ele><time>2026-04-11T08:07:55.001Z</time></trkpt><trkpt lat="44.450921190571215" lon="9.033066061975987"><ele>126.42857142857143</ele><time>2026-04-11T08:07:57.001Z</time></trkpt><trkpt lat="44.45084444948377" lon="9.033125637097958"><ele>127.0</ele><time>2026-04-11T08:08:00.001Z</time></trkpt><trkpt lat="44.450755455758184" lon="9.033161212262021"><ele>127.0</ele><time>2026-04-11T08:08:03.001Z</time></trkpt><trkpt lat="44.450692692210886" lon="9.0331817194112"><ele>127.0</ele><time>2026-04-11T08:08:05.001Z</time></trkpt><trkpt lat="44.45062248739043" lon="9.03322735794054"><ele>127.0</ele><time>2026-04-11T08:08:08.001Z</time></trkpt><trkpt lat="44.45060519867979" lon="9.033336371618539"><ele>127.0</ele><time>2026-04-11T08:08:11.001Z</time></trkpt><trkpt lat="44.450614667616776" lon="9.03343504570688"><ele>127.0</ele><time>2026-04-11T08:08:14.002Z</time></trkpt><trkpt lat="44.45061815603615" lon="9.033525583192189"><ele>127.0</ele><time>2026-04-11T08:08:18.002Z</time></trkpt><trkpt lat="44.45064622490419" lon="9.033610250879113"><ele>127.0</ele><time>2026-04-11T08:09:55.001Z</time></trkpt><trkpt lat="44.45065979726254" lon="9.033704281012637"><ele>128.28571428571428</ele><time>2026-04-11T08:09:59.001Z</time></trkpt><trkpt lat="44.45067509770683" lon="9.03379365815178"><ele>129.57142857142856</ele><time>2026-04-11T08:10:02.001Z</time></trkpt><trkpt lat="44.45069257350274" lon="9.033882658896243"><ele>130.85714285714283</ele><time>2026-04-11T08:10:05.001Z</time></trkpt><trkpt lat="44.45064259940355" lon="9.033943077378515"><ele>132.14285714285714</ele><time>2026-04-11T08:10:08.001Z</time></trkpt><trkpt lat="44.450590775851246" lon="9.033997104987456"><ele>133.42857142857142</ele><time>2026-04-11T08:10:11.001Z</time></trkpt><trkpt lat="44.450515842762904" lon="9.034021729737693"><ele>134.7142857142857</ele><time>2026-04-11T08:10:14.001Z</time></trkpt><trkpt lat="44.45045375945408" lon="9.034060068097517"><ele>136.0</ele><time>2026-04-11T08:10:17.002Z</time></trkpt><trkpt lat="44.45038490700967" lon="9.034095414850071"><ele>135.99999999999997</ele><time>2026-04-11T08:10:20.002Z</time></trkpt><trkpt lat="44.45032080396148" lon="9.034135163478958"><ele>136.0</ele><time>2026-04-11T08:10:23.002Z</time></trkpt><trkpt lat="44.45027023428387" lon="9.034199481781787"><ele>136.0</ele><time>2026-04-11T08:10:26.002Z</time></trkpt><trkpt lat="44.45021826018928" lon="9.03426059116716"><ele>136.0</ele><time>2026-04-11T08:10:29.002Z</time></trkpt><trkpt lat="44.45017950617859" lon="9.03433871171569"><ele>136.0</ele><time>2026-04-11T08:10:32.002Z</time></trkpt><trkpt lat="44.450136725371685" lon="9.034416098733839"><ele>135.99999999999997</ele><time>2026-04-11T08:10:35.002Z</time></trkpt><trkpt lat="44.45009986374904" lon="9.034494545661696"><ele>136.0</ele><time>2026-04-11T08:10:38.002Z</time></trkpt><trkpt lat="44.45006525353576" lon="9.034569279690206"><ele>135.85714285714283</ele><time>2026-04-11T08:10:41.002Z</time></trkpt><trkpt lat="44.450025568090616" lon="9.034653482063938"><ele>135.71428571428572</ele><time>2026-04-11T08:10:44.002Z</time></trkpt><trkpt lat="44.449983497255744" lon="9.034734795497736"><ele>135.57142857142856</ele><time>2026-04-11T08:10:47.002Z</time></trkpt><trkpt lat="44.44995919356932" lon="9.034835168855434"><ele>135.42857142857142</ele><time>2026-04-11T08:10:51.002Z</time></trkpt><trkpt lat="44.449928470788834" lon="9.03493298609655"><ele>135.28571428571428</ele><time>2026-04-11T08:10:55.002Z</time></trkpt><trkpt lat="44.449921003788866" lon="9.035034170022396"><ele>135.14285714285714</ele><time>2026-04-11T08:11:00.003Z</time></trkpt><trkpt lat="44.44989450517264" lon="9.03513374194163"><ele>135.0</ele><time>2026-04-11T08:12:14.001Z</time></trkpt><trkpt lat="44.44991067504333" lon="9.035240114379938"><ele>135.0</ele><time>2026-04-11T08:12:18.001Z</time></trkpt><trkpt lat="44.44991629128995" lon="9.035328012975462"><ele>135.0</ele><time>2026-04-11T08:12:21.001Z</time></trkpt><trkpt lat="44.44992492215398" lon="9.03542033826897"><ele>135.0</ele><time>2026-04-11T08:12:24.002Z</time></trkpt><trkpt lat="44.44992198641588" lon="9.035515934966591"><ele>135.0</ele><time>2026-04-11T08:12:27.002Z</time></trkpt><trkpt lat="44.449915022098175" lon="9.035608567249593"><ele>135.0</ele><time>2026-04-11T08:12:30.002Z</time></trkpt><trkpt lat="44.44990897692703" lon="9.03570686692027"><ele>135.0</ele><time>2026-04-11T08:12:33.002Z</time></trkpt><trkpt lat="44.44989319712354" lon="9.035793965696639"><ele>135.0</ele><time>2026-04-11T08:12:36.002Z</time></trkpt><trkpt lat="44.44988336884496" lon="9.035888999063614"><ele>136.14285714285714</ele><time>2026-04-11T08:12:39.002Z</time></trkpt><trkpt lat="44.44987388818225" lon="9.035984725948284"><ele>137.28571428571428</ele><time>2026-04-11T08:12:42.002Z</time></trkpt><trkpt lat="44.44986241573026" lon="9.036072416271603"><ele>138.42857142857142</ele><time>2026-04-11T08:12:45.002Z</time></trkpt><trkpt lat="44.44988345214259" lon="9.036188562876996"><ele>139.57142857142856</ele><time>2026-04-11T08:12:49.002Z</time></trkpt><trkpt lat="44.44994523517247" lon="9.036260499814011"><ele>140.71428571428572</ele><time>2026-04-11T08:12:53.002Z</time></trkpt><trkpt lat="44.45000774581452" lon="9.036247450563723"><ele>141.85714285714283</ele><time>2026-04-11T08:12:56.002Z</time></trkpt><trkpt lat="44.450049767634816" lon="9.03617323070359"><ele>143.0</ele><time>2026-04-11T08:12:59.002Z</time></trkpt><trkpt lat="44.45005589115588" lon="9.036064758991445"><ele>143.0</ele><time>2026-04-11T08:13:02.002Z</time></trkpt><trkpt lat="44.45003172230121" lon="9.03595380440053"><ele>143.0</ele><time>2026-04-11T08:13:05.002Z</time></trkpt><trkpt lat="44.45000738338" lon="9.035844700945258"><ele>143.0</ele><time>2026-04-11T08:13:08.003Z</time></trkpt><trkpt lat="44.4500218946333" lon="9.035740057135763"><ele>143.0</ele><time>2026-04-11T08:13:10.999Z</time></trkpt><trkpt lat="44.45004206390751" lon="9.035651050095503"><ele>143.0</ele><time>2026-04-11T08:13:13.999Z</time></trkpt><trkpt lat="44.45005216872376" lon="9.035548992722443"><ele>143.0</ele><time>2026-04-11T08:13:16.999Z</time></trkpt><trkpt lat="44.45006330067935" lon="9.035447097162143"><ele>141.85714285714283</ele><time>2026-04-11T08:13:19.999Z</time></trkpt><trkpt lat="44.45007176936571" lon="9.035349614759244"><ele>140.71428571428572</ele><time>2026-04-11T08:13:22.999Z</time></trkpt><trkpt lat="44.450078382799404" lon="9.035255668554447"><ele>139.57142857142856</ele><time>2026-04-11T08:13:25.999Z</time></trkpt><trkpt lat="44.450073577711755" lon="9.035160825575467"><ele>138.42857142857142</ele><time>2026-04-11T08:13:28.999Z</time></trkpt><trkpt lat="44.450072873359524" lon="9.035048046750484"><ele>137.28571428571428</ele><time>2026-04-11T08:13:32.999Z</time></trkpt><trkpt lat="44.4500743118242" lon="9.034955689400995"><ele>136.14285714285714</ele><time>2026-04-11T08:13:36Z</time></trkpt><trkpt lat="44.45008716387615" lon="9.03483620539768"><ele>135.0</ele><time>2026-04-11T08:13:40Z</time></trkpt><trkpt lat="44.4501052209291" lon="9.034745989888561"><ele>133.57142857142856</ele><time>2026-04-11T08:13:43Z</time></trkpt><trkpt lat="44.45013567019035" lon="9.034664752880486"><ele>132.14285714285714</ele><time>2026-04-11T08:13:46Z</time></trkpt><trkpt lat="44.45019229386884" lon="9.03457195957562"><ele>130.71428571428572</ele><time>2026-04-11T08:13:50Z</time></trkpt><trkpt lat="44.45023844159253" lon="9.034505102356507"><ele>129.28571428571428</ele><time>2026-04-11T08:13:53Z</time></trkpt><trkpt lat="44.450281052722765" lon="9.03443510288399"><ele>127.85714285714286</ele><time>2026-04-11T08:13:56Z</time></trkpt><trkpt lat="44.450300337831266" lon="9.03434076543963"><ele>126.42857142857142</ele><time>2026-04-11T08:13:59Z</time></trkpt><trkpt lat="44.45036426170656" lon="9.03429493111368"><ele>125.0</ele><time>2026-04-11T08:14:03.001Z</time></trkpt><trkpt lat="44.45042541772663" lon="9.034262327816016"><ele>125.85714285714286</ele><time>2026-04-11T08:14:07.001Z</time></trkpt><trkpt lat="44.4504876347017" lon="9.034236328616785"><ele>126.71428571428572</ele><time>2026-04-11T08:14:13.001Z</time></trkpt><trkpt lat="44.4505519533084" lon="9.034265754038667"><ele>127.57142857142858</ele><time>2026-04-11T08:15:27Z</time></trkpt><trkpt lat="44.45062631624217" lon="9.034266746749813"><ele>128.42857142857144</ele><time>2026-04-11T08:15:30Z</time></trkpt><trkpt lat="44.45069192608585" lon="9.034287654711223"><ele>129.2857142857143</ele><time>2026-04-11T08:15:32Z</time></trkpt><trkpt lat="44.45076480802025" lon="9.034324509072217"><ele>130.14285714285714</ele><time>2026-04-11T08:15:34Z</time></trkpt><trkpt lat="44.45083167586773" lon="9.034409860030163"><ele>131.0</ele><time>2026-04-11T08:15:36Z</time></trkpt><trkpt lat="44.450861806655965" lon="9.034515195304577"><ele>131.0</ele><time>2026-04-11T08:15:39Z</time></trkpt><trkpt lat="44.45092269427138" lon="9.034545956708682"><ele>131.0</ele><time>2026-04-11T08:15:45Z</time></trkpt><trkpt lat="44.45090451337194" lon="9.034457022057916"><ele>131.0</ele><time>2026-04-11T08:15:47Z</time></trkpt><trkpt lat="44.45087342160362" lon="9.034377248940348"><ele>131.0</ele><time>2026-04-11T08:15:50Z</time></trkpt><trkpt lat="44.45095523799224" lon="9.034335772065257"><ele>131.0</ele><time>2026-04-11T08:15:52Z</time></trkpt><trkpt lat="44.45104226949137" lon="9.034331258141863"><ele>131.0</ele><time>2026-04-11T08:15:54Z</time></trkpt><trkpt lat="44.451117566913474" lon="9.034311836660743"><ele>131.0</ele><time>2026-04-11T08:15:56.001Z</time></trkpt><trkpt lat="44.451204542834226" lon="9.03426351365222"><ele>131.0</ele><time>2026-04-11T08:15:59.001Z</time></trkpt><trkpt lat="44.45127572806723" lon="9.034237748054839"><ele>131.0</ele><time>2026-04-11T08:16:02.001Z</time></trkpt><trkpt lat="44.45136497497807" lon="9.03421216279749"><ele>131.0</ele><time>2026-04-11T08:16:05.001Z</time></trkpt><trkpt lat="44.451427786017994" lon="9.03419366378225"><ele>131.0</ele><time>2026-04-11T08:16:07.001Z</time></trkpt><trkpt lat="44.45149383507076" lon="9.034168988220076"><ele>131.0</ele><time>2026-04-11T08:16:09.001Z</time></trkpt><trkpt lat="44.45156040581225" lon="9.034146822570934"><ele>131.0</ele><time>2026-04-11T08:16:11.001Z</time></trkpt><trkpt lat="44.45164454052367" lon="9.034113330109406"><ele>129.33333333333331</ele><time>2026-04-11T08:16:14.001Z</time></trkpt><trkpt lat="44.45173022493838" lon="9.03409069903886"><ele>127.66666666666666</ele><time>2026-04-11T08:16:17.001Z</time></trkpt><trkpt lat="44.45179892445948" lon="9.034054546105331"><ele>126.0</ele><time>2026-04-11T08:16:19.001Z</time></trkpt><trkpt lat="44.4518644087408" lon="9.034040495555791"><ele>124.33333333333334</ele><time>2026-04-11T08:16:21.001Z</time></trkpt><trkpt lat="44.451894458421535" lon="9.033939483680086"><ele>122.66666666666667</ele><time>2026-04-11T08:16:24.001Z</time></trkpt><trkpt lat="44.45191457364903" lon="9.033834812661587"><ele>121.0</ele><time>2026-04-11T08:16:27.001Z</time></trkpt><trkpt lat="44.451971622648976" lon="9.033725051240395"><ele>121.0</ele><time>2026-04-11T08:16:30.001Z</time></trkpt><trkpt lat="44.45199331108618" lon="9.03363114212724"><ele>120.99999999999999</ele><time>2026-04-11T08:16:32.002Z</time></trkpt><trkpt lat="44.45202763296651" lon="9.033542081164883"><ele>121.0</ele><time>2026-04-11T08:16:35.002Z</time></trkpt><trkpt lat="44.452084631849935" lon="9.033492040559771"><ele>121.0</ele><time>2026-04-11T08:16:37.002Z</time></trkpt><trkpt lat="44.45215029054383" lon="9.033406409843169"><ele>120.99999999999999</ele><time>2026-04-11T08:16:40.002Z</time></trkpt><trkpt lat="44.45218672278291" lon="9.033331334561533"><ele>121.0</ele><time>2026-04-11T08:16:42.002Z</time></trkpt><trkpt lat="44.452217578642845" lon="9.033225633838933"><ele>121.0</ele><time>2026-04-11T08:16:45.002Z</time></trkpt><trkpt lat="44.45225927821575" lon="9.033153477370211"><ele>127.28571428571428</ele><time>2026-04-11T08:16:47.002Z</time></trkpt><trkpt lat="44.45230500434765" lon="9.033076014094469"><ele>133.57142857142856</ele><time>2026-04-11T08:16:49.002Z</time></trkpt><trkpt lat="44.45232539978934" lon="9.032987942074712"><ele>139.85714285714286</ele><time>2026-04-11T08:16:51.002Z</time></trkpt><trkpt lat="44.45234564608684" lon="9.03289423667064"><ele>146.14285714285714</ele><time>2026-04-11T08:16:54.002Z</time></trkpt><trkpt lat="44.45236452583181" lon="9.032789386553436"><ele>152.42857142857144</ele><time>2026-04-11T08:16:57.002Z</time></trkpt><trkpt lat="44.452382994716835" lon="9.032700170057046"><ele>158.71428571428572</ele><time>2026-04-11T08:16:59.002Z</time></trkpt><trkpt lat="44.45238080232261" lon="9.03258439949412"><ele>165.0</ele><time>2026-04-11T08:17:02.002Z</time></trkpt><trkpt lat="44.45240549610698" lon="9.032498190852683"><ele>165.42857142857144</ele><time>2026-04-11T08:17:04.002Z</time></trkpt><trkpt lat="44.452419664160196" lon="9.032401954128497"><ele>165.85714285714286</ele><time>2026-04-11T08:17:07.003Z</time></trkpt><trkpt lat="44.4524358949359" lon="9.032311189999293"><ele>166.28571428571428</ele><time>2026-04-11T08:17:09.003Z</time></trkpt><trkpt lat="44.45236877435944" lon="9.032230571859571"><ele>166.71428571428572</ele><time>2026-04-11T08:17:12.003Z</time></trkpt><trkpt lat="44.452322257444244" lon="9.03214890240538"><ele>167.14285714285714</ele><time>2026-04-11T08:17:14.003Z</time></trkpt><trkpt lat="44.45226061036669" lon="9.032077598001969"><ele>167.57142857142858</ele><time>2026-04-11T08:17:16.003Z</time></trkpt><trkpt lat="44.45224952842081" lon="9.031989703214686"><ele>168.0</ele><time>2026-04-11T08:17:19.003Z</time></trkpt><trkpt lat="44.45220140525472" lon="9.031888043276345"><ele>168.0</ele><time>2026-04-11T08:17:22Z</time></trkpt><trkpt lat="44.45218827122376" lon="9.031752154015658"><ele>168.0</ele><time>2026-04-11T08:17:26Z</time></trkpt><trkpt lat="44.45214269945923" lon="9.03168371791646"><ele>168.0</ele><time>2026-04-11T08:17:28Z</time></trkpt><trkpt lat="44.452107186935386" lon="9.031595487418409"><ele>168.0</ele><time>2026-04-11T08:17:30Z</time></trkpt><trkpt lat="44.452074438747495" lon="9.031503859447403"><ele>168.0</ele><time>2026-04-11T08:17:32Z</time></trkpt><trkpt lat="44.45202231569346" lon="9.031421995180478"><ele>168.0</ele><time>2026-04-11T08:17:34Z</time></trkpt><trkpt lat="44.4519454922946" lon="9.031331504381514"><ele>165.33333333333334</ele><time>2026-04-11T08:17:36Z</time></trkpt><trkpt lat="44.451912480011345" lon="9.031209032371294"><ele>162.66666666666666</ele><time>2026-04-11T08:17:39Z</time></trkpt><trkpt lat="44.45185145273569" lon="9.031166314360368"><ele>160.0</ele><time>2026-04-11T08:17:41Z</time></trkpt><trkpt lat="44.45177785281947" lon="9.031151218646665"><ele>157.33333333333331</ele><time>2026-04-11T08:17:43Z</time></trkpt><trkpt lat="44.45172346520054" lon="9.031064753516748"><ele>154.66666666666666</ele><time>2026-04-11T08:17:47Z</time></trkpt><trkpt lat="44.45167235494816" lon="9.031011314423953"><ele>152.0</ele><time>2026-04-11T08:17:49.001Z</time></trkpt><trkpt lat="44.45159849764382" lon="9.03099859101477"><ele>152.0</ele><time>2026-04-11T08:17:51.001Z</time></trkpt><trkpt lat="44.451551115989886" lon="9.030925811782772"><ele>152.0</ele><time>2026-04-11T08:17:53.001Z</time></trkpt><trkpt lat="44.451468759220646" lon="9.030864359888758"><ele>152.0</ele><time>2026-04-11T08:17:56.001Z</time></trkpt><trkpt lat="44.45138778271752" lon="9.03079542741412"><ele>152.0</ele><time>2026-04-11T08:17:59.001Z</time></trkpt><trkpt lat="44.45131354430291" lon="9.030776262161986"><ele>152.0</ele><time>2026-04-11T08:18:01.001Z</time></trkpt><trkpt lat="44.451223623817526" lon="9.030731093574756"><ele>152.0</ele><time>2026-04-11T08:18:04.001Z</time></trkpt><trkpt lat="44.451126376481874" lon="9.03071482060186"><ele>147.14285714285714</ele><time>2026-04-11T08:18:07.001Z</time></trkpt><trkpt lat="44.45106922353319" lon="9.030677459382025"><ele>142.2857142857143</ele><time>2026-04-11T08:18:09.001Z</time></trkpt><trkpt lat="44.45104617931157" lon="9.030541034719707"><ele>137.42857142857144</ele><time>2026-04-11T08:18:12.001Z</time></trkpt><trkpt lat="44.451058831533146" lon="9.03044828093477"><ele>132.57142857142856</ele><time>2026-04-11T08:18:14.001Z</time></trkpt><trkpt lat="44.451097838375446" lon="9.030369231091553"><ele>127.71428571428572</ele><time>2026-04-11T08:18:16.001Z</time></trkpt><trkpt lat="44.45114483982764" lon="9.0303001864861"><ele>122.85714285714286</ele><time>2026-04-11T08:18:18.001Z</time></trkpt><trkpt lat="44.45118979955583" lon="9.03020826718428"><ele>118.0</ele><time>2026-04-11T08:18:20.001Z</time></trkpt><trkpt lat="44.451233486354056" lon="9.030112906417402"><ele>118.00000000000001</ele><time>2026-04-11T08:18:22.001Z</time></trkpt><trkpt lat="44.451280017245814" lon="9.030027841803623"><ele>118.0</ele><time>2026-04-11T08:18:24.001Z</time></trkpt><trkpt lat="44.45134228987267" lon="9.029969015396304"><ele>118.0</ele><time>2026-04-11T08:18:27.002Z</time></trkpt><trkpt lat="44.45140659411959" lon="9.029915494359601"><ele>118.0</ele><time>2026-04-11T08:18:29.002Z</time></trkpt><trkpt lat="44.451471636456276" lon="9.02985135046227"><ele>118.00000000000001</ele><time>2026-04-11T08:18:31.002Z</time></trkpt><trkpt lat="44.451524688248995" lon="9.02979932915717"><ele>118.0</ele><time>2026-04-11T08:18:33.002Z</time></trkpt><trkpt lat="44.451563944399325" lon="9.029676533929193"><ele>122.00000000000001</ele><time>2026-04-11T08:18:36.002Z</time></trkpt><trkpt lat="44.451619516807575" lon="9.0296024107489"><ele>126.0</ele><time>2026-04-11T08:18:38.002Z</time></trkpt><trkpt lat="44.45166547564905" lon="9.029524114658289"><ele>130.0</ele><time>2026-04-11T08:18:40.002Z</time></trkpt><trkpt lat="44.45171901963835" lon="9.029446722973326"><ele>134.0</ele><time>2026-04-11T08:18:42.002Z</time></trkpt><trkpt lat="44.45175319905539" lon="9.02933316838619"><ele>138.0</ele><time>2026-04-11T08:18:45.002Z</time></trkpt><trkpt lat="44.4517793036381" lon="9.029241450325705"><ele>142.0</ele><time>2026-04-11T08:18:48.002Z</time></trkpt><trkpt lat="44.45174105793198" lon="9.029105417781228"><ele>143.16666666666669</ele><time>2026-04-11T08:18:52.002Z</time></trkpt><trkpt lat="44.45173474981423" lon="9.029000303652065"><ele>144.33333333333334</ele><time>2026-04-11T08:18:54.002Z</time></trkpt><trkpt lat="44.45174592420671" lon="9.028877644856365"><ele>145.5</ele><time>2026-04-11T08:18:56.002Z</time></trkpt><trkpt lat="44.451748063992625" lon="9.02877699801113"><ele>146.66666666666666</ele><time>2026-04-11T08:18:58.002Z</time></trkpt><trkpt lat="44.451726367809385" lon="9.028656496220632"><ele>147.83333333333331</ele><time>2026-04-11T08:19:01.002Z</time></trkpt><trkpt lat="44.45175549682793" lon="9.028552269733405"><ele>149.0</ele><time>2026-04-11T08:19:04.003Z</time></trkpt><trkpt lat="44.45178547674737" lon="9.028465443595515"><ele>149.0</ele><time>2026-04-11T08:19:13.003Z</time></trkpt><trkpt lat="44.45181796178451" lon="9.028377144667175"><ele>149.0</ele><time>2026-04-11T08:19:17.003Z</time></trkpt><trkpt lat="44.45182460387289" lon="9.0282684845359"><ele>149.0</ele><time>2026-04-11T08:19:20.003Z</time></trkpt><trkpt lat="44.45184228066857" lon="9.028149829679622"><ele>149.0</ele><time>2026-04-11T08:19:23.003Z</time></trkpt><trkpt lat="44.45179290524876" lon="9.02808317121878"><ele>149.0</ele><time>2026-04-11T08:19:26.003Z</time></trkpt><trkpt lat="44.4517311153293" lon="9.028065970772529"><ele>149.0</ele><time>2026-04-11T08:19:28Z</time></trkpt><trkpt lat="44.45166554522077" lon="9.027980883982307"><ele>152.83333333333331</ele><time>2026-04-11T08:19:31Z</time></trkpt><trkpt lat="44.45159976858647" lon="9.027990937025786"><ele>156.66666666666666</ele><time>2026-04-11T08:19:34Z</time></trkpt><trkpt lat="44.45155890667422" lon="9.027885508432202"><ele>160.5</ele><time>2026-04-11T08:19:36Z</time></trkpt><trkpt lat="44.45151977962082" lon="9.027807438193495"><ele>164.33333333333334</ele><time>2026-04-11T08:19:38Z</time></trkpt><trkpt lat="44.4514605554109" lon="9.027718359146562"><ele>168.16666666666669</ele><time>2026-04-11T08:19:41Z</time></trkpt><trkpt lat="44.45140555541297" lon="9.027660666265819"><ele>172.0</ele><time>2026-04-11T08:19:43Z</time></trkpt><trkpt lat="44.45135934797172" lon="9.02757372584483"><ele>165.66666666666669</ele><time>2026-04-11T08:19:45Z</time></trkpt><trkpt lat="44.45128924064236" lon="9.027478034627451"><ele>159.33333333333334</ele><time>2026-04-11T08:19:48Z</time></trkpt><trkpt lat="44.45122747452164" lon="9.02741604983277"><ele>153.0</ele><time>2026-04-11T08:19:50Z</time></trkpt><trkpt lat="44.4511537483432" lon="9.027367767176907"><ele>146.66666666666666</ele><time>2026-04-11T08:19:53.001Z</time></trkpt><trkpt lat="44.451064618594295" lon="9.027343701173482"><ele>140.33333333333331</ele><time>2026-04-11T08:19:55.001Z</time></trkpt><trkpt lat="44.450992613413824" lon="9.027310561999357"><ele>134.0</ele><time>2026-04-11T08:19:57.001Z</time></trkpt><trkpt lat="44.45092374320255" lon="9.027280950994422"><ele>134.0</ele><time>2026-04-11T08:19:59.001Z</time></trkpt><trkpt lat="44.450848040404864" lon="9.027229480298914"><ele>134.0</ele><time>2026-04-11T08:20:01.001Z</time></trkpt><trkpt lat="44.45079443952268" lon="9.027171034669081"><ele>134.0</ele><time>2026-04-11T08:20:03.001Z</time></trkpt><trkpt lat="44.45072289061661" lon="9.027136668030865"><ele>134.0</ele><time>2026-04-11T08:20:06.001Z</time></trkpt><trkpt lat="44.45067035893021" lon="9.02708393388447"><ele>134.0</ele><time>2026-04-11T08:20:08.001Z</time></trkpt><trkpt lat="44.45067839189343" lon="9.02699060245261"><ele>134.0</ele><time>2026-04-11T08:20:11.001Z</time></trkpt><trkpt lat="44.450716516354284" lon="9.026889069989775"><ele>134.0</ele><time>2026-04-11T08:20:16.001Z</time></trkpt><trkpt lat="44.450794589353194" lon="9.026842146957891"><ele>134.0</ele><time>2026-04-11T08:20:20.001Z</time></trkpt><trkpt lat="44.450865651077926" lon="9.02678109041092"><ele>134.0</ele><time>2026-04-11T08:20:23.001Z</time></trkpt><trkpt lat="44.450923645446366" lon="9.026746218188489"><ele>134.0</ele><time>2026-04-11T08:20:25.001Z</time></trkpt><trkpt lat="44.45098870801902" lon="9.02665877717727"><ele>134.0</ele><time>2026-04-11T08:20:28.001Z</time></trkpt><trkpt lat="44.45102994356267" lon="9.026562290631546"><ele>134.0</ele><time>2026-04-11T08:20:31.002Z</time></trkpt><trkpt lat="44.4510587394235" lon="9.02648196897242"><ele>134.0</ele><time>2026-04-11T08:20:33.002Z</time></trkpt><trkpt lat="44.45112387656895" lon="9.026435469883419"><ele>132.0</ele><time>2026-04-11T08:20:36.002Z</time></trkpt><trkpt lat="44.45117593416629" lon="9.026370640296031"><ele>130.0</ele><time>2026-04-11T08:20:40.002Z</time></trkpt><trkpt lat="44.45122193290198" lon="9.026295438185164"><ele>128.0</ele><time>2026-04-11T08:20:46.002Z</time></trkpt><trkpt lat="44.451257506138965" lon="9.026180622037794"><ele>126.0</ele><time>2026-04-11T08:20:51.002Z</time></trkpt><trkpt lat="44.451286868596576" lon="9.02609445104945"><ele>124.0</ele><time>2026-04-11T08:20:54.002Z</time></trkpt><trkpt lat="44.45130165482236" lon="9.026007732439243"><ele>122.0</ele><time>2026-04-11T08:20:57.002Z</time></trkpt><trkpt lat="44.45131712150951" lon="9.02592179467375"><ele>120.0</ele><time>2026-04-11T08:21:00.002Z</time></trkpt><trkpt lat="44.45132074967372" lon="9.025802036870074"><ele>127.66666666666667</ele><time>2026-04-11T08:21:04.002Z</time></trkpt><trkpt lat="44.451345332683935" lon="9.025677128644896"><ele>135.33333333333334</ele><time>2026-04-11T08:21:08.003Z</time></trkpt><trkpt lat="44.4513846511906" lon="9.025563807283467"><ele>143.0</ele><time>2026-04-11T08:21:11.003Z</time></trkpt><trkpt lat="44.45141624189928" lon="9.025449635764009"><ele>150.66666666666669</ele><time>2026-04-11T08:21:14.003Z</time></trkpt><trkpt lat="44.451382851417726" lon="9.025347026524832"><ele>158.33333333333334</ele><time>2026-04-11T08:21:16.003Z</time></trkpt><trkpt lat="44.45136075150978" lon="9.025233731447756"><ele>166.0</ele><time>2026-04-11T08:21:19.003Z</time></trkpt><trkpt lat="44.45131253045133" lon="9.025134938219741"><ele>159.85714285714286</ele><time>2026-04-11T08:21:22.003Z</time></trkpt><trkpt lat="44.45127765829736" lon="9.025039638354022"><ele>153.71428571428572</ele><time>2026-04-11T08:21:24.003Z</time></trkpt><trkpt lat="44.45123985803034" lon="9.024939636924646"><ele>147.57142857142858</ele><time>2026-04-11T08:21:27.003Z</time></trkpt><trkpt lat="44.4512021037115" lon="9.024855727174442"><ele>141.42857142857144</ele><time>2026-04-11T08:21:30.003Z</time></trkpt><trkpt lat="44.45114063044673" lon="9.024760242836297"><ele>135.28571428571428</ele><time>2026-04-11T08:21:33Z</time></trkpt><trkpt lat="44.45110290389569" lon="9.024688146652917"><ele>129.14285714285717</ele><time>2026-04-11T08:21:39Z</time></trkpt><trkpt lat="44.451105804656294" lon="9.0245997976597"><ele>123.00000000000001</ele><time>2026-04-11T08:21:48Z</time></trkpt><trkpt lat="44.45108250266394" lon="9.024517146676695"><ele>123.0</ele><time>2026-04-11T08:21:54Z</time></trkpt><trkpt lat="44.451066705530415" lon="9.024422970656811"><ele>123.0</ele><time>2026-04-11T08:22:02Z</time></trkpt><trkpt lat="44.451104502080675" lon="9.02426513691502"><ele>123.0</ele><time>2026-04-11T08:27:49.003Z</time></trkpt><trkpt lat="44.45115870681529" lon="9.02420594010248"><ele>123.0</ele><time>2026-04-11T08:27:52Z</time></trkpt><trkpt lat="44.45121003143968" lon="9.02411844020014"><ele>123.0</ele><time>2026-04-11T08:27:56Z</time></trkpt><trkpt lat="44.4512673639853" lon="9.024032757245417"><ele>123.0</ele><time>2026-04-11T08:27:59Z</time></trkpt><trkpt lat="44.45132349670261" lon="9.023957743786434"><ele>122.85714285714288</ele><time>2026-04-11T08:28:02Z</time></trkpt><trkpt lat="44.45129586120411" lon="9.023868081353223"><ele>122.71428571428572</ele><time>2026-04-11T08:28:05Z</time></trkpt><trkpt lat="44.45124881955853" lon="9.023804780306381"><ele>122.57142857142857</ele><time>2026-04-11T08:28:08Z</time></trkpt><trkpt lat="44.45125141991648" lon="9.02371558271969"><ele>122.42857142857143</ele><time>2026-04-11T08:28:11Z</time></trkpt><trkpt lat="44.45127460772671" lon="9.023616613011962"><ele>122.28571428571428</ele><time>2026-04-11T08:28:14Z</time></trkpt><trkpt lat="44.451292411858624" lon="9.023490081560452"><ele>122.14285714285712</ele><time>2026-04-11T08:28:17Z</time></trkpt><trkpt lat="44.45129337628921" lon="9.023383620518123"><ele>121.99999999999999</ele><time>2026-04-11T08:28:20Z</time></trkpt><trkpt lat="44.45123696032212" lon="9.023278723618846"><ele>121.99999999999999</ele><time>2026-04-11T08:28:23Z</time></trkpt><trkpt lat="44.451175467558116" lon="9.02323931168854"><ele>122.0</ele><time>2026-04-11T08:28:26.001Z</time></trkpt><trkpt lat="44.451189937817865" lon="9.023151050116647"><ele>121.99999999999999</ele><time>2026-04-11T08:28:29.001Z</time></trkpt><trkpt lat="44.45125750949151" lon="9.023101166335799"><ele>121.99999999999999</ele><time>2026-04-11T08:28:34.001Z</time></trkpt><trkpt lat="44.45129943727507" lon="9.023019130389304"><ele>122.0</ele><time>2026-04-11T08:28:38.001Z</time></trkpt><trkpt lat="44.451361217457844" lon="9.022943624565134"><ele>121.99999999999999</ele><time>2026-04-11T08:28:42.001Z</time></trkpt><trkpt lat="44.4514035123211" lon="9.022873093341309"><ele>121.99999999999999</ele><time>2026-04-11T08:28:45.001Z</time></trkpt><trkpt lat="44.45148992934823" lon="9.02289264108795"><ele>122.28571428571428</ele><time>2026-04-11T08:28:49.001Z</time></trkpt><trkpt lat="44.45156346158761" lon="9.022910174541888"><ele>122.57142857142857</ele><time>2026-04-11T08:28:52.001Z</time></trkpt><trkpt lat="44.45162706861408" lon="9.022948290072272"><ele>122.85714285714286</ele><time>2026-04-11T08:28:55.001Z</time></trkpt><trkpt lat="44.45168455677439" lon="9.02298836170958"><ele>123.14285714285714</ele><time>2026-04-11T08:28:58.001Z</time></trkpt><trkpt lat="44.451766521029015" lon="9.023023606580608"><ele>123.42857142857144</ele><time>2026-04-11T08:29:02.001Z</time></trkpt><trkpt lat="44.45183828894036" lon="9.022984717060677"><ele>123.71428571428572</ele><time>2026-04-11T08:29:06.002Z</time></trkpt><trkpt lat="44.45188028505343" lon="9.022911364642354"><ele>124.0</ele><time>2026-04-11T08:29:10.002Z</time></trkpt><trkpt lat="44.451949578216414" lon="9.022873251444086"><ele>124.0</ele><time>2026-04-11T08:29:14.002Z</time></trkpt><trkpt lat="44.45199826205489" lon="9.022796195723465"><ele>124.00000000000001</ele><time>2026-04-11T08:29:19.002Z</time></trkpt><trkpt lat="44.45207473083721" lon="9.022833917551846"><ele>124.0</ele><time>2026-04-11T08:29:24.002Z</time></trkpt><trkpt lat="44.45214259837118" lon="9.022838978834784"><ele>124.0</ele><time>2026-04-11T08:29:28.002Z</time></trkpt><trkpt lat="44.45220487680044" lon="9.022809501342715"><ele>124.00000000000001</ele><time>2026-04-11T08:29:31.002Z</time></trkpt><trkpt lat="44.45225115161004" lon="9.022742238088863"><ele>124.0</ele><time>2026-04-11T08:29:35.002Z</time></trkpt><trkpt lat="44.45229445212535" lon="9.022655512539908"><ele>124.0</ele><time>2026-04-11T08:29:40.002Z</time></trkpt><trkpt lat="44.45233542596567" lon="9.022562961786281"><ele>127.16666666666667</ele><time>2026-04-11T08:29:44.003Z</time></trkpt><trkpt lat="44.452363164561696" lon="9.022481844103428"><ele>130.33333333333334</ele><time>2026-04-11T08:29:48.003Z</time></trkpt><trkpt lat="44.45238194204828" lon="9.022373242597919"><ele>133.5</ele><time>2026-04-11T08:29:52.003Z</time></trkpt><trkpt lat="44.45239934029926" lon="9.022263240105913"><ele>136.66666666666666</ele><time>2026-04-11T08:29:56.003Z</time></trkpt><trkpt lat="44.45240536298424" lon="9.02214726497418"><ele>139.83333333333331</ele><time>2026-04-11T08:30:00Z</time></trkpt><trkpt lat="44.452394269235015" lon="9.02203258551929"><ele>143.0</ele><time>2026-04-11T08:30:04Z</time></trkpt><trkpt lat="44.452371135804626" lon="9.021944314399564"><ele>144.5</ele><time>2026-04-11T08:30:07Z</time></trkpt><trkpt lat="44.452351823866515" lon="9.021835764868756"><ele>146.0</ele><time>2026-04-11T08:30:11Z</time></trkpt><trkpt lat="44.45232262724146" lon="9.021732007944081"><ele>147.5</ele><time>2026-04-11T08:30:15Z</time></trkpt><trkpt lat="44.452289089217565" lon="9.021640720303871"><ele>149.0</ele><time>2026-04-11T08:30:18Z</time></trkpt><trkpt lat="44.452247498434865" lon="9.021549230294209"><ele>150.5</ele><time>2026-04-11T08:30:22Z</time></trkpt><trkpt lat="44.452219788555105" lon="9.02144581082496"><ele>152.0</ele><time>2026-04-11T08:30:26Z</time></trkpt><trkpt lat="44.4521821353374" lon="9.02134292426099"><ele>154.28571428571428</ele><time>2026-04-11T08:30:30Z</time></trkpt><trkpt lat="44.45214996772769" lon="9.021263895027769"><ele>156.57142857142858</ele><time>2026-04-11T08:30:33Z</time></trkpt><trkpt lat="44.45210447659521" lon="9.021199490749346"><ele>158.85714285714286</ele><time>2026-04-11T08:30:36.001Z</time></trkpt><trkpt lat="44.452057572898255" lon="9.02111180970554"><ele>161.14285714285714</ele><time>2026-04-11T08:30:40.001Z</time></trkpt><trkpt lat="44.452027768620795" lon="9.021032630195412"><ele>163.42857142857144</ele><time>2026-04-11T08:30:43.001Z</time></trkpt><trkpt lat="44.45200255415407" lon="9.02094294973135"><ele>165.71428571428572</ele><time>2026-04-11T08:30:46.001Z</time></trkpt><trkpt lat="44.45200117295398" lon="9.02084027228646"><ele>168.0</ele><time>2026-04-11T08:30:49.001Z</time></trkpt><trkpt lat="44.452007602833326" lon="9.020739972007261"><ele>161.5</ele><time>2026-04-11T08:30:52.001Z</time></trkpt><trkpt lat="44.452009844934494" lon="9.02063471924256"><ele>155.0</ele><time>2026-04-11T08:30:55.001Z</time></trkpt><trkpt lat="44.45200712247347" lon="9.020527338756498"><ele>148.5</ele><time>2026-04-11T08:30:58.001Z</time></trkpt><trkpt lat="44.45200385977405" lon="9.020420701302806"><ele>142.0</ele><time>2026-04-11T08:31:01.001Z</time></trkpt><trkpt lat="44.452002408789326" lon="9.020310017698462"><ele>135.5</ele><time>2026-04-11T08:31:04.001Z</time></trkpt><trkpt lat="44.45200929672403" lon="9.020206365884627"><ele>129.0</ele><time>2026-04-11T08:31:07.001Z</time></trkpt><trkpt lat="44.452004594445256" lon="9.020103039161128"><ele>128.99999999999997</ele><time>2026-04-11T08:31:10.001Z</time></trkpt><trkpt lat="44.45200075429116" lon="9.020003677081109"><ele>129.0</ele><time>2026-04-11T08:31:13.002Z</time></trkpt><trkpt lat="44.45200370018202" lon="9.019908664117162"><ele>129.0</ele><time>2026-04-11T08:31:16.002Z</time></trkpt><trkpt lat="44.45200313438275" lon="9.019808422149602"><ele>129.0</ele><time>2026-04-11T08:31:19.002Z</time></trkpt><trkpt lat="44.45202146657383" lon="9.019702405028138"><ele>129.0</ele><time>2026-04-11T08:31:22.002Z</time></trkpt><trkpt lat="44.45206397313524" lon="9.019603349114831"><ele>128.99999999999997</ele><time>2026-04-11T08:31:25.002Z</time></trkpt><trkpt lat="44.45209945146863" lon="9.019510291557628"><ele>129.0</ele><time>2026-04-11T08:31:28.002Z</time></trkpt><trkpt lat="44.45213511252632" lon="9.019420751208395"><ele>131.85714285714283</ele><time>2026-04-11T08:31:31.002Z</time></trkpt><trkpt lat="44.45215509333354" lon="9.019323727821764"><ele>134.71428571428572</ele><time>2026-04-11T08:31:34.002Z</time></trkpt><trkpt lat="44.452189516029534" lon="9.01923770143055"><ele>137.57142857142856</ele><time>2026-04-11T08:31:37.002Z</time></trkpt><trkpt lat="44.45223504663643" lon="9.019137627604998"><ele>140.42857142857142</ele><time>2026-04-11T08:31:40.002Z</time></trkpt><trkpt lat="44.452259845222585" lon="9.019035140009647"><ele>143.28571428571428</ele><time>2026-04-11T08:31:43.002Z</time></trkpt><trkpt lat="44.45229940565828" lon="9.018941582991188"><ele>146.14285714285714</ele><time>2026-04-11T08:31:46.002Z</time></trkpt><trkpt lat="44.45233239825867" lon="9.01886496646428"><ele>149.0</ele><time>2026-04-11T08:31:49.003Z</time></trkpt><trkpt lat="44.452363801464" lon="9.018787920081238"><ele>149.0</ele><time>2026-04-11T08:31:52.003Z</time></trkpt><trkpt lat="44.45239472499082" lon="9.018693535711344"><ele>149.0</ele><time>2026-04-11T08:31:55.003Z</time></trkpt><trkpt lat="44.4524354849067" lon="9.018609256863058"><ele>149.0</ele><time>2026-04-11T08:31:59.003Z</time></trkpt><trkpt lat="44.4523986162897" lon="9.018514238208432"><ele>149.0</ele><time>2026-04-11T08:33:02.001Z</time></trkpt><trkpt lat="44.452377907937596" lon="9.018405168339019"><ele>149.0</ele><time>2026-04-11T08:33:05.001Z</time></trkpt><trkpt lat="44.452356817040624" lon="9.01831115970687"><ele>149.0</ele><time>2026-04-11T08:33:07.001Z</time></trkpt><trkpt lat="44.45233576125859" lon="9.018213285546592"><ele>149.0</ele><time>2026-04-11T08:33:09.001Z</time></trkpt><trkpt lat="44.452330316125725" lon="9.01809945717023"><ele>149.4</ele><time>2026-04-11T08:33:11.001Z</time></trkpt><trkpt lat="44.45232273946443" lon="9.017984375547083"><ele>149.8</ele><time>2026-04-11T08:33:13.001Z</time></trkpt><trkpt lat="44.45231987581158" lon="9.017859707004048"><ele>150.2</ele><time>2026-04-11T08:33:15.002Z</time></trkpt><trkpt lat="44.45231743235303" lon="9.017728960811498"><ele>150.6</ele><time>2026-04-11T08:33:17.002Z</time></trkpt><trkpt lat="44.4523110219333" lon="9.017590284743912"><ele>151.0</ele><time>2026-04-11T08:33:19.002Z</time></trkpt><trkpt lat="44.45231054423541" lon="9.01744527682245"><ele>151.5</ele><time>2026-04-11T08:33:21.002Z</time></trkpt><trkpt lat="44.45229790332972" lon="9.017292292396043"><ele>152.0</ele><time>2026-04-11T08:33:23.002Z</time></trkpt><trkpt lat="44.45226274018464" lon="9.017137602298007"><ele>152.5</ele><time>2026-04-11T08:33:25.002Z</time></trkpt><trkpt lat="44.45219544129026" lon="9.016990205707692"><ele>153.0</ele><time>2026-04-11T08:33:27.002Z</time></trkpt><trkpt lat="44.452112468921065" lon="9.016870923104431"><ele>149.4</ele><time>2026-04-11T08:33:29.002Z</time></trkpt><trkpt lat="44.452036799981464" lon="9.016748570342239"><ele>145.8</ele><time>2026-04-11T08:33:31.002Z</time></trkpt><trkpt lat="44.451961422485304" lon="9.016636430298432"><ele>142.2</ele><time>2026-04-11T08:33:33.002Z</time></trkpt><trkpt lat="44.4518889008456" lon="9.016538639988543"><ele>138.6</ele><time>2026-04-11T08:33:35.002Z</time></trkpt><trkpt lat="44.45184390299499" lon="9.016436023266213"><ele>135.0</ele><time>2026-04-11T08:33:37.002Z</time></trkpt><trkpt lat="44.45181630525971" lon="9.016322810584564"><ele>135.0</ele><time>2026-04-11T08:33:39.002Z</time></trkpt><trkpt lat="44.451829890220345" lon="9.016223490042398"><ele>135.0</ele><time>2026-04-11T08:33:41.002Z</time></trkpt><trkpt lat="44.451878207903874" lon="9.016143651525509"><ele>135.0</ele><time>2026-04-11T08:33:43.002Z</time></trkpt><trkpt lat="44.451928755486236" lon="9.016069393084132"><ele>135.0</ele><time>2026-04-11T08:33:45.002Z</time></trkpt><trkpt lat="44.45197976691526" lon="9.015984195529876"><ele>135.0</ele><time>2026-04-11T08:33:47.002Z</time></trkpt><trkpt lat="44.451995438476" lon="9.015885564573605"><ele>135.0</ele><time>2026-04-11T08:33:49.002Z</time></trkpt><trkpt lat="44.45201535028699" lon="9.015796233979161"><ele>135.0</ele><time>2026-04-11T08:33:51.003Z</time></trkpt><trkpt lat="44.45204741957166" lon="9.01566389348442"><ele>135.5</ele><time>2026-04-11T08:33:54.003Z</time></trkpt><trkpt lat="44.452050766686284" lon="9.015568211474147"><ele>136.0</ele><time>2026-04-11T08:33:56.003Z</time></trkpt><trkpt lat="44.452044079628095" lon="9.015475524914288"><ele>136.5</ele><time>2026-04-11T08:33:58.003Z</time></trkpt><trkpt lat="44.4520221292803" lon="9.015340786858713"><ele>137.0</ele><time>2026-04-11T08:34:01.003Z</time></trkpt><trkpt lat="44.451976626885596" lon="9.015247380995385"><ele>137.5</ele><time>2026-04-11T08:34:03.003Z</time></trkpt><trkpt lat="44.45192065963252" lon="9.015139153712052"><ele>138.0</ele><time>2026-04-11T08:34:06.003Z</time></trkpt><trkpt lat="44.4518686229427" lon="9.015062955546208"><ele>138.0</ele><time>2026-04-11T08:34:08.003Z</time></trkpt><trkpt lat="44.45181105246637" lon="9.015016960942067"><ele>138.0</ele><time>2026-04-11T08:34:10Z</time></trkpt><trkpt lat="44.45174961907113" lon="9.014935292893988"><ele>138.0</ele><time>2026-04-11T08:34:13Z</time></trkpt><trkpt lat="44.45168403232385" lon="9.014872679083409"><ele>138.0</ele><time>2026-04-11T08:34:15Z</time></trkpt><trkpt lat="44.45165030637748" lon="9.014745778357213"><ele>138.0</ele><time>2026-04-11T08:34:17Z</time></trkpt><trkpt lat="44.45163485413192" lon="9.014618951595033"><ele>138.0</ele><time>2026-04-11T08:34:19Z</time></trkpt><trkpt lat="44.45158639714707" lon="9.01450844763611"><ele>139.66666666666666</ele><time>2026-04-11T08:34:21Z</time></trkpt><trkpt lat="44.451529273093946" lon="9.014419658994713"><ele>141.33333333333334</ele><time>2026-04-11T08:34:23Z</time></trkpt><trkpt lat="44.45148219586799" lon="9.014337341720411"><ele>143.0</ele><time>2026-04-11T08:34:25Z</time></trkpt><trkpt lat="44.45148752460005" lon="9.014247330618279"><ele>144.66666666666669</ele><time>2026-04-11T08:34:27Z</time></trkpt><trkpt lat="44.4514829053919" lon="9.014153408855114"><ele>146.33333333333334</ele><time>2026-04-11T08:34:30Z</time></trkpt><trkpt lat="44.45146711746312" lon="9.01402690471881"><ele>148.0</ele><time>2026-04-11T08:34:33Z</time></trkpt><trkpt lat="44.4514647765134" lon="9.013915522741321"><ele>148.0</ele><time>2026-04-11T08:34:35Z</time></trkpt><trkpt lat="44.4514720246201" lon="9.013826375254471"><ele>148.0</ele><time>2026-04-11T08:34:37Z</time></trkpt><trkpt lat="44.451468139993246" lon="9.013700066136538"><ele>148.0</ele><time>2026-04-11T08:34:40Z</time></trkpt><trkpt lat="44.45146040777713" lon="9.013603705051107"><ele>148.0</ele><time>2026-04-11T08:34:42Z</time></trkpt><trkpt lat="44.451445899222605" lon="9.013509101507584"><ele>148.0</ele><time>2026-04-11T08:34:44.001Z</time></trkpt><trkpt lat="44.45143059932432" lon="9.01342142466877"><ele>148.0</ele><time>2026-04-11T08:34:47.001Z</time></trkpt><trkpt lat="44.45140722901748" lon="9.013324943671668"><ele>148.0</ele><time>2026-04-11T08:34:50.001Z</time></trkpt><trkpt lat="44.45139342918817" lon="9.013219008409633"><ele>146.66666666666669</ele><time>2026-04-11T08:34:51.001Z</time></trkpt><trkpt lat="44.451431208802546" lon="9.013096692709974"><ele>145.33333333333334</ele><time>2026-04-11T08:34:53.001Z</time></trkpt><trkpt lat="44.45147709754706" lon="9.012997440574974"><ele>144.0</ele><time>2026-04-11T08:34:55.001Z</time></trkpt><trkpt lat="44.45152181568819" lon="9.012902349334396"><ele>142.66666666666666</ele><time>2026-04-11T08:34:57.001Z</time></trkpt><trkpt lat="44.45156654749961" lon="9.01280473303229"><ele>141.33333333333331</ele><time>2026-04-11T08:34:59.001Z</time></trkpt><trkpt lat="44.451611345264666" lon="9.012708203310934"><ele>140.0</ele><time>2026-04-11T08:35:01.001Z</time></trkpt><trkpt lat="44.451663992365624" lon="9.012641379557978"><ele>140.0</ele><time>2026-04-11T08:35:03.001Z</time></trkpt><trkpt lat="44.451719614840215" lon="9.012582622166716"><ele>140.0</ele><time>2026-04-11T08:35:05.001Z</time></trkpt><trkpt lat="44.45174777677976" lon="9.012464848471364"><ele>140.0</ele><time>2026-04-11T08:35:08.001Z</time></trkpt><trkpt lat="44.451774291153676" lon="9.012351957845178"><ele>140.0</ele><time>2026-04-11T08:35:10.001Z</time></trkpt><trkpt lat="44.45181384112973" lon="9.012237772368172"><ele>140.0</ele><time>2026-04-11T08:35:12.001Z</time></trkpt><trkpt lat="44.451858833615" lon="9.012150131622676"><ele>140.0</ele><time>2026-04-11T08:35:14.001Z</time></trkpt><trkpt lat="44.451902272259694" lon="9.012046983524913"><ele>139.5</ele><time>2026-04-11T08:35:16.001Z</time></trkpt><trkpt lat="44.45194652764201" lon="9.011948413924346"><ele>139.0</ele><time>2026-04-11T08:35:18.001Z</time></trkpt><trkpt lat="44.451982017464" lon="9.011838652313799"><ele>138.5</ele><time>2026-04-11T08:35:20.002Z</time></trkpt><trkpt lat="44.45201108630495" lon="9.01173624675255"><ele>138.0</ele><time>2026-04-11T08:35:22.002Z</time></trkpt><trkpt lat="44.452040788644965" lon="9.011616270055187"><ele>137.5</ele><time>2026-04-11T08:35:24.002Z</time></trkpt><trkpt lat="44.45211013227392" lon="9.011518957562682"><ele>137.0</ele><time>2026-04-11T08:35:26.002Z</time></trkpt><trkpt lat="44.452183159426085" lon="9.011413324739925"><ele>137.0</ele><time>2026-04-11T08:35:28.002Z</time></trkpt><trkpt lat="44.452261670179574" lon="9.01131230214258"><ele>137.0</ele><time>2026-04-11T08:35:30.002Z</time></trkpt><trkpt lat="44.45232744987314" lon="9.01128731647595"><ele>137.0</ele><time>2026-04-11T08:35:32.002Z</time></trkpt><trkpt lat="44.452382713000084" lon="9.011233412965838"><ele>137.0</ele><time>2026-04-11T08:35:34.002Z</time></trkpt><trkpt lat="44.45243084660919" lon="9.011171383599578"><ele>137.0</ele><time>2026-04-11T08:35:36.002Z</time></trkpt><trkpt lat="44.452501155488484" lon="9.011106098243694"><ele>137.0</ele><time>2026-04-11T08:35:39.002Z</time></trkpt><trkpt lat="44.452539375173735" lon="9.011015662980837"><ele>137.0</ele><time>2026-04-11T08:35:42.002Z</time></trkpt><trkpt lat="44.452557698741906" lon="9.010896702309356"><ele>137.0</ele><time>2026-04-11T08:35:45.002Z</time></trkpt><trkpt lat="44.452553330825936" lon="9.010792444837861"><ele>137.0</ele><time>2026-04-11T08:35:48.002Z</time></trkpt><trkpt lat="44.452621469952355" lon="9.010702658276529"><ele>137.0</ele><time>2026-04-11T08:35:51.002Z</time></trkpt><trkpt lat="44.45266887101218" lon="9.01063180145171"><ele>137.0</ele><time>2026-04-11T08:35:53.002Z</time></trkpt><trkpt lat="44.452713370103616" lon="9.010557045198992"><ele>137.0</ele><time>2026-04-11T08:35:56.003Z</time></trkpt><trkpt lat="44.452782104241905" lon="9.010446729182693"><ele>135.33333333333331</ele><time>2026-04-11T08:35:58.003Z</time></trkpt><trkpt lat="44.452841397107576" lon="9.010389623416035"><ele>133.66666666666666</ele><time>2026-04-11T08:36:00.003Z</time></trkpt><trkpt lat="44.45289278525947" lon="9.010312564217799"><ele>132.0</ele><time>2026-04-11T08:36:02.003Z</time></trkpt><trkpt lat="44.452934645644994" lon="9.010240660532142"><ele>130.33333333333334</ele><time>2026-04-11T08:36:04.003Z</time></trkpt><trkpt lat="44.45298575667647" lon="9.010184042435915"><ele>128.66666666666669</ele><time>2026-04-11T08:36:06.003Z</time></trkpt><trkpt lat="44.45308121365838" lon="9.010198978846558"><ele>127.0</ele><time>2026-04-11T08:36:09.003Z</time></trkpt><trkpt lat="44.453143161950585" lon="9.010269479087233"><ele>127.0</ele><time>2026-04-11T08:36:11.003Z</time></trkpt><trkpt lat="44.45320341753455" lon="9.010325289683479"><ele>127.0</ele><time>2026-04-11T08:36:13.003Z</time></trkpt><trkpt lat="44.45327202570435" lon="9.010367295482148"><ele>127.0</ele><time>2026-04-11T08:36:14.999Z</time></trkpt><trkpt lat="44.45334005801696" lon="9.010372962336639"><ele>127.0</ele><time>2026-04-11T08:36:16.999Z</time></trkpt><trkpt lat="44.45341685925295" lon="9.010358032556383"><ele>127.0</ele><time>2026-04-11T08:36:18.999Z</time></trkpt><trkpt lat="44.453480982848184" lon="9.010362620051092"><ele>127.0</ele><time>2026-04-11T08:36:20.999Z</time></trkpt><trkpt lat="44.453552278756106" lon="9.010409320170552"><ele>127.0</ele><time>2026-04-11T08:36:22.999Z</time></trkpt><trkpt lat="44.453619737551946" lon="9.010430419017947"><ele>127.00000000000001</ele><time>2026-04-11T08:36:24.999Z</time></trkpt><trkpt lat="44.45370386356176" lon="9.01049364553623"><ele>127.0</ele><time>2026-04-11T08:36:27.999Z</time></trkpt><trkpt lat="44.45375561132361" lon="9.010606002254084"><ele>127.0</ele><time>2026-04-11T08:36:31Z</time></trkpt><trkpt lat="44.453772161625615" lon="9.010704068408364"><ele>127.0</ele><time>2026-04-11T08:36:33Z</time></trkpt><trkpt lat="44.45381449026245" lon="9.010815052261718"><ele>127.00000000000001</ele><time>2026-04-11T08:36:36Z</time></trkpt><trkpt lat="44.453854416346566" lon="9.01089443908973"><ele>127.0</ele><time>2026-04-11T08:36:38Z</time></trkpt><trkpt lat="44.45391560234772" lon="9.010921128421987"><ele>128.0</ele><time>2026-04-11T08:36:41Z</time></trkpt><trkpt lat="44.45393014690547" lon="9.01103534676971"><ele>129.0</ele><time>2026-04-11T08:36:43Z</time></trkpt><trkpt lat="44.454006995109125" lon="9.01109563368052"><ele>130.0</ele><time>2026-04-11T08:36:46Z</time></trkpt><trkpt lat="44.45406934304166" lon="9.011130222253952"><ele>131.0</ele><time>2026-04-11T08:36:48Z</time></trkpt><trkpt lat="44.45413388661404" lon="9.01116796550402"><ele>132.0</ele><time>2026-04-11T08:36:50Z</time></trkpt><trkpt lat="44.4541934815078" lon="9.011206433799973"><ele>133.0</ele><time>2026-04-11T08:36:52Z</time></trkpt><trkpt lat="44.45429385703809" lon="9.011207430914707"><ele>133.0</ele><time>2026-04-11T08:36:56Z</time></trkpt><trkpt lat="44.45437242629173" lon="9.011203340525174"><ele>133.0</ele><time>2026-04-11T08:36:59.001Z</time></trkpt><trkpt lat="44.45444080993336" lon="9.01122387853309"><ele>133.0</ele><time>2026-04-11T08:37:01.001Z</time></trkpt><trkpt lat="44.454531628700124" lon="9.011219496074714"><ele>133.0</ele><time>2026-04-11T08:37:03.001Z</time></trkpt><trkpt lat="44.45462323319899" lon="9.011234470771413"><ele>133.0</ele><time>2026-04-11T08:37:06.001Z</time></trkpt><trkpt lat="44.45467307654205" lon="9.01118007311383"><ele>133.0</ele><time>2026-04-11T08:37:08.001Z</time></trkpt><trkpt lat="44.454714266024695" lon="9.011094582176534"><ele>133.33333333333334</ele><time>2026-04-11T08:37:09.001Z</time></trkpt><trkpt lat="44.4547762455293" lon="9.011061392463887"><ele>133.66666666666669</ele><time>2026-04-11T08:37:11.001Z</time></trkpt><trkpt lat="44.45484711404791" lon="9.010969014879073"><ele>134.0</ele><time>2026-04-11T08:37:14.001Z</time></trkpt><trkpt lat="44.45490226869434" lon="9.010910189631522"><ele>134.33333333333334</ele><time>2026-04-11T08:37:16.001Z</time></trkpt><trkpt lat="44.45495783083739" lon="9.010845885619085"><ele>134.66666666666666</ele><time>2026-04-11T08:37:18.001Z</time></trkpt><trkpt lat="44.455036687864116" lon="9.010815068940397"><ele>135.0</ele><time>2026-04-11T08:37:20.001Z</time></trkpt><trkpt lat="44.45511990961182" lon="9.010800192812765"><ele>134.14285714285714</ele><time>2026-04-11T08:37:22.001Z</time></trkpt><trkpt lat="44.4552086263168" lon="9.010783430255508"><ele>133.28571428571428</ele><time>2026-04-11T08:37:24.001Z</time></trkpt><trkpt lat="44.455266304098224" lon="9.010743188355951"><ele>132.42857142857142</ele><time>2026-04-11T08:37:26.001Z</time></trkpt><trkpt lat="44.45531751689034" lon="9.01068013815919"><ele>131.57142857142856</ele><time>2026-04-11T08:37:29.002Z</time></trkpt><trkpt lat="44.455366994562915" lon="9.01059371292964"><ele>130.71428571428572</ele><time>2026-04-11T08:37:32.002Z</time></trkpt><trkpt lat="44.455409207538914" lon="9.010525956351955"><ele>129.85714285714283</ele><time>2026-04-11T08:37:34.002Z</time></trkpt><trkpt lat="44.45545879619593" lon="9.010440848713857"><ele>129.0</ele><time>2026-04-11T08:37:36.002Z</time></trkpt><trkpt lat="44.45550525701156" lon="9.010347675248045"><ele>129.0</ele><time>2026-04-11T08:37:38.002Z</time></trkpt><trkpt lat="44.455556745591984" lon="9.01026408296648"><ele>129.0</ele><time>2026-04-11T08:37:40.002Z</time></trkpt><trkpt lat="44.45561331056189" lon="9.010172147911625"><ele>129.0</ele><time>2026-04-11T08:37:42.002Z</time></trkpt><trkpt lat="44.45566504788244" lon="9.01007920458192"><ele>129.0</ele><time>2026-04-11T08:37:44.002Z</time></trkpt><trkpt lat="44.455717403480335" lon="9.009993893920372"><ele>129.0</ele><time>2026-04-11T08:37:46.002Z</time></trkpt><trkpt lat="44.45576179717092" lon="9.00991681848671"><ele>129.0</ele><time>2026-04-11T08:37:48.002Z</time></trkpt><trkpt lat="44.45578810019994" lon="9.009823886334937"><ele>130.83333333333334</ele><time>2026-04-11T08:37:50.002Z</time></trkpt><trkpt lat="44.45575096582983" lon="9.009712058000941"><ele>132.66666666666666</ele><time>2026-04-11T08:37:52.002Z</time></trkpt><trkpt lat="44.455728245664396" lon="9.009611504070275"><ele>134.5</ele><time>2026-04-11T08:37:54.002Z</time></trkpt><trkpt lat="44.45571349396726" lon="9.009514904417015"><ele>136.33333333333331</ele><time>2026-04-11T08:37:56.002Z</time></trkpt><trkpt lat="44.455693554097664" lon="9.009417689909519"><ele>138.16666666666666</ele><time>2026-04-11T08:37:58.002Z</time></trkpt><trkpt lat="44.45569991739669" lon="9.009326363291756"><ele>140.0</ele><time>2026-04-11T08:38:01.002Z</time></trkpt><trkpt lat="44.45575665006755" lon="9.009238614897901"><ele>141.57142857142858</ele><time>2026-04-11T08:40:16.003Z</time></trkpt><trkpt lat="44.45575481706013" lon="9.009145487162732"><ele>143.14285714285714</ele><time>2026-04-11T08:40:20.003Z</time></trkpt><trkpt lat="44.45576222260731" lon="9.009045447829346"><ele>144.71428571428572</ele><time>2026-04-11T08:40:23.003Z</time></trkpt><trkpt lat="44.45577999907436" lon="9.008951420961415"><ele>146.28571428571428</ele><time>2026-04-11T08:40:26.003Z</time></trkpt><trkpt lat="44.45574824873696" lon="9.008852673138527"><ele>147.85714285714286</ele><time>2026-04-11T08:40:28.999Z</time></trkpt><trkpt lat="44.45570828088684" lon="9.008784294692848"><ele>149.42857142857144</ele><time>2026-04-11T08:40:30.999Z</time></trkpt><trkpt lat="44.45568588702795" lon="9.008676342733553"><ele>151.0</ele><time>2026-04-11T08:40:33.999Z</time></trkpt><trkpt lat="44.45566102514545" lon="9.008591671725828"><ele>151.0</ele><time>2026-04-11T08:40:35.999Z</time></trkpt><trkpt lat="44.45565775524016" lon="9.00849069443284"><ele>151.0</ele><time>2026-04-11T08:40:38.999Z</time></trkpt><trkpt lat="44.455616909395985" lon="9.008398797899101"><ele>151.0</ele><time>2026-04-11T08:40:41Z</time></trkpt><trkpt lat="44.455589099707524" lon="9.008281525630537"><ele>151.0</ele><time>2026-04-11T08:40:44Z</time></trkpt><trkpt lat="44.45557641990956" lon="9.008153042467491"><ele>151.0</ele><time>2026-04-11T08:40:47Z</time></trkpt><trkpt lat="44.45552453141742" lon="9.008045042433581"><ele>151.0</ele><time>2026-04-11T08:40:50Z</time></trkpt><trkpt lat="44.45548735008638" lon="9.007931991766153"><ele>152.42857142857144</ele><time>2026-04-11T08:40:53Z</time></trkpt><trkpt lat="44.45548233732642" lon="9.007838467676367"><ele>153.85714285714286</ele><time>2026-04-11T08:40:55Z</time></trkpt><trkpt lat="44.455465619963995" lon="9.00774855276724"><ele>155.28571428571428</ele><time>2026-04-11T08:40:57Z</time></trkpt><trkpt lat="44.45545475246252" lon="9.007649729289431"><ele>156.71428571428572</ele><time>2026-04-11T08:40:59Z</time></trkpt><trkpt lat="44.45546296388847" lon="9.007543660823758"><ele>158.14285714285714</ele><time>2026-04-11T08:41:01Z</time></trkpt><trkpt lat="44.45549581378069" lon="9.00746006069878"><ele>159.57142857142858</ele><time>2026-04-11T08:41:03.001Z</time></trkpt><trkpt lat="44.45552817603321" lon="9.007369399768546"><ele>161.0</ele><time>2026-04-11T08:41:05.001Z</time></trkpt><trkpt lat="44.45556737554992" lon="9.007289975485964"><ele>162.5</ele><time>2026-04-11T08:41:07.001Z</time></trkpt><trkpt lat="44.45561439051781" lon="9.007204456545379"><ele>164.0</ele><time>2026-04-11T08:41:09.001Z</time></trkpt><trkpt lat="44.455649852046825" lon="9.007126662100896"><ele>165.5</ele><time>2026-04-11T08:41:11.001Z</time></trkpt><trkpt lat="44.45565819165941" lon="9.007012945715399"><ele>167.0</ele><time>2026-04-11T08:41:14.001Z</time></trkpt><trkpt lat="44.45556866632455" lon="9.0069757662617"><ele>168.5</ele><time>2026-04-11T08:41:17.001Z</time></trkpt><trkpt lat="44.45550729616187" lon="9.006925805145721"><ele>170.0</ele><time>2026-04-11T08:41:19.001Z</time></trkpt><trkpt lat="44.45544273841851" lon="9.006935727074"><ele>166.0</ele><time>2026-04-11T08:41:21.001Z</time></trkpt><trkpt lat="44.45534024338548" lon="9.006936628413023"><ele>162.0</ele><time>2026-04-11T08:41:24.001Z</time></trkpt><trkpt lat="44.455263621923734" lon="9.006967670322451"><ele>158.0</ele><time>2026-04-11T08:41:27.001Z</time></trkpt><trkpt lat="44.4551832319546" lon="9.00697253854133"><ele>154.0</ele><time>2026-04-11T08:41:30.001Z</time></trkpt><trkpt lat="44.45511902998468" lon="9.006969949573561"><ele>150.0</ele><time>2026-04-11T08:41:34.002Z</time></trkpt><trkpt lat="44.45503890166772" lon="9.006962697721617"><ele>146.0</ele><time>2026-04-11T08:41:40.002Z</time></trkpt><trkpt lat="44.45497010622328" lon="9.006931611122765"><ele>146.0</ele><time>2026-04-11T08:41:48.002Z</time></trkpt><trkpt lat="44.454901277636864" lon="9.00687633767913"><ele>146.0</ele><time>2026-04-11T08:41:50.002Z</time></trkpt><trkpt lat="44.45484900647429" lon="9.006813407418836"><ele>146.0</ele><time>2026-04-11T08:41:52.002Z</time></trkpt><trkpt lat="44.45479483648232" lon="9.006867183927515"><ele>146.0</ele><time>2026-04-11T08:41:57.002Z</time></trkpt><trkpt lat="44.454727206540156" lon="9.006920703715696"><ele>146.0</ele><time>2026-04-11T08:42:02.002Z</time></trkpt><trkpt lat="44.45467191437076" lon="9.006984136542751"><ele>146.0</ele><time>2026-04-11T08:42:07.003Z</time></trkpt><trkpt lat="44.45460095166343" lon="9.00700938770816"><ele>146.0</ele><time>2026-04-11T08:42:11.003Z</time></trkpt><trkpt lat="44.45453019684038" lon="9.006972763287338"><ele>145.0</ele><time>2026-04-11T08:42:14.003Z</time></trkpt><trkpt lat="44.4544563567533" lon="9.00692607331673"><ele>144.0</ele><time>2026-04-11T08:42:17.003Z</time></trkpt><trkpt lat="44.45437027871487" lon="9.006887940333025"><ele>143.0</ele><time>2026-04-11T08:42:20.003Z</time></trkpt><trkpt lat="44.45431120718143" lon="9.00684862197793"><ele>142.0</ele><time>2026-04-11T08:42:22.003Z</time></trkpt><trkpt lat="44.454249975609876" lon="9.006813818756559"><ele>141.0</ele><time>2026-04-11T08:42:24.003Z</time></trkpt><trkpt lat="44.45418963356325" lon="9.006781138598738"><ele>140.0</ele><time>2026-04-11T08:42:26.003Z</time></trkpt><trkpt lat="44.45410431769972" lon="9.006737750549965"><ele>140.0</ele><time>2026-04-11T08:42:29.003Z</time></trkpt><trkpt lat="44.45402240894576" lon="9.006775214361996"><ele>140.0</ele><time>2026-04-11T08:42:32.003Z</time></trkpt><trkpt lat="44.45401430176927" lon="9.006875261861431"><ele>140.0</ele><time>2026-04-11T08:42:33.999Z</time></trkpt><trkpt lat="44.45395006762706" lon="9.006954071763587"><ele>140.0</ele><time>2026-04-11T08:42:36.999Z</time></trkpt><trkpt lat="44.453870277855636" lon="9.006968962049367"><ele>140.0</ele><time>2026-04-11T08:42:39.999Z</time></trkpt><trkpt lat="44.453804179922244" lon="9.006957996930772"><ele>140.0</ele><time>2026-04-11T08:42:41.999Z</time></trkpt><trkpt lat="44.453735968120284" lon="9.00695387860622"><ele>140.0</ele><time>2026-04-11T08:42:43.999Z</time></trkpt><trkpt lat="44.45364407682659" lon="9.006961891631875"><ele>140.0</ele><time>2026-04-11T08:42:46.999Z</time></trkpt><trkpt lat="44.453575322475835" lon="9.006978397684566"><ele>140.0</ele><time>2026-04-11T08:42:48.999Z</time></trkpt><trkpt lat="44.45351390078178" lon="9.007006529351818"><ele>140.0</ele><time>2026-04-11T08:42:51Z</time></trkpt><trkpt lat="44.45342968872903" lon="9.007018381421462"><ele>140.0</ele><time>2026-04-11T08:42:54Z</time></trkpt><trkpt lat="44.45336068670626" lon="9.00701317310592"><ele>140.0</ele><time>2026-04-11T08:42:56Z</time></trkpt><trkpt lat="44.45329599028909" lon="9.006962078929662"><ele>140.0</ele><time>2026-04-11T08:42:58Z</time></trkpt><trkpt lat="44.45324195268017" lon="9.00691471292904"><ele>140.0</ele><time>2026-04-11T08:43:00Z</time></trkpt><trkpt lat="44.45317432229774" lon="9.006814776259887"><ele>140.0</ele><time>2026-04-11T08:43:03Z</time></trkpt><trkpt lat="44.45313827025186" lon="9.006740182963746"><ele>140.0</ele><time>2026-04-11T08:43:05Z</time></trkpt><trkpt lat="44.4531038636733" lon="9.006654896809502"><ele>140.0</ele><time>2026-04-11T08:43:07Z</time></trkpt><trkpt lat="44.453098457446785" lon="9.006553600114604"><ele>140.0</ele><time>2026-04-11T08:43:09Z</time></trkpt><trkpt lat="44.45309169251718" lon="9.006453116913091"><ele>140.0</ele><time>2026-04-11T08:43:11.001Z</time></trkpt><trkpt lat="44.453066246296764" lon="9.006366124537205"><ele>139.83333333333331</ele><time>2026-04-11T08:43:13.001Z</time></trkpt><trkpt lat="44.453021533448144" lon="9.00630049343456"><ele>139.66666666666666</ele><time>2026-04-11T08:43:15.001Z</time></trkpt><trkpt lat="44.45295145332003" lon="9.006214668837522"><ele>139.5</ele><time>2026-04-11T08:43:18.001Z</time></trkpt><trkpt lat="44.4529073498216" lon="9.006096931213499"><ele>139.33333333333334</ele><time>2026-04-11T08:43:21.001Z</time></trkpt><trkpt lat="44.45285836418431" lon="9.005980072957094"><ele>139.16666666666669</ele><time>2026-04-11T08:43:24.001Z</time></trkpt><trkpt lat="44.45284529973502" lon="9.00588130902146"><ele>139.0</ele><time>2026-04-11T08:43:27.001Z</time></trkpt><trkpt lat="44.4528312481097" lon="9.005778661809495"><ele>139.0</ele><time>2026-04-11T08:43:31.001Z</time></trkpt><trkpt lat="44.452831251090586" lon="9.005678879971137"><ele>139.0</ele><time>2026-04-11T08:43:35.001Z</time></trkpt><trkpt lat="44.45282767526208" lon="9.005568840107564"><ele>139.0</ele><time>2026-04-11T08:43:39.002Z</time></trkpt><trkpt lat="44.452832143333865" lon="9.00546628230055"><ele>139.0</ele><time>2026-04-11T08:43:43.002Z</time></trkpt><trkpt lat="44.45278587899701" lon="9.005395853672951"><ele>139.0</ele><time>2026-04-11T08:43:48.002Z</time></trkpt><trkpt lat="44.45272027311325" lon="9.005383916305076"><ele>139.0</ele><time>2026-04-11T08:43:51.002Z</time></trkpt><trkpt lat="44.452627445624586" lon="9.005339632784786"><ele>139.0</ele><time>2026-04-11T08:43:53.002Z</time></trkpt><trkpt lat="44.45256195816332" lon="9.005275347121504"><ele>139.0</ele><time>2026-04-11T08:43:55.002Z</time></trkpt><trkpt lat="44.452519003081626" lon="9.005196754562302"><ele>139.0</ele><time>2026-04-11T08:43:57.002Z</time></trkpt><trkpt lat="44.45248196760743" lon="9.00507037302724"><ele>139.0</ele><time>2026-04-11T08:44:00.002Z</time></trkpt><trkpt lat="44.45245642233525" lon="9.004982445695484"><ele>139.0</ele><time>2026-04-11T08:44:02.002Z</time></trkpt><trkpt lat="44.45242776362446" lon="9.004892964236596"><ele>139.0</ele><time>2026-04-11T08:44:04.002Z</time></trkpt><trkpt lat="44.452389545094086" lon="9.004787098715632"><ele>139.5</ele><time>2026-04-11T08:44:07.002Z</time></trkpt><trkpt lat="44.452341915673735" lon="9.004691970130569"><ele>140.0</ele><time>2026-04-11T08:44:10.002Z</time></trkpt><trkpt lat="44.45231122733372" lon="9.004578631827227"><ele>140.5</ele><time>2026-04-11T08:44:13.003Z</time></trkpt><trkpt lat="44.45228617859763" lon="9.004452959295756"><ele>141.0</ele><time>2026-04-11T08:44:16.003Z</time></trkpt><trkpt lat="44.452238181919476" lon="9.004389586129278"><ele>141.5</ele><time>2026-04-11T08:44:18.003Z</time></trkpt><trkpt lat="44.452166505913475" lon="9.004361438139203"><ele>142.0</ele><time>2026-04-11T08:44:20.003Z</time></trkpt><trkpt lat="44.4521026846177" lon="9.004364912739971"><ele>140.42857142857142</ele><time>2026-04-11T08:44:23.003Z</time></trkpt><trkpt lat="44.4520432174638" lon="9.00428227764154"><ele>138.85714285714283</ele><time>2026-04-11T08:44:53.999Z</time></trkpt><trkpt lat="44.45202018530288" lon="9.00418585285523"><ele>137.28571428571428</ele><time>2026-04-11T08:44:57Z</time></trkpt><trkpt lat="44.45199807020292" lon="9.004087261173288"><ele>135.71428571428572</ele><time>2026-04-11T08:45:00Z</time></trkpt><trkpt lat="44.45197846776463" lon="9.004002758553353"><ele>134.14285714285717</ele><time>2026-04-11T08:45:03Z</time></trkpt><trkpt lat="44.45196973619923" lon="9.003899764751083"><ele>132.57142857142858</ele><time>2026-04-11T08:45:06Z</time></trkpt><trkpt lat="44.45198409172357" lon="9.003802441152295"><ele>131.0</ele><time>2026-04-11T08:45:09Z</time></trkpt><trkpt lat="44.45202403276202" lon="9.003717149361117"><ele>131.0</ele><time>2026-04-11T08:45:12Z</time></trkpt><trkpt lat="44.45207509861779" lon="9.003655061258854"><ele>131.0</ele><time>2026-04-11T08:45:15Z</time></trkpt><trkpt lat="44.452149063562935" lon="9.003621146080894"><ele>131.0</ele><time>2026-04-11T08:45:19.001Z</time></trkpt><trkpt lat="44.45221414136617" lon="9.003619674636663"><ele>131.0</ele><time>2026-04-11T08:45:22.001Z</time></trkpt><trkpt lat="44.452275840471565" lon="9.003650580157386"><ele>131.0</ele><time>2026-04-11T08:45:25.001Z</time></trkpt><trkpt lat="44.45232686457825" lon="9.00370863856746"><ele>131.0</ele><time>2026-04-11T08:45:28.001Z</time></trkpt><trkpt lat="44.45236495742969" lon="9.003816015407704"><ele>131.0</ele><time>2026-04-11T08:45:32.001Z</time></trkpt><trkpt lat="44.45238700835918" lon="9.003909341725217"><ele>132.83333333333331</ele><time>2026-04-11T08:45:35.001Z</time></trkpt><trkpt lat="44.452409969137015" lon="9.00400738713013"><ele>134.66666666666666</ele><time>2026-04-11T08:45:38.001Z</time></trkpt><trkpt lat="44.45244719617743" lon="9.004097783664369"><ele>136.5</ele><time>2026-04-11T08:45:41.001Z</time></trkpt><trkpt lat="44.45247936878527" lon="9.004199887322693"><ele>138.33333333333334</ele><time>2026-04-11T08:45:44.001Z</time></trkpt><trkpt lat="44.45252214398651" lon="9.004301786098504"><ele>140.16666666666669</ele><time>2026-04-11T08:45:47.002Z</time></trkpt><trkpt lat="44.45254447604066" lon="9.00439367949909"><ele>142.0</ele><time>2026-04-11T08:45:49.002Z</time></trkpt><trkpt lat="44.452570068597744" lon="9.004519666322425"><ele>142.0</ele><time>2026-04-11T08:45:52.002Z</time></trkpt><trkpt lat="44.45259640268351" lon="9.004629633401404"><ele>142.0</ele><time>2026-04-11T08:45:55.002Z</time></trkpt><trkpt lat="44.45261633464687" lon="9.004714511067744"><ele>142.0</ele><time>2026-04-11T08:45:57.002Z</time></trkpt><trkpt lat="44.45264559067043" lon="9.004793550925955"><ele>142.0</ele><time>2026-04-11T08:45:59.002Z</time></trkpt><trkpt lat="44.45266751100936" lon="9.004880678467444"><ele>142.0</ele><time>2026-04-11T08:46:01.002Z</time></trkpt><trkpt lat="44.4526968231528" lon="9.004962965130597"><ele>142.0</ele><time>2026-04-11T08:46:03.002Z</time></trkpt><trkpt lat="44.452733297075504" lon="9.005041505136967"><ele>142.0</ele><time>2026-04-11T08:46:05.002Z</time></trkpt><trkpt lat="44.45278894360532" lon="9.00513487644035"><ele>141.5</ele><time>2026-04-11T08:46:08.002Z</time></trkpt><trkpt lat="44.452831142715524" lon="9.00520769442788"><ele>141.0</ele><time>2026-04-11T08:46:10.002Z</time></trkpt><trkpt lat="44.45287330799982" lon="9.005280638060908"><ele>140.5</ele><time>2026-04-11T08:46:12.002Z</time></trkpt><trkpt lat="44.452916279144695" lon="9.005350271465623"><ele>140.0</ele><time>2026-04-11T08:46:14.002Z</time></trkpt><trkpt lat="44.45298099956654" lon="9.005452440702392"><ele>139.5</ele><time>2026-04-11T08:46:17.002Z</time></trkpt><trkpt lat="44.4530370688164" lon="9.00554453661164"><ele>139.0</ele><time>2026-04-11T08:46:20.003Z</time></trkpt><trkpt lat="44.453087647026926" lon="9.00561595089622"><ele>140.57142857142856</ele><time>2026-04-11T08:46:23.003Z</time></trkpt><trkpt lat="44.453132554574864" lon="9.005688619040717"><ele>142.14285714285714</ele><time>2026-04-11T08:46:26.003Z</time></trkpt><trkpt lat="44.453177643632316" lon="9.005762412233365"><ele>143.71428571428572</ele><time>2026-04-11T08:46:29.003Z</time></trkpt><trkpt lat="44.45322400737944" lon="9.005827226467167"><ele>145.28571428571428</ele><time>2026-04-11T08:46:32.003Z</time></trkpt><trkpt lat="44.453270998718345" lon="9.005892582882367"><ele>146.85714285714286</ele><time>2026-04-11T08:46:35.003Z</time></trkpt><trkpt lat="44.45331755099966" lon="9.005961436446427"><ele>148.42857142857142</ele><time>2026-04-11T08:46:38.003Z</time></trkpt><trkpt lat="44.453360749443206" lon="9.00602735749391"><ele>150.0</ele><time>2026-04-11T08:46:41.003Z</time></trkpt><trkpt lat="44.45340181162669" lon="9.006095488185471"><ele>150.0</ele><time>2026-04-11T08:46:44.003Z</time></trkpt><trkpt lat="44.453444248483194" lon="9.006162115873726"><ele>150.0</ele><time>2026-04-11T08:46:46.999Z</time></trkpt><trkpt lat="44.453500014099234" lon="9.006248721372739"><ele>150.0</ele><time>2026-04-11T08:46:50.999Z</time></trkpt><trkpt lat="44.453558334976414" lon="9.006324124762447"><ele>150.0</ele><time>2026-04-11T08:46:54.999Z</time></trkpt><trkpt lat="44.45362984408692" lon="9.006370554286956"><ele>150.0</ele><time>2026-04-11T08:46:58.999Z</time></trkpt><trkpt lat="44.45370088777451" lon="9.006384512335858"><ele>150.0</ele><time>2026-04-11T08:47:03Z</time></trkpt><trkpt lat="44.45377875588546" lon="9.006369537290814"><ele>150.85714285714283</ele><time>2026-04-11T08:47:07Z</time></trkpt><trkpt lat="44.453836056935934" lon="9.006330394954535"><ele>151.71428571428572</ele><time>2026-04-11T08:47:10Z</time></trkpt><trkpt lat="44.453891844614134" lon="9.006285095843394"><ele>152.57142857142856</ele><time>2026-04-11T08:47:13Z</time></trkpt><trkpt lat="44.4539476266399" lon="9.006241673411674"><ele>153.42857142857142</ele><time>2026-04-11T08:47:16Z</time></trkpt><trkpt lat="44.45400527765771" lon="9.006162597505089"><ele>154.28571428571428</ele><time>2026-04-11T08:47:20Z</time></trkpt><trkpt lat="44.454054115237696" lon="9.00610109256298"><ele>155.14285714285714</ele><time>2026-04-11T08:47:24.001Z</time></trkpt><trkpt lat="44.45410385430345" lon="9.006029942787965"><ele>156.0</ele><time>2026-04-11T08:47:28.001Z</time></trkpt><trkpt lat="44.45416475004788" lon="9.005956503551289"><ele>156.0</ele><time>2026-04-11T08:47:32.001Z</time></trkpt><trkpt lat="44.45421764961596" lon="9.00588003860123"><ele>156.0</ele><time>2026-04-11T08:47:36.001Z</time></trkpt><trkpt lat="44.454252494479334" lon="9.00579046709131"><ele>156.0</ele><time>2026-04-11T08:47:40.001Z</time></trkpt><trkpt lat="44.45425686752567" lon="9.005680412398036"><ele>156.0</ele><time>2026-04-11T08:47:44.001Z</time></trkpt><trkpt lat="44.45423403269025" lon="9.005587536465514"><ele>156.0</ele><time>2026-04-11T08:47:47.001Z</time></trkpt><trkpt lat="44.454214737327504" lon="9.005485393390634"><ele>156.0</ele><time>2026-04-11T08:47:51.001Z</time></trkpt><trkpt lat="44.454167249052574" lon="9.005395008402184"><ele>156.85714285714286</ele><time>2026-04-11T08:47:56.002Z</time></trkpt><trkpt lat="44.45411194119599" lon="9.005321222968853"><ele>157.7142857142857</ele><time>2026-04-11T08:48:00.002Z</time></trkpt><trkpt lat="44.454075632965065" lon="9.005226279331236"><ele>158.57142857142856</ele><time>2026-04-11T08:48:04.002Z</time></trkpt><trkpt lat="44.45402719453354" lon="9.005169037172408"><ele>159.42857142857144</ele><time>2026-04-11T08:48:07.002Z</time></trkpt><trkpt lat="44.45397032571178" lon="9.005090417178051"><ele>160.28571428571428</ele><time>2026-04-11T08:48:11.002Z</time></trkpt><trkpt lat="44.453913267877724" lon="9.005051136315043"><ele>161.14285714285714</ele><time>2026-04-11T08:48:14.002Z</time></trkpt><trkpt lat="44.45387543803055" lon="9.004959329847967"><ele>162.0</ele><time>2026-04-11T08:48:18.002Z</time></trkpt><trkpt lat="44.45383898628712" lon="9.004862367226458"><ele>161.71428571428572</ele><time>2026-04-11T08:48:22.002Z</time></trkpt><trkpt lat="44.45380935619417" lon="9.004781585585457"><ele>161.42857142857142</ele><time>2026-04-11T08:48:25.003Z</time></trkpt><trkpt lat="44.453797335261484" lon="9.004679224034088"><ele>161.14285714285714</ele><time>2026-04-11T08:48:29.003Z</time></trkpt><trkpt lat="44.45377475748744" lon="9.004594847106507"><ele>160.85714285714286</ele><time>2026-04-11T08:48:32.003Z</time></trkpt><trkpt lat="44.45374684694054" lon="9.004491653567268"><ele>160.57142857142858</ele><time>2026-04-11T08:48:36.003Z</time></trkpt><trkpt lat="44.45372666973638" lon="9.004407273261751"><ele>160.28571428571428</ele><time>2026-04-11T08:48:39.003Z</time></trkpt><trkpt lat="44.45371267711055" lon="9.004304577902396"><ele>160.0</ele><time>2026-04-11T08:48:42.003Z</time></trkpt><trkpt lat="44.45369017369377" lon="9.00421710084425"><ele>161.0</ele><time>2026-04-11T08:48:45.003Z</time></trkpt><trkpt lat="44.453666309169996" lon="9.004119300950553"><ele>162.0</ele><time>2026-04-11T08:48:49.003Z</time></trkpt><trkpt lat="44.45367325159559" lon="9.004022881760616"><ele>163.0</ele><time>2026-04-11T08:51:06Z</time></trkpt><trkpt lat="44.45371927508783" lon="9.003955396956478"><ele>164.0</ele><time>2026-04-11T08:51:10Z</time></trkpt><trkpt lat="44.45377236054794" lon="9.003889067304554"><ele>165.0</ele><time>2026-04-11T08:51:14Z</time></trkpt><trkpt lat="44.45379193652702" lon="9.003803760539439"><ele>166.0</ele><time>2026-04-11T08:51:18Z</time></trkpt><trkpt lat="44.4537634629033" lon="9.00371150571734"><ele>167.0</ele><time>2026-04-11T08:51:22Z</time></trkpt><trkpt lat="44.45375310524316" lon="9.003614768042123"><ele>167.0</ele><time>2026-04-11T08:51:26Z</time></trkpt><trkpt lat="44.453736591013296" lon="9.003512367120168"><ele>167.0</ele><time>2026-04-11T08:51:30.001Z</time></trkpt><trkpt lat="44.453717556070735" lon="9.00342527070002"><ele>167.0</ele><time>2026-04-11T08:51:34.001Z</time></trkpt><trkpt lat="44.45370065644885" lon="9.003332419157557"><ele>167.0</ele><time>2026-04-11T08:51:38.001Z</time></trkpt><trkpt lat="44.45369110341064" lon="9.003230115375304"><ele>167.0</ele><time>2026-04-11T08:51:42.001Z</time></trkpt><trkpt lat="44.45367488387093" lon="9.003119145023813"><ele>167.0</ele><time>2026-04-11T08:51:46.001Z</time></trkpt><trkpt lat="44.453637316448194" lon="9.003030916641556"><ele>167.0</ele><time>2026-04-11T08:51:50.001Z</time></trkpt><trkpt lat="44.45357506256531" lon="9.002952600908943"><ele>168.33333333333331</ele><time>2026-04-11T08:51:54.001Z</time></trkpt><trkpt lat="44.45349759119441" lon="9.00286982009558"><ele>169.66666666666666</ele><time>2026-04-11T08:51:57.001Z</time></trkpt><trkpt lat="44.4534618883676" lon="9.00275586265133"><ele>171.0</ele><time>2026-04-11T08:52:00.002Z</time></trkpt><trkpt lat="44.45343115452763" lon="9.00265793954017"><ele>172.33333333333334</ele><time>2026-04-11T08:52:03.002Z</time></trkpt><trkpt lat="44.45340061259859" lon="9.00256748962136"><ele>173.66666666666669</ele><time>2026-04-11T08:52:06.002Z</time></trkpt><trkpt lat="44.45338636432128" lon="9.002471576028398"><ele>175.0</ele><time>2026-04-11T08:52:09.002Z</time></trkpt><trkpt lat="44.45337205624952" lon="9.002380662593998"><ele>176.42857142857142</ele><time>2026-04-11T08:52:12.002Z</time></trkpt><trkpt lat="44.453337516984625" lon="9.002273446585114"><ele>177.85714285714286</ele><time>2026-04-11T08:52:16.002Z</time></trkpt><trkpt lat="44.45330859341662" lon="9.002167953115405"><ele>179.28571428571428</ele><time>2026-04-11T08:52:20.002Z</time></trkpt><trkpt lat="44.45328796496652" lon="9.002079983681107"><ele>180.71428571428572</ele><time>2026-04-11T08:52:24.002Z</time></trkpt><trkpt lat="44.453262729948094" lon="9.00197890812892"><ele>182.14285714285714</ele><time>2026-04-11T08:52:28.002Z</time></trkpt><trkpt lat="44.45325511604355" lon="9.001883342600655"><ele>183.57142857142856</ele><time>2026-04-11T08:52:32.002Z</time></trkpt><trkpt lat="44.45323672729122" lon="9.001791213110467"><ele>185.0</ele><time>2026-04-11T08:52:36.003Z</time></trkpt><trkpt lat="44.45324085413564" lon="9.001697545920791"><ele>185.0</ele><time>2026-04-11T08:52:40.003Z</time></trkpt><trkpt lat="44.453212298584745" lon="9.001607540955913"><ele>185.0</ele><time>2026-04-11T08:52:43.003Z</time></trkpt><trkpt lat="44.453181450632705" lon="9.001514767400078"><ele>185.0</ele><time>2026-04-11T08:52:45.003Z</time></trkpt><trkpt lat="44.45313490367105" lon="9.001409084355304"><ele>185.0</ele><time>2026-04-11T08:52:47.003Z</time></trkpt><trkpt lat="44.4531166502677" lon="9.00125848247596"><ele>185.0</ele><time>2026-04-11T08:52:49.003Z</time></trkpt><trkpt lat="44.45312234735827" lon="9.001169940969223"><ele>185.0</ele><time>2026-04-11T08:52:50.003Z</time></trkpt><trkpt lat="44.453140271343706" lon="9.00107611084676"><ele>185.0</ele><time>2026-04-11T08:52:51.003Z</time></trkpt><trkpt lat="44.45315681112076" lon="9.000979747180518"><ele>185.0</ele><time>2026-04-11T08:52:52.003Z</time></trkpt><trkpt lat="44.453174561822344" lon="9.000883228563099"><ele>185.0</ele><time>2026-04-11T08:52:53.003Z</time></trkpt><trkpt lat="44.45319408825167" lon="9.000779369535056"><ele>185.0</ele><time>2026-04-11T08:52:54.003Z</time></trkpt><trkpt lat="44.45320799949443" lon="9.000673026017418"><ele>185.0</ele><time>2026-04-11T08:52:55.003Z</time></trkpt><trkpt lat="44.45322130424505" lon="9.000568549889847"><ele>185.0</ele><time>2026-04-11T08:52:56.003Z</time></trkpt><trkpt lat="44.4532290599573" lon="9.000459400817077"><ele>183.83333333333331</ele><time>2026-04-11T08:52:57.003Z</time></trkpt><trkpt lat="44.453234762143936" lon="9.000353760985336"><ele>182.66666666666666</ele><time>2026-04-11T08:52:58.003Z</time></trkpt><trkpt lat="44.45324172985448" lon="9.00025501601516"><ele>181.5</ele><time>2026-04-11T08:52:59.003Z</time></trkpt><trkpt lat="44.453259784195744" lon="9.000159253475857"><ele>180.33333333333334</ele><time>2026-04-11T08:53:00.003Z</time></trkpt><trkpt lat="44.453266605251436" lon="9.000029415795368"><ele>179.16666666666669</ele><time>2026-04-11T08:53:02.003Z</time></trkpt><trkpt lat="44.453262971659406" lon="8.999913938956587"><ele>178.0</ele><time>2026-04-11T08:53:03.999Z</time></trkpt><trkpt lat="44.45319668697142" lon="8.999806922975157"><ele>178.0</ele><time>2026-04-11T08:53:05.999Z</time></trkpt><trkpt lat="44.45311782796115" lon="8.99983090857892"><ele>178.0</ele><time>2026-04-11T08:53:07.999Z</time></trkpt><trkpt lat="44.45303714587404" lon="8.99982251077857"><ele>178.0</ele><time>2026-04-11T08:53:10.999Z</time></trkpt><trkpt lat="44.45295992009771" lon="8.999758827555347"><ele>178.0</ele><time>2026-04-11T08:53:13.999Z</time></trkpt><trkpt lat="44.452912759169216" lon="8.999696025729643"><ele>178.0</ele><time>2026-04-11T08:53:15.999Z</time></trkpt><trkpt lat="44.452874789671725" lon="8.999616138255313"><ele>178.0</ele><time>2026-04-11T08:53:18Z</time></trkpt><trkpt lat="44.45285409587609" lon="8.99952887814923"><ele>175.7142857142857</ele><time>2026-04-11T08:53:20Z</time></trkpt><trkpt lat="44.45285247797805" lon="8.999437877841574"><ele>173.42857142857142</ele><time>2026-04-11T08:53:22Z</time></trkpt><trkpt lat="44.45283955363326" lon="8.999346483723578"><ele>171.14285714285714</ele><time>2026-04-11T08:53:24Z</time></trkpt><trkpt lat="44.452833730366194" lon="8.999254658107763"><ele>168.85714285714283</ele><time>2026-04-11T08:53:26Z</time></trkpt><trkpt lat="44.45282476775809" lon="8.999163555061326"><ele>166.57142857142856</ele><time>2026-04-11T08:53:28Z</time></trkpt><trkpt lat="44.45282294064202" lon="8.999071970794697"><ele>164.28571428571428</ele><time>2026-04-11T08:53:30Z</time></trkpt><trkpt lat="44.45282834177692" lon="8.998983227998137"><ele>162.0</ele><time>2026-04-11T08:53:32Z</time></trkpt><trkpt lat="44.45284862874434" lon="8.998892234653518"><ele>162.0</ele><time>2026-04-11T08:53:34Z</time></trkpt><trkpt lat="44.45287070861591" lon="8.998804828411725"><ele>162.0</ele><time>2026-04-11T08:53:36Z</time></trkpt><trkpt lat="44.45287661107657" lon="8.998709645207386"><ele>162.0</ele><time>2026-04-11T08:53:38.001Z</time></trkpt><trkpt lat="44.45289601803185" lon="8.998621078350904"><ele>162.0</ele><time>2026-04-11T08:53:40.001Z</time></trkpt><trkpt lat="44.45288694562994" lon="8.998529391337724"><ele>162.0</ele><time>2026-04-11T08:53:42.001Z</time></trkpt><trkpt lat="44.452889731612856" lon="8.998412878215834"><ele>162.0</ele><time>2026-04-11T08:53:45.001Z</time></trkpt><trkpt lat="44.45287299855469" lon="8.998326290460744"><ele>162.0</ele><time>2026-04-11T08:53:50.001Z</time></trkpt><trkpt lat="44.45289679903841" lon="8.998235299578983"><ele>161.42857142857144</ele><time>2026-04-11T08:53:53.001Z</time></trkpt><trkpt lat="44.45293614632611" lon="8.998165083048214"><ele>160.85714285714286</ele><time>2026-04-11T08:54:02.001Z</time></trkpt><trkpt lat="44.45289470156372" lon="8.998093619068602"><ele>160.28571428571428</ele><time>2026-04-11T08:54:29.002Z</time></trkpt><trkpt lat="44.452922135828935" lon="8.99801017029455"><ele>159.71428571428572</ele><time>2026-04-11T08:54:34.002Z</time></trkpt><trkpt lat="44.45297204379002" lon="8.997927053735971"><ele>159.14285714285714</ele><time>2026-04-11T08:54:36.002Z</time></trkpt><trkpt lat="44.45302907848506" lon="8.997862073375629"><ele>158.57142857142858</ele><time>2026-04-11T08:54:38.002Z</time></trkpt><trkpt lat="44.45306125649539" lon="8.997767819707828"><ele>158.0</ele><time>2026-04-11T08:54:40.003Z</time></trkpt><trkpt lat="44.45309402106202" lon="8.997687419805947"><ele>159.2857142857143</ele><time>2026-04-11T08:54:42.003Z</time></trkpt><trkpt lat="44.45312804074782" lon="8.997611311593587"><ele>160.57142857142858</ele><time>2026-04-11T08:54:44.003Z</time></trkpt><trkpt lat="44.45318769497019" lon="8.997528631108075"><ele>161.85714285714286</ele><time>2026-04-11T08:54:47.003Z</time></trkpt><trkpt lat="44.453232845748474" lon="8.997450920254458"><ele>163.14285714285717</ele><time>2026-04-11T08:54:49.003Z</time></trkpt><trkpt lat="44.45326819975945" lon="8.997338537740735"><ele>164.42857142857144</ele><time>2026-04-11T08:54:52.003Z</time></trkpt><trkpt lat="44.45328153009751" lon="8.997249872681552"><ele>165.71428571428572</ele><time>2026-04-11T08:54:55.003Z</time></trkpt><trkpt lat="44.453306117599034" lon="8.997156874222062"><ele>167.0</ele><time>2026-04-11T08:54:59.003Z</time></trkpt><trkpt lat="44.45335136773041" lon="8.99707704303579"><ele>167.0</ele><time>2026-04-11T08:55:02.003Z</time></trkpt><trkpt lat="44.45339119236386" lon="8.99700521280154"><ele>167.0</ele><time>2026-04-11T08:55:05.003Z</time></trkpt><trkpt lat="44.453461227670815" lon="8.99696933177414"><ele>167.0</ele><time>2026-04-11T08:55:07.003Z</time></trkpt><trkpt lat="44.45349395556899" lon="8.996893779972067"><ele>167.0</ele><time>2026-04-11T08:55:09.999Z</time></trkpt><trkpt lat="44.45347580914904" lon="8.99678837318465"><ele>167.0</ele><time>2026-04-11T08:55:12.999Z</time></trkpt><trkpt lat="44.45344541126568" lon="8.996674612850171"><ele>167.0</ele><time>2026-04-11T08:55:14.999Z</time></trkpt><trkpt lat="44.453439484703246" lon="8.996571200339758"><ele>167.0</ele><time>2026-04-11T08:55:16.999Z</time></trkpt><trkpt lat="44.45342933160675" lon="8.996480345289914"><ele>165.42857142857142</ele><time>2026-04-11T08:55:18.999Z</time></trkpt><trkpt lat="44.4534342154335" lon="8.996379840902641"><ele>163.85714285714286</ele><time>2026-04-11T08:55:20.999Z</time></trkpt><trkpt lat="44.453447752172146" lon="8.99628893483882"><ele>162.28571428571428</ele><time>2026-04-11T08:55:22.999Z</time></trkpt><trkpt lat="44.45345942961483" lon="8.996156816860964"><ele>160.71428571428572</ele><time>2026-04-11T08:55:26Z</time></trkpt><trkpt lat="44.45347858418368" lon="8.996066979657297"><ele>159.14285714285714</ele><time>2026-04-11T08:55:28Z</time></trkpt><trkpt lat="44.45350683099697" lon="8.99595995989723"><ele>157.57142857142858</ele><time>2026-04-11T08:55:31Z</time></trkpt><trkpt lat="44.453533309331256" lon="8.995879092810489"><ele>156.0</ele><time>2026-04-11T08:55:35Z</time></trkpt><trkpt lat="44.45355663097831" lon="8.995796270518968"><ele>156.0</ele><time>2026-04-11T08:55:40Z</time></trkpt><trkpt lat="44.453580855458654" lon="8.995713780953471"><ele>156.0</ele><time>2026-04-11T08:55:46.001Z</time></trkpt><trkpt lat="44.45360927450504" lon="8.995619390141666"><ele>156.0</ele><time>2026-04-11T08:55:52.001Z</time></trkpt><trkpt lat="44.45361918082519" lon="8.995518975239317"><ele>156.0</ele><time>2026-04-11T08:55:59.001Z</time></trkpt><trkpt lat="44.45361497387099" lon="8.99542862374485"><ele>156.0</ele><time>2026-04-11T08:56:02.001Z</time></trkpt><trkpt lat="44.45360085895583" lon="8.995317814294935"><ele>156.0</ele><time>2026-04-11T08:56:05.001Z</time></trkpt><trkpt lat="44.453613553696634" lon="8.995228433068743"><ele>156.0</ele><time>2026-04-11T08:56:07.001Z</time></trkpt><trkpt lat="44.453637616641714" lon="8.99514480317017"><ele>156.0</ele><time>2026-04-11T08:56:09.001Z</time></trkpt><trkpt lat="44.453635098867245" lon="8.99504930753498"><ele>156.0</ele><time>2026-04-11T08:56:13.001Z</time></trkpt><trkpt lat="44.45356064084388" lon="8.995064790318953"><ele>156.0</ele><time>2026-04-11T08:56:15.002Z</time></trkpt><trkpt lat="44.45345132263119" lon="8.995062325958205"><ele>156.0</ele><time>2026-04-11T08:56:17.002Z</time></trkpt><trkpt lat="44.453380293395504" lon="8.99506341334016"><ele>156.0</ele><time>2026-04-11T08:56:18.002Z</time></trkpt><trkpt lat="44.453316213495555" lon="8.995064284322591"><ele>156.0</ele><time>2026-04-11T08:56:19.002Z</time></trkpt><trkpt lat="44.4532070133847" lon="8.9950486894945"><ele>156.0</ele><time>2026-04-11T08:56:21.002Z</time></trkpt><trkpt lat="44.453126794545256" lon="8.99505498013898"><ele>156.0</ele><time>2026-04-11T08:56:23.002Z</time></trkpt><trkpt lat="44.453021243370806" lon="8.9950894186604"><ele>156.0</ele><time>2026-04-11T08:56:25.002Z</time></trkpt><trkpt lat="44.452930172440496" lon="8.99509075705233"><ele>156.0</ele><time>2026-04-11T08:56:27.002Z</time></trkpt><trkpt lat="44.45283826973602" lon="8.995113387734074"><ele>156.0</ele><time>2026-04-11T08:56:29.002Z</time></trkpt><trkpt lat="44.45275639944157" lon="8.995090539468503"><ele>153.5</ele><time>2026-04-11T08:56:31.002Z</time></trkpt><trkpt lat="44.45265779551714" lon="8.995091336543203"><ele>151.0</ele><time>2026-04-11T08:56:33.002Z</time></trkpt><trkpt lat="44.452586757866264" lon="8.995077207939822"><ele>148.5</ele><time>2026-04-11T08:56:35.002Z</time></trkpt><trkpt lat="44.45251828147514" lon="8.995026465774332"><ele>146.0</ele><time>2026-04-11T08:56:37.002Z</time></trkpt><trkpt lat="44.45242523179602" lon="8.995002293015691"><ele>143.5</ele><time>2026-04-11T08:56:40.002Z</time></trkpt><trkpt lat="44.45234064357775" lon="8.995018822546081"><ele>141.0</ele><time>2026-04-11T08:56:43.002Z</time></trkpt><trkpt lat="44.452269816822024" lon="8.995028546694655"><ele>141.0</ele><time>2026-04-11T08:56:46.002Z</time></trkpt><trkpt lat="44.452211935822895" lon="8.994990497955792"><ele>141.0</ele><time>2026-04-11T08:56:50.003Z</time></trkpt><trkpt lat="44.45216685830213" lon="8.994914124177184"><ele>141.0</ele><time>2026-04-11T08:56:54.003Z</time></trkpt><trkpt lat="44.45210448782043" lon="8.994844444560913"><ele>141.0</ele><time>2026-04-11T08:56:57.003Z</time></trkpt><trkpt lat="44.45204793474172" lon="8.994763893745686"><ele>141.0</ele><time>2026-04-11T08:57:00.003Z</time></trkpt><trkpt lat="44.452018845081255" lon="8.994662030525387"><ele>141.0</ele><time>2026-04-11T08:57:03.003Z</time></trkpt><trkpt lat="44.45198974842001" lon="8.994569477904228"><ele>141.0</ele><time>2026-04-11T08:57:06.003Z</time></trkpt><trkpt lat="44.45197908183528" lon="8.99445085098398"><ele>141.0</ele><time>2026-04-11T08:57:09.003Z</time></trkpt><trkpt lat="44.45200897348935" lon="8.994359195936791"><ele>141.0</ele><time>2026-04-11T08:57:12.003Z</time></trkpt><trkpt lat="44.45209327763746" lon="8.994319456985375"><ele>141.0</ele><time>2026-04-11T08:57:14.999Z</time></trkpt><trkpt lat="44.4521588415099" lon="8.994321032382087"><ele>141.0</ele><time>2026-04-11T08:57:16.999Z</time></trkpt><trkpt lat="44.452222074511866" lon="8.994318885836515"><ele>141.0</ele><time>2026-04-11T08:57:18.999Z</time></trkpt><trkpt lat="44.45229043429576" lon="8.994328029634332"><ele>141.0</ele><time>2026-04-11T08:57:20.999Z</time></trkpt><trkpt lat="44.45236185647106" lon="8.994321071999478"><ele>141.0</ele><time>2026-04-11T08:57:22.999Z</time></trkpt><trkpt lat="44.452428671564796" lon="8.994318123402277"><ele>141.0</ele><time>2026-04-11T08:57:24.999Z</time></trkpt><trkpt lat="44.45249976499492" lon="8.994334502069172"><ele>141.0</ele><time>2026-04-11T08:57:26.999Z</time></trkpt><trkpt lat="44.45259835980047" lon="8.994320817252161"><ele>141.0</ele><time>2026-04-11T08:57:29.999Z</time></trkpt><trkpt lat="44.452665488708476" lon="8.994302329553602"><ele>141.0</ele><time>2026-04-11T08:57:32Z</time></trkpt><trkpt lat="44.45273650437897" lon="8.994286360010449"><ele>141.0</ele><time>2026-04-11T08:57:34Z</time></trkpt><trkpt lat="44.45281037454429" lon="8.994266847084921"><ele>141.0</ele><time>2026-04-11T08:57:36Z</time></trkpt><trkpt lat="44.452904745860835" lon="8.994208474357237"><ele>140.85714285714286</ele><time>2026-04-11T08:57:39Z</time></trkpt><trkpt lat="44.452966831392146" lon="8.994172002164605"><ele>140.71428571428572</ele><time>2026-04-11T08:57:41Z</time></trkpt><trkpt lat="44.45304654434114" lon="8.994146413717083"><ele>140.57142857142856</ele><time>2026-04-11T08:57:43Z</time></trkpt><trkpt lat="44.453116374519304" lon="8.994121414743146"><ele>140.42857142857144</ele><time>2026-04-11T08:57:45Z</time></trkpt><trkpt lat="44.4531903055013" lon="8.994096199135786"><ele>140.28571428571428</ele><time>2026-04-11T08:57:47Z</time></trkpt><trkpt lat="44.45326149798658" lon="8.994070983277398"><ele>140.14285714285714</ele><time>2026-04-11T08:57:49Z</time></trkpt><trkpt lat="44.45332411783606" lon="8.994021462542877"><ele>140.0</ele><time>2026-04-11T08:57:51.001Z</time></trkpt><trkpt lat="44.45339233786407" lon="8.993958079364269"><ele>140.0</ele><time>2026-04-11T08:57:53.001Z</time></trkpt><trkpt lat="44.45345657985363" lon="8.993927710583295"><ele>140.0</ele><time>2026-04-11T08:57:54.001Z</time></trkpt><trkpt lat="44.453503513940596" lon="8.993847731644031"><ele>140.0</ele><time>2026-04-11T08:57:57.001Z</time></trkpt><trkpt lat="44.453560071493875" lon="8.993807410113504"><ele>140.0</ele><time>2026-04-11T08:57:59.001Z</time></trkpt><trkpt lat="44.45361320202122" lon="8.99375702634903"><ele>140.0</ele><time>2026-04-11T08:58:01.001Z</time></trkpt><trkpt lat="44.45368672884347" lon="8.993727750670319"><ele>140.0</ele><time>2026-04-11T08:58:07.001Z</time></trkpt><trkpt lat="44.45377379869884" lon="8.9937233718085"><ele>140.0</ele><time>2026-04-11T08:58:10.001Z</time></trkpt><trkpt lat="44.453847713349916" lon="8.993759887214596"><ele>136.71428571428572</ele><time>2026-04-11T08:58:13.001Z</time></trkpt><trkpt lat="44.45388090471537" lon="8.993674166785642"><ele>133.42857142857144</ele><time>2026-04-11T08:58:16.001Z</time></trkpt><trkpt lat="44.453889367306715" lon="8.993550971597674"><ele>130.14285714285714</ele><time>2026-04-11T08:58:19.002Z</time></trkpt><trkpt lat="44.4538286584386" lon="8.993468521282455"><ele>126.85714285714286</ele><time>2026-04-11T08:58:23.002Z</time></trkpt><trkpt lat="44.453810370656846" lon="8.99337406349634"><ele>123.57142857142858</ele><time>2026-04-11T08:58:27.002Z</time></trkpt><trkpt lat="44.453762276834304" lon="8.993296290234701"><ele>120.28571428571429</ele><time>2026-04-11T08:58:45.002Z</time></trkpt><trkpt lat="44.45371721353752" lon="8.99323362430629"><ele>117.0</ele><time>2026-04-11T08:59:02.003Z</time></trkpt><trkpt lat="44.45365492939869" lon="8.993212110838078"><ele>117.0</ele><time>2026-04-11T08:59:12.003Z</time></trkpt><trkpt lat="44.45364889296024" lon="8.993109752054682"><ele>117.00000000000001</ele><time>2026-04-11T08:59:19.003Z</time></trkpt><trkpt lat="44.453701845334145" lon="8.993052327361667"><ele>117.0</ele><time>2026-04-11T08:59:25.999Z</time></trkpt><trkpt lat="44.45376320945294" lon="8.993014287714612"><ele>117.0</ele><time>2026-04-11T08:59:31.999Z</time></trkpt><trkpt lat="44.45382869896676" lon="8.992971864393796"><ele>117.00000000000001</ele><time>2026-04-11T08:59:40Z</time></trkpt><trkpt lat="44.45389029894009" lon="8.99294996047458"><ele>117.0</ele><time>2026-04-11T08:59:48Z</time></trkpt><trkpt lat="44.45391744781308" lon="8.992858266125259"><ele>117.0</ele><time>2026-04-11T09:01:31.999Z</time></trkpt><trkpt lat="44.45395140847597" lon="8.992781339398297"><ele>121.0</ele><time>2026-04-11T09:01:35.999Z</time></trkpt><trkpt lat="44.453990324470205" lon="8.992691704555632"><ele>125.0</ele><time>2026-04-11T09:01:39.999Z</time></trkpt><trkpt lat="44.4540263405401" lon="8.992618239549891"><ele>129.0</ele><time>2026-04-11T09:01:44Z</time></trkpt><trkpt lat="44.454049328576616" lon="8.99252838103426"><ele>133.0</ele><time>2026-04-11T09:01:47Z</time></trkpt><trkpt lat="44.45407404854654" lon="8.99241622391356"><ele>137.0</ele><time>2026-04-11T09:01:51Z</time></trkpt><trkpt lat="44.45409798186636" lon="8.992319633847831"><ele>141.0</ele><time>2026-04-11T09:01:54Z</time></trkpt><trkpt lat="44.45410552149121" lon="8.992184086956517"><ele>141.0</ele><time>2026-04-11T09:01:58Z</time></trkpt><trkpt lat="44.45410257504034" lon="8.992091504367592"><ele>141.0</ele><time>2026-04-11T09:02:01.001Z</time></trkpt><trkpt lat="44.45411873760924" lon="8.991983802301993"><ele>141.0</ele><time>2026-04-11T09:02:04.001Z</time></trkpt><trkpt lat="44.45414351130674" lon="8.991873301598972"><ele>141.0</ele><time>2026-04-11T09:02:07.001Z</time></trkpt><trkpt lat="44.45416116262486" lon="8.991777684571064"><ele>141.0</ele><time>2026-04-11T09:02:10.001Z</time></trkpt><trkpt lat="44.45418430021513" lon="8.991694124452724"><ele>141.0</ele><time>2026-04-11T09:02:13.001Z</time></trkpt><trkpt lat="44.454231268930826" lon="8.991627637300342"><ele>141.0</ele><time>2026-04-11T09:02:16.001Z</time></trkpt><trkpt lat="44.45430960927277" lon="8.991603737778979"><ele>141.0</ele><time>2026-04-11T09:02:19.001Z</time></trkpt><trkpt lat="44.45438524245818" lon="8.99163757481749"><ele>141.0</ele><time>2026-04-11T09:02:22.001Z</time></trkpt><trkpt lat="44.454446230573055" lon="8.991663587684139"><ele>141.0</ele><time>2026-04-11T09:02:24.001Z</time></trkpt><trkpt lat="44.454502143113814" lon="8.991704657900684"><ele>141.0</ele><time>2026-04-11T09:02:26.001Z</time></trkpt><trkpt lat="44.45458728618945" lon="8.991709190449518"><ele>141.0</ele><time>2026-04-11T09:02:29.001Z</time></trkpt><trkpt lat="44.45466376647589" lon="8.991692874297675"><ele>141.0</ele><time>2026-04-11T09:02:32.002Z</time></trkpt><trkpt lat="44.4547370571334" lon="8.991679470459585"><ele>141.0</ele><time>2026-04-11T09:02:35.002Z</time></trkpt><trkpt lat="44.45481769448043" lon="8.991684068685414"><ele>142.57142857142858</ele><time>2026-04-11T09:02:38.002Z</time></trkpt><trkpt lat="44.454884737102155" lon="8.991696924111828"><ele>144.14285714285714</ele><time>2026-04-11T09:02:41.002Z</time></trkpt><trkpt lat="44.45496261163438" lon="8.991679878332567"><ele>145.71428571428572</ele><time>2026-04-11T09:02:44.002Z</time></trkpt><trkpt lat="44.45502367769836" lon="8.991642330517932"><ele>147.28571428571428</ele><time>2026-04-11T09:02:46.002Z</time></trkpt><trkpt lat="44.455091146555105" lon="8.991624179378706"><ele>148.85714285714286</ele><time>2026-04-11T09:02:48.002Z</time></trkpt><trkpt lat="44.45515157953556" lon="8.991552757751128"><ele>150.42857142857142</ele><time>2026-04-11T09:02:51.002Z</time></trkpt><trkpt lat="44.45515675373457" lon="8.991435444368058"><ele>152.0</ele><time>2026-04-11T09:02:55.002Z</time></trkpt><trkpt lat="44.45510408071743" lon="8.991382457606512"><ele>152.0</ele><time>2026-04-11T09:02:58.002Z</time></trkpt><trkpt lat="44.45505072434907" lon="8.991331286161845"><ele>152.0</ele><time>2026-04-11T09:03:00.002Z</time></trkpt><trkpt lat="44.45502758361281" lon="8.991243740735772"><ele>152.0</ele><time>2026-04-11T09:03:06.003Z</time></trkpt><trkpt lat="44.45500471241988" lon="8.991157748803683"><ele>152.0</ele><time>2026-04-11T09:03:11.003Z</time></trkpt><trkpt lat="44.4549738210837" lon="8.991056928094196"><ele>152.0</ele><time>2026-04-11T09:03:17.003Z</time></trkpt><trkpt lat="44.45492471817954" lon="8.990979393105492"><ele>152.0</ele><time>2026-04-11T09:03:22.003Z</time></trkpt><trkpt lat="44.45488535955395" lon="8.990876614936873"><ele>152.0</ele><time>2026-04-11T09:03:25.003Z</time></trkpt><trkpt lat="44.45485562052514" lon="8.990764173351028"><ele>150.7142857142857</ele><time>2026-04-11T09:03:28.003Z</time></trkpt><trkpt lat="44.4548522089719" lon="8.990658216744219"><ele>149.42857142857144</ele><time>2026-04-11T09:03:31.003Z</time></trkpt><trkpt lat="44.45484314060181" lon="8.990554127216157"><ele>148.14285714285714</ele><time>2026-04-11T09:03:34.999Z</time></trkpt><trkpt lat="44.45483435052048" lon="8.99046141399777"><ele>146.85714285714283</ele><time>2026-04-11T09:03:37.999Z</time></trkpt><trkpt lat="44.454836016399625" lon="8.990347159202047"><ele>145.57142857142856</ele><time>2026-04-11T09:03:44.999Z</time></trkpt><trkpt lat="44.45486388137624" lon="8.990267523927931"><ele>144.28571428571428</ele><time>2026-04-11T09:03:48Z</time></trkpt><trkpt lat="44.45488593106728" lon="8.990164713829767"><ele>143.0</ele><time>2026-04-11T09:03:51Z</time></trkpt><trkpt lat="44.454918801281785" lon="8.990054045620468"><ele>141.28571428571428</ele><time>2026-04-11T09:03:54Z</time></trkpt><trkpt lat="44.454978127834714" lon="8.989960143316017"><ele>139.57142857142856</ele><time>2026-04-11T09:03:57Z</time></trkpt><trkpt lat="44.45502874938782" lon="8.989905723174184"><ele>137.85714285714286</ele><time>2026-04-11T09:03:59Z</time></trkpt><trkpt lat="44.45507811217502" lon="8.98984537902007"><ele>136.14285714285714</ele><time>2026-04-11T09:04:01Z</time></trkpt><trkpt lat="44.455132653213866" lon="8.989796334186904"><ele>134.42857142857144</ele><time>2026-04-11T09:04:03Z</time></trkpt><trkpt lat="44.45518450697273" lon="8.989740326045432"><ele>132.71428571428572</ele><time>2026-04-11T09:04:05Z</time></trkpt><trkpt lat="44.45522237955517" lon="8.98966751261982"><ele>131.0</ele><time>2026-04-11T09:04:07Z</time></trkpt><trkpt lat="44.4552532677372" lon="8.98958749324158"><ele>131.0</ele><time>2026-04-11T09:04:09.001Z</time></trkpt><trkpt lat="44.45527384439318" lon="8.989498793056807"><ele>131.0</ele><time>2026-04-11T09:04:11.001Z</time></trkpt><trkpt lat="44.455297064057625" lon="8.9894090468685"><ele>131.0</ele><time>2026-04-11T09:04:13.001Z</time></trkpt><trkpt lat="44.45532412160458" lon="8.989324066587532"><ele>131.0</ele><time>2026-04-11T09:04:15.001Z</time></trkpt><trkpt lat="44.45536469348125" lon="8.989216489437657"><ele>131.0</ele><time>2026-04-11T09:04:18.001Z</time></trkpt><trkpt lat="44.45540537955948" lon="8.989105998568625"><ele>131.0</ele><time>2026-04-11T09:04:21.001Z</time></trkpt><trkpt lat="44.455431397004574" lon="8.98902541949086"><ele>131.0</ele><time>2026-04-11T09:04:23.001Z</time></trkpt><trkpt lat="44.455444395651554" lon="8.98893675558492"><ele>132.0</ele><time>2026-04-11T09:04:26.001Z</time></trkpt><trkpt lat="44.45545157674225" lon="8.988836478217694"><ele>133.0</ele><time>2026-04-11T09:04:29.001Z</time></trkpt><trkpt lat="44.455473958256185" lon="8.988722678061833"><ele>134.0</ele><time>2026-04-11T09:04:32.001Z</time></trkpt><trkpt lat="44.4554886737063" lon="8.988589926753013"><ele>135.0</ele><time>2026-04-11T09:04:35.001Z</time></trkpt><trkpt lat="44.45549881977232" lon="8.988498160732945"><ele>136.0</ele><time>2026-04-11T09:04:37.002Z</time></trkpt><trkpt lat="44.455502253888405" lon="8.988408664482852"><ele>137.0</ele><time>2026-04-11T09:04:39.002Z</time></trkpt><trkpt lat="44.45550753193824" lon="8.988278104887943"><ele>137.0</ele><time>2026-04-11T09:04:42.002Z</time></trkpt><trkpt lat="44.45550665213742" lon="8.988183983000754"><ele>137.0</ele><time>2026-04-11T09:04:44.002Z</time></trkpt><trkpt lat="44.455494432952825" lon="8.98806379743387"><ele>137.0</ele><time>2026-04-11T09:04:47.002Z</time></trkpt><trkpt lat="44.45548485789254" lon="8.9879250030034"><ele>137.0</ele><time>2026-04-11T09:04:51.002Z</time></trkpt><trkpt lat="44.45553263809169" lon="8.98785800727155"><ele>137.0</ele><time>2026-04-11T09:04:53.002Z</time></trkpt><trkpt lat="44.45558440343542" lon="8.987799186206122"><ele>137.0</ele><time>2026-04-11T09:04:55.002Z</time></trkpt><trkpt lat="44.45563168548238" lon="8.987736585494236"><ele>137.0</ele><time>2026-04-11T09:04:57.002Z</time></trkpt><trkpt lat="44.45568042736183" lon="8.987680611886711"><ele>137.0</ele><time>2026-04-11T09:04:59.002Z</time></trkpt><trkpt lat="44.45573538034714" lon="8.987630108572315"><ele>137.0</ele><time>2026-04-11T09:05:01.002Z</time></trkpt><trkpt lat="44.4557936061743" lon="8.98759097767743"><ele>137.0</ele><time>2026-04-11T09:05:03.002Z</time></trkpt><trkpt lat="44.45588183321377" lon="8.987532652757425"><ele>137.0</ele><time>2026-04-11T09:05:06.002Z</time></trkpt><trkpt lat="44.45594623527666" lon="8.987484665426164"><ele>137.0</ele><time>2026-04-11T09:05:08.002Z</time></trkpt><trkpt lat="44.456024662823964" lon="8.987410034014077"><ele>137.5</ele><time>2026-04-11T09:05:11.003Z</time></trkpt><trkpt lat="44.45609534701781" lon="8.987342757690577"><ele>138.0</ele><time>2026-04-11T09:05:14.003Z</time></trkpt><trkpt lat="44.45614503408838" lon="8.987280850028519"><ele>138.5</ele><time>2026-04-11T09:05:16.003Z</time></trkpt><trkpt lat="44.45620871460266" lon="8.987190119375265"><ele>139.0</ele><time>2026-04-11T09:05:19.003Z</time></trkpt><trkpt lat="44.45626942169101" lon="8.987095212875412"><ele>139.5</ele><time>2026-04-11T09:05:22.003Z</time></trkpt><trkpt lat="44.456323880424335" lon="8.987046542491013"><ele>140.0</ele><time>2026-04-11T09:05:24.003Z</time></trkpt><trkpt lat="44.45639401693845" lon="8.987019613400959"><ele>140.0</ele><time>2026-04-11T09:05:26.003Z</time></trkpt><trkpt lat="44.456463417393124" lon="8.986996834102685"><ele>140.0</ele><time>2026-04-11T09:05:28.003Z</time></trkpt><trkpt lat="44.45652956392478" lon="8.986967962991944"><ele>140.0</ele><time>2026-04-11T09:05:30.003Z</time></trkpt><trkpt lat="44.45661605835642" lon="8.986919017254557"><ele>140.0</ele><time>2026-04-11T09:05:33.003Z</time></trkpt><trkpt lat="44.456685784962914" lon="8.986869389427671"><ele>140.0</ele><time>2026-04-11T09:05:36.003Z</time></trkpt><trkpt lat="44.45676660009942" lon="8.986819790038936"><ele>140.0</ele><time>2026-04-11T09:05:38.998Z</time></trkpt><trkpt lat="44.45685009586296" lon="8.986763271064332"><ele>139.66666666666666</ele><time>2026-04-11T09:05:41.999Z</time></trkpt><trkpt lat="44.456911523908985" lon="8.986665796302908"><ele>139.33333333333331</ele><time>2026-04-11T09:05:44.999Z</time></trkpt><trkpt lat="44.45697361177751" lon="8.986564209991489"><ele>139.0</ele><time>2026-04-11T09:05:47.999Z</time></trkpt><trkpt lat="44.4570254959655" lon="8.986481585735453"><ele>138.66666666666666</ele><time>2026-04-11T09:05:50.999Z</time></trkpt><trkpt lat="44.457081812215435" lon="8.986391175858683"><ele>138.33333333333334</ele><time>2026-04-11T09:05:53.999Z</time></trkpt><trkpt lat="44.45714127972157" lon="8.986303932598313"><ele>138.0</ele><time>2026-04-11T09:05:56.999Z</time></trkpt><trkpt lat="44.45719896341202" lon="8.986222181103201"><ele>138.0</ele><time>2026-04-11T09:06:00Z</time></trkpt><trkpt lat="44.457261770695396" lon="8.986151677187944"><ele>138.0</ele><time>2026-04-11T09:06:03Z</time></trkpt><trkpt lat="44.45734267197027" lon="8.98613012227144"><ele>138.0</ele><time>2026-04-11T09:06:06Z</time></trkpt><trkpt lat="44.457433888396" lon="8.986124716552558"><ele>138.0</ele><time>2026-04-11T09:06:10Z</time></trkpt><trkpt lat="44.45750855415094" lon="8.986158623709683"><ele>138.0</ele><time>2026-04-11T09:06:13Z</time></trkpt><trkpt lat="44.457577357362425" lon="8.9861992467419"><ele>138.0</ele><time>2026-04-11T09:06:16.001Z</time></trkpt><trkpt lat="44.45764732692586" lon="8.986212356900541"><ele>138.0</ele><time>2026-04-11T09:06:19.001Z</time></trkpt><trkpt lat="44.4576684423073" lon="8.986305392585503"><ele>138.0</ele><time>2026-04-11T09:06:23.001Z</time></trkpt><trkpt lat="44.457656141815114" lon="8.986408101749232"><ele>138.0</ele><time>2026-04-11T09:06:27.001Z</time></trkpt><trkpt lat="44.457604756389955" lon="8.986481589552591"><ele>138.0</ele><time>2026-04-11T09:06:32.001Z</time></trkpt><trkpt lat="44.45754005933409" lon="8.986491671653283"><ele>138.0</ele><time>2026-04-11T09:06:35.001Z</time></trkpt><trkpt lat="44.45749799203847" lon="8.986583519072015"><ele>138.0</ele><time>2026-04-11T09:06:38.001Z</time></trkpt><trkpt lat="44.45747144843818" lon="8.986691717460827"><ele>138.0</ele><time>2026-04-11T09:06:42.001Z</time></trkpt><trkpt lat="44.45744184892205" lon="8.986802228619094"><ele>139.85714285714286</ele><time>2026-04-11T09:06:46.002Z</time></trkpt><trkpt lat="44.4573950366586" lon="8.986883183160403"><ele>141.71428571428572</ele><time>2026-04-11T09:06:49.002Z</time></trkpt><trkpt lat="44.4573556383556" lon="8.98695374544344"><ele>143.57142857142858</ele><time>2026-04-11T09:06:52.002Z</time></trkpt><trkpt lat="44.457338859603865" lon="8.98704347231222"><ele>145.42857142857144</ele><time>2026-04-11T09:06:56.002Z</time></trkpt><trkpt lat="44.45730665526768" lon="8.987147205297294"><ele>147.28571428571428</ele><time>2026-04-11T09:07:00.002Z</time></trkpt><trkpt lat="44.45724808269666" lon="8.987225133884225"><ele>149.14285714285717</ele><time>2026-04-11T09:07:03.002Z</time></trkpt><trkpt lat="44.45720283055998" lon="8.987305185423025"><ele>151.0</ele><time>2026-04-11T09:07:06.002Z</time></trkpt><trkpt lat="44.45715834464072" lon="8.987388551985756"><ele>150.42857142857144</ele><time>2026-04-11T09:07:09.002Z</time></trkpt><trkpt lat="44.45710921181438" lon="8.987463652930163"><ele>149.85714285714286</ele><time>2026-04-11T09:07:12.002Z</time></trkpt><trkpt lat="44.45705146705267" lon="8.987530989292944"><ele>149.28571428571428</ele><time>2026-04-11T09:07:15.003Z</time></trkpt><trkpt lat="44.45700943810216" lon="8.987621070241286"><ele>148.71428571428572</ele><time>2026-04-11T09:07:18.003Z</time></trkpt><trkpt lat="44.456974567212" lon="8.987701519230443"><ele>148.14285714285714</ele><time>2026-04-11T09:07:21.003Z</time></trkpt><trkpt lat="44.45691716692902" lon="8.987789718290221"><ele>147.57142857142858</ele><time>2026-04-11T09:07:25.003Z</time></trkpt><trkpt lat="44.45688243370807" lon="8.987868141514722"><ele>147.0</ele><time>2026-04-11T09:07:28.003Z</time></trkpt><trkpt lat="44.45683811615896" lon="8.98793078552198"><ele>147.0</ele><time>2026-04-11T09:07:31.003Z</time></trkpt><trkpt lat="44.45678690160762" lon="8.988005460930411"><ele>147.0</ele><time>2026-04-11T09:07:35.003Z</time></trkpt><trkpt lat="44.456730714073515" lon="8.988081268512094"><ele>147.0</ele><time>2026-04-11T09:07:39.003Z</time></trkpt><trkpt lat="44.45669294913395" lon="8.988169231070025"><ele>147.0</ele><time>2026-04-11T09:07:43.003Z</time></trkpt><trkpt lat="44.45664693818444" lon="8.988245426827248"><ele>147.0</ele><time>2026-04-11T09:07:46.999Z</time></trkpt><trkpt lat="44.456610067013884" lon="8.988337669840847"><ele>147.0</ele><time>2026-04-11T09:07:50.999Z</time></trkpt><trkpt lat="44.45656627691988" lon="8.98841871486696"><ele>147.0</ele><time>2026-04-11T09:07:54.999Z</time></trkpt><trkpt lat="44.45653216728852" lon="8.988505052136594"><ele>146.85714285714286</ele><time>2026-04-11T09:07:58.999Z</time></trkpt><trkpt lat="44.45646908345517" lon="8.988568800099562"><ele>146.71428571428572</ele><time>2026-04-11T09:08:03Z</time></trkpt><trkpt lat="44.45642281443674" lon="8.988629833518473"><ele>146.57142857142856</ele><time>2026-04-11T09:08:07Z</time></trkpt><trkpt lat="44.456370628346264" lon="8.988691707754864"><ele>146.42857142857144</ele><time>2026-04-11T09:08:12Z</time></trkpt><trkpt lat="44.456327308807495" lon="8.988770440214903"><ele>146.28571428571428</ele><time>2026-04-11T09:08:17Z</time></trkpt><trkpt lat="44.45627968551727" lon="8.988833885660641"><ele>146.14285714285714</ele><time>2026-04-11T09:08:23.001Z</time></trkpt><trkpt lat="44.45620649550473" lon="8.9888387175554"><ele>146.0</ele><time>2026-04-11T09:08:58.002Z</time></trkpt><trkpt lat="44.45625372666006" lon="8.988780312936512"><ele>146.16666666666666</ele><time>2026-04-11T09:19:18.001Z</time></trkpt><trkpt lat="44.45630565901002" lon="8.988706751972327"><ele>146.33333333333331</ele><time>2026-04-11T09:19:22.002Z</time></trkpt><trkpt lat="44.45636035679596" lon="8.988638662060394"><ele>146.5</ele><time>2026-04-11T09:19:26.002Z</time></trkpt><trkpt lat="44.45642186732352" lon="8.988544315399347"><ele>146.66666666666666</ele><time>2026-04-11T09:19:30.002Z</time></trkpt><trkpt lat="44.45647278627521" lon="8.988464081330154"><ele>146.83333333333334</ele><time>2026-04-11T09:19:32.002Z</time></trkpt><trkpt lat="44.45652152220106" lon="8.988363683692816"><ele>147.0</ele><time>2026-04-11T09:19:34.002Z</time></trkpt><trkpt lat="44.45658249545491" lon="8.988257746138627"><ele>147.0</ele><time>2026-04-11T09:19:36.002Z</time></trkpt><trkpt lat="44.45666712940172" lon="8.988133704446664"><ele>147.0</ele><time>2026-04-11T09:19:38.002Z</time></trkpt><trkpt lat="44.45670906413464" lon="8.988052388287135"><ele>147.0</ele><time>2026-04-11T09:19:39.002Z</time></trkpt><trkpt lat="44.456750639183916" lon="8.987966460767229"><ele>147.0</ele><time>2026-04-11T09:19:40.002Z</time></trkpt><trkpt lat="44.45679687554609" lon="8.98788615153041"><ele>147.0</ele><time>2026-04-11T09:19:41.002Z</time></trkpt><trkpt lat="44.45683807443922" lon="8.987810319326107"><ele>147.0</ele><time>2026-04-11T09:19:42.002Z</time></trkpt><trkpt lat="44.456890419641304" lon="8.987732578717063"><ele>147.0</ele><time>2026-04-11T09:19:43.002Z</time></trkpt><trkpt lat="44.45694274570576" lon="8.98764821142621"><ele>147.0</ele><time>2026-04-11T09:19:44.002Z</time></trkpt><trkpt lat="44.45699441771228" lon="8.987564927951013"><ele>147.0</ele><time>2026-04-11T09:19:45.002Z</time></trkpt><trkpt lat="44.45704732254737" lon="8.987479763784156"><ele>147.0</ele><time>2026-04-11T09:19:46.002Z</time></trkpt><trkpt lat="44.45709615391597" lon="8.987395060064554"><ele>147.0</ele><time>2026-04-11T09:19:47.002Z</time></trkpt><trkpt lat="44.457142738505404" lon="8.987311089456195"><ele>147.0</ele><time>2026-04-11T09:19:48.002Z</time></trkpt><trkpt lat="44.45718792151351" lon="8.9872344469596"><ele>147.66666666666666</ele><time>2026-04-11T09:19:49.002Z</time></trkpt><trkpt lat="44.45723328339656" lon="8.987162653249722"><ele>148.33333333333334</ele><time>2026-04-11T09:19:50.002Z</time></trkpt><trkpt lat="44.457284664488256" lon="8.987098337887465"><ele>149.0</ele><time>2026-04-11T09:19:51.002Z</time></trkpt><trkpt lat="44.45733803371751" lon="8.987045848863188"><ele>149.66666666666669</ele><time>2026-04-11T09:19:52.003Z</time></trkpt><trkpt lat="44.457429209652254" lon="8.986951336026882"><ele>150.33333333333334</ele><time>2026-04-11T09:19:54.003Z</time></trkpt><trkpt lat="44.45751335601105" lon="8.986881353206542"><ele>151.0</ele><time>2026-04-11T09:19:56.003Z</time></trkpt><trkpt lat="44.45756564401341" lon="8.98682886663726"><ele>151.00000000000003</ele><time>2026-04-11T09:19:58.003Z</time></trkpt><trkpt lat="44.45763124096525" lon="8.986764498915656"><ele>151.0</ele><time>2026-04-11T09:20:01.003Z</time></trkpt><trkpt lat="44.457700382580846" lon="8.986699116599866"><ele>151.0</ele><time>2026-04-11T09:20:04.003Z</time></trkpt><trkpt lat="44.457760303569074" lon="8.986655577680017"><ele>151.0</ele><time>2026-04-11T09:20:06.003Z</time></trkpt><trkpt lat="44.4578183518644" lon="8.98661038482451"><ele>151.0</ele><time>2026-04-11T09:20:08.003Z</time></trkpt><trkpt lat="44.45788148539125" lon="8.98657391035685"><ele>151.00000000000003</ele><time>2026-04-11T09:20:10.003Z</time></trkpt><trkpt lat="44.4579396230516" lon="8.986534842316765"><ele>151.0</ele><time>2026-04-11T09:20:12.003Z</time></trkpt><trkpt lat="44.45801278021127" lon="8.986459217469987"><ele>151.16666666666669</ele><time>2026-04-11T09:20:15.003Z</time></trkpt><trkpt lat="44.4580661599545" lon="8.986368750459075"><ele>151.33333333333334</ele><time>2026-04-11T09:20:18.003Z</time></trkpt><trkpt lat="44.45808835409428" lon="8.986256586787055"><ele>151.5</ele><time>2026-04-11T09:20:20.999Z</time></trkpt><trkpt lat="44.45810791471099" lon="8.986135129707563"><ele>151.66666666666666</ele><time>2026-04-11T09:20:23.999Z</time></trkpt><trkpt lat="44.45813823797927" lon="8.986023794628913"><ele>151.83333333333331</ele><time>2026-04-11T09:20:26.999Z</time></trkpt><trkpt lat="44.45816634390163" lon="8.985941694478758"><ele>152.0</ele><time>2026-04-11T09:20:30Z</time></trkpt><trkpt lat="44.458206103124915" lon="8.985842711860517"><ele>151.14285714285714</ele><time>2026-04-11T09:20:34Z</time></trkpt><trkpt lat="44.45825125546392" lon="8.985746072542831"><ele>150.2857142857143</ele><time>2026-04-11T09:20:38Z</time></trkpt><trkpt lat="44.45830634451251" lon="8.985671440808186"><ele>149.42857142857144</ele><time>2026-04-11T09:20:42Z</time></trkpt><trkpt lat="44.45835087472106" lon="8.985586651675058"><ele>148.57142857142856</ele><time>2026-04-11T09:20:46Z</time></trkpt><trkpt lat="44.45838832950004" lon="8.98550223357029"><ele>147.71428571428572</ele><time>2026-04-11T09:20:49Z</time></trkpt><trkpt lat="44.45843055621326" lon="8.985426649764385"><ele>146.85714285714286</ele><time>2026-04-11T09:20:51Z</time></trkpt><trkpt lat="44.458467972824145" lon="8.985353688436184"><ele>146.0</ele><time>2026-04-11T09:20:53.001Z</time></trkpt><trkpt lat="44.45853213903263" lon="8.985359958798039"><ele>146.0</ele><time>2026-04-11T09:20:55.001Z</time></trkpt><trkpt lat="44.45858974815828" lon="8.985426056232331"><ele>146.0</ele><time>2026-04-11T09:20:58.001Z</time></trkpt><trkpt lat="44.45866378312533" lon="8.985422662785917"><ele>146.0</ele><time>2026-04-11T09:21:01.001Z</time></trkpt><trkpt lat="44.458727570099406" lon="8.985352319952641"><ele>146.0</ele><time>2026-04-11T09:21:04.001Z</time></trkpt><trkpt lat="44.45876969405921" lon="8.985253498094888"><ele>146.0</ele><time>2026-04-11T09:21:07.001Z</time></trkpt><trkpt lat="44.45881024956355" lon="8.985168170808349"><ele>146.0</ele><time>2026-04-11T09:21:10.001Z</time></trkpt><trkpt lat="44.458853463732275" lon="8.985090199126308"><ele>146.83333333333331</ele><time>2026-04-11T09:21:13.001Z</time></trkpt><trkpt lat="44.45889568544794" lon="8.985011518606102"><ele>147.66666666666666</ele><time>2026-04-11T09:21:16.001Z</time></trkpt><trkpt lat="44.45896001011755" lon="8.984935122234612"><ele>148.5</ele><time>2026-04-11T09:21:20.001Z</time></trkpt><trkpt lat="44.45902332430702" lon="8.984895555609107"><ele>149.33333333333334</ele><time>2026-04-11T09:21:23.001Z</time></trkpt><trkpt lat="44.459090944976154" lon="8.984859666133563"><ele>150.16666666666669</ele><time>2026-04-11T09:21:26.002Z</time></trkpt><trkpt lat="44.459165749450875" lon="8.984812074891762"><ele>151.0</ele><time>2026-04-11T09:21:30.002Z</time></trkpt><trkpt lat="44.4592366161772" lon="8.9847521412558"><ele>151.00000000000003</ele><time>2026-04-11T09:21:34.002Z</time></trkpt><trkpt lat="44.45929544912161" lon="8.984712498415977"><ele>151.0</ele><time>2026-04-11T09:21:37.002Z</time></trkpt><trkpt lat="44.45937310673719" lon="8.984677155509848"><ele>151.0</ele><time>2026-04-11T09:21:41.002Z</time></trkpt><trkpt lat="44.45943889256762" lon="8.984655590647268"><ele>151.0</ele><time>2026-04-11T09:21:44.002Z</time></trkpt><trkpt lat="44.459507485264396" lon="8.984661397753959"><ele>151.0</ele><time>2026-04-11T09:21:47.002Z</time></trkpt><trkpt lat="44.45958374431151" lon="8.984662918528747"><ele>151.00000000000003</ele><time>2026-04-11T09:21:51.002Z</time></trkpt><trkpt lat="44.459663745541306" lon="8.984669796948593"><ele>151.0</ele><time>2026-04-11T09:21:55.002Z</time></trkpt><trkpt lat="44.45973563992589" lon="8.984674761623944"><ele>152.85714285714286</ele><time>2026-04-11T09:21:59.002Z</time></trkpt><trkpt lat="44.4598121625198" lon="8.984658800529964"><ele>154.71428571428572</ele><time>2026-04-11T09:22:10.003Z</time></trkpt><trkpt lat="44.459877545840904" lon="8.984631762141372"><ele>156.57142857142856</ele><time>2026-04-11T09:22:14.003Z</time></trkpt><trkpt lat="44.459943451378855" lon="8.984590869259733"><ele>158.42857142857144</ele><time>2026-04-11T09:22:18.003Z</time></trkpt><trkpt lat="44.4600011165188" lon="8.984543935610585"><ele>160.28571428571428</ele><time>2026-04-11T09:22:22.003Z</time></trkpt><trkpt lat="44.46006530843957" lon="8.984495418526434"><ele>162.14285714285714</ele><time>2026-04-11T09:22:25.998Z</time></trkpt><trkpt lat="44.46012077871681" lon="8.984442741576617"><ele>164.0</ele><time>2026-04-11T09:22:29.999Z</time></trkpt><trkpt lat="44.46018461251625" lon="8.984379445033014"><ele>163.99999999999997</ele><time>2026-04-11T09:22:34.999Z</time></trkpt><trkpt lat="44.46024164131056" lon="8.984308124476517"><ele>164.0</ele><time>2026-04-11T09:22:38.999Z</time></trkpt><trkpt lat="44.46032043540568" lon="8.984286792231504"><ele>164.0</ele><time>2026-04-11T09:22:43.999Z</time></trkpt><trkpt lat="44.460385838625236" lon="8.984308629311919"><ele>164.0</ele><time>2026-04-11T09:22:48Z</time></trkpt><trkpt lat="44.46043892656883" lon="8.984371185414176"><ele>164.0</ele><time>2026-04-11T09:22:52Z</time></trkpt><trkpt lat="44.46047097235215" lon="8.984470514763135"><ele>163.99999999999997</ele><time>2026-04-11T09:22:56Z</time></trkpt><trkpt lat="44.460469942110905" lon="8.984561490542243"><ele>164.0</ele><time>2026-04-11T09:22:59Z</time></trkpt><trkpt lat="44.46044181113249" lon="8.984661171857887"><ele>163.99999999999997</ele><time>2026-04-11T09:23:03Z</time></trkpt><trkpt lat="44.460407413095744" lon="8.984758460555955"><ele>164.0</ele><time>2026-04-11T09:23:08.001Z</time></trkpt><trkpt lat="44.46035738770234" lon="8.984814256754076"><ele>164.0</ele><time>2026-04-11T09:23:12.001Z</time></trkpt><trkpt lat="44.46031173974724" lon="8.984886945733882"><ele>164.0</ele><time>2026-04-11T09:23:16.001Z</time></trkpt><trkpt lat="44.46026617125371" lon="8.98494942634341"><ele>164.0</ele><time>2026-04-11T09:23:20.001Z</time></trkpt><trkpt lat="44.46020702279877" lon="8.985024385991757"><ele>163.99999999999997</ele><time>2026-04-11T09:23:25.001Z</time></trkpt><trkpt lat="44.46016451460731" lon="8.985100679601466"><ele>164.0</ele><time>2026-04-11T09:23:29.001Z</time></trkpt><trkpt lat="44.460121695308196" lon="8.985185114982063"><ele>165.57142857142856</ele><time>2026-04-11T09:23:33.001Z</time></trkpt><trkpt lat="44.46007262615833" lon="8.985243551215946"><ele>167.14285714285714</ele><time>2026-04-11T09:23:37.002Z</time></trkpt><trkpt lat="44.46003217929916" lon="8.985313202381533"><ele>168.71428571428572</ele><time>2026-04-11T09:23:41.002Z</time></trkpt><trkpt lat="44.459973290824756" lon="8.985380038061155"><ele>170.28571428571428</ele><time>2026-04-11T09:23:45.002Z</time></trkpt><trkpt lat="44.459912167618796" lon="8.98540975867261"><ele>171.85714285714286</ele><time>2026-04-11T09:23:49.002Z</time></trkpt><trkpt lat="44.45983479303885" lon="8.985438382882348"><ele>173.42857142857142</ele><time>2026-04-11T09:23:53.002Z</time></trkpt><trkpt lat="44.459780026432234" lon="8.985511170127802"><ele>175.0</ele><time>2026-04-11T09:23:57.002Z</time></trkpt><trkpt lat="44.459765091710864" lon="8.985611755968904"><ele>175.0</ele><time>2026-04-11T09:24:01.002Z</time></trkpt><trkpt lat="44.45983554738231" lon="8.985631339967846"><ele>175.0</ele><time>2026-04-11T09:24:06.002Z</time></trkpt><trkpt lat="44.45990606187202" lon="8.985616346844047"><ele>175.0</ele><time>2026-04-11T09:24:10.003Z</time></trkpt><trkpt lat="44.4599815037174" lon="8.985580211537954"><ele>175.0</ele><time>2026-04-11T09:24:15.003Z</time></trkpt><trkpt lat="44.460046279303995" lon="8.985537162452271"><ele>175.0</ele><time>2026-04-11T09:24:19.003Z</time></trkpt><trkpt lat="44.46010833345313" lon="8.985472108386928"><ele>175.0</ele><time>2026-04-11T09:24:23.003Z</time></trkpt><trkpt lat="44.46016751747169" lon="8.98542807823406"><ele>175.0</ele><time>2026-04-11T09:24:26.003Z</time></trkpt><trkpt lat="44.46025078585922" lon="8.985430682582617"><ele>175.0</ele><time>2026-04-11T09:24:30.003Z</time></trkpt><trkpt lat="44.46031297117098" lon="8.985448096554324"><ele>175.0</ele><time>2026-04-11T09:24:32.998Z</time></trkpt><trkpt lat="44.460388818586104" lon="8.985489445801733"><ele>175.0</ele><time>2026-04-11T09:24:36.998Z</time></trkpt><trkpt lat="44.46046011111907" lon="8.985525049792102"><ele>175.0</ele><time>2026-04-11T09:24:40.998Z</time></trkpt><trkpt lat="44.46051492477666" lon="8.985573667142887"><ele>175.0</ele><time>2026-04-11T09:24:43.999Z</time></trkpt><trkpt lat="44.460586195472814" lon="8.985620276376187"><ele>175.0</ele><time>2026-04-11T09:24:47.999Z</time></trkpt><trkpt lat="44.46065174400572" lon="8.985673045164091"><ele>175.0</ele><time>2026-04-11T09:24:51.999Z</time></trkpt><trkpt lat="44.46071576836195" lon="8.985734235914558"><ele>175.0</ele><time>2026-04-11T09:24:56Z</time></trkpt><trkpt lat="44.460766870350646" lon="8.985791610938428"><ele>175.0</ele><time>2026-04-11T09:24:59Z</time></trkpt><trkpt lat="44.460826305091544" lon="8.985843472705163"><ele>175.0</ele><time>2026-04-11T09:25:02Z</time></trkpt><trkpt lat="44.46087354663693" lon="8.985905474365724"><ele>175.0</ele><time>2026-04-11T09:25:05Z</time></trkpt><trkpt lat="44.46093338510314" lon="8.985971947355985"><ele>175.0</ele><time>2026-04-11T09:25:08Z</time></trkpt><trkpt lat="44.46098205943151" lon="8.986035011256892"><ele>175.0</ele><time>2026-04-11T09:25:11.001Z</time></trkpt><trkpt lat="44.46104235082094" lon="8.986101423839255"><ele>175.0</ele><time>2026-04-11T09:25:14.001Z</time></trkpt><trkpt lat="44.46109308425703" lon="8.986176080141007"><ele>176.28571428571428</ele><time>2026-04-11T09:25:17.001Z</time></trkpt><trkpt lat="44.461144545936676" lon="8.986237349655072"><ele>177.57142857142856</ele><time>2026-04-11T09:25:20.001Z</time></trkpt><trkpt lat="44.4611962659786" lon="8.98630117020386"><ele>178.85714285714286</ele><time>2026-04-11T09:25:23.001Z</time></trkpt><trkpt lat="44.46125914030121" lon="8.986368026418315"><ele>180.14285714285714</ele><time>2026-04-11T09:25:27.001Z</time></trkpt><trkpt lat="44.46130084406769" lon="8.986439949007611"><ele>181.42857142857142</ele><time>2026-04-11T09:25:30.001Z</time></trkpt><trkpt lat="44.46134844318424" lon="8.986522001255596"><ele>182.71428571428572</ele><time>2026-04-11T09:25:34.001Z</time></trkpt><trkpt lat="44.46140131492074" lon="8.986601133880889"><ele>184.0</ele><time>2026-04-11T09:25:38.002Z</time></trkpt><trkpt lat="44.461435152618286" lon="8.986677082519114"><ele>184.71428571428572</ele><time>2026-04-11T09:25:42.002Z</time></trkpt><trkpt lat="44.461479584851745" lon="8.986746503099582"><ele>185.42857142857142</ele><time>2026-04-11T09:25:46.002Z</time></trkpt><trkpt lat="44.46152568260441" lon="8.986833663968802"><ele>186.14285714285714</ele><time>2026-04-11T09:25:51.002Z</time></trkpt><trkpt lat="44.46154471809301" lon="8.986933266208748"><ele>186.85714285714286</ele><time>2026-04-11T09:25:55.002Z</time></trkpt><trkpt lat="44.46156881018968" lon="8.98703585328897"><ele>187.57142857142856</ele><time>2026-04-11T09:26:00.002Z</time></trkpt><trkpt lat="44.46158335303205" lon="8.987124544455707"><ele>188.28571428571428</ele><time>2026-04-11T09:26:04.002Z</time></trkpt><trkpt lat="44.46158670581618" lon="8.98721659742199"><ele>189.0</ele><time>2026-04-11T09:26:08.002Z</time></trkpt><trkpt lat="44.46157934083568" lon="8.987306668397874"><ele>189.0</ele><time>2026-04-11T09:26:12.003Z</time></trkpt><trkpt lat="44.461553828465576" lon="8.9873887761213"><ele>189.0</ele><time>2026-04-11T09:26:15.003Z</time></trkpt><trkpt lat="44.46153978618357" lon="8.987500409173972"><ele>189.0</ele><time>2026-04-11T09:26:20.003Z</time></trkpt><trkpt lat="44.461514018400145" lon="8.987588746848308"><ele>189.0</ele><time>2026-04-11T09:26:24.003Z</time></trkpt><trkpt lat="44.46149036586798" lon="8.987689603137463"><ele>189.0</ele><time>2026-04-11T09:26:28.003Z</time></trkpt><trkpt lat="44.461478562610715" lon="8.987788485474889"><ele>189.0</ele><time>2026-04-11T09:26:32.003Z</time></trkpt><trkpt lat="44.46144552600292" lon="8.987890824254203"><ele>189.0</ele><time>2026-04-11T09:26:36.003Z</time></trkpt><trkpt lat="44.46142754590605" lon="8.987996849240565"><ele>189.28571428571428</ele><time>2026-04-11T09:26:39.998Z</time></trkpt><trkpt lat="44.461403581390584" lon="8.988097508606666"><ele>189.57142857142856</ele><time>2026-04-11T09:26:43.999Z</time></trkpt><trkpt lat="44.461375606841806" lon="8.988205889798884"><ele>189.85714285714286</ele><time>2026-04-11T09:26:47.999Z</time></trkpt><trkpt lat="44.46136758022936" lon="8.988302486460668"><ele>190.14285714285714</ele><time>2026-04-11T09:26:50.999Z</time></trkpt><trkpt lat="44.461337214177306" lon="8.988387361733244"><ele>190.42857142857142</ele><time>2026-04-11T09:26:53.999Z</time></trkpt><trkpt lat="44.46132644058537" lon="8.988489983338471"><ele>190.71428571428572</ele><time>2026-04-11T09:26:57Z</time></trkpt><trkpt lat="44.46129767200045" lon="8.98857425679366"><ele>191.0</ele><time>2026-04-11T09:27:00Z</time></trkpt><trkpt lat="44.461279440199995" lon="8.988678085080057"><ele>193.16666666666666</ele><time>2026-04-11T09:27:03Z</time></trkpt><trkpt lat="44.461257118365374" lon="8.988775314080954"><ele>195.33333333333331</ele><time>2026-04-11T09:27:06Z</time></trkpt><trkpt lat="44.46124233916348" lon="8.988870992193295"><ele>197.5</ele><time>2026-04-11T09:27:09Z</time></trkpt><trkpt lat="44.46122228859061" lon="8.98897614446749"><ele>199.66666666666666</ele><time>2026-04-11T09:27:12Z</time></trkpt><trkpt lat="44.46119098533047" lon="8.98907551738218"><ele>201.83333333333334</ele><time>2026-04-11T09:27:18.001Z</time></trkpt><trkpt lat="44.46115186689585" lon="8.98918286170463"><ele>204.0</ele><time>2026-04-11T09:27:22.001Z</time></trkpt><trkpt lat="44.46112904983662" lon="8.989277213082755"><ele>204.5</ele><time>2026-04-11T09:27:25.001Z</time></trkpt><trkpt lat="44.461119489242975" lon="8.989368815451547"><ele>205.0</ele><time>2026-04-11T09:27:28.001Z</time></trkpt><trkpt lat="44.46110648581632" lon="8.989491770383438"><ele>205.5</ele><time>2026-04-11T09:27:32.001Z</time></trkpt><trkpt lat="44.46111373294293" lon="8.989589018301917"><ele>206.0</ele><time>2026-04-11T09:27:35.001Z</time></trkpt><trkpt lat="44.46113100221267" lon="8.989690586632133"><ele>206.5</ele><time>2026-04-11T09:27:38.001Z</time></trkpt><trkpt lat="44.461153502359544" lon="8.989792354330906"><ele>207.0</ele><time>2026-04-11T09:27:41.001Z</time></trkpt><trkpt lat="44.46117399432446" lon="8.989892886251663"><ele>207.0</ele><time>2026-04-11T09:27:44.002Z</time></trkpt><trkpt lat="44.461203174135875" lon="8.989992266142949"><ele>207.0</ele><time>2026-04-11T09:27:47.002Z</time></trkpt><trkpt lat="44.461233097107055" lon="8.990097145576618"><ele>207.0</ele><time>2026-04-11T09:27:50.002Z</time></trkpt><trkpt lat="44.46125900444991" lon="8.990220192034505"><ele>207.0</ele><time>2026-04-11T09:27:53.002Z</time></trkpt><trkpt lat="44.46127858477541" lon="8.990310610263753"><ele>207.0</ele><time>2026-04-11T09:27:55.002Z</time></trkpt><trkpt lat="44.46129616269356" lon="8.990395537796083"><ele>207.0</ele><time>2026-04-11T09:27:57.002Z</time></trkpt><trkpt lat="44.46131188653826" lon="8.990512960759947"><ele>205.16666666666666</ele><time>2026-04-11T09:28:00.002Z</time></trkpt><trkpt lat="44.4613137056775" lon="8.990627217307038"><ele>203.33333333333331</ele><time>2026-04-11T09:28:03.002Z</time></trkpt><trkpt lat="44.46132394270673" lon="8.990739412165581"><ele>201.5</ele><time>2026-04-11T09:28:06.002Z</time></trkpt><trkpt lat="44.461340368991465" lon="8.990870126764202"><ele>199.66666666666666</ele><time>2026-04-11T09:28:09.002Z</time></trkpt><trkpt lat="44.46134983228957" lon="8.991000312618011"><ele>197.83333333333331</ele><time>2026-04-11T09:28:12.002Z</time></trkpt><trkpt lat="44.46136004312582" lon="8.991128077171066"><ele>196.0</ele><time>2026-04-11T09:28:15.002Z</time></trkpt><trkpt lat="44.46136734495802" lon="8.991216095234853"><ele>195.99999999999997</ele><time>2026-04-11T09:28:17.003Z</time></trkpt><trkpt lat="44.46136668687617" lon="8.991335274161463"><ele>196.0</ele><time>2026-04-11T09:28:20.003Z</time></trkpt><trkpt lat="44.461374022523415" lon="8.991423669067961"><ele>196.0</ele><time>2026-04-11T09:28:22.003Z</time></trkpt><trkpt lat="44.461378102383044" lon="8.991541530415487"><ele>196.0</ele><time>2026-04-11T09:28:25.003Z</time></trkpt><trkpt lat="44.46137676651114" lon="8.99164569521103"><ele>195.99999999999997</ele><time>2026-04-11T09:28:28.003Z</time></trkpt><trkpt lat="44.4613845477101" lon="8.991770443647393"><ele>196.0</ele><time>2026-04-11T09:28:31.003Z</time></trkpt><trkpt lat="44.461395127573624" lon="8.991871825912554"><ele>197.0</ele><time>2026-04-11T09:28:34.003Z</time></trkpt><trkpt lat="44.46139877161291" lon="8.991968420577589"><ele>198.0</ele><time>2026-04-11T09:28:37.003Z</time></trkpt><trkpt lat="44.46139162476999" lon="8.992069014180641"><ele>199.0</ele><time>2026-04-11T09:28:40.003Z</time></trkpt><trkpt lat="44.46137990754522" lon="8.992164344350378"><ele>200.0</ele><time>2026-04-11T09:28:43.003Z</time></trkpt><trkpt lat="44.46136611931665" lon="8.992266819370698"><ele>201.0</ele><time>2026-04-11T09:28:46.999Z</time></trkpt><trkpt lat="44.461358535811705" lon="8.99236634968974"><ele>202.0</ele><time>2026-04-11T09:28:49.999Z</time></trkpt><trkpt lat="44.46134203992643" lon="8.992454140062637"><ele>203.0</ele><time>2026-04-11T09:28:51.999Z</time></trkpt><trkpt lat="44.461326924167004" lon="8.992544956428436"><ele>204.50000000000003</ele><time>2026-04-11T09:28:53.999Z</time></trkpt><trkpt lat="44.46133222690587" lon="8.992636211362532"><ele>206.0</ele><time>2026-04-11T09:28:55.999Z</time></trkpt><trkpt lat="44.461361998265836" lon="8.992759942967808"><ele>207.5</ele><time>2026-04-11T09:28:58.999Z</time></trkpt><trkpt lat="44.461415755639884" lon="8.992857223301977"><ele>209.0</ele><time>2026-04-11T09:29:02Z</time></trkpt><trkpt lat="44.461475972837015" lon="8.992945347241742"><ele>210.50000000000003</ele><time>2026-04-11T09:29:05Z</time></trkpt><trkpt lat="44.46155331308047" lon="8.993024432520233"><ele>212.0</ele><time>2026-04-11T09:29:08Z</time></trkpt><trkpt lat="44.461612046080816" lon="8.993068894981725"><ele>212.0</ele><time>2026-04-11T09:29:10Z</time></trkpt><trkpt lat="44.46165924179774" lon="8.993128293605025"><ele>212.0</ele><time>2026-04-11T09:29:12Z</time></trkpt><trkpt lat="44.46169856368863" lon="8.99320725556293"><ele>212.0</ele><time>2026-04-11T09:29:14Z</time></trkpt><trkpt lat="44.46174609785866" lon="8.993309160600193"><ele>212.0</ele><time>2026-04-11T09:29:17Z</time></trkpt><trkpt lat="44.46178743678691" lon="8.993428024173397"><ele>212.0</ele><time>2026-04-11T09:29:20Z</time></trkpt><trkpt lat="44.461805282474366" lon="8.993516995249385"><ele>212.0</ele><time>2026-04-11T09:29:22.001Z</time></trkpt><trkpt lat="44.461819568666925" lon="8.993605000150708"><ele>212.0</ele><time>2026-04-11T09:29:24.001Z</time></trkpt><trkpt lat="44.461838444596914" lon="8.993736727824642"><ele>216.00000000000003</ele><time>2026-04-11T09:29:27.001Z</time></trkpt><trkpt lat="44.46186759540017" lon="8.993859785992262"><ele>220.0</ele><time>2026-04-11T09:29:30.001Z</time></trkpt><trkpt lat="44.461919642807736" lon="8.993958880171459"><ele>224.0</ele><time>2026-04-11T09:29:33.001Z</time></trkpt><trkpt lat="44.462013375190864" lon="8.993948757758089"><ele>228.0</ele><time>2026-04-11T09:29:36.001Z</time></trkpt><trkpt lat="44.46210580688641" lon="8.993927508492181"><ele>232.00000000000003</ele><time>2026-04-11T09:29:39.001Z</time></trkpt><trkpt lat="44.46215445309732" lon="8.993870787294798"><ele>236.0</ele><time>2026-04-11T09:29:41.001Z</time></trkpt><trkpt lat="44.46222304748359" lon="8.993786711782544"><ele>236.16666666666669</ele><time>2026-04-11T09:29:44.001Z</time></trkpt><trkpt lat="44.462272938404574" lon="8.993686485789361"><ele>236.33333333333334</ele><time>2026-04-11T09:29:47.001Z</time></trkpt><trkpt lat="44.462341437635736" lon="8.993634017935005"><ele>236.5</ele><time>2026-04-11T09:29:50.001Z</time></trkpt><trkpt lat="44.462428040563914" lon="8.993620806431467"><ele>236.66666666666669</ele><time>2026-04-11T09:29:53.002Z</time></trkpt><trkpt lat="44.462503814326524" lon="8.993601438465303"><ele>236.83333333333334</ele><time>2026-04-11T09:29:56.002Z</time></trkpt><trkpt lat="44.462587365728126" lon="8.99360794117193"><ele>237.0</ele><time>2026-04-11T09:29:59.002Z</time></trkpt><trkpt lat="44.462668458760106" lon="8.993582292755892"><ele>237.0</ele><time>2026-04-11T09:30:02.002Z</time></trkpt><trkpt lat="44.46275115590667" lon="8.993552123110568"><ele>237.0</ele><time>2026-04-11T09:30:05.002Z</time></trkpt><trkpt lat="44.462823317847075" lon="8.993489444950628"><ele>237.0</ele><time>2026-04-11T09:30:08.002Z</time></trkpt><trkpt lat="44.46290498668245" lon="8.993452361997846"><ele>237.0</ele><time>2026-04-11T09:30:11.002Z</time></trkpt><trkpt lat="44.46296703817189" lon="8.99341884909768"><ele>237.0</ele><time>2026-04-11T09:30:14.002Z</time></trkpt><trkpt lat="44.463074534639254" lon="8.993361035886217"><ele>237.0</ele><time>2026-04-11T09:30:17.002Z</time></trkpt><trkpt lat="44.46313862594412" lon="8.993327585729627"><ele>233.66666666666666</ele><time>2026-04-11T09:30:19.002Z</time></trkpt><trkpt lat="44.463206519618346" lon="8.993293910704487"><ele>230.33333333333331</ele><time>2026-04-11T09:30:21.002Z</time></trkpt><trkpt lat="44.46327706525938" lon="8.993259597298099"><ele>227.0</ele><time>2026-04-11T09:30:23.002Z</time></trkpt><trkpt lat="44.46334968166646" lon="8.993236386008894"><ele>223.66666666666666</ele><time>2026-04-11T09:30:25.002Z</time></trkpt><trkpt lat="44.46342448175979" lon="8.993201302855994"><ele>220.33333333333331</ele><time>2026-04-11T09:30:27.003Z</time></trkpt><trkpt lat="44.4635021651656" lon="8.993182453002953"><ele>217.0</ele><time>2026-04-11T09:30:29.003Z</time></trkpt><trkpt lat="44.46358445118986" lon="8.993159258106079"><ele>217.0</ele><time>2026-04-11T09:30:31.003Z</time></trkpt><trkpt lat="44.46366595074094" lon="8.993128543014674"><ele>217.0</ele><time>2026-04-11T09:30:33.003Z</time></trkpt><trkpt lat="44.4637414986598" lon="8.9930977860808"><ele>217.0</ele><time>2026-04-11T09:30:35.003Z</time></trkpt><trkpt lat="44.46381016814047" lon="8.993063094262373"><ele>217.0</ele><time>2026-04-11T09:30:37.003Z</time></trkpt><trkpt lat="44.46386251456822" lon="8.993000711419349"><ele>217.0</ele><time>2026-04-11T09:30:39.003Z</time></trkpt><trkpt lat="44.463920862035906" lon="8.992928830336684"><ele>217.0</ele><time>2026-04-11T09:30:41.003Z</time></trkpt><trkpt lat="44.46398186863115" lon="8.99289027322653"><ele>217.0</ele><time>2026-04-11T09:30:43.003Z</time></trkpt><trkpt lat="44.464053467874166" lon="8.992883871996312"><ele>218.71428571428572</ele><time>2026-04-11T09:30:45.003Z</time></trkpt><trkpt lat="44.464115725512926" lon="8.992861931089905"><ele>220.42857142857144</ele><time>2026-04-11T09:30:47.003Z</time></trkpt><trkpt lat="44.464182912150164" lon="8.992841990247948"><ele>222.14285714285714</ele><time>2026-04-11T09:30:49.003Z</time></trkpt><trkpt lat="44.46426055879477" lon="8.99280217991469"><ele>223.85714285714286</ele><time>2026-04-11T09:30:51.999Z</time></trkpt><trkpt lat="44.46433106586184" lon="8.992787776592706"><ele>225.57142857142858</ele><time>2026-04-11T09:30:54.999Z</time></trkpt><trkpt lat="44.464396922771485" lon="8.992782157977004"><ele>227.28571428571428</ele><time>2026-04-11T09:30:57.999Z</time></trkpt><trkpt lat="44.4644621781404" lon="8.992795672302616"><ele>229.0</ele><time>2026-04-11T09:31:00.999Z</time></trkpt><trkpt lat="44.464528660558344" lon="8.992807337439713"><ele>228.99999999999997</ele><time>2026-04-11T09:31:03.999Z</time></trkpt><trkpt lat="44.46459716595142" lon="8.992837355264268"><ele>229.0</ele><time>2026-04-11T09:31:06.999Z</time></trkpt><trkpt lat="44.46467490807222" lon="8.992842004927926"><ele>229.0</ele><time>2026-04-11T09:31:10Z</time></trkpt><trkpt lat="44.464758597118106" lon="8.992817371727492"><ele>229.0</ele><time>2026-04-11T09:31:13Z</time></trkpt><trkpt lat="44.46482950526755" lon="8.992760636651607"><ele>228.99999999999997</ele><time>2026-04-11T09:31:16Z</time></trkpt><trkpt lat="44.46490829405264" lon="8.992704531800085"><ele>229.0</ele><time>2026-04-11T09:31:19Z</time></trkpt><trkpt lat="44.46497547611421" lon="8.992640154322284"><ele>227.33333333333331</ele><time>2026-04-11T09:31:22Z</time></trkpt><trkpt lat="44.46505538214118" lon="8.992584920609811"><ele>225.66666666666666</ele><time>2026-04-11T09:31:26Z</time></trkpt><trkpt lat="44.46512155717124" lon="8.992541957536826"><ele>224.0</ele><time>2026-04-11T09:31:28.001Z</time></trkpt><trkpt lat="44.465193919808314" lon="8.992482742931339"><ele>222.33333333333331</ele><time>2026-04-11T09:31:32.001Z</time></trkpt><trkpt lat="44.465276577406584" lon="8.992431330866083"><ele>220.66666666666666</ele><time>2026-04-11T09:31:37.001Z</time></trkpt><trkpt lat="44.46534723671487" lon="8.992382591716398"><ele>219.0</ele><time>2026-04-11T09:31:41.001Z</time></trkpt><trkpt lat="44.465411224830845" lon="8.992336345737352"><ele>220.57142857142858</ele><time>2026-04-11T09:31:45.001Z</time></trkpt><trkpt lat="44.465479772624384" lon="8.992284774857115"><ele>222.1428571428571</ele><time>2026-04-11T09:31:49.001Z</time></trkpt><trkpt lat="44.46552820708235" lon="8.992228231690227"><ele>223.7142857142857</ele><time>2026-04-11T09:31:52.001Z</time></trkpt><trkpt lat="44.465577575424874" lon="8.99216120448089"><ele>225.28571428571428</ele><time>2026-04-11T09:31:55.001Z</time></trkpt><trkpt lat="44.465643645330374" lon="8.992145267647862"><ele>226.85714285714283</ele><time>2026-04-11T09:31:58.002Z</time></trkpt><trkpt lat="44.465680046328664" lon="8.992069480583355"><ele>228.4285714285714</ele><time>2026-04-11T09:32:03.002Z</time></trkpt><trkpt lat="44.46563507190647" lon="8.992137581836815"><ele>229.99999999999997</ele><time>2026-04-11T09:32:08.002Z</time></trkpt><trkpt lat="44.465645232177245" lon="8.99222702193979"><ele>230.00000000000003</ele><time>2026-04-11T09:34:12.002Z</time></trkpt><trkpt lat="44.46558075784371" lon="8.992291546486499"><ele>230.0</ele><time>2026-04-11T09:34:16.002Z</time></trkpt><trkpt lat="44.46552486558349" lon="8.992341217506372"><ele>230.0</ele><time>2026-04-11T09:34:19.002Z</time></trkpt><trkpt lat="44.46545676433891" lon="8.992401791194629"><ele>230.0</ele><time>2026-04-11T09:34:22.002Z</time></trkpt><trkpt lat="44.465384713169165" lon="8.992439186105159"><ele>230.00000000000003</ele><time>2026-04-11T09:34:25.002Z</time></trkpt><trkpt lat="44.46531499906554" lon="8.992504300801336"><ele>230.0</ele><time>2026-04-11T09:34:40.003Z</time></trkpt><trkpt lat="44.46523225317152" lon="8.992588958397903"><ele>232.0</ele><time>2026-04-11T09:34:43.003Z</time></trkpt><trkpt lat="44.465174527452206" lon="8.99262697124427"><ele>234.0</ele><time>2026-04-11T09:34:45.003Z</time></trkpt><trkpt lat="44.46510480752255" lon="8.99270640706252"><ele>236.0</ele><time>2026-04-11T09:34:47.003Z</time></trkpt><trkpt lat="44.46502205674221" lon="8.992773302361615"><ele>238.0</ele><time>2026-04-11T09:34:49.003Z</time></trkpt><trkpt lat="44.46492506504941" lon="8.992854071149312"><ele>240.0</ele><time>2026-04-11T09:34:51.003Z</time></trkpt><trkpt lat="44.46483791355721" lon="8.9929092215704"><ele>240.0</ele><time>2026-04-11T09:34:53.003Z</time></trkpt><trkpt lat="44.464768167126664" lon="8.99290804131513"><ele>240.0</ele><time>2026-04-11T09:34:58.003Z</time></trkpt><trkpt lat="44.46469124004551" lon="8.992945192270108"><ele>240.0</ele><time>2026-04-11T09:35:03.999Z</time></trkpt><trkpt lat="44.46461145377533" lon="8.992916969838262"><ele>240.0</ele><time>2026-04-11T09:35:05.999Z</time></trkpt><trkpt lat="44.46454430683991" lon="8.992903496113868"><ele>240.0</ele><time>2026-04-11T09:35:07.999Z</time></trkpt><trkpt lat="44.46445983241723" lon="8.99290130683866"><ele>240.0</ele><time>2026-04-11T09:35:09.999Z</time></trkpt><trkpt lat="44.46436061881945" lon="8.992884689638082"><ele>237.8</ele><time>2026-04-11T09:35:11.999Z</time></trkpt><trkpt lat="44.46427603215526" lon="8.992947205713874"><ele>235.6</ele><time>2026-04-11T09:35:13.999Z</time></trkpt><trkpt lat="44.46420623999351" lon="8.992946337135027"><ele>233.39999999999998</ele><time>2026-04-11T09:35:14.999Z</time></trkpt><trkpt lat="44.46409233428022" lon="8.992998577007668"><ele>231.2</ele><time>2026-04-11T09:35:16.999Z</time></trkpt><trkpt lat="44.463968699674744" lon="8.993094083745097"><ele>229.0</ele><time>2026-04-11T09:35:18.999Z</time></trkpt><trkpt lat="44.463877960152494" lon="8.9931661426268"><ele>226.6</ele><time>2026-04-11T09:35:20.999Z</time></trkpt><trkpt lat="44.46377519688613" lon="8.993228445598545"><ele>224.2</ele><time>2026-04-11T09:35:22.999Z</time></trkpt><trkpt lat="44.46367378873079" lon="8.993241421274972"><ele>221.79999999999998</ele><time>2026-04-11T09:35:25Z</time></trkpt><trkpt lat="44.46356168694412" lon="8.993271374027113"><ele>219.39999999999998</ele><time>2026-04-11T09:35:27Z</time></trkpt><trkpt lat="44.463460722830234" lon="8.993317222145034"><ele>217.0</ele><time>2026-04-11T09:35:29Z</time></trkpt><trkpt lat="44.463376617418945" lon="8.9932863779272"><ele>220.33333333333331</ele><time>2026-04-11T09:35:31Z</time></trkpt><trkpt lat="44.46334299342586" lon="8.993367611875373"><ele>223.66666666666666</ele><time>2026-04-11T09:35:33Z</time></trkpt><trkpt lat="44.46327997736664" lon="8.993375435944088"><ele>227.0</ele><time>2026-04-11T09:35:36Z</time></trkpt><trkpt lat="44.463170674333576" lon="8.993399712071728"><ele>230.33333333333331</ele><time>2026-04-11T09:35:38Z</time></trkpt><trkpt lat="44.463081714148174" lon="8.993453600899526"><ele>233.66666666666666</ele><time>2026-04-11T09:35:40Z</time></trkpt><trkpt lat="44.46297750477194" lon="8.993501229492509"><ele>237.0</ele><time>2026-04-11T09:35:42.001Z</time></trkpt><trkpt lat="44.46288859926018" lon="8.993537635225604"><ele>237.0</ele><time>2026-04-11T09:35:44.001Z</time></trkpt><trkpt lat="44.46280489673699" lon="8.993602878208542"><ele>237.0</ele><time>2026-04-11T09:35:46.001Z</time></trkpt><trkpt lat="44.46272337265431" lon="8.993646841387388"><ele>237.0</ele><time>2026-04-11T09:35:48.001Z</time></trkpt><trkpt lat="44.462641213699314" lon="8.993689400493434"><ele>237.0</ele><time>2026-04-11T09:35:50.001Z</time></trkpt><trkpt lat="44.46255874991221" lon="8.993720168417347"><ele>237.0</ele><time>2026-04-11T09:35:52.001Z</time></trkpt><trkpt lat="44.46247811809195" lon="8.99372618579616"><ele>237.0</ele><time>2026-04-11T09:35:54.001Z</time></trkpt><trkpt lat="44.46238502586406" lon="8.993757538086042"><ele>237.0</ele><time>2026-04-11T09:35:56.001Z</time></trkpt><trkpt lat="44.462331351545885" lon="8.99382024927203"><ele>237.0</ele><time>2026-04-11T09:35:57.001Z</time></trkpt><trkpt lat="44.46224845007182" lon="8.993922961047005"><ele>237.0</ele><time>2026-04-11T09:35:59.001Z</time></trkpt><trkpt lat="44.46219892395773" lon="8.993982274878421"><ele>237.0</ele><time>2026-04-11T09:36:00.001Z</time></trkpt><trkpt lat="44.46209747494103" lon="8.99405699420187"><ele>237.0</ele><time>2026-04-11T09:36:02.001Z</time></trkpt><trkpt lat="44.46197779679731" lon="8.994029220010944"><ele>236.83333333333334</ele><time>2026-04-11T09:36:04.001Z</time></trkpt><trkpt lat="44.461893495603974" lon="8.993892538815327"><ele>236.66666666666669</ele><time>2026-04-11T09:36:06.001Z</time></trkpt><trkpt lat="44.46187727202613" lon="8.993791577554513"><ele>236.5</ele><time>2026-04-11T09:36:07.001Z</time></trkpt><trkpt lat="44.46187018125511" lon="8.993694028137194"><ele>236.33333333333334</ele><time>2026-04-11T09:36:08.002Z</time></trkpt><trkpt lat="44.46184463515967" lon="8.993602167975276"><ele>236.16666666666669</ele><time>2026-04-11T09:36:09.002Z</time></trkpt><trkpt lat="44.46181421248368" lon="8.993516022495818"><ele>236.0</ele><time>2026-04-11T09:36:10.002Z</time></trkpt><trkpt lat="44.46179130249849" lon="8.993425283524672"><ele>232.00000000000003</ele><time>2026-04-11T09:36:11.002Z</time></trkpt><trkpt lat="44.46176172081893" lon="8.993330588204474"><ele>228.0</ele><time>2026-04-11T09:36:12.002Z</time></trkpt><trkpt lat="44.461720413672964" lon="8.993244109194828"><ele>224.0</ele><time>2026-04-11T09:36:13.002Z</time></trkpt><trkpt lat="44.46166444246106" lon="8.993160820885674"><ele>220.0</ele><time>2026-04-11T09:36:14.002Z</time></trkpt><trkpt lat="44.46160060991971" lon="8.993089692294841"><ele>216.00000000000003</ele><time>2026-04-11T09:36:15.002Z</time></trkpt><trkpt lat="44.46153161605252" lon="8.993034500929806"><ele>212.0</ele><time>2026-04-11T09:36:16.002Z</time></trkpt><trkpt lat="44.46146319783316" lon="8.992977677588234"><ele>212.00000000000003</ele><time>2026-04-11T09:36:17.002Z</time></trkpt><trkpt lat="44.46140341619512" lon="8.99290427316163"><ele>212.0</ele><time>2026-04-11T09:36:18.002Z</time></trkpt><trkpt lat="44.461359611637086" lon="8.992827555626045"><ele>212.0</ele><time>2026-04-11T09:36:19.002Z</time></trkpt><trkpt lat="44.46132064109738" lon="8.992733706690077"><ele>212.0</ele><time>2026-04-11T09:36:20.002Z</time></trkpt><trkpt lat="44.46130457588964" lon="8.992621905371596"><ele>212.00000000000003</ele><time>2026-04-11T09:36:21.002Z</time></trkpt><trkpt lat="44.4613074496732" lon="8.992515593384892"><ele>212.0</ele><time>2026-04-11T09:36:22.002Z</time></trkpt><trkpt lat="44.46133032565349" lon="8.992422162543924"><ele>210.50000000000003</ele><time>2026-04-11T09:36:23.002Z</time></trkpt><trkpt lat="44.46136037827209" lon="8.992337959557414"><ele>209.0</ele><time>2026-04-11T09:36:24.002Z</time></trkpt><trkpt lat="44.46139169784974" lon="8.992187197768608"><ele>207.5</ele><time>2026-04-11T09:36:26.002Z</time></trkpt><trkpt lat="44.46140266828042" lon="8.992016305730301"><ele>206.0</ele><time>2026-04-11T09:36:28.002Z</time></trkpt><trkpt lat="44.46140393528138" lon="8.991919204256698"><ele>204.50000000000003</ele><time>2026-04-11T09:36:29.002Z</time></trkpt><trkpt lat="44.46140262752395" lon="8.991816183580651"><ele>203.0</ele><time>2026-04-11T09:36:30.002Z</time></trkpt><trkpt lat="44.46139822194813" lon="8.991712384983947"><ele>201.83333333333334</ele><time>2026-04-11T09:36:31.002Z</time></trkpt><trkpt lat="44.461394001917604" lon="8.991602397124495"><ele>200.66666666666669</ele><time>2026-04-11T09:36:32.002Z</time></trkpt><trkpt lat="44.461386620382484" lon="8.991488360093417"><ele>199.5</ele><time>2026-04-11T09:36:33.002Z</time></trkpt><trkpt lat="44.46137990965638" lon="8.99137160020084"><ele>198.33333333333331</ele><time>2026-04-11T09:36:34.002Z</time></trkpt><trkpt lat="44.46137189050239" lon="8.991254757875451"><ele>197.16666666666666</ele><time>2026-04-11T09:36:35.002Z</time></trkpt><trkpt lat="44.46136300928146" lon="8.991139789169551"><ele>196.0</ele><time>2026-04-11T09:36:36.002Z</time></trkpt><trkpt lat="44.4613604151802" lon="8.991023365495044"><ele>195.99999999999997</ele><time>2026-04-11T09:36:37.002Z</time></trkpt><trkpt lat="44.46135138136451" lon="8.990911828081469"><ele>196.0</ele><time>2026-04-11T09:36:38.002Z</time></trkpt><trkpt lat="44.46133844271579" lon="8.990807014526068"><ele>196.0</ele><time>2026-04-11T09:36:39.002Z</time></trkpt><trkpt lat="44.46132977169414" lon="8.990701907932625"><ele>196.0</ele><time>2026-04-11T09:36:40.003Z</time></trkpt><trkpt lat="44.46132513543331" lon="8.990597370254457"><ele>195.99999999999997</ele><time>2026-04-11T09:36:41.003Z</time></trkpt><trkpt lat="44.46132098491663" lon="8.990501735762624"><ele>196.0</ele><time>2026-04-11T09:36:42.003Z</time></trkpt><trkpt lat="44.461314870650945" lon="8.990396606498775"><ele>195.16666666666666</ele><time>2026-04-11T09:36:43.003Z</time></trkpt><trkpt lat="44.461300276315576" lon="8.990297965796358"><ele>194.33333333333331</ele><time>2026-04-11T09:36:44.003Z</time></trkpt><trkpt lat="44.46127961652064" lon="8.990195646510598"><ele>193.5</ele><time>2026-04-11T09:36:45.003Z</time></trkpt><trkpt lat="44.46125437724918" lon="8.990102424921217"><ele>192.66666666666666</ele><time>2026-04-11T09:36:46.003Z</time></trkpt><trkpt lat="44.46122825329461" lon="8.990013017863971"><ele>191.83333333333331</ele><time>2026-04-11T09:36:47.003Z</time></trkpt><trkpt lat="44.461194936733584" lon="8.989931917005654"><ele>191.0</ele><time>2026-04-11T09:36:48.003Z</time></trkpt><trkpt lat="44.46113572557561" lon="8.989781139863311"><ele>193.60000000000002</ele><time>2026-04-11T09:36:50.003Z</time></trkpt><trkpt lat="44.46110684971546" lon="8.989616905532948"><ele>196.2</ele><time>2026-04-11T09:36:52.003Z</time></trkpt><trkpt lat="44.4611020654068" lon="8.989446868845477"><ele>198.8</ele><time>2026-04-11T09:36:54.003Z</time></trkpt><trkpt lat="44.46112002767396" lon="8.989272540170182"><ele>201.39999999999998</ele><time>2026-04-11T09:36:56.003Z</time></trkpt><trkpt lat="44.46114376095733" lon="8.989187303199138"><ele>204.0</ele><time>2026-04-11T09:36:57.003Z</time></trkpt><trkpt lat="44.461164136460695" lon="8.989097643465863"><ele>204.0</ele><time>2026-04-11T09:36:58.003Z</time></trkpt><trkpt lat="44.46118478217216" lon="8.988997787161654"><ele>204.0</ele><time>2026-04-11T09:36:59.003Z</time></trkpt><trkpt lat="44.46122796517872" lon="8.988832734635269"><ele>204.0</ele><time>2026-04-11T09:37:01.003Z</time></trkpt><trkpt lat="44.46124203028661" lon="8.988745975346433"><ele>204.0</ele><time>2026-04-11T09:37:02.003Z</time></trkpt><trkpt lat="44.461271768521605" lon="8.988579953938347"><ele>204.0</ele><time>2026-04-11T09:37:04.003Z</time></trkpt><trkpt lat="44.46127959087642" lon="8.988485129271385"><ele>201.79999999999998</ele><time>2026-04-11T09:37:05.003Z</time></trkpt><trkpt lat="44.46131601189078" lon="8.988330993201485"><ele>199.6</ele><time>2026-04-11T09:37:07.003Z</time></trkpt><trkpt lat="44.46134159927924" lon="8.988177850913736"><ele>197.4</ele><time>2026-04-11T09:37:08.999Z</time></trkpt><trkpt lat="44.46138201942787" lon="8.98805161826796"><ele>195.2</ele><time>2026-04-11T09:37:10.999Z</time></trkpt><trkpt lat="44.46142307461188" lon="8.987907592858198"><ele>193.0</ele><time>2026-04-11T09:37:12.999Z</time></trkpt><trkpt lat="44.461454384739696" lon="8.987756040982365"><ele>192.99999999999997</ele><time>2026-04-11T09:37:14.999Z</time></trkpt><trkpt lat="44.46149772415848" lon="8.98758678786446"><ele>193.0</ele><time>2026-04-11T09:37:16.999Z</time></trkpt><trkpt lat="44.46151609409638" lon="8.987499611933796"><ele>193.0</ele><time>2026-04-11T09:37:17.999Z</time></trkpt><trkpt lat="44.46153243239024" lon="8.987412488518578"><ele>193.0</ele><time>2026-04-11T09:37:18.999Z</time></trkpt><trkpt lat="44.461545713267256" lon="8.987320559929998"><ele>192.99999999999997</ele><time>2026-04-11T09:37:19.999Z</time></trkpt><trkpt lat="44.46155859514906" lon="8.987232238594304"><ele>193.0</ele><time>2026-04-11T09:37:20.999Z</time></trkpt><trkpt lat="44.46155708044805" lon="8.987138902498552"><ele>192.2</ele><time>2026-04-11T09:37:21.999Z</time></trkpt><trkpt lat="44.46154770695631" lon="8.9869751629256"><ele>191.4</ele><time>2026-04-11T09:37:23.999Z</time></trkpt><trkpt lat="44.4614957087431" lon="8.986820588398738"><ele>190.6</ele><time>2026-04-11T09:37:26Z</time></trkpt><trkpt lat="44.46145185816217" lon="8.986741910956715"><ele>189.79999999999998</ele><time>2026-04-11T09:37:27Z</time></trkpt><trkpt lat="44.461401491396074" lon="8.986667944994805"><ele>189.0</ele><time>2026-04-11T09:37:28Z</time></trkpt><trkpt lat="44.46135973688964" lon="8.986585432331687"><ele>188.66666666666666</ele><time>2026-04-11T09:37:29Z</time></trkpt><trkpt lat="44.46131443033321" lon="8.986511081063847"><ele>188.33333333333334</ele><time>2026-04-11T09:37:30Z</time></trkpt><trkpt lat="44.461262287210424" lon="8.98643194868814"><ele>188.0</ele><time>2026-04-11T09:37:31Z</time></trkpt><trkpt lat="44.46119330870175" lon="8.986375244245624"><ele>187.66666666666669</ele><time>2026-04-11T09:37:32Z</time></trkpt><trkpt lat="44.46112556406939" lon="8.986303309867564"><ele>187.33333333333334</ele><time>2026-04-11T09:37:33Z</time></trkpt><trkpt lat="44.46105305169468" lon="8.986239182850497"><ele>187.0</ele><time>2026-04-11T09:37:34Z</time></trkpt><trkpt lat="44.460979708572246" lon="8.986161921729401"><ele>187.0</ele><time>2026-04-11T09:37:35Z</time></trkpt><trkpt lat="44.460904667721344" lon="8.986095084646264"><ele>187.0</ele><time>2026-04-11T09:37:36Z</time></trkpt><trkpt lat="44.460830300841884" lon="8.986020891736215"><ele>187.0</ele><time>2026-04-11T09:37:37Z</time></trkpt><trkpt lat="44.46076925995208" lon="8.985941429428284"><ele>187.0</ele><time>2026-04-11T09:37:38Z</time></trkpt><trkpt lat="44.460708793775446" lon="8.98586673804463"><ele>187.0</ele><time>2026-04-11T09:37:39Z</time></trkpt><trkpt lat="44.46063372211701" lon="8.985805857164094"><ele>187.0</ele><time>2026-04-11T09:37:40Z</time></trkpt><trkpt lat="44.46057601130768" lon="8.985726512557632"><ele>185.0</ele><time>2026-04-11T09:37:41Z</time></trkpt><trkpt lat="44.46051222560289" lon="8.985657410526317"><ele>183.0</ele><time>2026-04-11T09:37:42Z</time></trkpt><trkpt lat="44.46044295476876" lon="8.98560026057339"><ele>181.0</ele><time>2026-04-11T09:37:43Z</time></trkpt><trkpt lat="44.46037843604494" lon="8.985547592535465"><ele>179.0</ele><time>2026-04-11T09:37:44Z</time></trkpt><trkpt lat="44.460310477178666" lon="8.985501939563271"><ele>177.0</ele><time>2026-04-11T09:37:45.001Z</time></trkpt><trkpt lat="44.460238253937874" lon="8.985478286240726"><ele>175.0</ele><time>2026-04-11T09:37:46.001Z</time></trkpt><trkpt lat="44.460164284914214" lon="8.985481431724004"><ele>175.0</ele><time>2026-04-11T09:37:47.001Z</time></trkpt><trkpt lat="44.460092641718205" lon="8.985493793586722"><ele>175.0</ele><time>2026-04-11T09:37:48.001Z</time></trkpt><trkpt lat="44.45997426947212" lon="8.985542876452971"><ele>175.0</ele><time>2026-04-11T09:37:50.001Z</time></trkpt><trkpt lat="44.45986755949993" lon="8.985593449857088"><ele>175.0</ele><time>2026-04-11T09:37:52.001Z</time></trkpt><trkpt lat="44.45976315947269" lon="8.985606444621263"><ele>175.0</ele><time>2026-04-11T09:37:54.001Z</time></trkpt><trkpt lat="44.45969994752312" lon="8.98554950221257"><ele>175.0</ele><time>2026-04-11T09:37:56.001Z</time></trkpt><trkpt lat="44.4597696588998" lon="8.985412152185312"><ele>175.0</ele><time>2026-04-11T09:37:58.001Z</time></trkpt><trkpt lat="44.45983346889721" lon="8.985391539324015"><ele>175.0</ele><time>2026-04-11T09:37:59.001Z</time></trkpt><trkpt lat="44.45994616739849" lon="8.985344000577639"><ele>175.0</ele><time>2026-04-11T09:38:01.001Z</time></trkpt><trkpt lat="44.46004000893273" lon="8.985234991275894"><ele>175.0</ele><time>2026-04-11T09:38:03.001Z</time></trkpt><trkpt lat="44.46009239620046" lon="8.985172497543818"><ele>175.0</ele><time>2026-04-11T09:38:04.001Z</time></trkpt><trkpt lat="44.46013831278137" lon="8.98510514013447"><ele>175.0</ele><time>2026-04-11T09:38:05.001Z</time></trkpt><trkpt lat="44.46019814374208" lon="8.985038472701946"><ele>175.0</ele><time>2026-04-11T09:38:06.001Z</time></trkpt><trkpt lat="44.46025387062588" lon="8.984970888968537"><ele>175.0</ele><time>2026-04-11T09:38:07.001Z</time></trkpt><trkpt lat="44.46031648725611" lon="8.984909617264007"><ele>175.0</ele><time>2026-04-11T09:38:08.001Z</time></trkpt><trkpt lat="44.46040057909324" lon="8.98482338319478"><ele>175.0</ele><time>2026-04-11T09:38:10.001Z</time></trkpt><trkpt lat="44.460479323732784" lon="8.984722073125987"><ele>172.8</ele><time>2026-04-11T09:38:12.001Z</time></trkpt><trkpt lat="44.46049734653624" lon="8.984565160034158"><ele>170.6</ele><time>2026-04-11T09:38:14.002Z</time></trkpt><trkpt lat="44.4604966978985" lon="8.98442048243417"><ele>168.39999999999998</ele><time>2026-04-11T09:38:16.002Z</time></trkpt><trkpt lat="44.46043004001627" lon="8.984313164028523"><ele>166.2</ele><time>2026-04-11T09:38:18.002Z</time></trkpt><trkpt lat="44.46035425324397" lon="8.984281227457563"><ele>164.0</ele><time>2026-04-11T09:38:19.002Z</time></trkpt><trkpt lat="44.4602858369491" lon="8.98428769751422"><ele>163.99999999999997</ele><time>2026-04-11T09:38:20.002Z</time></trkpt><trkpt lat="44.46021538824364" lon="8.984294668658535"><ele>164.0</ele><time>2026-04-11T09:38:21.002Z</time></trkpt><trkpt lat="44.460150335428246" lon="8.9843564573753"><ele>164.0</ele><time>2026-04-11T09:38:22.002Z</time></trkpt><trkpt lat="44.460109076934835" lon="8.984431869889427"><ele>164.0</ele><time>2026-04-11T09:38:23.002Z</time></trkpt><trkpt lat="44.46005572679753" lon="8.98449988024791"><ele>164.0</ele><time>2026-04-11T09:38:24.002Z</time></trkpt><trkpt lat="44.45999208241293" lon="8.984547332649951"><ele>163.99999999999997</ele><time>2026-04-11T09:38:25.002Z</time></trkpt><trkpt lat="44.459935895169586" lon="8.984587425931078"><ele>164.0</ele><time>2026-04-11T09:38:26.002Z</time></trkpt><trkpt lat="44.45985062538423" lon="8.984686204512059"><ele>164.0</ele><time>2026-04-11T09:38:28.002Z</time></trkpt><trkpt lat="44.459785679816285" lon="8.984707702566084"><ele>164.0</ele><time>2026-04-11T09:38:29.002Z</time></trkpt><trkpt lat="44.45971125162176" lon="8.984704313262489"><ele>164.0</ele><time>2026-04-11T09:38:30.002Z</time></trkpt><trkpt lat="44.45962751942272" lon="8.984685560602673"><ele>164.0</ele><time>2026-04-11T09:38:31.002Z</time></trkpt><trkpt lat="44.459540124560974" lon="8.984667913164575"><ele>164.0</ele><time>2026-04-11T09:38:32.002Z</time></trkpt><trkpt lat="44.45946199455618" lon="8.98467812367173"><ele>164.0</ele><time>2026-04-11T09:38:33.002Z</time></trkpt><trkpt lat="44.45939525860368" lon="8.984689439149532"><ele>163.57142857142856</ele><time>2026-04-11T09:38:34.002Z</time></trkpt><trkpt lat="44.45932837286199" lon="8.984733563039576"><ele>163.14285714285714</ele><time>2026-04-11T09:38:35.002Z</time></trkpt><trkpt lat="44.45925956157856" lon="8.98478471005914"><ele>162.71428571428572</ele><time>2026-04-11T09:38:36.002Z</time></trkpt><trkpt lat="44.459206315972324" lon="8.984840455716776"><ele>162.28571428571428</ele><time>2026-04-11T09:38:37.002Z</time></trkpt><trkpt lat="44.459137740810796" lon="8.984889382715046"><ele>161.85714285714286</ele><time>2026-04-11T09:38:38.002Z</time></trkpt><trkpt lat="44.45906614221146" lon="8.984934402581029"><ele>161.42857142857142</ele><time>2026-04-11T09:38:39.002Z</time></trkpt><trkpt lat="44.45900320242968" lon="8.984986870838863"><ele>161.0</ele><time>2026-04-11T09:38:40.002Z</time></trkpt><trkpt lat="44.4589279957316" lon="8.985101448286677"><ele>161.0</ele><time>2026-04-11T09:38:42.002Z</time></trkpt><trkpt lat="44.45887089685968" lon="8.985198324857448"><ele>161.0</ele><time>2026-04-11T09:38:44.002Z</time></trkpt><trkpt lat="44.45881191532713" lon="8.98531805578511"><ele>161.0</ele><time>2026-04-11T09:38:46.002Z</time></trkpt><trkpt lat="44.45873665799807" lon="8.985444009483475"><ele>161.0</ele><time>2026-04-11T09:38:48.003Z</time></trkpt><trkpt lat="44.4586178882857" lon="8.985423304758038"><ele>161.0</ele><time>2026-04-11T09:38:50.003Z</time></trkpt><trkpt lat="44.458575595865824" lon="8.985357906117077"><ele>157.25</ele><time>2026-04-11T09:38:51.003Z</time></trkpt><trkpt lat="44.4585947955661" lon="8.985215319392704"><ele>153.5</ele><time>2026-04-11T09:38:53.003Z</time></trkpt><trkpt lat="44.45866643189096" lon="8.985089913201703"><ele>149.75</ele><time>2026-04-11T09:38:55.003Z</time></trkpt><trkpt lat="44.45872810384533" lon="8.984945018711183"><ele>146.0</ele><time>2026-04-11T09:38:57.003Z</time></trkpt><trkpt lat="44.45877287029886" lon="8.984778311654097"><ele>147.0</ele><time>2026-04-11T09:38:59.003Z</time></trkpt><trkpt lat="44.45879998646569" lon="8.984697842227614"><ele>148.0</ele><time>2026-04-11T09:39:00.003Z</time></trkpt><trkpt lat="44.458842580664594" lon="8.984556547427932"><ele>149.0</ele><time>2026-04-11T09:39:02.003Z</time></trkpt><trkpt lat="44.45891402829468" lon="8.984418566116473"><ele>150.0</ele><time>2026-04-11T09:39:04.003Z</time></trkpt><trkpt lat="44.45894246894457" lon="8.984269006007244"><ele>151.0</ele><time>2026-04-11T09:39:06.003Z</time></trkpt><trkpt lat="44.458976938512045" lon="8.984184654860599"><ele>149.42857142857144</ele><time>2026-04-11T09:39:07.003Z</time></trkpt><trkpt lat="44.45900180527689" lon="8.984091298385707"><ele>147.85714285714286</ele><time>2026-04-11T09:39:08.003Z</time></trkpt><trkpt lat="44.4590485314024" lon="8.984002871499905"><ele>146.28571428571428</ele><time>2026-04-11T09:39:09.003Z</time></trkpt><trkpt lat="44.45908545522612" lon="8.983911948536216"><ele>144.71428571428572</ele><time>2026-04-11T09:39:10.003Z</time></trkpt><trkpt lat="44.4591196271227" lon="8.983815633812128"><ele>143.14285714285714</ele><time>2026-04-11T09:39:11.003Z</time></trkpt><trkpt lat="44.459147109719936" lon="8.983713252604344"><ele>141.57142857142858</ele><time>2026-04-11T09:39:12.003Z</time></trkpt><trkpt lat="44.45918120127611" lon="8.98363399766201"><ele>140.0</ele><time>2026-04-11T09:39:13.003Z</time></trkpt><trkpt lat="44.45920073471127" lon="8.98354940777635"><ele>140.0</ele><time>2026-04-11T09:39:13.998Z</time></trkpt><trkpt lat="44.45920840976724" lon="8.983371699525575"><ele>140.0</ele><time>2026-04-11T09:39:15.999Z</time></trkpt><trkpt lat="44.45919535309344" lon="8.983272519403313"><ele>140.0</ele><time>2026-04-11T09:39:16.999Z</time></trkpt><trkpt lat="44.459164548192454" lon="8.983175583174363"><ele>140.0</ele><time>2026-04-11T09:39:17.999Z</time></trkpt><trkpt lat="44.45911845146541" lon="8.983082202496696"><ele>140.0</ele><time>2026-04-11T09:39:18.999Z</time></trkpt><trkpt lat="44.459058456324364" lon="8.983002715017506"><ele>140.0</ele><time>2026-04-11T09:39:19.999Z</time></trkpt><trkpt lat="44.45899305889457" lon="8.982947313622473"><ele>138.5</ele><time>2026-04-11T09:39:20.999Z</time></trkpt><trkpt lat="44.45892923743132" lon="8.982887395123033"><ele>137.0</ele><time>2026-04-11T09:39:21.999Z</time></trkpt><trkpt lat="44.45886341602726" lon="8.982832066023008"><ele>135.5</ele><time>2026-04-11T09:39:22.999Z</time></trkpt><trkpt lat="44.458795080507464" lon="8.982774098772685"><ele>134.0</ele><time>2026-04-11T09:39:23.999Z</time></trkpt><trkpt lat="44.458717680695266" lon="8.982723842547344"><ele>132.5</ele><time>2026-04-11T09:39:24.999Z</time></trkpt><trkpt lat="44.458647879407366" lon="8.982669100786387"><ele>131.0</ele><time>2026-04-11T09:39:25.999Z</time></trkpt><trkpt lat="44.458583486568244" lon="8.982596366604167"><ele>131.0</ele><time>2026-04-11T09:39:26.999Z</time></trkpt><trkpt lat="44.458528242293546" lon="8.982525762830354"><ele>131.0</ele><time>2026-04-11T09:39:27.999Z</time></trkpt><trkpt lat="44.45846282099532" lon="8.98247796862897"><ele>131.0</ele><time>2026-04-11T09:39:28.999Z</time></trkpt><trkpt lat="44.45839407887673" lon="8.982407719432747"><ele>131.0</ele><time>2026-04-11T09:39:29.999Z</time></trkpt><trkpt lat="44.458330866874846" lon="8.982347281923152"><ele>131.0</ele><time>2026-04-11T09:39:30.999Z</time></trkpt><trkpt lat="44.458257437654446" lon="8.982293025598493"><ele>131.0</ele><time>2026-04-11T09:39:32Z</time></trkpt><trkpt lat="44.45817637727395" lon="8.982282721919143"><ele>130.0</ele><time>2026-04-11T09:39:33Z</time></trkpt><trkpt lat="44.458095454614096" lon="8.982259779595445"><ele>129.0</ele><time>2026-04-11T09:39:34Z</time></trkpt><trkpt lat="44.4580178610113" lon="8.98223351448153"><ele>128.0</ele><time>2026-04-11T09:39:35Z</time></trkpt><trkpt lat="44.457934685574074" lon="8.982207755661893"><ele>127.0</ele><time>2026-04-11T09:39:36Z</time></trkpt><trkpt lat="44.45784697977249" lon="8.982178069982561"><ele>125.99999999999999</ele><time>2026-04-11T09:39:37Z</time></trkpt><trkpt lat="44.457759947891624" lon="8.98214476195699"><ele>125.0</ele><time>2026-04-11T09:39:38Z</time></trkpt><trkpt lat="44.45768158909994" lon="8.982130724402731"><ele>123.33333333333333</ele><time>2026-04-11T09:39:39Z</time></trkpt><trkpt lat="44.457607795584856" lon="8.982129708140647"><ele>121.66666666666666</ele><time>2026-04-11T09:39:40Z</time></trkpt><trkpt lat="44.4575333986091" lon="8.982144612619935"><ele>120.0</ele><time>2026-04-11T09:39:41Z</time></trkpt><trkpt lat="44.45747212154911" lon="8.982199243510864"><ele>118.33333333333334</ele><time>2026-04-11T09:39:42Z</time></trkpt><trkpt lat="44.457408560750316" lon="8.982263927025532"><ele>116.66666666666667</ele><time>2026-04-11T09:39:43Z</time></trkpt><trkpt lat="44.4573104206359" lon="8.982363678339983"><ele>115.0</ele><time>2026-04-11T09:39:45Z</time></trkpt><trkpt lat="44.45725407527009" lon="8.982431294415369"><ele>115.00000000000001</ele><time>2026-04-11T09:39:46Z</time></trkpt><trkpt lat="44.45719283849366" lon="8.982492644958551"><ele>115.0</ele><time>2026-04-11T09:39:47Z</time></trkpt><trkpt lat="44.457127470165005" lon="8.982556434584202"><ele>115.0</ele><time>2026-04-11T09:39:48Z</time></trkpt><trkpt lat="44.45705832149088" lon="8.982621724961554"><ele>115.0</ele><time>2026-04-11T09:39:49Z</time></trkpt><trkpt lat="44.45698876973512" lon="8.982683828232666"><ele>115.00000000000001</ele><time>2026-04-11T09:39:50Z</time></trkpt><trkpt lat="44.456927082632866" lon="8.982750356296433"><ele>115.0</ele><time>2026-04-11T09:39:51Z</time></trkpt><trkpt lat="44.45686157484694" lon="8.982821447500214"><ele>114.33333333333334</ele><time>2026-04-11T09:39:52.001Z</time></trkpt><trkpt lat="44.45680046571553" lon="8.98288820605894"><ele>113.66666666666667</ele><time>2026-04-11T09:39:53.001Z</time></trkpt><trkpt lat="44.456745908192225" lon="8.982960109276844"><ele>113.0</ele><time>2026-04-11T09:39:54.001Z</time></trkpt><trkpt lat="44.456719537348015" lon="8.983052979822522"><ele>112.33333333333334</ele><time>2026-04-11T09:39:55.001Z</time></trkpt><trkpt lat="44.456713343971444" lon="8.983165130528775"><ele>111.66666666666667</ele><time>2026-04-11T09:39:56.001Z</time></trkpt><trkpt lat="44.45670040058655" lon="8.983270788988412"><ele>111.0</ele><time>2026-04-11T09:39:57.001Z</time></trkpt><trkpt lat="44.45668468369871" lon="8.98337664268044"><ele>110.0</ele><time>2026-04-11T09:39:58.001Z</time></trkpt><trkpt lat="44.45666993059037" lon="8.98347459893256"><ele>109.0</ele><time>2026-04-11T09:39:59.001Z</time></trkpt><trkpt lat="44.45664550350783" lon="8.98357028903608"><ele>108.0</ele><time>2026-04-11T09:40:00.001Z</time></trkpt><trkpt lat="44.45661873058364" lon="8.983657899407934"><ele>107.0</ele><time>2026-04-11T09:40:01.001Z</time></trkpt><trkpt lat="44.45659008948785" lon="8.983737467169863"><ele>106.0</ele><time>2026-04-11T09:40:02.001Z</time></trkpt><trkpt lat="44.456510405146375" lon="8.983833749329383"><ele>105.0</ele><time>2026-04-11T09:40:04.001Z</time></trkpt><trkpt lat="44.456401142441166" lon="8.983814754523657"><ele>105.0</ele><time>2026-04-11T09:40:06.001Z</time></trkpt><trkpt lat="44.456349088915445" lon="8.983641379026812"><ele>105.0</ele><time>2026-04-11T09:40:08.001Z</time></trkpt><trkpt lat="44.456361135315" lon="8.983536854311895"><ele>105.0</ele><time>2026-04-11T09:40:09.001Z</time></trkpt><trkpt lat="44.456382688620586" lon="8.983433241432687"><ele>105.0</ele><time>2026-04-11T09:40:10.001Z</time></trkpt><trkpt lat="44.45641918247107" lon="8.98333023941624"><ele>105.0</ele><time>2026-04-11T09:40:11.001Z</time></trkpt><trkpt lat="44.456442119825184" lon="8.983236872412009"><ele>105.0</ele><time>2026-04-11T09:40:12.001Z</time></trkpt><trkpt lat="44.45645245645968" lon="8.983123520282405"><ele>105.57142857142857</ele><time>2026-04-11T09:40:13.001Z</time></trkpt><trkpt lat="44.45644766661311" lon="8.983012603712435"><ele>106.14285714285714</ele><time>2026-04-11T09:40:14.001Z</time></trkpt><trkpt lat="44.456427126481714" lon="8.982910760656944"><ele>106.71428571428572</ele><time>2026-04-11T09:40:15.001Z</time></trkpt><trkpt lat="44.45641328475112" lon="8.982809383016395"><ele>107.28571428571428</ele><time>2026-04-11T09:40:16.001Z</time></trkpt><trkpt lat="44.456396093639675" lon="8.982709449343885"><ele>107.85714285714286</ele><time>2026-04-11T09:40:17.001Z</time></trkpt><trkpt lat="44.456380985008494" lon="8.982619683760019"><ele>108.42857142857143</ele><time>2026-04-11T09:40:18.001Z</time></trkpt><trkpt lat="44.4563757047625" lon="8.982524528420933"><ele>109.0</ele><time>2026-04-11T09:40:19.001Z</time></trkpt><trkpt lat="44.45637380526485" lon="8.982430632860586"><ele>109.00000000000001</ele><time>2026-04-11T09:40:20.001Z</time></trkpt><trkpt lat="44.45637677795201" lon="8.982337259241268"><ele>109.0</ele><time>2026-04-11T09:40:21.002Z</time></trkpt><trkpt lat="44.45638150232584" lon="8.982239896534685"><ele>109.0</ele><time>2026-04-11T09:40:22.002Z</time></trkpt><trkpt lat="44.45638687502235" lon="8.98214981054567"><ele>109.0</ele><time>2026-04-11T09:40:23.002Z</time></trkpt><trkpt lat="44.456389535216246" lon="8.982057377579917"><ele>109.00000000000001</ele><time>2026-04-11T09:40:24.002Z</time></trkpt><trkpt lat="44.45638211552537" lon="8.981963216717926"><ele>109.0</ele><time>2026-04-11T09:40:25.002Z</time></trkpt><trkpt lat="44.45639086095598" lon="8.981779902692642"><ele>109.00000000000001</ele><time>2026-04-11T09:40:27.002Z</time></trkpt><trkpt lat="44.45639019485605" lon="8.981682671374713"><ele>109.0</ele><time>2026-04-11T09:40:28.002Z</time></trkpt><trkpt lat="44.45639291845487" lon="8.981581971635919"><ele>109.0</ele><time>2026-04-11T09:40:29.002Z</time></trkpt><trkpt lat="44.456395571136156" lon="8.98147684228455"><ele>109.0</ele><time>2026-04-11T09:40:30.002Z</time></trkpt><trkpt lat="44.456412943816645" lon="8.981368928804732"><ele>109.00000000000001</ele><time>2026-04-11T09:40:31.002Z</time></trkpt><trkpt lat="44.45644486752019" lon="8.981264430519264"><ele>109.0</ele><time>2026-04-11T09:40:32.002Z</time></trkpt><trkpt lat="44.45650135486538" lon="8.981173243257805"><ele>107.50000000000001</ele><time>2026-04-11T09:40:33.002Z</time></trkpt><trkpt lat="44.456580311731564" lon="8.981110901140902"><ele>106.0</ele><time>2026-04-11T09:40:34.002Z</time></trkpt><trkpt lat="44.45666529866483" lon="8.981082714138813"><ele>104.5</ele><time>2026-04-11T09:40:35.002Z</time></trkpt><trkpt lat="44.45674549481563" lon="8.98104349368246"><ele>103.0</ele><time>2026-04-11T09:40:36.002Z</time></trkpt><trkpt lat="44.45682598788454" lon="8.981004465816316"><ele>101.50000000000001</ele><time>2026-04-11T09:40:37.002Z</time></trkpt><trkpt lat="44.456895569032056" lon="8.980965427454375"><ele>100.0</ele><time>2026-04-11T09:40:38.002Z</time></trkpt><trkpt lat="44.456965796094195" lon="8.980895286558328"><ele>100.00000000000001</ele><time>2026-04-11T09:40:39.002Z</time></trkpt><trkpt lat="44.457046359640636" lon="8.980872096478588"><ele>100.0</ele><time>2026-04-11T09:40:40.002Z</time></trkpt><trkpt lat="44.45713288663954" lon="8.980851252803621"><ele>100.0</ele><time>2026-04-11T09:40:41.002Z</time></trkpt><trkpt lat="44.45722263404989" lon="8.980836649085438"><ele>100.0</ele><time>2026-04-11T09:40:42.002Z</time></trkpt><trkpt lat="44.457317422443" lon="8.98082097287622"><ele>100.00000000000001</ele><time>2026-04-11T09:40:43.002Z</time></trkpt><trkpt lat="44.45740436363709" lon="8.980805519454508"><ele>100.0</ele><time>2026-04-11T09:40:44.002Z</time></trkpt><trkpt lat="44.4574954072046" lon="8.9807971500219"><ele>99.16666666666667</ele><time>2026-04-11T09:40:45.002Z</time></trkpt><trkpt lat="44.45756432834803" lon="8.98078435697432"><ele>98.33333333333334</ele><time>2026-04-11T09:40:46.002Z</time></trkpt><trkpt lat="44.45763378835743" lon="8.980778854556824"><ele>97.5</ele><time>2026-04-11T09:40:47.002Z</time></trkpt><trkpt lat="44.457745892059606" lon="8.98075215447419"><ele>96.66666666666667</ele><time>2026-04-11T09:40:49.002Z</time></trkpt><trkpt lat="44.45778403159441" lon="8.980620404853145"><ele>95.83333333333334</ele><time>2026-04-11T09:40:51.002Z</time></trkpt><trkpt lat="44.457758069260485" lon="8.980534101285407"><ele>95.0</ele><time>2026-04-11T09:40:52.002Z</time></trkpt><trkpt lat="44.45770518545197" lon="8.980654007644798"><ele>95.0</ele><time>2026-04-11T09:40:54.003Z</time></trkpt><trkpt lat="44.45764984271318" lon="8.98069622514687"><ele>95.0</ele><time>2026-04-11T09:40:56.003Z</time></trkpt><trkpt lat="44.457548805543915" lon="8.980670809671755"><ele>95.0</ele><time>2026-04-11T09:40:57.003Z</time></trkpt><trkpt lat="44.457464681782504" lon="8.980659399913897"><ele>95.0</ele><time>2026-04-11T09:40:58.003Z</time></trkpt><trkpt lat="44.457378149693454" lon="8.980655415856422"><ele>95.0</ele><time>2026-04-11T09:40:59.003Z</time></trkpt><trkpt lat="44.457257296160094" lon="8.98067238046252"><ele>95.0</ele><time>2026-04-11T09:41:01.003Z</time></trkpt><trkpt lat="44.45716633920629" lon="8.98069888380681"><ele>95.0</ele><time>2026-04-11T09:41:03.003Z</time></trkpt><trkpt lat="44.45708555859865" lon="8.980705899894007"><ele>95.0</ele><time>2026-04-11T09:41:05.003Z</time></trkpt><trkpt lat="44.456928099337105" lon="8.980700312396351"><ele>95.0</ele><time>2026-04-11T09:41:07.003Z</time></trkpt><trkpt lat="44.45683439362376" lon="8.980693177181417"><ele>95.0</ele><time>2026-04-11T09:41:08.003Z</time></trkpt><trkpt lat="44.45674161749281" lon="8.980687680244607"><ele>93.8</ele><time>2026-04-11T09:41:09.003Z</time></trkpt><trkpt lat="44.45665026670981" lon="8.9807075978395"><ele>92.6</ele><time>2026-04-11T09:41:10.003Z</time></trkpt><trkpt lat="44.45656423649557" lon="8.980665898536513"><ele>91.4</ele><time>2026-04-11T09:41:11.003Z</time></trkpt><trkpt lat="44.45648332533397" lon="8.980674094396505"><ele>90.2</ele><time>2026-04-11T09:41:12.003Z</time></trkpt><trkpt lat="44.45638535597832" lon="8.98062811247002"><ele>89.0</ele><time>2026-04-11T09:41:13.003Z</time></trkpt><trkpt lat="44.45629945057014" lon="8.98057468035849"><ele>87.85714285714285</ele><time>2026-04-11T09:41:14.003Z</time></trkpt><trkpt lat="44.45621965498495" lon="8.980586491209317"><ele>86.71428571428571</ele><time>2026-04-11T09:41:15.003Z</time></trkpt><trkpt lat="44.456142932863166" lon="8.980619769889634"><ele>85.57142857142857</ele><time>2026-04-11T09:41:16.003Z</time></trkpt><trkpt lat="44.4560649650904" lon="8.980625997623907"><ele>84.42857142857142</ele><time>2026-04-11T09:41:17.003Z</time></trkpt><trkpt lat="44.45599369323102" lon="8.980637413243715"><ele>83.28571428571428</ele><time>2026-04-11T09:41:18.003Z</time></trkpt><trkpt lat="44.45592295481627" lon="8.98065258812866"><ele>82.14285714285714</ele><time>2026-04-11T09:41:19.003Z</time></trkpt><trkpt lat="44.45585798125186" lon="8.980674922567012"><ele>81.0</ele><time>2026-04-11T09:41:19.998Z</time></trkpt><trkpt lat="44.45578330975842" lon="8.980690434462955"><ele>81.0</ele><time>2026-04-11T09:41:20.998Z</time></trkpt><trkpt lat="44.455714285003985" lon="8.980724174052709"><ele>81.0</ele><time>2026-04-11T09:41:21.999Z</time></trkpt><trkpt lat="44.455641991596785" lon="8.980749278007226"><ele>81.0</ele><time>2026-04-11T09:41:22.999Z</time></trkpt><trkpt lat="44.455562350989844" lon="8.980766786485916"><ele>81.0</ele><time>2026-04-11T09:41:23.999Z</time></trkpt><trkpt lat="44.455503532416195" lon="8.980799894950763"><ele>81.0</ele><time>2026-04-11T09:41:24.999Z</time></trkpt><trkpt lat="44.45542218329847" lon="8.980793878560187"><ele>81.0</ele><time>2026-04-11T09:41:25.999Z</time></trkpt><trkpt lat="44.45534333852229" lon="8.98084342253492"><ele>79.0</ele><time>2026-04-11T09:41:26.999Z</time></trkpt><trkpt lat="44.455263831340304" lon="8.9808643162378"><ele>77.0</ele><time>2026-04-11T09:41:27.999Z</time></trkpt><trkpt lat="44.45520546894705" lon="8.980901389233328"><ele>75.0</ele><time>2026-04-11T09:41:28.999Z</time></trkpt><trkpt lat="44.45514683472113" lon="8.980982302737392"><ele>73.0</ele><time>2026-04-11T09:41:29.999Z</time></trkpt><trkpt lat="44.4550718164321" lon="8.981050657576631"><ele>71.0</ele><time>2026-04-11T09:41:31.999Z</time></trkpt><trkpt lat="44.4549891043517" lon="8.981148524870337"><ele>69.0</ele><time>2026-04-11T09:41:33.999Z</time></trkpt><trkpt lat="44.45492941589266" lon="8.981237048280882"><ele>69.0</ele><time>2026-04-11T09:41:35.999Z</time></trkpt><trkpt lat="44.454845583028806" lon="8.981215136742073"><ele>69.0</ele><time>2026-04-11T09:41:37Z</time></trkpt><trkpt lat="44.454780679219844" lon="8.98119845484959"><ele>69.0</ele><time>2026-04-11T09:41:38Z</time></trkpt><trkpt lat="44.45470483442198" lon="8.981237294005282"><ele>69.0</ele><time>2026-04-11T09:41:40Z</time></trkpt><trkpt lat="44.45463417424643" lon="8.981269777489016"><ele>69.0</ele><time>2026-04-11T09:41:42Z</time></trkpt><trkpt lat="44.45456965495981" lon="8.981281902066103"><ele>69.0</ele><time>2026-04-11T09:41:46Z</time></trkpt><trkpt lat="44.45449723987019" lon="8.98129173282498"><ele>69.0</ele><time>2026-04-11T09:41:50Z</time></trkpt><trkpt lat="44.454424203072286" lon="8.981275085913458"><ele>67.5</ele><time>2026-04-11T09:41:53Z</time></trkpt><trkpt lat="44.45442694417426" lon="8.981136716522183"><ele>66.0</ele><time>2026-04-11T09:41:55Z</time></trkpt><trkpt lat="44.45441489445817" lon="8.981039232493309"><ele>64.5</ele><time>2026-04-11T09:41:57.001Z</time></trkpt><trkpt lat="44.454399349061376" lon="8.980895898480526"><ele>63.0</ele><time>2026-04-11T09:42:00.001Z</time></trkpt><trkpt lat="44.45437115357259" lon="8.980804200154399"><ele>61.5</ele><time>2026-04-11T09:42:02.001Z</time></trkpt><trkpt lat="44.454343987913546" lon="8.980702635362599"><ele>60.0</ele><time>2026-04-11T09:42:04.001Z</time></trkpt><trkpt lat="44.45431410066569" lon="8.980616330802897"><ele>60.0</ele><time>2026-04-11T09:42:06.001Z</time></trkpt><trkpt lat="44.454285322670586" lon="8.980521532840095"><ele>60.0</ele><time>2026-04-11T09:42:08.001Z</time></trkpt><trkpt lat="44.45425992007119" lon="8.980438904279223"><ele>60.0</ele><time>2026-04-11T09:42:10.001Z</time></trkpt><trkpt lat="44.4542316775629" lon="8.980349336126126"><ele>60.0</ele><time>2026-04-11T09:42:12.001Z</time></trkpt><trkpt lat="44.454194213262035" lon="8.980265942585959"><ele>60.0</ele><time>2026-04-11T09:42:14.001Z</time></trkpt><trkpt lat="44.45416744902507" lon="8.980179768322284"><ele>60.0</ele><time>2026-04-11T09:42:17.001Z</time></trkpt><trkpt lat="44.4541643463627" lon="8.980067753968791"><ele>60.0</ele><time>2026-04-11T09:42:20.001Z</time></trkpt><trkpt lat="44.4541571514509" lon="8.979978011986251"><ele>59.833333333333336</ele><time>2026-04-11T09:42:22.001Z</time></trkpt><trkpt lat="44.45412466200508" lon="8.979871948444252"><ele>59.66666666666667</ele><time>2026-04-11T09:42:25.002Z</time></trkpt><trkpt lat="44.45406593836437" lon="8.979776635855108"><ele>59.5</ele><time>2026-04-11T09:42:28.002Z</time></trkpt><trkpt lat="44.454026141046064" lon="8.97966854448551"><ele>59.333333333333336</ele><time>2026-04-11T09:42:32.002Z</time></trkpt><trkpt lat="44.45401362329194" lon="8.979578679534324"><ele>59.16666666666667</ele><time>2026-04-11T09:42:34.002Z</time></trkpt><trkpt lat="44.453996126265466" lon="8.979492517246326"><ele>59.0</ele><time>2026-04-11T09:42:36.002Z</time></trkpt><trkpt lat="44.453977931232444" lon="8.979388071794721"><ele>59.0</ele><time>2026-04-11T09:42:38.002Z</time></trkpt><trkpt lat="44.453936868837054" lon="8.979297842598948"><ele>59.00000000000001</ele><time>2026-04-11T09:42:40.002Z</time></trkpt><trkpt lat="44.45390332689523" lon="8.979179676912896"><ele>59.00000000000001</ele><time>2026-04-11T09:42:42.002Z</time></trkpt><trkpt lat="44.453870140177976" lon="8.979051028037714"><ele>59.0</ele><time>2026-04-11T09:42:44.002Z</time></trkpt><trkpt lat="44.453831921441164" lon="8.978919305561275"><ele>59.0</ele><time>2026-04-11T09:42:46.002Z</time></trkpt><trkpt lat="44.453788719552115" lon="8.97879958566524"><ele>59.2</ele><time>2026-04-11T09:42:48.002Z</time></trkpt><trkpt lat="44.453731546064894" lon="8.978675306906242"><ele>59.400000000000006</ele><time>2026-04-11T09:42:50.002Z</time></trkpt><trkpt lat="44.453668607021484" lon="8.978544943400236"><ele>59.6</ele><time>2026-04-11T09:42:52.002Z</time></trkpt><trkpt lat="44.453603252277986" lon="8.978433532110294"><ele>59.8</ele><time>2026-04-11T09:42:54.002Z</time></trkpt><trkpt lat="44.453543219560686" lon="8.97830509408265"><ele>60.0</ele><time>2026-04-11T09:42:56.003Z</time></trkpt><trkpt lat="44.45347752926073" lon="8.97818802522029"><ele>60.0</ele><time>2026-04-11T09:42:58.003Z</time></trkpt><trkpt lat="44.4534151477223" lon="8.978083966213973"><ele>60.0</ele><time>2026-04-11T09:43:00.003Z</time></trkpt><trkpt lat="44.45335774977252" lon="8.977973229802195"><ele>60.0</ele><time>2026-04-11T09:43:02.003Z</time></trkpt><trkpt lat="44.45330293922147" lon="8.977881710794092"><ele>60.0</ele><time>2026-04-11T09:43:04.003Z</time></trkpt><trkpt lat="44.45325220256782" lon="8.97778417608269"><ele>60.0</ele><time>2026-04-11T09:43:06.003Z</time></trkpt><trkpt lat="44.453190992805936" lon="8.977679295003659"><ele>60.0</ele><time>2026-04-11T09:43:08.003Z</time></trkpt><trkpt lat="44.45314340396367" lon="8.977567428429829"><ele>60.0</ele><time>2026-04-11T09:43:10.003Z</time></trkpt><trkpt lat="44.453083947311555" lon="8.977470612626538"><ele>60.0</ele><time>2026-04-11T09:43:12.003Z</time></trkpt><trkpt lat="44.45302324810109" lon="8.977381136255715"><ele>60.0</ele><time>2026-04-11T09:43:14.003Z</time></trkpt><trkpt lat="44.45297187070792" lon="8.977268336372163"><ele>60.0</ele><time>2026-04-11T09:43:16.003Z</time></trkpt><trkpt lat="44.45291889490872" lon="8.977163808777142"><ele>59.4</ele><time>2026-04-11T09:43:18.003Z</time></trkpt><trkpt lat="44.45286568393299" lon="8.977066056232033"><ele>58.8</ele><time>2026-04-11T09:43:20.003Z</time></trkpt><trkpt lat="44.452804649276416" lon="8.976963660350378"><ele>58.2</ele><time>2026-04-11T09:43:22.003Z</time></trkpt><trkpt lat="44.45275789455294" lon="8.976841752800881"><ele>57.6</ele><time>2026-04-11T09:43:24.003Z</time></trkpt><trkpt lat="44.4527035911435" lon="8.976737654687179"><ele>57.0</ele><time>2026-04-11T09:43:25.999Z</time></trkpt><trkpt lat="44.45265103742747" lon="8.976632096788913"><ele>56.666666666666664</ele><time>2026-04-11T09:43:27.999Z</time></trkpt><trkpt lat="44.452600620826395" lon="8.976527781861934"><ele>56.33333333333333</ele><time>2026-04-11T09:43:29.999Z</time></trkpt><trkpt lat="44.452560850139506" lon="8.976422171558626"><ele>56.0</ele><time>2026-04-11T09:43:31.999Z</time></trkpt><trkpt lat="44.452533129537876" lon="8.976338439229291"><ele>55.666666666666664</ele><time>2026-04-11T09:43:33.999Z</time></trkpt><trkpt lat="44.45248732282042" lon="8.976206619677683"><ele>55.33333333333333</ele><time>2026-04-11T09:43:36.999Z</time></trkpt><trkpt lat="44.452439256900036" lon="8.976127046852051"><ele>55.0</ele><time>2026-04-11T09:43:38.999Z</time></trkpt><trkpt lat="44.45238591128506" lon="8.976041897449992"><ele>54.99999999999999</ele><time>2026-04-11T09:43:40.999Z</time></trkpt><trkpt lat="44.452338289522984" lon="8.975947553740038"><ele>55.0</ele><time>2026-04-11T09:43:43Z</time></trkpt><trkpt lat="44.45228955200121" lon="8.975856772201933"><ele>55.0</ele><time>2026-04-11T09:43:45Z</time></trkpt><trkpt lat="44.45222537777659" lon="8.975785018063968"><ele>55.0</ele><time>2026-04-11T09:43:47Z</time></trkpt><trkpt lat="44.45218712067796" lon="8.97566681699121"><ele>54.99999999999999</ele><time>2026-04-11T09:43:49Z</time></trkpt><trkpt lat="44.45213049297817" lon="8.975570615340628"><ele>55.0</ele><time>2026-04-11T09:43:51Z</time></trkpt><trkpt lat="44.45207768107027" lon="8.975470763522313"><ele>55.2</ele><time>2026-04-11T09:43:53Z</time></trkpt><trkpt lat="44.452018895634225" lon="8.975368209100173"><ele>55.4</ele><time>2026-04-11T09:43:55Z</time></trkpt><trkpt lat="44.451957363205146" lon="8.975263362496667"><ele>55.599999999999994</ele><time>2026-04-11T09:43:57Z</time></trkpt><trkpt lat="44.45189971326267" lon="8.97515211919314"><ele>55.8</ele><time>2026-04-11T09:43:59Z</time></trkpt><trkpt lat="44.451839397842555" lon="8.975032462439176"><ele>56.0</ele><time>2026-04-11T09:44:01Z</time></trkpt><trkpt lat="44.45179032570342" lon="8.974900103250944"><ele>56.0</ele><time>2026-04-11T09:44:03.001Z</time></trkpt><trkpt lat="44.45174025135953" lon="8.974769141535997"><ele>55.99999999999999</ele><time>2026-04-11T09:44:05.001Z</time></trkpt><trkpt lat="44.4516729980323" lon="8.974653191878582"><ele>55.99999999999999</ele><time>2026-04-11T09:44:07.001Z</time></trkpt><trkpt lat="44.45160961182265" lon="8.974549446687735"><ele>56.0</ele><time>2026-04-11T09:44:09.001Z</time></trkpt><trkpt lat="44.45154723279396" lon="8.97444110071359"><ele>56.0</ele><time>2026-04-11T09:44:11.001Z</time></trkpt><trkpt lat="44.451493984404685" lon="8.974328711718796"><ele>56.0</ele><time>2026-04-11T09:44:13.001Z</time></trkpt><trkpt lat="44.4514275663433" lon="8.974230447129695"><ele>55.99999999999999</ele><time>2026-04-11T09:44:15.001Z</time></trkpt><trkpt lat="44.45135441865993" lon="8.974139541933855"><ele>55.99999999999999</ele><time>2026-04-11T09:44:17.001Z</time></trkpt><trkpt lat="44.451292157176724" lon="8.974040669755322"><ele>56.0</ele><time>2026-04-11T09:44:19.001Z</time></trkpt><trkpt lat="44.451244801180366" lon="8.973918383539324"><ele>56.0</ele><time>2026-04-11T09:44:21.001Z</time></trkpt><trkpt lat="44.45119195781358" lon="8.973795046871812"><ele>55.599999999999994</ele><time>2026-04-11T09:44:23.001Z</time></trkpt><trkpt lat="44.45112567275345" lon="8.973684965678311"><ele>55.199999999999996</ele><time>2026-04-11T09:44:25.001Z</time></trkpt><trkpt lat="44.45104819394326" lon="8.97357549509266"><ele>54.800000000000004</ele><time>2026-04-11T09:44:27.001Z</time></trkpt><trkpt lat="44.45098594919654" lon="8.97345999123068"><ele>54.400000000000006</ele><time>2026-04-11T09:44:29.001Z</time></trkpt><trkpt lat="44.45092506520468" lon="8.973353966397072"><ele>54.0</ele><time>2026-04-11T09:44:31.002Z</time></trkpt><trkpt lat="44.450872033921854" lon="8.973250579515899"><ele>54.0</ele><time>2026-04-11T09:44:33.002Z</time></trkpt><trkpt lat="44.45082301325384" lon="8.973127600681165"><ele>54.00000000000001</ele><time>2026-04-11T09:44:35.002Z</time></trkpt><trkpt lat="44.45077083186461" lon="8.973004485581539"><ele>54.00000000000001</ele><time>2026-04-11T09:44:37.002Z</time></trkpt><trkpt lat="44.45071201351699" lon="8.972892570791542"><ele>54.0</ele><time>2026-04-11T09:44:39.002Z</time></trkpt><trkpt lat="44.45065238563988" lon="8.972774653015682"><ele>54.0</ele><time>2026-04-11T09:44:41.002Z</time></trkpt><trkpt lat="44.45059716825175" lon="8.972645115831387"><ele>54.0</ele><time>2026-04-11T09:44:43.002Z</time></trkpt><trkpt lat="44.450531187163634" lon="8.972536183865035"><ele>54.00000000000001</ele><time>2026-04-11T09:44:45.002Z</time></trkpt><trkpt lat="44.45044207670635" lon="8.972463069333717"><ele>54.00000000000001</ele><time>2026-04-11T09:44:47.002Z</time></trkpt><trkpt lat="44.45034846647387" lon="8.972389694438903"><ele>54.0</ele><time>2026-04-11T09:44:49.002Z</time></trkpt><trkpt lat="44.45025131101433" lon="8.972317692473931"><ele>54.0</ele><time>2026-04-11T09:44:51.002Z</time></trkpt><trkpt lat="44.450143884104044" lon="8.972284825879848"><ele>53.6</ele><time>2026-04-11T09:44:53.002Z</time></trkpt><trkpt lat="44.45006226620583" lon="8.972257013284208"><ele>53.2</ele><time>2026-04-11T09:44:55.002Z</time></trkpt><trkpt lat="44.450001381242615" lon="8.972227106518936"><ele>52.800000000000004</ele><time>2026-04-11T09:44:56.002Z</time></trkpt><trkpt lat="44.44989056558189" lon="8.972177676760904"><ele>52.400000000000006</ele><time>2026-04-11T09:44:58.002Z</time></trkpt><trkpt lat="44.44978321554373" lon="8.972152245034659"><ele>52.0</ele><time>2026-04-11T09:45:00.002Z</time></trkpt><trkpt lat="44.44968562718512" lon="8.972063717278058"><ele>51.2</ele><time>2026-04-11T09:45:02.002Z</time></trkpt><trkpt lat="44.44958471525911" lon="8.971998686594983"><ele>50.400000000000006</ele><time>2026-04-11T09:45:04.003Z</time></trkpt><trkpt lat="44.44949293796357" lon="8.971911940335938"><ele>49.599999999999994</ele><time>2026-04-11T09:45:06.003Z</time></trkpt><trkpt lat="44.44941249133293" lon="8.971806970419427"><ele>48.8</ele><time>2026-04-11T09:45:08.003Z</time></trkpt><trkpt lat="44.44933240294349" lon="8.971695579704633"><ele>48.0</ele><time>2026-04-11T09:45:10.003Z</time></trkpt><trkpt lat="44.449271515611656" lon="8.971565453400606"><ele>48.0</ele><time>2026-04-11T09:45:12.003Z</time></trkpt><trkpt lat="44.44922129240178" lon="8.971437312016988"><ele>48.0</ele><time>2026-04-11T09:45:14.003Z</time></trkpt><trkpt lat="44.44916047701685" lon="8.971303047906094"><ele>48.0</ele><time>2026-04-11T09:45:16.003Z</time></trkpt><trkpt lat="44.44910003010368" lon="8.971178192078002"><ele>48.0</ele><time>2026-04-11T09:45:18.003Z</time></trkpt><trkpt lat="44.449039677640485" lon="8.971059274299563"><ele>48.0</ele><time>2026-04-11T09:45:20.003Z</time></trkpt><trkpt lat="44.44897357693614" lon="8.970947993938664"><ele>48.0</ele><time>2026-04-11T09:45:22.003Z</time></trkpt><trkpt lat="44.44891605550025" lon="8.970822619369047"><ele>48.0</ele><time>2026-04-11T09:45:24.003Z</time></trkpt><trkpt lat="44.44885380916763" lon="8.970706556993354"><ele>48.0</ele><time>2026-04-11T09:45:26.003Z</time></trkpt><trkpt lat="44.44878878733207" lon="8.970596454399393"><ele>48.0</ele><time>2026-04-11T09:45:28.003Z</time></trkpt><trkpt lat="44.44872417459434" lon="8.970487462083847"><ele>48.0</ele><time>2026-04-11T09:45:30.003Z</time></trkpt><trkpt lat="44.44866137609129" lon="8.970373269258312"><ele>48.0</ele><time>2026-04-11T09:45:31.999Z</time></trkpt><trkpt lat="44.44859515627802" lon="8.97026866102862"><ele>48.0</ele><time>2026-04-11T09:45:33.999Z</time></trkpt><trkpt lat="44.44853013114944" lon="8.970159693179301"><ele>48.0</ele><time>2026-04-11T09:45:35.999Z</time></trkpt><trkpt lat="44.44851576408381" lon="8.970072546949858"><ele>48.0</ele><time>2026-04-11T09:45:36.999Z</time></trkpt><trkpt lat="44.44843516473951" lon="8.969994758735709"><ele>48.0</ele><time>2026-04-11T09:45:38.999Z</time></trkpt><trkpt lat="44.44836230423313" lon="8.969910042521173"><ele>49.2</ele><time>2026-04-11T09:45:40.999Z</time></trkpt><trkpt lat="44.448281766318196" lon="8.969813799126708"><ele>50.4</ele><time>2026-04-11T09:45:42.999Z</time></trkpt><trkpt lat="44.44820793064205" lon="8.969707584647775"><ele>51.60000000000001</ele><time>2026-04-11T09:45:44.999Z</time></trkpt><trkpt lat="44.44813962774394" lon="8.96961848782088"><ele>52.800000000000004</ele><time>2026-04-11T09:45:47Z</time></trkpt><trkpt lat="44.44806611657704" lon="8.969529999522436"><ele>54.0</ele><time>2026-04-11T09:45:49Z</time></trkpt><trkpt lat="44.44799731534493" lon="8.969430400235705"><ele>52.800000000000004</ele><time>2026-04-11T09:45:51Z</time></trkpt><trkpt lat="44.44793486651923" lon="8.969318239148944"><ele>51.60000000000001</ele><time>2026-04-11T09:45:53Z</time></trkpt><trkpt lat="44.447858640986425" lon="8.969216583051377"><ele>50.4</ele><time>2026-04-11T09:45:55Z</time></trkpt><trkpt lat="44.4477745491429" lon="8.969131213469332"><ele>49.2</ele><time>2026-04-11T09:45:57Z</time></trkpt><trkpt lat="44.44770654924077" lon="8.969026424159892"><ele>48.0</ele><time>2026-04-11T09:45:59Z</time></trkpt><trkpt lat="44.447640443279596" lon="8.968918537586218"><ele>47.8</ele><time>2026-04-11T09:46:01Z</time></trkpt><trkpt lat="44.44756879227273" lon="8.968820716881035"><ele>47.599999999999994</ele><time>2026-04-11T09:46:03Z</time></trkpt><trkpt lat="44.44750103740008" lon="8.968736294949581"><ele>47.400000000000006</ele><time>2026-04-11T09:46:05Z</time></trkpt><trkpt lat="44.447440354060255" lon="8.968627682159381"><ele>47.2</ele><time>2026-04-11T09:46:07Z</time></trkpt><trkpt lat="44.44738775753931" lon="8.968517977127474"><ele>47.0</ele><time>2026-04-11T09:46:09.001Z</time></trkpt><trkpt lat="44.44733917114957" lon="8.968412726383438"><ele>47.166666666666664</ele><time>2026-04-11T09:46:11.001Z</time></trkpt><trkpt lat="44.44728685026926" lon="8.968319815498338"><ele>47.33333333333333</ele><time>2026-04-11T09:46:13.001Z</time></trkpt><trkpt lat="44.44723287408957" lon="8.968247427518921"><ele>47.5</ele><time>2026-04-11T09:46:15.001Z</time></trkpt><trkpt lat="44.44720183396514" lon="8.968146988052606"><ele>47.666666666666664</ele><time>2026-04-11T09:46:17.001Z</time></trkpt><trkpt lat="44.44715509459568" lon="8.96806252104942"><ele>47.833333333333336</ele><time>2026-04-11T09:46:19.001Z</time></trkpt><trkpt lat="44.44713090246686" lon="8.967947521676344"><ele>48.0</ele><time>2026-04-11T09:46:21.001Z</time></trkpt><trkpt lat="44.44708296437822" lon="8.96785532220299"><ele>47.8</ele><time>2026-04-11T09:46:23.001Z</time></trkpt><trkpt lat="44.44701973850991" lon="8.967745444765107"><ele>47.599999999999994</ele><time>2026-04-11T09:46:25.001Z</time></trkpt><trkpt lat="44.44697277285032" lon="8.967627579039785"><ele>47.400000000000006</ele><time>2026-04-11T09:46:27.001Z</time></trkpt><trkpt lat="44.446910077601714" lon="8.96752365685963"><ele>47.2</ele><time>2026-04-11T09:46:29.001Z</time></trkpt><trkpt lat="44.446825322817354" lon="8.967415336773149"><ele>47.0</ele><time>2026-04-11T09:46:31.001Z</time></trkpt><trkpt lat="44.446740078321575" lon="8.967315850394918"><ele>47.0</ele><time>2026-04-11T09:46:33.001Z</time></trkpt><trkpt lat="44.44665177066641" lon="8.96721820547735"><ele>47.0</ele><time>2026-04-11T09:46:35.001Z</time></trkpt><trkpt lat="44.446570144818395" lon="8.967119383423848"><ele>47.0</ele><time>2026-04-11T09:46:37.001Z</time></trkpt><trkpt lat="44.446490175362236" lon="8.967021637758625"><ele>47.0</ele><time>2026-04-11T09:46:39.002Z</time></trkpt><trkpt lat="44.446408405208736" lon="8.966921862076154"><ele>47.0</ele><time>2026-04-11T09:46:41.002Z</time></trkpt><trkpt lat="44.446327486265" lon="8.966831139774138"><ele>47.2</ele><time>2026-04-11T09:46:43.002Z</time></trkpt><trkpt lat="44.44623914722063" lon="8.966736408386259"><ele>47.400000000000006</ele><time>2026-04-11T09:46:45.002Z</time></trkpt><trkpt lat="44.44614357523499" lon="8.966656368444623"><ele>47.599999999999994</ele><time>2026-04-11T09:46:47.002Z</time></trkpt><trkpt lat="44.4460522807695" lon="8.966562938537901"><ele>47.8</ele><time>2026-04-11T09:46:49.002Z</time></trkpt><trkpt lat="44.44595213889804" lon="8.966497949302441"><ele>48.0</ele><time>2026-04-11T09:46:51.002Z</time></trkpt><trkpt lat="44.445870973637064" lon="8.966410270510195"><ele>48.166666666666664</ele><time>2026-04-11T09:46:53.002Z</time></trkpt><trkpt lat="44.44579624937792" lon="8.9663553479401"><ele>48.33333333333333</ele><time>2026-04-11T09:46:55.002Z</time></trkpt><trkpt lat="44.44571934691497" lon="8.966312777208692"><ele>48.5</ele><time>2026-04-11T09:46:57.002Z</time></trkpt><trkpt lat="44.44565180155272" lon="8.966263253412679"><ele>48.666666666666664</ele><time>2026-04-11T09:46:59.002Z</time></trkpt><trkpt lat="44.445569626917894" lon="8.96622760868727"><ele>48.83333333333333</ele><time>2026-04-11T09:47:01.002Z</time></trkpt><trkpt lat="44.44549965115327" lon="8.966148265098997"><ele>49.0</ele><time>2026-04-11T09:47:03.002Z</time></trkpt><trkpt lat="44.44542600032925" lon="8.96607133418916"><ele>49.2</ele><time>2026-04-11T09:47:05.002Z</time></trkpt><trkpt lat="44.44534701279499" lon="8.96600089244282"><ele>49.400000000000006</ele><time>2026-04-11T09:47:07.002Z</time></trkpt><trkpt lat="44.44525447334655" lon="8.965942157882782"><ele>49.6</ele><time>2026-04-11T09:47:09.002Z</time></trkpt><trkpt lat="44.44517516316352" lon="8.965840452593945"><ele>49.8</ele><time>2026-04-11T09:47:11.003Z</time></trkpt><trkpt lat="44.44511229377855" lon="8.965745228522117"><ele>50.0</ele><time>2026-04-11T09:47:13.003Z</time></trkpt><trkpt lat="44.44504204426756" lon="8.965681669063319"><ele>50.00000000000001</ele><time>2026-04-11T09:47:15.003Z</time></trkpt><trkpt lat="44.44497101134568" lon="8.965604884174496"><ele>50.0</ele><time>2026-04-11T09:47:17.003Z</time></trkpt><trkpt lat="44.44489374574731" lon="8.965540379823898"><ele>50.0</ele><time>2026-04-11T09:47:19.003Z</time></trkpt><trkpt lat="44.444829815137275" lon="8.965472488279865"><ele>50.0</ele><time>2026-04-11T09:47:21.003Z</time></trkpt><trkpt lat="44.44475760112719" lon="8.965388658688811"><ele>50.00000000000001</ele><time>2026-04-11T09:47:23.003Z</time></trkpt><trkpt lat="44.44467907192194" lon="8.965338374689546"><ele>50.0</ele><time>2026-04-11T09:47:25.003Z</time></trkpt><trkpt lat="44.444574153139" lon="8.965363589062731"><ele>49.6</ele><time>2026-04-11T09:47:27.003Z</time></trkpt><trkpt lat="44.44451475130174" lon="8.965303276380238"><ele>49.2</ele><time>2026-04-11T09:47:29.003Z</time></trkpt><trkpt lat="44.44443911769538" lon="8.965212658262992"><ele>48.8</ele><time>2026-04-11T09:47:31.003Z</time></trkpt><trkpt lat="44.44434504164137" lon="8.965155550964145"><ele>48.4</ele><time>2026-04-11T09:47:34.003Z</time></trkpt><trkpt lat="44.444263932049196" lon="8.965072446596562"><ele>48.0</ele><time>2026-04-11T09:47:36.003Z</time></trkpt><trkpt lat="44.44419951999894" lon="8.964974067204093"><ele>48.0</ele><time>2026-04-11T09:47:38Z</time></trkpt><trkpt lat="44.44413452998933" lon="8.964869939296424"><ele>48.0</ele><time>2026-04-11T09:47:40Z</time></trkpt><trkpt lat="44.444074550612676" lon="8.964786425293664"><ele>48.0</ele><time>2026-04-11T09:47:42Z</time></trkpt><trkpt lat="44.44401086784339" lon="8.964692899129641"><ele>48.0</ele><time>2026-04-11T09:47:44Z</time></trkpt><trkpt lat="44.44396054708905" lon="8.964599100405529"><ele>48.0</ele><time>2026-04-11T09:47:46Z</time></trkpt><trkpt lat="44.44391045880356" lon="8.964514882330706"><ele>48.0</ele><time>2026-04-11T09:47:48Z</time></trkpt><trkpt lat="44.4438395567795" lon="8.964466715904363"><ele>47.833333333333336</ele><time>2026-04-11T09:47:50Z</time></trkpt><trkpt lat="44.443770541100875" lon="8.964391757032953"><ele>47.666666666666664</ele><time>2026-04-11T09:47:52Z</time></trkpt><trkpt lat="44.44370196463456" lon="8.964321518386765"><ele>47.5</ele><time>2026-04-11T09:47:54Z</time></trkpt><trkpt lat="44.443625820332485" lon="8.96424386294206"><ele>47.33333333333333</ele><time>2026-04-11T09:47:56Z</time></trkpt><trkpt lat="44.44356030551733" lon="8.964171294558282"><ele>47.166666666666664</ele><time>2026-04-11T09:47:58Z</time></trkpt><trkpt lat="44.44349284412133" lon="8.9640746236294"><ele>47.0</ele><time>2026-04-11T09:48:00Z</time></trkpt><trkpt lat="44.4433949388235" lon="8.964013538461478"><ele>47.0</ele><time>2026-04-11T09:48:02Z</time></trkpt><trkpt lat="44.44329647696342" lon="8.96397734924789"><ele>47.0</ele><time>2026-04-11T09:48:04Z</time></trkpt><trkpt lat="44.44321335321128" lon="8.963911862751477"><ele>47.0</ele><time>2026-04-11T09:48:06Z</time></trkpt><trkpt lat="44.44317107035947" lon="8.963843630459008"><ele>47.0</ele><time>2026-04-11T09:48:07Z</time></trkpt><trkpt lat="44.44306988423046" lon="8.96383435148335"><ele>47.0</ele><time>2026-04-11T09:48:09.001Z</time></trkpt><trkpt lat="44.44296783444032" lon="8.963888734208178"><ele>45.8</ele><time>2026-04-11T09:48:11.001Z</time></trkpt><trkpt lat="44.44283159042853" lon="8.96385889401221"><ele>44.6</ele><time>2026-04-11T09:48:13.001Z</time></trkpt><trkpt lat="44.44271606138676" lon="8.963824345917045"><ele>43.4</ele><time>2026-04-11T09:48:15.001Z</time></trkpt><trkpt lat="44.44262865039831" lon="8.963777088325358"><ele>42.199999999999996</ele><time>2026-04-11T09:48:17.001Z</time></trkpt><trkpt lat="44.442563105583055" lon="8.963765631565703"><ele>41.0</ele><time>2026-04-11T09:48:18.001Z</time></trkpt><trkpt lat="44.442461854446854" lon="8.963745943131125"><ele>41.0</ele><time>2026-04-11T09:48:20.001Z</time></trkpt><trkpt lat="44.442347505371494" lon="8.963739108545875"><ele>41.0</ele><time>2026-04-11T09:48:22.001Z</time></trkpt><trkpt lat="44.442233021434056" lon="8.963732324220365"><ele>41.0</ele><time>2026-04-11T09:48:24.001Z</time></trkpt><trkpt lat="44.44212049972679" lon="8.963687702280662"><ele>41.0</ele><time>2026-04-11T09:48:26.001Z</time></trkpt><trkpt lat="44.44201374660708" lon="8.963665141543629"><ele>40.4</ele><time>2026-04-11T09:48:28.001Z</time></trkpt><trkpt lat="44.44189036442851" lon="8.963661144762623"><ele>39.8</ele><time>2026-04-11T09:48:30.001Z</time></trkpt><trkpt lat="44.44182839980049" lon="8.963642383671768"><ele>39.199999999999996</ele><time>2026-04-11T09:48:31.001Z</time></trkpt><trkpt lat="44.441715228316134" lon="8.96363568543786"><ele>38.599999999999994</ele><time>2026-04-11T09:48:33.001Z</time></trkpt><trkpt lat="44.44160465796843" lon="8.963603566976602"><ele>38.0</ele><time>2026-04-11T09:48:35.001Z</time></trkpt><trkpt lat="44.44149506621643" lon="8.963582361484296"><ele>38.0</ele><time>2026-04-11T09:48:37.001Z</time></trkpt><trkpt lat="44.44140463501508" lon="8.963531621508466"><ele>38.0</ele><time>2026-04-11T09:48:39.001Z</time></trkpt><trkpt lat="44.441347554144635" lon="8.963475501649922"><ele>38.0</ele><time>2026-04-11T09:48:40.001Z</time></trkpt><trkpt lat="44.44125163186313" lon="8.963435140574989"><ele>38.0</ele><time>2026-04-11T09:48:42.002Z</time></trkpt><trkpt lat="44.44115010785356" lon="8.9633487110812"><ele>38.0</ele><time>2026-04-11T09:48:44.002Z</time></trkpt><trkpt lat="44.44104526856879" lon="8.96328923452403"><ele>39.2</ele><time>2026-04-11T09:48:46.002Z</time></trkpt><trkpt lat="44.44094713896516" lon="8.963244444122578"><ele>40.4</ele><time>2026-04-11T09:48:48.002Z</time></trkpt><trkpt lat="44.44084536356847" lon="8.96318646457297"><ele>41.6</ele><time>2026-04-11T09:48:50.002Z</time></trkpt><trkpt lat="44.44074481457585" lon="8.963143876135561"><ele>42.800000000000004</ele><time>2026-04-11T09:48:52.002Z</time></trkpt><trkpt lat="44.440646754418076" lon="8.963092455779224"><ele>44.0</ele><time>2026-04-11T09:48:54.002Z</time></trkpt><trkpt lat="44.44055088003868" lon="8.963033821147118"><ele>43.0</ele><time>2026-04-11T09:48:56.002Z</time></trkpt><trkpt lat="44.44044902063367" lon="8.962993093559827"><ele>42.0</ele><time>2026-04-11T09:48:58.002Z</time></trkpt><trkpt lat="44.44034740318159" lon="8.962938509218702"><ele>41.0</ele><time>2026-04-11T09:49:00.002Z</time></trkpt><trkpt lat="44.440242608617794" lon="8.962895495799483"><ele>40.0</ele><time>2026-04-11T09:49:02.002Z</time></trkpt><trkpt lat="44.44013774721041" lon="8.962849907561083"><ele>39.0</ele><time>2026-04-11T09:49:04.002Z</time></trkpt><trkpt lat="44.440029942374" lon="8.962801631173274"><ele>39.0</ele><time>2026-04-11T09:49:06.002Z</time></trkpt><trkpt lat="44.43992333834869" lon="8.96277199517024"><ele>39.0</ele><time>2026-04-11T09:49:08.002Z</time></trkpt><trkpt lat="44.439815389712884" lon="8.96273680749453"><ele>39.0</ele><time>2026-04-11T09:49:10.002Z</time></trkpt><trkpt lat="44.43970584459639" lon="8.962692219931514"><ele>39.0</ele><time>2026-04-11T09:49:12.002Z</time></trkpt><trkpt lat="44.43960250007437" lon="8.962656847970088"><ele>39.0</ele><time>2026-04-11T09:49:14.002Z</time></trkpt><trkpt lat="44.43949576491796" lon="8.962629964693715"><ele>38.8</ele><time>2026-04-11T09:49:16.002Z</time></trkpt><trkpt lat="44.439385020129" lon="8.962622606970235"><ele>38.599999999999994</ele><time>2026-04-11T09:49:18.003Z</time></trkpt><trkpt lat="44.439281873157256" lon="8.96257821550015"><ele>38.4</ele><time>2026-04-11T09:49:20.003Z</time></trkpt><trkpt lat="44.43917505953537" lon="8.962545779888686"><ele>38.199999999999996</ele><time>2026-04-11T09:49:22.003Z</time></trkpt><trkpt lat="44.43906481964043" lon="8.96251047626255"><ele>38.0</ele><time>2026-04-11T09:49:24.003Z</time></trkpt><trkpt lat="44.438964751456936" lon="8.96246109744803"><ele>38.199999999999996</ele><time>2026-04-11T09:49:26.003Z</time></trkpt><trkpt lat="44.43886101334193" lon="8.962435563561526"><ele>38.4</ele><time>2026-04-11T09:49:28.003Z</time></trkpt><trkpt lat="44.43875328078688" lon="8.962417273106286"><ele>38.599999999999994</ele><time>2026-04-11T09:49:30.003Z</time></trkpt><trkpt lat="44.438650865831505" lon="8.962397573386317"><ele>38.8</ele><time>2026-04-11T09:49:32.003Z</time></trkpt><trkpt lat="44.438545833365886" lon="8.962366721104589"><ele>39.0</ele><time>2026-04-11T09:49:34.003Z</time></trkpt><trkpt lat="44.43845048030534" lon="8.962332607662907"><ele>39.0</ele><time>2026-04-11T09:49:36.003Z</time></trkpt><trkpt lat="44.43834829558709" lon="8.962304220068592"><ele>39.0</ele><time>2026-04-11T09:49:38.003Z</time></trkpt><trkpt lat="44.438249751905325" lon="8.962277493455673"><ele>39.0</ele><time>2026-04-11T09:49:40.003Z</time></trkpt><trkpt lat="44.438156428917935" lon="8.96223684990737"><ele>39.0</ele><time>2026-04-11T09:49:42.003Z</time></trkpt><trkpt lat="44.43806262208022" lon="8.962190042169862"><ele>39.0</ele><time>2026-04-11T09:49:44Z</time></trkpt><trkpt lat="44.43796725821707" lon="8.962156810904517"><ele>37.8</ele><time>2026-04-11T09:49:46Z</time></trkpt><trkpt lat="44.43787169823193" lon="8.96212750715221"><ele>36.599999999999994</ele><time>2026-04-11T09:49:48Z</time></trkpt><trkpt lat="44.43777685178368" lon="8.962111914461534"><ele>35.4</ele><time>2026-04-11T09:49:50Z</time></trkpt><trkpt lat="44.437683569293675" lon="8.962070170021386"><ele>34.199999999999996</ele><time>2026-04-11T09:49:52Z</time></trkpt><trkpt lat="44.43759258592301" lon="8.96205070390601"><ele>33.0</ele><time>2026-04-11T09:49:54Z</time></trkpt><trkpt lat="44.4375028101104" lon="8.962034013199636"><ele>33.0</ele><time>2026-04-11T09:49:56Z</time></trkpt><trkpt lat="44.437405078837166" lon="8.962033265628087"><ele>33.0</ele><time>2026-04-11T09:49:58Z</time></trkpt><trkpt lat="44.437301121065786" lon="8.96202569675617"><ele>33.0</ele><time>2026-04-11T09:50:00Z</time></trkpt><trkpt lat="44.43719623445343" lon="8.962020350685648"><ele>33.0</ele><time>2026-04-11T09:50:02Z</time></trkpt><trkpt lat="44.437095595343955" lon="8.962012313559656"><ele>33.0</ele><time>2026-04-11T09:50:04Z</time></trkpt><trkpt lat="44.43699365730719" lon="8.962004616986267"><ele>32.8</ele><time>2026-04-11T09:50:06Z</time></trkpt><trkpt lat="44.43688709185446" lon="8.96198352765503"><ele>32.599999999999994</ele><time>2026-04-11T09:50:08Z</time></trkpt><trkpt lat="44.43677494446086" lon="8.961984140727917"><ele>32.400000000000006</ele><time>2026-04-11T09:50:10Z</time></trkpt><trkpt lat="44.43666662339923" lon="8.961973440718943"><ele>32.2</ele><time>2026-04-11T09:50:12.001Z</time></trkpt><trkpt lat="44.43655618555643" lon="8.961963967988977"><ele>32.0</ele><time>2026-04-11T09:50:14.001Z</time></trkpt><trkpt lat="44.436449825728616" lon="8.961947051448998"><ele>32.0</ele><time>2026-04-11T09:50:16.001Z</time></trkpt><trkpt lat="44.436337292716956" lon="8.961916427890587"><ele>32.0</ele><time>2026-04-11T09:50:18.001Z</time></trkpt><trkpt lat="44.436220433206394" lon="8.961921573342915"><ele>32.0</ele><time>2026-04-11T09:50:20.001Z</time></trkpt><trkpt lat="44.436114365056994" lon="8.961900947260203"><ele>32.0</ele><time>2026-04-11T09:50:22.001Z</time></trkpt><trkpt lat="44.43599684661914" lon="8.961895729239009"><ele>31.5</ele><time>2026-04-11T09:50:24.001Z</time></trkpt><trkpt lat="44.43587944508058" lon="8.961883971128492"><ele>31.0</ele><time>2026-04-11T09:50:26.001Z</time></trkpt><trkpt lat="44.43576117216279" lon="8.961854373139213"><ele>30.5</ele><time>2026-04-11T09:50:28.001Z</time></trkpt><trkpt lat="44.43564999491369" lon="8.961807012152779"><ele>30.0</ele><time>2026-04-11T09:50:30.001Z</time></trkpt><trkpt lat="44.43553505658222" lon="8.961776835281134"><ele>30.25</ele><time>2026-04-11T09:50:32.001Z</time></trkpt><trkpt lat="44.43542189676219" lon="8.961737287014449"><ele>30.5</ele><time>2026-04-11T09:50:34.001Z</time></trkpt><trkpt lat="44.43530905549076" lon="8.961680192335775"><ele>30.75</ele><time>2026-04-11T09:50:36.001Z</time></trkpt><trkpt lat="44.43519656998561" lon="8.961628910137826"><ele>31.0</ele><time>2026-04-11T09:50:38.001Z</time></trkpt><trkpt lat="44.43508912168486" lon="8.961565360536083"><ele>31.0</ele><time>2026-04-11T09:50:40.001Z</time></trkpt><trkpt lat="44.434984493691424" lon="8.961506846017977"><ele>31.0</ele><time>2026-04-11T09:50:42.001Z</time></trkpt><trkpt lat="44.43488288489273" lon="8.961439734134999"><ele>31.0</ele><time>2026-04-11T09:50:44.001Z</time></trkpt><trkpt lat="44.43478554195395" lon="8.96137079141915"><ele>31.0</ele><time>2026-04-11T09:50:46.001Z</time></trkpt><trkpt lat="44.43468654251256" lon="8.961287391528005"><ele>31.200000000000003</ele><time>2026-04-11T09:50:48.001Z</time></trkpt><trkpt lat="44.43458530667058" lon="8.961209643147905"><ele>31.400000000000002</ele><time>2026-04-11T09:50:50.001Z</time></trkpt><trkpt lat="44.43449271732659" lon="8.961117193360549"><ele>31.6</ele><time>2026-04-11T09:50:52.002Z</time></trkpt><trkpt lat="44.43439771185041" lon="8.961044997315442"><ele>31.8</ele><time>2026-04-11T09:50:54.002Z</time></trkpt><trkpt lat="44.434312214418185" lon="8.960948314280406"><ele>32.0</ele><time>2026-04-11T09:50:56.002Z</time></trkpt><trkpt lat="44.43423190145793" lon="8.960858936484193"><ele>32.0</ele><time>2026-04-11T09:50:58.002Z</time></trkpt><trkpt lat="44.434149232471526" lon="8.960775770526624"><ele>32.0</ele><time>2026-04-11T09:51:00.002Z</time></trkpt><trkpt lat="44.43405991520848" lon="8.960698554099139"><ele>32.0</ele><time>2026-04-11T09:51:02.002Z</time></trkpt><trkpt lat="44.43398606340726" lon="8.960610882993283"><ele>32.0</ele><time>2026-04-11T09:51:04.002Z</time></trkpt><trkpt lat="44.43390021144641" lon="8.960535528775802"><ele>32.0</ele><time>2026-04-11T09:51:06.002Z</time></trkpt><trkpt lat="44.43381656363472" lon="8.960439285901781"><ele>31.400000000000002</ele><time>2026-04-11T09:51:08.002Z</time></trkpt><trkpt lat="44.43373864522498" lon="8.960358614362383"><ele>30.800000000000004</ele><time>2026-04-11T09:51:10.002Z</time></trkpt><trkpt lat="44.43365917590863" lon="8.960268565378202"><ele>30.2</ele><time>2026-04-11T09:51:12.002Z</time></trkpt><trkpt lat="44.43357870274721" lon="8.960190892535074"><ele>29.6</ele><time>2026-04-11T09:51:14.002Z</time></trkpt><trkpt lat="44.433494805036055" lon="8.960105539458883"><ele>29.0</ele><time>2026-04-11T09:51:16.002Z</time></trkpt><trkpt lat="44.43341231436809" lon="8.960017818929234"><ele>30.2</ele><time>2026-04-11T09:51:18.002Z</time></trkpt><trkpt lat="44.43333104713887" lon="8.959932745533692"><ele>31.4</ele><time>2026-04-11T09:51:20.002Z</time></trkpt><trkpt lat="44.433244675999525" lon="8.9598631032694"><ele>32.6</ele><time>2026-04-11T09:51:22.002Z</time></trkpt><trkpt lat="44.43316115831328" lon="8.959771784970643"><ele>33.8</ele><time>2026-04-11T09:51:24.002Z</time></trkpt><trkpt lat="44.43308139916926" lon="8.959694446734511"><ele>35.0</ele><time>2026-04-11T09:51:26.002Z</time></trkpt><trkpt lat="44.433026078898834" lon="8.959588748137449"><ele>35.0</ele><time>2026-04-11T09:51:28.002Z</time></trkpt><trkpt lat="44.433089964363845" lon="8.959463373781206"><ele>35.0</ele><time>2026-04-11T09:51:30.002Z</time></trkpt><trkpt lat="44.433141104928765" lon="8.959376455811702"><ele>35.0</ele><time>2026-04-11T09:51:32.003Z</time></trkpt><trkpt lat="44.43308469968472" lon="8.959289846700445"><ele>35.0</ele><time>2026-04-11T09:51:37.003Z</time></trkpt><trkpt lat="44.433023478704726" lon="8.959242587389909"><ele>35.0</ele><time>2026-04-11T09:51:39.003Z</time></trkpt><trkpt lat="44.43296275439685" lon="8.95919206654816"><ele>35.0</ele><time>2026-04-11T09:51:41.003Z</time></trkpt><trkpt lat="44.432895542835865" lon="8.959165774577274"><ele>34.83333333333333</ele><time>2026-04-11T09:51:43.003Z</time></trkpt><trkpt lat="44.43284339163886" lon="8.959105186926209"><ele>34.666666666666664</ele><time>2026-04-11T09:51:45.003Z</time></trkpt><trkpt lat="44.43279910913444" lon="8.95902294852019"><ele>34.5</ele><time>2026-04-11T09:51:47.003Z</time></trkpt><trkpt lat="44.43274341051791" lon="8.95891349785936"><ele>34.333333333333336</ele><time>2026-04-11T09:51:50Z</time></trkpt><trkpt lat="44.43272063600745" lon="8.958816099509335"><ele>34.16666666666667</ele><time>2026-04-11T09:51:52Z</time></trkpt><trkpt lat="44.43266077904441" lon="8.958739486112052"><ele>34.0</ele><time>2026-04-11T09:51:54Z</time></trkpt><trkpt lat="44.43262347681787" lon="8.958647240354471"><ele>34.0</ele><time>2026-04-11T09:51:56Z</time></trkpt><trkpt lat="44.43259598111538" lon="8.958544949774035"><ele>34.0</ele><time>2026-04-11T09:51:58Z</time></trkpt><trkpt lat="44.43255965584064" lon="8.958449369440535"><ele>34.0</ele><time>2026-04-11T09:52:00Z</time></trkpt><trkpt lat="44.432536826105476" lon="8.958354413318098"><ele>34.0</ele><time>2026-04-11T09:52:02Z</time></trkpt><trkpt lat="44.43245319935349" lon="8.958299579034673"><ele>34.0</ele><time>2026-04-11T09:52:04Z</time></trkpt><trkpt lat="44.43240387232517" lon="8.958240792811868"><ele>34.0</ele><time>2026-04-11T09:52:06Z</time></trkpt><trkpt lat="44.43237227205312" lon="8.958154220422989"><ele>34.333333333333336</ele><time>2026-04-11T09:52:08Z</time></trkpt><trkpt lat="44.43231250496169" lon="8.958064398997637"><ele>34.66666666666667</ele><time>2026-04-11T09:52:11Z</time></trkpt><trkpt lat="44.43227997445776" lon="8.95798864520173"><ele>35.0</ele><time>2026-04-11T09:52:13Z</time></trkpt><trkpt lat="44.432221595018916" lon="8.957951583546924"><ele>35.333333333333336</ele><time>2026-04-11T09:52:15Z</time></trkpt><trkpt lat="44.43213361445802" lon="8.957915236824283"><ele>35.666666666666664</ele><time>2026-04-11T09:52:19Z</time></trkpt><trkpt lat="44.43207753894118" lon="8.957856261614422"><ele>36.0</ele><time>2026-04-11T09:52:21Z</time></trkpt><trkpt lat="44.43200363680256" lon="8.957808979222946"><ele>34.666666666666664</ele><time>2026-04-11T09:52:23.001Z</time></trkpt><trkpt lat="44.43192977362617" lon="8.957820286690326"><ele>33.333333333333336</ele><time>2026-04-11T09:52:25.001Z</time></trkpt><trkpt lat="44.431846167656296" lon="8.95784364954192"><ele>32.0</ele><time>2026-04-11T09:52:27.001Z</time></trkpt><trkpt lat="44.4317674697419" lon="8.957781497015867"><ele>30.666666666666668</ele><time>2026-04-11T09:52:29.001Z</time></trkpt><trkpt lat="44.43169240892744" lon="8.957725341571285"><ele>29.333333333333336</ele><time>2026-04-11T09:52:32.001Z</time></trkpt><trkpt lat="44.43161488600244" lon="8.95773455395377"><ele>28.0</ele><time>2026-04-11T09:52:34.001Z</time></trkpt><trkpt lat="44.43155165789143" lon="8.957668599948706"><ele>28.000000000000004</ele><time>2026-04-11T09:52:37.001Z</time></trkpt><trkpt lat="44.431476357368425" lon="8.957597624006848"><ele>28.0</ele><time>2026-04-11T09:52:41.001Z</time></trkpt><trkpt lat="44.43136982801291" lon="8.95756282796083"><ele>28.0</ele><time>2026-04-11T09:52:45.001Z</time></trkpt><trkpt lat="44.43130329154526" lon="8.957524772197074"><ele>28.0</ele><time>2026-04-11T09:52:47.001Z</time></trkpt><trkpt lat="44.43122843247778" lon="8.957526228656855"><ele>28.000000000000004</ele><time>2026-04-11T09:52:49.001Z</time></trkpt><trkpt lat="44.431143166463514" lon="8.95745768940335"><ele>28.0</ele><time>2026-04-11T09:52:51.001Z</time></trkpt><trkpt lat="44.43105093574532" lon="8.95741089841675"><ele>28.599999999999998</ele><time>2026-04-11T09:52:53.001Z</time></trkpt><trkpt lat="44.430956434959576" lon="8.957328933245499"><ele>29.199999999999996</ele><time>2026-04-11T09:52:55.001Z</time></trkpt><trkpt lat="44.43087780196417" lon="8.957271839514238"><ele>29.8</ele><time>2026-04-11T09:52:57.001Z</time></trkpt><trkpt lat="44.43080628175571" lon="8.957186437573482"><ele>30.4</ele><time>2026-04-11T09:52:59.001Z</time></trkpt><trkpt lat="44.43073842908556" lon="8.957113843340233"><ele>31.0</ele><time>2026-04-11T09:53:01.001Z</time></trkpt><trkpt lat="44.43072262236441" lon="8.956994374083346"><ele>31.0</ele><time>2026-04-11T09:53:03.001Z</time></trkpt><trkpt lat="44.430660253226186" lon="8.956906930441434"><ele>31.000000000000004</ele><time>2026-04-11T09:53:05.002Z</time></trkpt><trkpt lat="44.43061730403616" lon="8.956842159066284"><ele>31.0</ele><time>2026-04-11T09:53:07.002Z</time></trkpt><trkpt lat="44.43058067288977" lon="8.956715435951365"><ele>31.0</ele><time>2026-04-11T09:53:10.002Z</time></trkpt><trkpt lat="44.43055400382814" lon="8.956626333442793"><ele>31.000000000000004</ele><time>2026-04-11T09:53:12.002Z</time></trkpt><trkpt lat="44.430560929050465" lon="8.956538527413896"><ele>31.0</ele><time>2026-04-11T09:53:13.002Z</time></trkpt><trkpt lat="44.43053400862326" lon="8.956455766328515"><ele>31.0</ele><time>2026-04-11T09:53:15.002Z</time></trkpt><trkpt lat="44.43044131338101" lon="8.956448084917561"><ele>30.000000000000004</ele><time>2026-04-11T09:53:17.002Z</time></trkpt><trkpt lat="44.430402062244525" lon="8.956348004738139"><ele>29.0</ele><time>2026-04-11T09:53:20.002Z</time></trkpt><trkpt lat="44.43032876087107" lon="8.95633475019741"><ele>28.0</ele><time>2026-04-11T09:53:23.002Z</time></trkpt><trkpt lat="44.430237794674696" lon="8.956291430603963"><ele>27.0</ele><time>2026-04-11T09:53:26.002Z</time></trkpt><trkpt lat="44.4301963299425" lon="8.956201003687644"><ele>26.000000000000004</ele><time>2026-04-11T09:53:28.002Z</time></trkpt><trkpt lat="44.430136063180846" lon="8.95614354149255"><ele>25.0</ele><time>2026-04-11T09:53:30.002Z</time></trkpt><trkpt lat="44.43011561556394" lon="8.95602003257908"><ele>25.000000000000004</ele><time>2026-04-11T09:53:33.002Z</time></trkpt><trkpt lat="44.43007445539205" lon="8.95593952970486"><ele>25.0</ele><time>2026-04-11T09:53:34.002Z</time></trkpt><trkpt lat="44.43003628505613" lon="8.955831682083137"><ele>25.0</ele><time>2026-04-11T09:53:36.002Z</time></trkpt><trkpt lat="44.430000667204276" lon="8.955726383119867"><ele>25.0</ele><time>2026-04-11T09:53:38.002Z</time></trkpt><trkpt lat="44.429950240093845" lon="8.955617025130994"><ele>25.000000000000004</ele><time>2026-04-11T09:53:40.002Z</time></trkpt><trkpt lat="44.42990328561422" lon="8.955513925346597"><ele>25.0</ele><time>2026-04-11T09:53:42.002Z</time></trkpt><trkpt lat="44.4298644280555" lon="8.955415871238634"><ele>26.666666666666668</ele><time>2026-04-11T09:53:44.002Z</time></trkpt><trkpt lat="44.429828406512314" lon="8.955319777163075"><ele>28.333333333333336</ele><time>2026-04-11T09:53:46.003Z</time></trkpt><trkpt lat="44.42980346674845" lon="8.955212081576889"><ele>30.0</ele><time>2026-04-11T09:53:48.003Z</time></trkpt><trkpt lat="44.4297784806154" lon="8.955110245264185"><ele>31.666666666666664</ele><time>2026-04-11T09:53:50.003Z</time></trkpt><trkpt lat="44.429759000827524" lon="8.955010404075184"><ele>33.33333333333333</ele><time>2026-04-11T09:53:52.003Z</time></trkpt><trkpt lat="44.42974353553575" lon="8.954909570112386"><ele>35.0</ele><time>2026-04-11T09:53:54.003Z</time></trkpt><trkpt lat="44.42973199068949" lon="8.954808425717907"><ele>36.142857142857146</ele><time>2026-04-11T09:53:56Z</time></trkpt><trkpt lat="44.42971120113106" lon="8.954715794989196"><ele>37.285714285714285</ele><time>2026-04-11T09:53:58Z</time></trkpt><trkpt lat="44.4296948683432" lon="8.954618204982182"><ele>38.42857142857143</ele><time>2026-04-11T09:54:00Z</time></trkpt><trkpt lat="44.42966905260524" lon="8.954526179079672"><ele>39.57142857142857</ele><time>2026-04-11T09:54:02Z</time></trkpt><trkpt lat="44.429612608101" lon="8.954452430543801"><ele>40.714285714285715</ele><time>2026-04-11T09:54:04Z</time></trkpt><trkpt lat="44.42955565566504" lon="8.95439365581685"><ele>41.85714285714286</ele><time>2026-04-11T09:54:06Z</time></trkpt><trkpt lat="44.429498552035994" lon="8.954339624715159"><ele>43.0</ele><time>2026-04-11T09:54:08Z</time></trkpt><trkpt lat="44.42943865202877" lon="8.954297863157944"><ele>40.42857142857143</ele><time>2026-04-11T09:54:10Z</time></trkpt><trkpt lat="44.429388773774555" lon="8.954376243279635"><ele>37.85714285714286</ele><time>2026-04-11T09:54:12Z</time></trkpt><trkpt lat="44.42932384559373" lon="8.954372207882042"><ele>35.28571428571429</ele><time>2026-04-11T09:57:06.001Z</time></trkpt><trkpt lat="44.42926672599458" lon="8.954426193554282"><ele>32.714285714285715</ele><time>2026-04-11T09:57:10.001Z</time></trkpt><trkpt lat="44.42918668026638" lon="8.954461791408244"><ele>30.142857142857146</ele><time>2026-04-11T09:57:13.002Z</time></trkpt><trkpt lat="44.42912978299502" lon="8.954508795011636"><ele>27.571428571428573</ele><time>2026-04-11T09:57:16.002Z</time></trkpt><trkpt lat="44.429067467351096" lon="8.954474704483422"><ele>25.0</ele><time>2026-04-11T09:57:19.002Z</time></trkpt><trkpt lat="44.429023168779764" lon="8.95437722718288"><ele>25.000000000000004</ele><time>2026-04-11T09:57:22.002Z</time></trkpt><trkpt lat="44.42899875833609" lon="8.954254740423472"><ele>25.0</ele><time>2026-04-11T09:57:26.002Z</time></trkpt><trkpt lat="44.42898834089756" lon="8.954157298941528"><ele>25.0</ele><time>2026-04-11T09:57:28.002Z</time></trkpt><trkpt lat="44.4289638538118" lon="8.954071241053446"><ele>25.0</ele><time>2026-04-11T09:57:30.002Z</time></trkpt><trkpt lat="44.4289424986876" lon="8.953980641391915"><ele>25.0</ele><time>2026-04-11T09:57:32.002Z</time></trkpt><trkpt lat="44.42891892394704" lon="8.953891144934545"><ele>25.000000000000004</ele><time>2026-04-11T09:57:34.002Z</time></trkpt><trkpt lat="44.42891685676382" lon="8.95379201693952"><ele>25.0</ele><time>2026-04-11T09:57:36.002Z</time></trkpt><trkpt lat="44.428906630343306" lon="8.953693763214947"><ele>24.333333333333336</ele><time>2026-04-11T09:57:38.002Z</time></trkpt><trkpt lat="44.42889131509038" lon="8.953588698521937"><ele>23.666666666666668</ele><time>2026-04-11T09:57:40.002Z</time></trkpt><trkpt lat="44.42886430065115" lon="8.953486471949738"><ele>23.0</ele><time>2026-04-11T09:57:42.002Z</time></trkpt><trkpt lat="44.42883970310324" lon="8.9533827934495"><ele>22.333333333333336</ele><time>2026-04-11T09:57:44.002Z</time></trkpt><trkpt lat="44.42880834967059" lon="8.953285832525804"><ele>21.666666666666668</ele><time>2026-04-11T09:57:46.002Z</time></trkpt><trkpt lat="44.428773809532416" lon="8.9532004423145"><ele>21.0</ele><time>2026-04-11T09:57:48.002Z</time></trkpt><trkpt lat="44.4287258549308" lon="8.953119088530752"><ele>21.0</ele><time>2026-04-11T09:57:50.002Z</time></trkpt><trkpt lat="44.42867042665801" lon="8.953050498562568"><ele>21.0</ele><time>2026-04-11T09:57:52.002Z</time></trkpt><trkpt lat="44.428621753714054" lon="8.952958714759303"><ele>21.0</ele><time>2026-04-11T09:57:54.002Z</time></trkpt><trkpt lat="44.42858757485569" lon="8.952858730093979"><ele>21.0</ele><time>2026-04-11T09:57:56.003Z</time></trkpt><trkpt lat="44.42857633182962" lon="8.95274754725287"><ele>21.0</ele><time>2026-04-11T09:57:58.003Z</time></trkpt><trkpt lat="44.42856081190851" lon="8.952629575408718"><ele>21.0</ele><time>2026-04-11T09:58:00.003Z</time></trkpt><trkpt lat="44.42855118831951" lon="8.95250070321296"><ele>21.200000000000003</ele><time>2026-04-11T09:58:02.003Z</time></trkpt><trkpt lat="44.428533393796556" lon="8.95237790736184"><ele>21.400000000000002</ele><time>2026-04-11T09:58:04.003Z</time></trkpt><trkpt lat="44.42851420623915" lon="8.952255391830665"><ele>21.6</ele><time>2026-04-11T09:58:06.003Z</time></trkpt><trkpt lat="44.42848429465575" lon="8.95213908326484"><ele>21.8</ele><time>2026-04-11T09:58:08.001Z</time></trkpt><trkpt lat="44.42845287444608" lon="8.952016598910536"><ele>22.0</ele><time>2026-04-11T09:58:10.001Z</time></trkpt><trkpt lat="44.4284133867898" lon="8.951896713912529"><ele>22.0</ele><time>2026-04-11T09:58:12.001Z</time></trkpt><trkpt lat="44.42837454306857" lon="8.95178390012927"><ele>22.0</ele><time>2026-04-11T09:58:14.001Z</time></trkpt><trkpt lat="44.42833599285079" lon="8.951686797191881"><ele>22.0</ele><time>2026-04-11T09:58:16.001Z</time></trkpt><trkpt lat="44.428299955095945" lon="8.951600335655078"><ele>22.0</ele><time>2026-04-11T09:58:18.001Z</time></trkpt><trkpt lat="44.42826290523751" lon="8.951507016394915"><ele>22.0</ele><time>2026-04-11T09:58:20Z</time></trkpt><trkpt lat="44.428240386478876" lon="8.951401965513783"><ele>22.0</ele><time>2026-04-11T09:58:22Z</time></trkpt><trkpt lat="44.42822144288387" lon="8.951295093426003"><ele>22.666666666666664</ele><time>2026-04-11T09:58:24Z</time></trkpt><trkpt lat="44.42818756613336" lon="8.951188276469058"><ele>23.333333333333332</ele><time>2026-04-11T09:58:26Z</time></trkpt><trkpt lat="44.428158515203535" lon="8.951092747441487"><ele>24.0</ele><time>2026-04-11T09:58:28.001Z</time></trkpt><trkpt lat="44.428138468012335" lon="8.95100382160832"><ele>24.666666666666664</ele><time>2026-04-11T09:58:30.001Z</time></trkpt><trkpt lat="44.428149143559615" lon="8.950899192419241"><ele>25.333333333333332</ele><time>2026-04-11T09:58:32.001Z</time></trkpt><trkpt lat="44.4281498878265" lon="8.950775536269528"><ele>26.0</ele><time>2026-04-11T09:58:34.001Z</time></trkpt><trkpt lat="44.42812178131721" lon="8.950665457132404"><ele>26.166666666666664</ele><time>2026-04-11T09:58:36.001Z</time></trkpt><trkpt lat="44.42808455972962" lon="8.950561543915889"><ele>26.333333333333332</ele><time>2026-04-11T09:58:38.001Z</time></trkpt><trkpt lat="44.42807144429829" lon="8.950448184498246"><ele>26.5</ele><time>2026-04-11T09:58:40.001Z</time></trkpt><trkpt lat="44.42805553622308" lon="8.950353736850689"><ele>26.666666666666664</ele><time>2026-04-11T09:58:43.001Z</time></trkpt><trkpt lat="44.428009310307125" lon="8.95025426153306"><ele>26.833333333333332</ele><time>2026-04-11T09:58:47.001Z</time></trkpt><trkpt lat="44.42799583428482" lon="8.95016263216611"><ele>27.0</ele><time>2026-04-11T09:58:49.001Z</time></trkpt><trkpt lat="44.42800640520124" lon="8.950036907413564"><ele>27.166666666666668</ele><time>2026-04-11T09:58:52.001Z</time></trkpt><trkpt lat="44.42803046353944" lon="8.949943583498854"><ele>27.333333333333336</ele><time>2026-04-11T09:59:02.001Z</time></trkpt><trkpt lat="44.4279985636323" lon="8.949820799964003"><ele>27.5</ele><time>2026-04-11T09:59:06.001Z</time></trkpt><trkpt lat="44.427970997096665" lon="8.949695069699553"><ele>27.666666666666668</ele><time>2026-04-11T09:59:09.001Z</time></trkpt><trkpt lat="44.42793035920557" lon="8.94961843345006"><ele>27.833333333333336</ele><time>2026-04-11T09:59:12.001Z</time></trkpt><trkpt lat="44.427870576780855" lon="8.949554362837057"><ele>28.0</ele><time>2026-04-11T09:59:15.001Z</time></trkpt><trkpt lat="44.42793198771304" lon="8.949483604334668"><ele>28.000000000000004</ele><time>2026-04-11T09:59:18.001Z</time></trkpt><trkpt lat="44.42801314477296" lon="8.949455201941625"><ele>28.0</ele><time>2026-04-11T09:59:20.001Z</time></trkpt><trkpt lat="44.4280744147846" lon="8.949394351292513"><ele>28.0</ele><time>2026-04-11T09:59:22.002Z</time></trkpt><trkpt lat="44.42811051791317" lon="8.949289320685951"><ele>28.0</ele><time>2026-04-11T09:59:25.002Z</time></trkpt><trkpt lat="44.4280617652793" lon="8.949185876699445"><ele>28.000000000000004</ele><time>2026-04-11T09:59:27.002Z</time></trkpt><trkpt lat="44.42804346841484" lon="8.949053023679985"><ele>28.0</ele><time>2026-04-11T09:59:29.002Z</time></trkpt><trkpt lat="44.42806085374295" lon="8.948956984329207"><ele>27.714285714285715</ele><time>2026-04-11T09:59:33.002Z</time></trkpt><trkpt lat="44.42803117847849" lon="8.948852996144957"><ele>27.42857142857143</ele><time>2026-04-11T09:59:36.002Z</time></trkpt><trkpt lat="44.428013999211814" lon="8.94876337722815"><ele>27.142857142857142</ele><time>2026-04-11T09:59:38.002Z</time></trkpt><trkpt lat="44.42799347998476" lon="8.948670660833223"><ele>26.857142857142858</ele><time>2026-04-11T09:59:40.002Z</time></trkpt><trkpt lat="44.42796459152165" lon="8.948589783559562"><ele>26.571428571428573</ele><time>2026-04-11T09:59:42.002Z</time></trkpt><trkpt lat="44.4279151903026" lon="8.948497204464228"><ele>26.285714285714285</ele><time>2026-04-11T09:59:45.002Z</time></trkpt><trkpt lat="44.42788680559078" lon="8.948403668322113"><ele>26.0</ele><time>2026-04-11T09:59:47.002Z</time></trkpt><trkpt lat="44.427859664251265" lon="8.948309672619624"><ele>25.666666666666664</ele><time>2026-04-11T09:59:50.002Z</time></trkpt><trkpt lat="44.42780918335036" lon="8.948220523146484"><ele>25.333333333333332</ele><time>2026-04-11T09:59:53.002Z</time></trkpt><trkpt lat="44.4277678571177" lon="8.948122137689538"><ele>25.0</ele><time>2026-04-11T09:59:56.002Z</time></trkpt><trkpt lat="44.4277286764342" lon="8.948045795715649"><ele>24.666666666666664</ele><time>2026-04-11T09:59:58.002Z</time></trkpt><trkpt lat="44.42766466422971" lon="8.947955128329765"><ele>24.333333333333332</ele><time>2026-04-11T10:00:01.002Z</time></trkpt><trkpt lat="44.42762577122501" lon="8.94788357597536"><ele>24.0</ele><time>2026-04-11T10:00:03.002Z</time></trkpt><trkpt lat="44.4275909131001" lon="8.947793126061734"><ele>24.0</ele><time>2026-04-11T10:00:06.002Z</time></trkpt><trkpt lat="44.42751444651057" lon="8.947754584006862"><ele>24.0</ele><time>2026-04-11T10:00:09.003Z</time></trkpt><trkpt lat="44.42741983366278" lon="8.94771378237915"><ele>24.0</ele><time>2026-04-11T10:00:11.003Z</time></trkpt><trkpt lat="44.42735504817337" lon="8.947828980697675"><ele>24.0</ele><time>2026-04-11T10:00:13.003Z</time></trkpt><trkpt lat="44.4272706732827" lon="8.947740779762107"><ele>24.0</ele><time>2026-04-11T10:00:16Z</time></trkpt><trkpt lat="44.42718644196422" lon="8.947709968734506"><ele>23.6</ele><time>2026-04-11T10:00:18Z</time></trkpt><trkpt lat="44.42710191217393" lon="8.947663508996895"><ele>23.2</ele><time>2026-04-11T10:00:20Z</time></trkpt><trkpt lat="44.42699099685104" lon="8.947667117218842"><ele>22.8</ele><time>2026-04-11T10:00:22Z</time></trkpt><trkpt lat="44.42689835587563" lon="8.947636775888101"><ele>22.400000000000002</ele><time>2026-04-11T10:00:24Z</time></trkpt><trkpt lat="44.42680760229919" lon="8.947602216606816"><ele>22.0</ele><time>2026-04-11T10:00:26Z</time></trkpt><trkpt lat="44.42672534721293" lon="8.947581014812044"><ele>22.0</ele><time>2026-04-11T10:00:28Z</time></trkpt><trkpt lat="44.426643707081986" lon="8.947574051468743"><ele>22.0</ele><time>2026-04-11T10:00:30Z</time></trkpt><trkpt lat="44.42656420567012" lon="8.947566451310413"><ele>22.0</ele><time>2026-04-11T10:00:32Z</time></trkpt><trkpt lat="44.42648474375837" lon="8.947549953978402"><ele>22.0</ele><time>2026-04-11T10:00:34Z</time></trkpt><trkpt lat="44.4263940285927" lon="8.94755996889747"><ele>22.0</ele><time>2026-04-11T10:00:36Z</time></trkpt><trkpt lat="44.42629518237339" lon="8.947557895722934"><ele>22.0</ele><time>2026-04-11T10:00:38Z</time></trkpt><trkpt lat="44.42619915140439" lon="8.94755054533922"><ele>22.6</ele><time>2026-04-11T10:00:40Z</time></trkpt><trkpt lat="44.42608911533485" lon="8.947546321554547"><ele>23.200000000000003</ele><time>2026-04-11T10:00:42Z</time></trkpt><trkpt lat="44.425978249093546" lon="8.94753490352799"><ele>23.8</ele><time>2026-04-11T10:00:44Z</time></trkpt><trkpt lat="44.42585467640799" lon="8.947548282628992"><ele>24.4</ele><time>2026-04-11T10:00:46.001Z</time></trkpt><trkpt lat="44.42575235605957" lon="8.947524473874042"><ele>25.0</ele><time>2026-04-11T10:00:48.001Z</time></trkpt><trkpt lat="44.425658849964066" lon="8.947435539007143"><ele>25.000000000000004</ele><time>2026-04-11T10:00:50.001Z</time></trkpt><trkpt lat="44.42554652901333" lon="8.947390540061082"><ele>25.0</ele><time>2026-04-11T10:00:52.001Z</time></trkpt><trkpt lat="44.42544586676741" lon="8.947377981722514"><ele>25.0</ele><time>2026-04-11T10:00:54.001Z</time></trkpt><trkpt lat="44.4253644693759" lon="8.947334815927263"><ele>25.0</ele><time>2026-04-11T10:00:56.001Z</time></trkpt><trkpt lat="44.42529366303554" lon="8.947297788702656"><ele>25.000000000000004</ele><time>2026-04-11T10:00:58.001Z</time></trkpt><trkpt lat="44.42523169098417" lon="8.947315280594752"><ele>25.0</ele><time>2026-04-11T10:01:00.001Z</time></trkpt><trkpt lat="44.4251542802313" lon="8.947310419078644"><ele>25.0</ele><time>2026-04-11T10:01:02.001Z</time></trkpt><trkpt lat="44.42506888976775" lon="8.947287739834335"><ele>25.0</ele><time>2026-04-11T10:01:04.001Z</time></trkpt><trkpt lat="44.42497004198853" lon="8.94726671253632"><ele>25.0</ele><time>2026-04-11T10:01:06.001Z</time></trkpt><trkpt lat="44.4248692261521" lon="8.947251015795674"><ele>25.0</ele><time>2026-04-11T10:01:08.001Z</time></trkpt><trkpt lat="44.424763061315346" lon="8.947239776348422"><ele>25.0</ele><time>2026-04-11T10:01:10.001Z</time></trkpt><trkpt lat="44.42465745863706" lon="8.947194355226639"><ele>24.2</ele><time>2026-04-11T10:01:12.001Z</time></trkpt><trkpt lat="44.4245462710353" lon="8.947193419738255"><ele>23.4</ele><time>2026-04-11T10:01:14.001Z</time></trkpt><trkpt lat="44.42443407243078" lon="8.947178205744104"><ele>22.6</ele><time>2026-04-11T10:01:16.001Z</time></trkpt><trkpt lat="44.4243238671348" lon="8.947163390729518"><ele>21.8</ele><time>2026-04-11T10:01:18.001Z</time></trkpt><trkpt lat="44.424220423158914" lon="8.947125767022499"><ele>21.0</ele><time>2026-04-11T10:01:20.001Z</time></trkpt><trkpt lat="44.42411275005776" lon="8.947115455406669"><ele>21.0</ele><time>2026-04-11T10:01:22.001Z</time></trkpt><trkpt lat="44.42401653202982" lon="8.947083854453064"><ele>21.0</ele><time>2026-04-11T10:01:24.001Z</time></trkpt><trkpt lat="44.42389991679626" lon="8.947105857724004"><ele>21.0</ele><time>2026-04-11T10:01:26.001Z</time></trkpt><trkpt lat="44.42378187583817" lon="8.947101063208802"><ele>21.0</ele><time>2026-04-11T10:01:28.001Z</time></trkpt><trkpt lat="44.42366865666367" lon="8.947079568165083"><ele>21.0</ele><time>2026-04-11T10:01:30.001Z</time></trkpt><trkpt lat="44.42355831844202" lon="8.94706263106619"><ele>20.2</ele><time>2026-04-11T10:01:32.001Z</time></trkpt><trkpt lat="44.423447436353676" lon="8.94702563295365"><ele>19.400000000000002</ele><time>2026-04-11T10:01:34.001Z</time></trkpt><trkpt lat="44.42334219734462" lon="8.947010966737635"><ele>18.6</ele><time>2026-04-11T10:01:36.002Z</time></trkpt><trkpt lat="44.42323723622355" lon="8.946986516648598"><ele>17.8</ele><time>2026-04-11T10:01:38.002Z</time></trkpt><trkpt lat="44.4231685228055" lon="8.946981829953401"><ele>17.0</ele><time>2026-04-11T10:01:41.002Z</time></trkpt><trkpt lat="44.42309440733629" lon="8.94699999058962"><ele>16.999999999999996</ele><time>2026-04-11T10:01:44.002Z</time></trkpt><trkpt lat="44.42303571632886" lon="8.946966295332903"><ele>17.0</ele><time>2026-04-11T10:01:46.002Z</time></trkpt><trkpt lat="44.422966391218004" lon="8.946931957883717"><ele>17.0</ele><time>2026-04-11T10:02:26Z</time></trkpt><trkpt lat="44.42289415115373" lon="8.946943717454738"><ele>17.0</ele><time>2026-04-11T10:02:28Z</time></trkpt><trkpt lat="44.42282452039178" lon="8.946951188768745"><ele>17.0</ele><time>2026-04-11T10:02:30Z</time></trkpt><trkpt lat="44.42274659919898" lon="8.946953262782944"><ele>16.999999999999996</ele><time>2026-04-11T10:02:32Z</time></trkpt><trkpt lat="44.42265678458169" lon="8.946952661256098"><ele>17.0</ele><time>2026-04-11T10:02:34Z</time></trkpt><trkpt lat="44.422566145546" lon="8.946954478584168"><ele>16.666666666666668</ele><time>2026-04-11T10:02:36Z</time></trkpt><trkpt lat="44.42247956439419" lon="8.946938973688097"><ele>16.333333333333336</ele><time>2026-04-11T10:02:38Z</time></trkpt><trkpt lat="44.42238989632298" lon="8.946923173013175"><ele>16.0</ele><time>2026-04-11T10:02:40Z</time></trkpt><trkpt lat="44.42230052452857" lon="8.946930710385265"><ele>15.666666666666668</ele><time>2026-04-11T10:02:42Z</time></trkpt><trkpt lat="44.422213703613195" lon="8.946908253516135"><ele>15.333333333333334</ele><time>2026-04-11T10:02:44Z</time></trkpt><trkpt lat="44.42212986081309" lon="8.946887521680505"><ele>15.0</ele><time>2026-04-11T10:02:46Z</time></trkpt><trkpt lat="44.42204451820375" lon="8.946869360000786"><ele>14.833333333333334</ele><time>2026-04-11T10:02:48Z</time></trkpt><trkpt lat="44.42195615073792" lon="8.94685340183599"><ele>14.666666666666668</ele><time>2026-04-11T10:02:50Z</time></trkpt><trkpt lat="44.42186528880383" lon="8.946853107945708"><ele>14.5</ele><time>2026-04-11T10:02:52Z</time></trkpt><trkpt lat="44.42177310845914" lon="8.946849586040583"><ele>14.333333333333334</ele><time>2026-04-11T10:02:54Z</time></trkpt><trkpt lat="44.42168584551353" lon="8.946835035675127"><ele>14.166666666666668</ele><time>2026-04-11T10:02:56Z</time></trkpt><trkpt lat="44.42159957435678" lon="8.946824989456163"><ele>14.0</ele><time>2026-04-11T10:02:58Z</time></trkpt><trkpt lat="44.42151004247299" lon="8.946810756365881"><ele>14.000000000000002</ele><time>2026-04-11T10:03:00Z</time></trkpt><trkpt lat="44.42142810743686" lon="8.946809272620879"><ele>14.0</ele><time>2026-04-11T10:03:02.001Z</time></trkpt><trkpt lat="44.42133943106727" lon="8.94677030135526"><ele>14.0</ele><time>2026-04-11T10:03:04.001Z</time></trkpt><trkpt lat="44.421250767234405" lon="8.946766982978874"><ele>14.0</ele><time>2026-04-11T10:03:06.001Z</time></trkpt><trkpt lat="44.42115771062373" lon="8.946773241615745"><ele>14.000000000000002</ele><time>2026-04-11T10:03:08.001Z</time></trkpt><trkpt lat="44.42106890909234" lon="8.946778071862163"><ele>14.0</ele><time>2026-04-11T10:03:10.001Z</time></trkpt><trkpt lat="44.42099657929297" lon="8.946784068065922"><ele>14.0</ele><time>2026-04-11T10:03:12.001Z</time></trkpt><trkpt lat="44.420923269491084" lon="8.946795314382657"><ele>14.0</ele><time>2026-04-11T10:03:14.001Z</time></trkpt><trkpt lat="44.420856378056484" lon="8.946804885629568"><ele>14.0</ele><time>2026-04-11T10:03:16.001Z</time></trkpt><trkpt lat="44.42077794821064" lon="8.946812572799347"><ele>14.0</ele><time>2026-04-11T10:03:18.001Z</time></trkpt><trkpt lat="44.42070496283827" lon="8.94684051844222"><ele>14.0</ele><time>2026-04-11T10:03:20.001Z</time></trkpt><trkpt lat="44.4206401870745" lon="8.94684779645599"><ele>14.0</ele><time>2026-04-11T10:03:22.001Z</time></trkpt><trkpt lat="44.420571242421616" lon="8.946874540584073"><ele>14.0</ele><time>2026-04-11T10:03:25.001Z</time></trkpt><trkpt lat="44.42055947546196" lon="8.946751657179384"><ele>14.0</ele><time>2026-04-11T10:04:10.002Z</time></trkpt><trkpt lat="44.42054662827818" lon="8.946944082920036"><ele>14.0</ele><time>2026-04-11T10:04:27Z</time></trkpt><trkpt lat="44.42060813145779" lon="8.94686382723313"><ele>14.0</ele><time>2026-04-11T10:04:32Z</time></trkpt><trkpt lat="44.42059904872981" lon="8.94675014194023"><ele>14.0</ele><time>2026-04-11T10:04:37Z</time></trkpt><trkpt lat="44.420661054802395" lon="8.94652635984455"><ele>14.0</ele><time>2026-04-11T10:09:10.469Z</time></trkpt><trkpt lat="44.42064544610299" lon="8.946795674404301"><ele>14.0</ele><time>2026-04-11T10:09:23.781Z</time></trkpt><trkpt lat="44.420623512232126" lon="8.946709118077386"><ele>14.0</ele><time>2026-04-11T10:09:25.006Z</time></trkpt><trkpt lat="44.42068670671158" lon="8.946567498233483"><ele>14.0</ele><time>2026-04-11T10:11:35.002Z</time></trkpt><trkpt lat="44.42073132744713" lon="8.946648251784303"><ele>21.0</ele><time>2026-04-11T10:11:46.001Z</time></trkpt><trkpt lat="44.42058904468103" lon="8.946732856099969"><ele>14.0</ele><time>2026-04-11T10:12:16.001Z</time></trkpt></trkseg></trk></gpx>